<?xml version="1.0" encoding="UTF-8" standalone="no" ?>
<gpx xmlns="http://www.topografix.com/GPX/1/1" xmlns:xsi="http://www.w3.org/2001/XMLSchema-instance" xsi:schemaLocation="http://www.topografix.com/GPX/1/1 http://www.topografix.com/GPX/1/1/gpx.xsd" version="1.1" creator="VisuGPX - https://www.visugpx.com">
  <metadata>
    <name>Pornichet 25/03/2021</name>
    <desc><![CDATA[Sortie VTT du jeudi 25 mars 2021]]></desc>
  </metadata>
  <trk>
    <name><![CDATA[Pornichet Cyclisme]]></name>
    <trkseg>
      <trkpt lat="47.26348" lon="-2.31575">
        <ele>7.5</ele>
        <time>2021-03-25T08:13:45.000Z</time>
      </trkpt>
      <trkpt lat="47.26351" lon="-2.31592">
        <ele>7.6</ele>
        <time>2021-03-25T08:13:48.000Z</time>
      </trkpt>
      <trkpt lat="47.26352" lon="-2.31597">
        <ele>0.60000002384186</ele>
        <time>2021-03-25T08:13:49.000Z</time>
      </trkpt>
      <trkpt lat="47.26354" lon="-2.3162">
        <ele>0.60000002384186</ele>
        <time>2021-03-25T08:13:53.000Z</time>
      </trkpt>
      <trkpt lat="47.26358" lon="-2.31669">
        <ele>0.60000002384186</ele>
        <time>2021-03-25T08:14:00.000Z</time>
      </trkpt>
      <trkpt lat="47.26358" lon="-2.31675">
        <ele>0.60000002384186</ele>
        <time>2021-03-25T08:14:01.000Z</time>
      </trkpt>
      <trkpt lat="47.26353" lon="-2.3168">
        <ele>0.60000002384186</ele>
        <time>2021-03-25T08:14:03.000Z</time>
      </trkpt>
      <trkpt lat="47.2634" lon="-2.31691">
        <ele>0.60000002384186</ele>
        <time>2021-03-25T08:14:07.000Z</time>
      </trkpt>
      <trkpt lat="47.26332" lon="-2.31696">
        <ele>0.60000002384186</ele>
        <time>2021-03-25T08:14:09.000Z</time>
      </trkpt>
      <trkpt lat="47.26324" lon="-2.31702">
        <ele>0.60000002384186</ele>
        <time>2021-03-25T08:14:11.000Z</time>
      </trkpt>
      <trkpt lat="47.2631" lon="-2.31711">
        <ele>0.60000002384186</ele>
        <time>2021-03-25T08:14:14.000Z</time>
      </trkpt>
      <trkpt lat="47.26306" lon="-2.31714">
        <ele>0.20000000298023</ele>
        <time>2021-03-25T08:14:15.000Z</time>
      </trkpt>
      <trkpt lat="47.26301" lon="-2.31717">
        <ele>-0.20000000298023</ele>
        <time>2021-03-25T08:14:16.000Z</time>
      </trkpt>
      <trkpt lat="47.26297" lon="-2.3172">
        <ele>-0.60000002384186</ele>
        <time>2021-03-25T08:14:17.000Z</time>
      </trkpt>
      <trkpt lat="47.26292" lon="-2.31722">
        <ele>-1</ele>
        <time>2021-03-25T08:14:18.000Z</time>
      </trkpt>
      <trkpt lat="47.26287" lon="-2.31725">
        <ele>-1.3999999761581</ele>
        <time>2021-03-25T08:14:19.000Z</time>
      </trkpt>
      <trkpt lat="47.26268" lon="-2.31737">
        <ele>-1.3999999761581</ele>
        <time>2021-03-25T08:14:23.000Z</time>
      </trkpt>
      <trkpt lat="47.26261" lon="-2.31746">
        <ele>-1.7999999523163</ele>
        <time>2021-03-25T08:14:25.000Z</time>
      </trkpt>
      <trkpt lat="47.2626" lon="-2.31753">
        <ele>-2.2000000476837</ele>
        <time>2021-03-25T08:14:26.000Z</time>
      </trkpt>
      <trkpt lat="47.26259" lon="-2.31759">
        <ele>-2.5999999046326</ele>
        <time>2021-03-25T08:14:27.000Z</time>
      </trkpt>
      <trkpt lat="47.2626" lon="-2.31766">
        <ele>-3</ele>
        <time>2021-03-25T08:14:28.000Z</time>
      </trkpt>
      <trkpt lat="47.26261" lon="-2.31772">
        <ele>-3.5999999046326</ele>
        <time>2021-03-25T08:14:29.000Z</time>
      </trkpt>
      <trkpt lat="47.26265" lon="-2.31801">
        <ele>-3.5999999046326</ele>
        <time>2021-03-25T08:14:34.000Z</time>
      </trkpt>
      <trkpt lat="47.26264" lon="-2.31827">
        <ele>-3.5999999046326</ele>
        <time>2021-03-25T08:14:38.000Z</time>
      </trkpt>
      <trkpt lat="47.26263" lon="-2.31833">
        <ele>-3.5999999046326</ele>
        <time>2021-03-25T08:14:39.000Z</time>
      </trkpt>
      <trkpt lat="47.26261" lon="-2.31872">
        <ele>-3.5999999046326</ele>
        <time>2021-03-25T08:14:45.000Z</time>
      </trkpt>
      <trkpt lat="47.2626" lon="-2.31904">
        <ele>-3.5999999046326</ele>
        <time>2021-03-25T08:14:51.000Z</time>
      </trkpt>
      <trkpt lat="47.26252" lon="-2.31919">
        <ele>-3.5999999046326</ele>
        <time>2021-03-25T08:14:55.000Z</time>
      </trkpt>
      <trkpt lat="47.26236" lon="-2.3194">
        <ele>-3.5999999046326</ele>
        <time>2021-03-25T08:15:01.000Z</time>
      </trkpt>
      <trkpt lat="47.26224" lon="-2.31962">
        <ele>-3.5999999046326</ele>
        <time>2021-03-25T08:15:06.000Z</time>
      </trkpt>
      <trkpt lat="47.26217" lon="-2.31983">
        <ele>-4</ele>
        <time>2021-03-25T08:15:11.000Z</time>
      </trkpt>
      <trkpt lat="47.26215" lon="-2.31988">
        <ele>-4.4000000953674</ele>
        <time>2021-03-25T08:15:12.000Z</time>
      </trkpt>
      <trkpt lat="47.26212" lon="-2.31991">
        <ele>-4.8000001907349</ele>
        <time>2021-03-25T08:15:13.000Z</time>
      </trkpt>
      <trkpt lat="47.26209" lon="-2.31992">
        <ele>-5.1999998092651</ele>
        <time>2021-03-25T08:15:14.000Z</time>
      </trkpt>
      <trkpt lat="47.26205" lon="-2.31992">
        <ele>-5.5999999046326</ele>
        <time>2021-03-25T08:15:15.000Z</time>
      </trkpt>
      <trkpt lat="47.26199" lon="-2.31995">
        <ele>-5.5999999046326</ele>
        <time>2021-03-25T08:15:16.000Z</time>
      </trkpt>
      <trkpt lat="47.26194" lon="-2.32">
        <ele>-5.5999999046326</ele>
        <time>2021-03-25T08:15:19.000Z</time>
      </trkpt>
      <trkpt lat="47.2618" lon="-2.32016">
        <ele>-5.5999999046326</ele>
        <time>2021-03-25T08:15:25.000Z</time>
      </trkpt>
      <trkpt lat="47.26177" lon="-2.32021">
        <ele>-5.5999999046326</ele>
        <time>2021-03-25T08:15:27.000Z</time>
      </trkpt>
      <trkpt lat="47.26177" lon="-2.32024">
        <ele>-5.5999999046326</ele>
        <time>2021-03-25T08:15:28.000Z</time>
      </trkpt>
      <trkpt lat="47.26173" lon="-2.32036">
        <ele>-5.5999999046326</ele>
        <time>2021-03-25T08:15:33.000Z</time>
      </trkpt>
      <trkpt lat="47.26169" lon="-2.32035">
        <ele>-5.5999999046326</ele>
        <time>2021-03-25T08:15:35.000Z</time>
      </trkpt>
      <trkpt lat="47.26161" lon="-2.32038">
        <ele>-5.5999999046326</ele>
        <time>2021-03-25T08:15:39.000Z</time>
      </trkpt>
      <trkpt lat="47.26149" lon="-2.32046">
        <ele>-5.5999999046326</ele>
        <time>2021-03-25T08:15:43.000Z</time>
      </trkpt>
      <trkpt lat="47.26146" lon="-2.3205">
        <ele>-5.5999999046326</ele>
        <time>2021-03-25T08:15:44.000Z</time>
      </trkpt>
      <trkpt lat="47.26139" lon="-2.32072">
        <ele>-5.5999999046326</ele>
        <time>2021-03-25T08:15:48.000Z</time>
      </trkpt>
      <trkpt lat="47.26136" lon="-2.32083">
        <ele>-5.5999999046326</ele>
        <time>2021-03-25T08:15:50.000Z</time>
      </trkpt>
      <trkpt lat="47.2613" lon="-2.32108">
        <ele>-5.5999999046326</ele>
        <time>2021-03-25T08:15:54.000Z</time>
      </trkpt>
      <trkpt lat="47.26118" lon="-2.32149">
        <ele>-5.5999999046326</ele>
        <time>2021-03-25T08:16:01.000Z</time>
      </trkpt>
      <trkpt lat="47.26108" lon="-2.32183">
        <ele>-5.5999999046326</ele>
        <time>2021-03-25T08:16:07.000Z</time>
      </trkpt>
      <trkpt lat="47.26103" lon="-2.32193">
        <ele>-5.5999999046326</ele>
        <time>2021-03-25T08:16:09.000Z</time>
      </trkpt>
      <trkpt lat="47.26088" lon="-2.32224">
        <ele>-5.5999999046326</ele>
        <time>2021-03-25T08:16:15.000Z</time>
      </trkpt>
      <trkpt lat="47.26086" lon="-2.32229">
        <ele>-5.5999999046326</ele>
        <time>2021-03-25T08:16:16.000Z</time>
      </trkpt>
      <trkpt lat="47.26066" lon="-2.32255">
        <ele>-5.5999999046326</ele>
        <time>2021-03-25T08:16:22.000Z</time>
      </trkpt>
      <trkpt lat="47.26062" lon="-2.32258">
        <ele>-5.1999998092651</ele>
        <time>2021-03-25T08:16:23.000Z</time>
      </trkpt>
      <trkpt lat="47.26059" lon="-2.32262">
        <ele>-4.8000001907349</ele>
        <time>2021-03-25T08:16:24.000Z</time>
      </trkpt>
      <trkpt lat="47.26055" lon="-2.32265">
        <ele>-4.4000000953674</ele>
        <time>2021-03-25T08:16:25.000Z</time>
      </trkpt>
      <trkpt lat="47.26052" lon="-2.32269">
        <ele>-4</ele>
        <time>2021-03-25T08:16:26.000Z</time>
      </trkpt>
      <trkpt lat="47.26048" lon="-2.32273">
        <ele>-3.5999999046326</ele>
        <time>2021-03-25T08:16:27.000Z</time>
      </trkpt>
      <trkpt lat="47.26041" lon="-2.32281">
        <ele>-3.5999999046326</ele>
        <time>2021-03-25T08:16:29.000Z</time>
      </trkpt>
      <trkpt lat="47.26009" lon="-2.32319">
        <ele>-3.5999999046326</ele>
        <time>2021-03-25T08:16:38.000Z</time>
      </trkpt>
      <trkpt lat="47.25988" lon="-2.32345">
        <ele>-3.5999999046326</ele>
        <time>2021-03-25T08:16:44.000Z</time>
      </trkpt>
      <trkpt lat="47.2596" lon="-2.32381">
        <ele>-3.5999999046326</ele>
        <time>2021-03-25T08:16:52.000Z</time>
      </trkpt>
      <trkpt lat="47.2592" lon="-2.32433">
        <ele>-3.5999999046326</ele>
        <time>2021-03-25T08:17:04.000Z</time>
      </trkpt>
      <trkpt lat="47.25899" lon="-2.32466">
        <ele>-3.5999999046326</ele>
        <time>2021-03-25T08:17:12.000Z</time>
      </trkpt>
      <trkpt lat="47.25905" lon="-2.32477">
        <ele>-3.5999999046326</ele>
        <time>2021-03-25T08:17:15.000Z</time>
      </trkpt>
      <trkpt lat="47.25912" lon="-2.32482">
        <ele>-3.5999999046326</ele>
        <time>2021-03-25T08:17:17.000Z</time>
      </trkpt>
      <trkpt lat="47.25916" lon="-2.32486">
        <ele>-3.5999999046326</ele>
        <time>2021-03-25T08:17:18.000Z</time>
      </trkpt>
      <trkpt lat="47.2592" lon="-2.32491">
        <ele>-3.5999999046326</ele>
        <time>2021-03-25T08:17:19.000Z</time>
      </trkpt>
      <trkpt lat="47.25929" lon="-2.32516">
        <ele>-3.5999999046326</ele>
        <time>2021-03-25T08:17:23.000Z</time>
      </trkpt>
      <trkpt lat="47.25942" lon="-2.32561">
        <ele>-3.5999999046326</ele>
        <time>2021-03-25T08:17:30.000Z</time>
      </trkpt>
      <trkpt lat="47.25956" lon="-2.32611">
        <ele>-3.5999999046326</ele>
        <time>2021-03-25T08:17:38.000Z</time>
      </trkpt>
      <trkpt lat="47.25957" lon="-2.32618">
        <ele>-3.5999999046326</ele>
        <time>2021-03-25T08:17:39.000Z</time>
      </trkpt>
      <trkpt lat="47.25958" lon="-2.32644">
        <ele>-3.5999999046326</ele>
        <time>2021-03-25T08:17:43.000Z</time>
      </trkpt>
      <trkpt lat="47.25961" lon="-2.32658">
        <ele>-3.5999999046326</ele>
        <time>2021-03-25T08:17:46.000Z</time>
      </trkpt>
      <trkpt lat="47.2597" lon="-2.32656">
        <ele>-3.5999999046326</ele>
        <time>2021-03-25T08:17:49.000Z</time>
      </trkpt>
      <trkpt lat="47.25991" lon="-2.32657">
        <ele>-3.5999999046326</ele>
        <time>2021-03-25T08:17:54.000Z</time>
      </trkpt>
      <trkpt lat="47.25995" lon="-2.32656">
        <ele>-3.5999999046326</ele>
        <time>2021-03-25T08:17:55.000Z</time>
      </trkpt>
      <trkpt lat="47.26025" lon="-2.32651">
        <ele>-3</ele>
        <time>2021-03-25T08:18:02.000Z</time>
      </trkpt>
      <trkpt lat="47.2603" lon="-2.32651">
        <ele>-2.5999999046326</ele>
        <time>2021-03-25T08:18:03.000Z</time>
      </trkpt>
      <trkpt lat="47.26034" lon="-2.3265">
        <ele>-2.2000000476837</ele>
        <time>2021-03-25T08:18:04.000Z</time>
      </trkpt>
      <trkpt lat="47.26038" lon="-2.32649">
        <ele>-1.7999999523163</ele>
        <time>2021-03-25T08:18:05.000Z</time>
      </trkpt>
      <trkpt lat="47.26043" lon="-2.32648">
        <ele>-1.3999999761581</ele>
        <time>2021-03-25T08:18:06.000Z</time>
      </trkpt>
      <trkpt lat="47.26064" lon="-2.32644">
        <ele>-1.3999999761581</ele>
        <time>2021-03-25T08:18:11.000Z</time>
      </trkpt>
      <trkpt lat="47.26097" lon="-2.32638">
        <ele>-1.3999999761581</ele>
        <time>2021-03-25T08:18:19.000Z</time>
      </trkpt>
      <trkpt lat="47.26114" lon="-2.32637">
        <ele>-1.3999999761581</ele>
        <time>2021-03-25T08:18:23.000Z</time>
      </trkpt>
      <trkpt lat="47.26127" lon="-2.32637">
        <ele>-1</ele>
        <time>2021-03-25T08:18:26.000Z</time>
      </trkpt>
      <trkpt lat="47.26131" lon="-2.32637">
        <ele>-0.60000002384186</ele>
        <time>2021-03-25T08:18:27.000Z</time>
      </trkpt>
      <trkpt lat="47.26135" lon="-2.32638">
        <ele>-0.20000000298023</ele>
        <time>2021-03-25T08:18:28.000Z</time>
      </trkpt>
      <trkpt lat="47.2614" lon="-2.3264">
        <ele>0.20000000298023</ele>
        <time>2021-03-25T08:18:29.000Z</time>
      </trkpt>
      <trkpt lat="47.26144" lon="-2.32641">
        <ele>0.60000002384186</ele>
        <time>2021-03-25T08:18:30.000Z</time>
      </trkpt>
      <trkpt lat="47.26162" lon="-2.32649">
        <ele>0.60000002384186</ele>
        <time>2021-03-25T08:18:34.000Z</time>
      </trkpt>
      <trkpt lat="47.26176" lon="-2.32656">
        <ele>0.60000002384186</ele>
        <time>2021-03-25T08:18:37.000Z</time>
      </trkpt>
      <trkpt lat="47.26184" lon="-2.32662">
        <ele>0.60000002384186</ele>
        <time>2021-03-25T08:18:39.000Z</time>
      </trkpt>
      <trkpt lat="47.26188" lon="-2.32666">
        <ele>0.60000002384186</ele>
        <time>2021-03-25T08:18:40.000Z</time>
      </trkpt>
      <trkpt lat="47.26215" lon="-2.32697">
        <ele>0.60000002384186</ele>
        <time>2021-03-25T08:18:47.000Z</time>
      </trkpt>
      <trkpt lat="47.26243" lon="-2.32737">
        <ele>0.60000002384186</ele>
        <time>2021-03-25T08:18:54.000Z</time>
      </trkpt>
      <trkpt lat="47.26264" lon="-2.3277">
        <ele>0.60000002384186</ele>
        <time>2021-03-25T08:18:59.000Z</time>
      </trkpt>
      <trkpt lat="47.26266" lon="-2.32778">
        <ele>0.60000002384186</ele>
        <time>2021-03-25T08:19:00.000Z</time>
      </trkpt>
      <trkpt lat="47.26274" lon="-2.328">
        <ele>0.60000002384186</ele>
        <time>2021-03-25T08:19:03.000Z</time>
      </trkpt>
      <trkpt lat="47.26276" lon="-2.32808">
        <ele>0.60000002384186</ele>
        <time>2021-03-25T08:19:04.000Z</time>
      </trkpt>
      <trkpt lat="47.26289" lon="-2.32845">
        <ele>0.60000002384186</ele>
        <time>2021-03-25T08:19:09.000Z</time>
      </trkpt>
      <trkpt lat="47.26292" lon="-2.32851">
        <ele>0.60000002384186</ele>
        <time>2021-03-25T08:19:10.000Z</time>
      </trkpt>
      <trkpt lat="47.26306" lon="-2.32862">
        <ele>0.60000002384186</ele>
        <time>2021-03-25T08:19:13.000Z</time>
      </trkpt>
      <trkpt lat="47.26323" lon="-2.32882">
        <ele>0.60000002384186</ele>
        <time>2021-03-25T08:19:17.000Z</time>
      </trkpt>
      <trkpt lat="47.26328" lon="-2.32895">
        <ele>0.60000002384186</ele>
        <time>2021-03-25T08:19:19.000Z</time>
      </trkpt>
      <trkpt lat="47.26339" lon="-2.3293">
        <ele>0.60000002384186</ele>
        <time>2021-03-25T08:19:24.000Z</time>
      </trkpt>
      <trkpt lat="47.26354" lon="-2.3297">
        <ele>0.60000002384186</ele>
        <time>2021-03-25T08:19:31.000Z</time>
      </trkpt>
      <trkpt lat="47.26368" lon="-2.32991">
        <ele>0.60000002384186</ele>
        <time>2021-03-25T08:19:36.000Z</time>
      </trkpt>
      <trkpt lat="47.26369" lon="-2.33004">
        <ele>0.60000002384186</ele>
        <time>2021-03-25T08:19:38.000Z</time>
      </trkpt>
      <trkpt lat="47.2637" lon="-2.33018">
        <ele>0.60000002384186</ele>
        <time>2021-03-25T08:19:40.000Z</time>
      </trkpt>
      <trkpt lat="47.26372" lon="-2.33082">
        <ele>0.60000002384186</ele>
        <time>2021-03-25T08:19:49.000Z</time>
      </trkpt>
      <trkpt lat="47.26376" lon="-2.33133">
        <ele>0.60000002384186</ele>
        <time>2021-03-25T08:19:56.000Z</time>
      </trkpt>
      <trkpt lat="47.26376" lon="-2.3314">
        <ele>0.60000002384186</ele>
        <time>2021-03-25T08:19:57.000Z</time>
      </trkpt>
      <trkpt lat="47.2638" lon="-2.33211">
        <ele>0.60000002384186</ele>
        <time>2021-03-25T08:20:07.000Z</time>
      </trkpt>
      <trkpt lat="47.26383" lon="-2.33239">
        <ele>0.60000002384186</ele>
        <time>2021-03-25T08:20:11.000Z</time>
      </trkpt>
      <trkpt lat="47.26386" lon="-2.33253">
        <ele>0.60000002384186</ele>
        <time>2021-03-25T08:20:13.000Z</time>
      </trkpt>
      <trkpt lat="47.26389" lon="-2.33258">
        <ele>0.60000002384186</ele>
        <time>2021-03-25T08:20:14.000Z</time>
      </trkpt>
      <trkpt lat="47.26405" lon="-2.33273">
        <ele>0.60000002384186</ele>
        <time>2021-03-25T08:20:18.000Z</time>
      </trkpt>
      <trkpt lat="47.26415" lon="-2.33274">
        <ele>0.60000002384186</ele>
        <time>2021-03-25T08:20:20.000Z</time>
      </trkpt>
      <trkpt lat="47.26436" lon="-2.33276">
        <ele>0.60000002384186</ele>
        <time>2021-03-25T08:20:24.000Z</time>
      </trkpt>
      <trkpt lat="47.26476" lon="-2.33278">
        <ele>0.60000002384186</ele>
        <time>2021-03-25T08:20:32.000Z</time>
      </trkpt>
      <trkpt lat="47.26502" lon="-2.33279">
        <ele>0.60000002384186</ele>
        <time>2021-03-25T08:20:38.000Z</time>
      </trkpt>
      <trkpt lat="47.26505" lon="-2.33281">
        <ele>0.60000002384186</ele>
        <time>2021-03-25T08:20:39.000Z</time>
      </trkpt>
      <trkpt lat="47.2651" lon="-2.33286">
        <ele>0.60000002384186</ele>
        <time>2021-03-25T08:20:41.000Z</time>
      </trkpt>
      <trkpt lat="47.26521" lon="-2.33289">
        <ele>0.60000002384186</ele>
        <time>2021-03-25T08:20:44.000Z</time>
      </trkpt>
      <trkpt lat="47.26525" lon="-2.33289">
        <ele>0.60000002384186</ele>
        <time>2021-03-25T08:20:45.000Z</time>
      </trkpt>
      <trkpt lat="47.26529" lon="-2.33288">
        <ele>0.60000002384186</ele>
        <time>2021-03-25T08:20:46.000Z</time>
      </trkpt>
      <trkpt lat="47.26533" lon="-2.3329">
        <ele>0.60000002384186</ele>
        <time>2021-03-25T08:20:48.000Z</time>
      </trkpt>
      <trkpt lat="47.26535" lon="-2.33293">
        <ele>0.60000002384186</ele>
        <time>2021-03-25T08:20:49.000Z</time>
      </trkpt>
      <trkpt lat="47.26542" lon="-2.33298">
        <ele>0.60000002384186</ele>
        <time>2021-03-25T08:20:52.000Z</time>
      </trkpt>
      <trkpt lat="47.26545" lon="-2.33294">
        <ele>0.60000002384186</ele>
        <time>2021-03-25T08:20:53.000Z</time>
      </trkpt>
      <trkpt lat="47.26568" lon="-2.33268">
        <ele>0.60000002384186</ele>
        <time>2021-03-25T08:21:00.000Z</time>
      </trkpt>
      <trkpt lat="47.26588" lon="-2.33248">
        <ele>1</ele>
        <time>2021-03-25T08:21:05.000Z</time>
      </trkpt>
      <trkpt lat="47.26592" lon="-2.33245">
        <ele>2</ele>
        <time>2021-03-25T08:21:06.000Z</time>
      </trkpt>
      <trkpt lat="47.26596" lon="-2.33241">
        <ele>2.4000000953674</ele>
        <time>2021-03-25T08:21:07.000Z</time>
      </trkpt>
      <trkpt lat="47.266" lon="-2.33237">
        <ele>2.7999999523163</ele>
        <time>2021-03-25T08:21:08.000Z</time>
      </trkpt>
      <trkpt lat="47.26631" lon="-2.33205">
        <ele>2.7999999523163</ele>
        <time>2021-03-25T08:21:16.000Z</time>
      </trkpt>
      <trkpt lat="47.26642" lon="-2.33194">
        <ele>2.7999999523163</ele>
        <time>2021-03-25T08:21:19.000Z</time>
      </trkpt>
      <trkpt lat="47.26652" lon="-2.33183">
        <ele>2.7999999523163</ele>
        <time>2021-03-25T08:21:22.000Z</time>
      </trkpt>
      <trkpt lat="47.26679" lon="-2.33157">
        <ele>2.7999999523163</ele>
        <time>2021-03-25T08:21:29.000Z</time>
      </trkpt>
      <trkpt lat="47.26683" lon="-2.33153">
        <ele>2.7999999523163</ele>
        <time>2021-03-25T08:21:30.000Z</time>
      </trkpt>
      <trkpt lat="47.26701" lon="-2.33134">
        <ele>2.7999999523163</ele>
        <time>2021-03-25T08:21:35.000Z</time>
      </trkpt>
      <trkpt lat="47.2673" lon="-2.33103">
        <ele>2.7999999523163</ele>
        <time>2021-03-25T08:21:43.000Z</time>
      </trkpt>
      <trkpt lat="47.26749" lon="-2.33084">
        <ele>2.7999999523163</ele>
        <time>2021-03-25T08:21:49.000Z</time>
      </trkpt>
      <trkpt lat="47.26753" lon="-2.33085">
        <ele>2.7999999523163</ele>
        <time>2021-03-25T08:21:50.000Z</time>
      </trkpt>
      <trkpt lat="47.2676" lon="-2.33094">
        <ele>2.7999999523163</ele>
        <time>2021-03-25T08:21:52.000Z</time>
      </trkpt>
      <trkpt lat="47.26765" lon="-2.33115">
        <ele>2.7999999523163</ele>
        <time>2021-03-25T08:21:55.000Z</time>
      </trkpt>
      <trkpt lat="47.26765" lon="-2.33123">
        <ele>2.7999999523163</ele>
        <time>2021-03-25T08:21:56.000Z</time>
      </trkpt>
      <trkpt lat="47.26765" lon="-2.3313">
        <ele>2.7999999523163</ele>
        <time>2021-03-25T08:21:57.000Z</time>
      </trkpt>
      <trkpt lat="47.2676" lon="-2.3315">
        <ele>2.7999999523163</ele>
        <time>2021-03-25T08:22:00.000Z</time>
      </trkpt>
      <trkpt lat="47.26748" lon="-2.33198">
        <ele>2.7999999523163</ele>
        <time>2021-03-25T08:22:07.000Z</time>
      </trkpt>
      <trkpt lat="47.26734" lon="-2.33251">
        <ele>2.7999999523163</ele>
        <time>2021-03-25T08:22:15.000Z</time>
      </trkpt>
      <trkpt lat="47.26736" lon="-2.33287">
        <ele>2.7999999523163</ele>
        <time>2021-03-25T08:22:20.000Z</time>
      </trkpt>
      <trkpt lat="47.26738" lon="-2.33295">
        <ele>2.7999999523163</ele>
        <time>2021-03-25T08:22:21.000Z</time>
      </trkpt>
      <trkpt lat="47.26749" lon="-2.33338">
        <ele>2.7999999523163</ele>
        <time>2021-03-25T08:22:27.000Z</time>
      </trkpt>
      <trkpt lat="47.26754" lon="-2.33376">
        <ele>2.7999999523163</ele>
        <time>2021-03-25T08:22:32.000Z</time>
      </trkpt>
      <trkpt lat="47.26754" lon="-2.33384">
        <ele>3.2000000476837</ele>
        <time>2021-03-25T08:22:33.000Z</time>
      </trkpt>
      <trkpt lat="47.26755" lon="-2.33392">
        <ele>3.5999999046326</ele>
        <time>2021-03-25T08:22:34.000Z</time>
      </trkpt>
      <trkpt lat="47.26756" lon="-2.33399">
        <ele>4</ele>
        <time>2021-03-25T08:22:35.000Z</time>
      </trkpt>
      <trkpt lat="47.26756" lon="-2.33407">
        <ele>4.4000000953674</ele>
        <time>2021-03-25T08:22:36.000Z</time>
      </trkpt>
      <trkpt lat="47.26757" lon="-2.33414">
        <ele>4.8000001907349</ele>
        <time>2021-03-25T08:22:37.000Z</time>
      </trkpt>
      <trkpt lat="47.26761" lon="-2.3345">
        <ele>4.8000001907349</ele>
        <time>2021-03-25T08:22:42.000Z</time>
      </trkpt>
      <trkpt lat="47.2677" lon="-2.33499">
        <ele>4.8000001907349</ele>
        <time>2021-03-25T08:22:49.000Z</time>
      </trkpt>
      <trkpt lat="47.26771" lon="-2.33506">
        <ele>4.8000001907349</ele>
        <time>2021-03-25T08:22:50.000Z</time>
      </trkpt>
      <trkpt lat="47.26778" lon="-2.33541">
        <ele>4.8000001907349</ele>
        <time>2021-03-25T08:22:55.000Z</time>
      </trkpt>
      <trkpt lat="47.26784" lon="-2.33566">
        <ele>4.8000001907349</ele>
        <time>2021-03-25T08:22:59.000Z</time>
      </trkpt>
      <trkpt lat="47.26787" lon="-2.33568">
        <ele>4.8000001907349</ele>
        <time>2021-03-25T08:23:00.000Z</time>
      </trkpt>
      <trkpt lat="47.26798" lon="-2.33563">
        <ele>4.8000001907349</ele>
        <time>2021-03-25T08:23:03.000Z</time>
      </trkpt>
      <trkpt lat="47.26801" lon="-2.33561">
        <ele>4.8000001907349</ele>
        <time>2021-03-25T08:23:04.000Z</time>
      </trkpt>
      <trkpt lat="47.26824" lon="-2.33551">
        <ele>4.8000001907349</ele>
        <time>2021-03-25T08:23:09.000Z</time>
      </trkpt>
      <trkpt lat="47.26839" lon="-2.33546">
        <ele>4.8000001907349</ele>
        <time>2021-03-25T08:23:12.000Z</time>
      </trkpt>
      <trkpt lat="47.26854" lon="-2.33538">
        <ele>4.8000001907349</ele>
        <time>2021-03-25T08:23:15.000Z</time>
      </trkpt>
      <trkpt lat="47.26874" lon="-2.33534">
        <ele>5.1999998092651</ele>
        <time>2021-03-25T08:23:19.000Z</time>
      </trkpt>
      <trkpt lat="47.26878" lon="-2.33533">
        <ele>5.5999999046326</ele>
        <time>2021-03-25T08:23:20.000Z</time>
      </trkpt>
      <trkpt lat="47.26884" lon="-2.33535">
        <ele>6</ele>
        <time>2021-03-25T08:23:21.000Z</time>
      </trkpt>
      <trkpt lat="47.26888" lon="-2.33537">
        <ele>6.4000000953674</ele>
        <time>2021-03-25T08:23:22.000Z</time>
      </trkpt>
      <trkpt lat="47.26891" lon="-2.33539">
        <ele>7</ele>
        <time>2021-03-25T08:23:23.000Z</time>
      </trkpt>
      <trkpt lat="47.26897" lon="-2.33547">
        <ele>7</ele>
        <time>2021-03-25T08:23:25.000Z</time>
      </trkpt>
      <trkpt lat="47.26904" lon="-2.33563">
        <ele>7</ele>
        <time>2021-03-25T08:23:28.000Z</time>
      </trkpt>
      <trkpt lat="47.26909" lon="-2.33575">
        <ele>7.4000000953674</ele>
        <time>2021-03-25T08:23:30.000Z</time>
      </trkpt>
      <trkpt lat="47.26911" lon="-2.33581">
        <ele>7.8000001907349</ele>
        <time>2021-03-25T08:23:31.000Z</time>
      </trkpt>
      <trkpt lat="47.26914" lon="-2.33587">
        <ele>8.1999998092651</ele>
        <time>2021-03-25T08:23:32.000Z</time>
      </trkpt>
      <trkpt lat="47.26916" lon="-2.33592">
        <ele>8.6000003814697</ele>
        <time>2021-03-25T08:23:33.000Z</time>
      </trkpt>
      <trkpt lat="47.26918" lon="-2.33598">
        <ele>9</ele>
        <time>2021-03-25T08:23:34.000Z</time>
      </trkpt>
      <trkpt lat="47.26924" lon="-2.33615">
        <ele>9</ele>
        <time>2021-03-25T08:23:37.000Z</time>
      </trkpt>
      <trkpt lat="47.26925" lon="-2.33621">
        <ele>9</ele>
        <time>2021-03-25T08:23:38.000Z</time>
      </trkpt>
      <trkpt lat="47.26931" lon="-2.33646">
        <ele>9.3999996185303</ele>
        <time>2021-03-25T08:23:42.000Z</time>
      </trkpt>
      <trkpt lat="47.26932" lon="-2.33653">
        <ele>9.8000001907349</ele>
        <time>2021-03-25T08:23:43.000Z</time>
      </trkpt>
      <trkpt lat="47.26933" lon="-2.33659">
        <ele>10.199999809265</ele>
        <time>2021-03-25T08:23:44.000Z</time>
      </trkpt>
      <trkpt lat="47.26934" lon="-2.33666">
        <ele>10.60000038147</ele>
        <time>2021-03-25T08:23:45.000Z</time>
      </trkpt>
      <trkpt lat="47.26934" lon="-2.33672">
        <ele>11</ele>
        <time>2021-03-25T08:23:46.000Z</time>
      </trkpt>
      <trkpt lat="47.2694" lon="-2.33703">
        <ele>11</ele>
        <time>2021-03-25T08:23:51.000Z</time>
      </trkpt>
      <trkpt lat="47.26941" lon="-2.33722">
        <ele>11</ele>
        <time>2021-03-25T08:23:54.000Z</time>
      </trkpt>
      <trkpt lat="47.26939" lon="-2.33734">
        <ele>11</ele>
        <time>2021-03-25T08:23:56.000Z</time>
      </trkpt>
      <trkpt lat="47.26931" lon="-2.33782">
        <ele>11</ele>
        <time>2021-03-25T08:24:03.000Z</time>
      </trkpt>
      <trkpt lat="47.26932" lon="-2.33795">
        <ele>11</ele>
        <time>2021-03-25T08:24:05.000Z</time>
      </trkpt>
      <trkpt lat="47.26937" lon="-2.33806">
        <ele>11</ele>
        <time>2021-03-25T08:24:07.000Z</time>
      </trkpt>
      <trkpt lat="47.26946" lon="-2.33817">
        <ele>11</ele>
        <time>2021-03-25T08:24:10.000Z</time>
      </trkpt>
      <trkpt lat="47.26953" lon="-2.33824">
        <ele>11</ele>
        <time>2021-03-25T08:24:12.000Z</time>
      </trkpt>
      <trkpt lat="47.26957" lon="-2.33827">
        <ele>11</ele>
        <time>2021-03-25T08:24:13.000Z</time>
      </trkpt>
      <trkpt lat="47.26972" lon="-2.33835">
        <ele>11</ele>
        <time>2021-03-25T08:24:17.000Z</time>
      </trkpt>
      <trkpt lat="47.26979" lon="-2.3384">
        <ele>11.60000038147</ele>
        <time>2021-03-25T08:24:19.000Z</time>
      </trkpt>
      <trkpt lat="47.26982" lon="-2.33842">
        <ele>12</ele>
        <time>2021-03-25T08:24:20.000Z</time>
      </trkpt>
      <trkpt lat="47.26985" lon="-2.33844">
        <ele>12.39999961853</ele>
        <time>2021-03-25T08:24:21.000Z</time>
      </trkpt>
      <trkpt lat="47.26988" lon="-2.33846">
        <ele>13</ele>
        <time>2021-03-25T08:24:22.000Z</time>
      </trkpt>
      <trkpt lat="47.26991" lon="-2.33848">
        <ele>13.39999961853</ele>
        <time>2021-03-25T08:24:23.000Z</time>
      </trkpt>
      <trkpt lat="47.26995" lon="-2.33851">
        <ele>13.39999961853</ele>
        <time>2021-03-25T08:24:24.000Z</time>
      </trkpt>
      <trkpt lat="47.27001" lon="-2.33855">
        <ele>13.800000190735</ele>
        <time>2021-03-25T08:24:26.000Z</time>
      </trkpt>
      <trkpt lat="47.27004" lon="-2.33858">
        <ele>14.199999809265</ele>
        <time>2021-03-25T08:24:27.000Z</time>
      </trkpt>
      <trkpt lat="47.27008" lon="-2.3386">
        <ele>14.800000190735</ele>
        <time>2021-03-25T08:24:28.000Z</time>
      </trkpt>
      <trkpt lat="47.27011" lon="-2.33862">
        <ele>15.199999809265</ele>
        <time>2021-03-25T08:24:29.000Z</time>
      </trkpt>
      <trkpt lat="47.27014" lon="-2.33865">
        <ele>15.60000038147</ele>
        <time>2021-03-25T08:24:30.000Z</time>
      </trkpt>
      <trkpt lat="47.27027" lon="-2.33874">
        <ele>16</ele>
        <time>2021-03-25T08:24:34.000Z</time>
      </trkpt>
      <trkpt lat="47.2703" lon="-2.33877">
        <ele>16.39999961853</ele>
        <time>2021-03-25T08:24:35.000Z</time>
      </trkpt>
      <trkpt lat="47.27034" lon="-2.3388">
        <ele>16.799999237061</ele>
        <time>2021-03-25T08:24:36.000Z</time>
      </trkpt>
      <trkpt lat="47.27037" lon="-2.33883">
        <ele>17.200000762939</ele>
        <time>2021-03-25T08:24:37.000Z</time>
      </trkpt>
      <trkpt lat="47.27041" lon="-2.33886">
        <ele>17.799999237061</ele>
        <time>2021-03-25T08:24:38.000Z</time>
      </trkpt>
      <trkpt lat="47.27044" lon="-2.33889">
        <ele>17.799999237061</ele>
        <time>2021-03-25T08:24:39.000Z</time>
      </trkpt>
      <trkpt lat="47.2706" lon="-2.33905">
        <ele>17.799999237061</ele>
        <time>2021-03-25T08:24:44.000Z</time>
      </trkpt>
      <trkpt lat="47.27074" lon="-2.33919">
        <ele>18.200000762939</ele>
        <time>2021-03-25T08:24:49.000Z</time>
      </trkpt>
      <trkpt lat="47.27077" lon="-2.33922">
        <ele>18.60000038147</ele>
        <time>2021-03-25T08:24:50.000Z</time>
      </trkpt>
      <trkpt lat="47.2708" lon="-2.33924">
        <ele>19</ele>
        <time>2021-03-25T08:24:51.000Z</time>
      </trkpt>
      <trkpt lat="47.27083" lon="-2.33926">
        <ele>19.60000038147</ele>
        <time>2021-03-25T08:24:52.000Z</time>
      </trkpt>
      <trkpt lat="47.27086" lon="-2.33929">
        <ele>20</ele>
        <time>2021-03-25T08:24:53.000Z</time>
      </trkpt>
      <trkpt lat="47.27096" lon="-2.33941">
        <ele>20.39999961853</ele>
        <time>2021-03-25T08:24:57.000Z</time>
      </trkpt>
      <trkpt lat="47.27099" lon="-2.33943">
        <ele>20.799999237061</ele>
        <time>2021-03-25T08:24:58.000Z</time>
      </trkpt>
      <trkpt lat="47.27102" lon="-2.33946">
        <ele>21.200000762939</ele>
        <time>2021-03-25T08:24:59.000Z</time>
      </trkpt>
      <trkpt lat="47.27105" lon="-2.33949">
        <ele>21.60000038147</ele>
        <time>2021-03-25T08:25:00.000Z</time>
      </trkpt>
      <trkpt lat="47.27108" lon="-2.33952">
        <ele>22.200000762939</ele>
        <time>2021-03-25T08:25:01.000Z</time>
      </trkpt>
      <trkpt lat="47.2712" lon="-2.33963">
        <ele>22.200000762939</ele>
        <time>2021-03-25T08:25:05.000Z</time>
      </trkpt>
      <trkpt lat="47.27124" lon="-2.33965">
        <ele>22.60000038147</ele>
        <time>2021-03-25T08:25:06.000Z</time>
      </trkpt>
      <trkpt lat="47.27127" lon="-2.33968">
        <ele>23</ele>
        <time>2021-03-25T08:25:07.000Z</time>
      </trkpt>
      <trkpt lat="47.2713" lon="-2.33972">
        <ele>23.39999961853</ele>
        <time>2021-03-25T08:25:08.000Z</time>
      </trkpt>
      <trkpt lat="47.27133" lon="-2.33975">
        <ele>23.799999237061</ele>
        <time>2021-03-25T08:25:09.000Z</time>
      </trkpt>
      <trkpt lat="47.27137" lon="-2.33979">
        <ele>24.200000762939</ele>
        <time>2021-03-25T08:25:10.000Z</time>
      </trkpt>
      <trkpt lat="47.27146" lon="-2.33988">
        <ele>24.200000762939</ele>
        <time>2021-03-25T08:25:13.000Z</time>
      </trkpt>
      <trkpt lat="47.2717" lon="-2.3401">
        <ele>24.200000762939</ele>
        <time>2021-03-25T08:25:20.000Z</time>
      </trkpt>
      <trkpt lat="47.27197" lon="-2.34039">
        <ele>24.60000038147</ele>
        <time>2021-03-25T08:25:28.000Z</time>
      </trkpt>
      <trkpt lat="47.27201" lon="-2.34042">
        <ele>25</ele>
        <time>2021-03-25T08:25:29.000Z</time>
      </trkpt>
      <trkpt lat="47.27204" lon="-2.34045">
        <ele>25.60000038147</ele>
        <time>2021-03-25T08:25:30.000Z</time>
      </trkpt>
      <trkpt lat="47.27208" lon="-2.34048">
        <ele>26</ele>
        <time>2021-03-25T08:25:31.000Z</time>
      </trkpt>
      <trkpt lat="47.27211" lon="-2.34051">
        <ele>26.39999961853</ele>
        <time>2021-03-25T08:25:32.000Z</time>
      </trkpt>
      <trkpt lat="47.27227" lon="-2.34055">
        <ele>26.39999961853</ele>
        <time>2021-03-25T08:25:36.000Z</time>
      </trkpt>
      <trkpt lat="47.27258" lon="-2.34055">
        <ele>26.39999961853</ele>
        <time>2021-03-25T08:25:44.000Z</time>
      </trkpt>
      <trkpt lat="47.2727" lon="-2.34062">
        <ele>26.799999237061</ele>
        <time>2021-03-25T08:25:47.000Z</time>
      </trkpt>
      <trkpt lat="47.27273" lon="-2.34065">
        <ele>27.200000762939</ele>
        <time>2021-03-25T08:25:48.000Z</time>
      </trkpt>
      <trkpt lat="47.27276" lon="-2.3407">
        <ele>27.60000038147</ele>
        <time>2021-03-25T08:25:49.000Z</time>
      </trkpt>
      <trkpt lat="47.27278" lon="-2.34075">
        <ele>28</ele>
        <time>2021-03-25T08:25:50.000Z</time>
      </trkpt>
      <trkpt lat="47.27279" lon="-2.34081">
        <ele>28.39999961853</ele>
        <time>2021-03-25T08:25:51.000Z</time>
      </trkpt>
      <trkpt lat="47.27281" lon="-2.34094">
        <ele>28.39999961853</ele>
        <time>2021-03-25T08:25:53.000Z</time>
      </trkpt>
      <trkpt lat="47.27282" lon="-2.34101">
        <ele>28.39999961853</ele>
        <time>2021-03-25T08:25:54.000Z</time>
      </trkpt>
      <trkpt lat="47.27285" lon="-2.34113">
        <ele>28.39999961853</ele>
        <time>2021-03-25T08:25:56.000Z</time>
      </trkpt>
      <trkpt lat="47.27291" lon="-2.34122">
        <ele>28.39999961853</ele>
        <time>2021-03-25T08:25:58.000Z</time>
      </trkpt>
      <trkpt lat="47.27294" lon="-2.34126">
        <ele>28.39999961853</ele>
        <time>2021-03-25T08:25:59.000Z</time>
      </trkpt>
      <trkpt lat="47.2731" lon="-2.3414">
        <ele>28.39999961853</ele>
        <time>2021-03-25T08:26:03.000Z</time>
      </trkpt>
      <trkpt lat="47.27345" lon="-2.34161">
        <ele>28.39999961853</ele>
        <time>2021-03-25T08:26:10.000Z</time>
      </trkpt>
      <trkpt lat="47.27372" lon="-2.34176">
        <ele>28.39999961853</ele>
        <time>2021-03-25T08:26:16.000Z</time>
      </trkpt>
      <trkpt lat="47.27376" lon="-2.34179">
        <ele>28.39999961853</ele>
        <time>2021-03-25T08:26:17.000Z</time>
      </trkpt>
      <trkpt lat="47.27394" lon="-2.34197">
        <ele>28.39999961853</ele>
        <time>2021-03-25T08:26:22.000Z</time>
      </trkpt>
      <trkpt lat="47.274" lon="-2.34221">
        <ele>28.39999961853</ele>
        <time>2021-03-25T08:26:26.000Z</time>
      </trkpt>
      <trkpt lat="47.27401" lon="-2.34227">
        <ele>28.39999961853</ele>
        <time>2021-03-25T08:26:27.000Z</time>
      </trkpt>
      <trkpt lat="47.27408" lon="-2.3424">
        <ele>28.39999961853</ele>
        <time>2021-03-25T08:26:31.000Z</time>
      </trkpt>
      <trkpt lat="47.27416" lon="-2.34249">
        <ele>28.39999961853</ele>
        <time>2021-03-25T08:26:34.000Z</time>
      </trkpt>
      <trkpt lat="47.27416" lon="-2.34255">
        <ele>28.39999961853</ele>
        <time>2021-03-25T08:26:35.000Z</time>
      </trkpt>
      <trkpt lat="47.27417" lon="-2.34274">
        <ele>28.39999961853</ele>
        <time>2021-03-25T08:26:38.000Z</time>
      </trkpt>
      <trkpt lat="47.27417" lon="-2.34281">
        <ele>28.39999961853</ele>
        <time>2021-03-25T08:26:39.000Z</time>
      </trkpt>
      <trkpt lat="47.27417" lon="-2.34287">
        <ele>28.39999961853</ele>
        <time>2021-03-25T08:26:40.000Z</time>
      </trkpt>
      <trkpt lat="47.27418" lon="-2.34306">
        <ele>28.39999961853</ele>
        <time>2021-03-25T08:26:43.000Z</time>
      </trkpt>
      <trkpt lat="47.27417" lon="-2.34325">
        <ele>28.39999961853</ele>
        <time>2021-03-25T08:26:46.000Z</time>
      </trkpt>
      <trkpt lat="47.27421" lon="-2.34374">
        <ele>28.39999961853</ele>
        <time>2021-03-25T08:26:54.000Z</time>
      </trkpt>
      <trkpt lat="47.27423" lon="-2.34392">
        <ele>28.799999237061</ele>
        <time>2021-03-25T08:26:57.000Z</time>
      </trkpt>
      <trkpt lat="47.27424" lon="-2.34398">
        <ele>29.200000762939</ele>
        <time>2021-03-25T08:26:58.000Z</time>
      </trkpt>
      <trkpt lat="47.27425" lon="-2.34404">
        <ele>29.60000038147</ele>
        <time>2021-03-25T08:26:59.000Z</time>
      </trkpt>
      <trkpt lat="47.27426" lon="-2.34411">
        <ele>30</ele>
        <time>2021-03-25T08:27:00.000Z</time>
      </trkpt>
      <trkpt lat="47.27426" lon="-2.34417">
        <ele>30.39999961853</ele>
        <time>2021-03-25T08:27:01.000Z</time>
      </trkpt>
      <trkpt lat="47.27429" lon="-2.34467">
        <ele>30.39999961853</ele>
        <time>2021-03-25T08:27:09.000Z</time>
      </trkpt>
      <trkpt lat="47.27436" lon="-2.34509">
        <ele>30.39999961853</ele>
        <time>2021-03-25T08:27:16.000Z</time>
      </trkpt>
      <trkpt lat="47.27445" lon="-2.34556">
        <ele>30.39999961853</ele>
        <time>2021-03-25T08:27:24.000Z</time>
      </trkpt>
      <trkpt lat="47.27447" lon="-2.34562">
        <ele>30.39999961853</ele>
        <time>2021-03-25T08:27:25.000Z</time>
      </trkpt>
      <trkpt lat="47.27449" lon="-2.34567">
        <ele>30.799999237061</ele>
        <time>2021-03-25T08:27:26.000Z</time>
      </trkpt>
      <trkpt lat="47.27451" lon="-2.34573">
        <ele>31.200000762939</ele>
        <time>2021-03-25T08:27:27.000Z</time>
      </trkpt>
      <trkpt lat="47.27452" lon="-2.3458">
        <ele>31.60000038147</ele>
        <time>2021-03-25T08:27:28.000Z</time>
      </trkpt>
      <trkpt lat="47.27453" lon="-2.34586">
        <ele>32</ele>
        <time>2021-03-25T08:27:29.000Z</time>
      </trkpt>
      <trkpt lat="47.27454" lon="-2.34593">
        <ele>32.400001525879</ele>
        <time>2021-03-25T08:27:30.000Z</time>
      </trkpt>
      <trkpt lat="47.2746" lon="-2.34657">
        <ele>32.400001525879</ele>
        <time>2021-03-25T08:27:39.000Z</time>
      </trkpt>
      <trkpt lat="47.27462" lon="-2.34686">
        <ele>32.400001525879</ele>
        <time>2021-03-25T08:27:43.000Z</time>
      </trkpt>
      <trkpt lat="47.27463" lon="-2.34697">
        <ele>32.400001525879</ele>
        <time>2021-03-25T08:27:45.000Z</time>
      </trkpt>
      <trkpt lat="47.2746" lon="-2.34721">
        <ele>32.400001525879</ele>
        <time>2021-03-25T08:27:49.000Z</time>
      </trkpt>
      <trkpt lat="47.2746" lon="-2.34728">
        <ele>32.400001525879</ele>
        <time>2021-03-25T08:27:50.000Z</time>
      </trkpt>
      <trkpt lat="47.27459" lon="-2.34768">
        <ele>32</ele>
        <time>2021-03-25T08:27:55.000Z</time>
      </trkpt>
      <trkpt lat="47.2746" lon="-2.34777">
        <ele>31.60000038147</ele>
        <time>2021-03-25T08:27:56.000Z</time>
      </trkpt>
      <trkpt lat="47.2746" lon="-2.34786">
        <ele>31.200000762939</ele>
        <time>2021-03-25T08:27:57.000Z</time>
      </trkpt>
      <trkpt lat="47.2746" lon="-2.34795">
        <ele>30.799999237061</ele>
        <time>2021-03-25T08:27:58.000Z</time>
      </trkpt>
      <trkpt lat="47.27461" lon="-2.34803">
        <ele>30.39999961853</ele>
        <time>2021-03-25T08:27:59.000Z</time>
      </trkpt>
      <trkpt lat="47.27463" lon="-2.34839">
        <ele>30.39999961853</ele>
        <time>2021-03-25T08:28:03.000Z</time>
      </trkpt>
      <trkpt lat="47.27463" lon="-2.34847">
        <ele>30.39999961853</ele>
        <time>2021-03-25T08:28:04.000Z</time>
      </trkpt>
      <trkpt lat="47.27462" lon="-2.34884">
        <ele>30.39999961853</ele>
        <time>2021-03-25T08:28:08.000Z</time>
      </trkpt>
      <trkpt lat="47.27464" lon="-2.34909">
        <ele>30.39999961853</ele>
        <time>2021-03-25T08:28:11.000Z</time>
      </trkpt>
      <trkpt lat="47.27469" lon="-2.34913">
        <ele>30.39999961853</ele>
        <time>2021-03-25T08:28:12.000Z</time>
      </trkpt>
      <trkpt lat="47.27484" lon="-2.34915">
        <ele>30.39999961853</ele>
        <time>2021-03-25T08:28:15.000Z</time>
      </trkpt>
      <trkpt lat="47.27489" lon="-2.34915">
        <ele>30.39999961853</ele>
        <time>2021-03-25T08:28:16.000Z</time>
      </trkpt>
      <trkpt lat="47.27504" lon="-2.34912">
        <ele>30.39999961853</ele>
        <time>2021-03-25T08:28:19.000Z</time>
      </trkpt>
      <trkpt lat="47.27512" lon="-2.34907">
        <ele>30.39999961853</ele>
        <time>2021-03-25T08:28:21.000Z</time>
      </trkpt>
      <trkpt lat="47.27521" lon="-2.34902">
        <ele>30.39999961853</ele>
        <time>2021-03-25T08:28:23.000Z</time>
      </trkpt>
      <trkpt lat="47.27531" lon="-2.349">
        <ele>30.39999961853</ele>
        <time>2021-03-25T08:28:25.000Z</time>
      </trkpt>
      <trkpt lat="47.27536" lon="-2.349">
        <ele>30.39999961853</ele>
        <time>2021-03-25T08:28:26.000Z</time>
      </trkpt>
      <trkpt lat="47.27569" lon="-2.34905">
        <ele>30.39999961853</ele>
        <time>2021-03-25T08:28:32.000Z</time>
      </trkpt>
      <trkpt lat="47.27613" lon="-2.34911">
        <ele>30.39999961853</ele>
        <time>2021-03-25T08:28:40.000Z</time>
      </trkpt>
      <trkpt lat="47.27634" lon="-2.34914">
        <ele>30.39999961853</ele>
        <time>2021-03-25T08:28:44.000Z</time>
      </trkpt>
      <trkpt lat="47.27647" lon="-2.34912">
        <ele>30.39999961853</ele>
        <time>2021-03-25T08:28:47.000Z</time>
      </trkpt>
      <trkpt lat="47.27671" lon="-2.34909">
        <ele>30.39999961853</ele>
        <time>2021-03-25T08:28:52.000Z</time>
      </trkpt>
      <trkpt lat="47.27675" lon="-2.34911">
        <ele>30.39999961853</ele>
        <time>2021-03-25T08:28:53.000Z</time>
      </trkpt>
      <trkpt lat="47.27683" lon="-2.34929">
        <ele>30.39999961853</ele>
        <time>2021-03-25T08:28:56.000Z</time>
      </trkpt>
      <trkpt lat="47.27686" lon="-2.34961">
        <ele>30.39999961853</ele>
        <time>2021-03-25T08:29:00.000Z</time>
      </trkpt>
      <trkpt lat="47.27685" lon="-2.34969">
        <ele>30.39999961853</ele>
        <time>2021-03-25T08:29:01.000Z</time>
      </trkpt>
      <trkpt lat="47.27687" lon="-2.35026">
        <ele>30.39999961853</ele>
        <time>2021-03-25T08:29:08.000Z</time>
      </trkpt>
      <trkpt lat="47.27689" lon="-2.35032">
        <ele>30.39999961853</ele>
        <time>2021-03-25T08:29:09.000Z</time>
      </trkpt>
      <trkpt lat="47.27699" lon="-2.35039">
        <ele>30.39999961853</ele>
        <time>2021-03-25T08:29:11.000Z</time>
      </trkpt>
      <trkpt lat="47.27709" lon="-2.35039">
        <ele>30</ele>
        <time>2021-03-25T08:29:13.000Z</time>
      </trkpt>
      <trkpt lat="47.27714" lon="-2.35037">
        <ele>29.60000038147</ele>
        <time>2021-03-25T08:29:14.000Z</time>
      </trkpt>
      <trkpt lat="47.2772" lon="-2.35035">
        <ele>29.200000762939</ele>
        <time>2021-03-25T08:29:15.000Z</time>
      </trkpt>
      <trkpt lat="47.27726" lon="-2.35033">
        <ele>28.799999237061</ele>
        <time>2021-03-25T08:29:16.000Z</time>
      </trkpt>
      <trkpt lat="47.27732" lon="-2.35032">
        <ele>28.39999961853</ele>
        <time>2021-03-25T08:29:17.000Z</time>
      </trkpt>
      <trkpt lat="47.27751" lon="-2.35027">
        <ele>28.39999961853</ele>
        <time>2021-03-25T08:29:20.000Z</time>
      </trkpt>
      <trkpt lat="47.27762" lon="-2.35027">
        <ele>28</ele>
        <time>2021-03-25T08:29:23.000Z</time>
      </trkpt>
      <trkpt lat="47.27764" lon="-2.35031">
        <ele>27.60000038147</ele>
        <time>2021-03-25T08:29:24.000Z</time>
      </trkpt>
      <trkpt lat="47.27765" lon="-2.35036">
        <ele>27</ele>
        <time>2021-03-25T08:29:25.000Z</time>
      </trkpt>
      <trkpt lat="47.27765" lon="-2.35043">
        <ele>26.60000038147</ele>
        <time>2021-03-25T08:29:26.000Z</time>
      </trkpt>
      <trkpt lat="47.27766" lon="-2.35049">
        <ele>26.200000762939</ele>
        <time>2021-03-25T08:29:27.000Z</time>
      </trkpt>
      <trkpt lat="47.27767" lon="-2.35064">
        <ele>26.200000762939</ele>
        <time>2021-03-25T08:29:29.000Z</time>
      </trkpt>
      <trkpt lat="47.27767" lon="-2.3508">
        <ele>26.200000762939</ele>
        <time>2021-03-25T08:29:31.000Z</time>
      </trkpt>
      <trkpt lat="47.27772" lon="-2.35158">
        <ele>26.200000762939</ele>
        <time>2021-03-25T08:29:40.000Z</time>
      </trkpt>
      <trkpt lat="47.27779" lon="-2.35234">
        <ele>26.200000762939</ele>
        <time>2021-03-25T08:29:49.000Z</time>
      </trkpt>
      <trkpt lat="47.27789" lon="-2.35284">
        <ele>26.200000762939</ele>
        <time>2021-03-25T08:29:55.000Z</time>
      </trkpt>
      <trkpt lat="47.27805" lon="-2.35349">
        <ele>26.200000762939</ele>
        <time>2021-03-25T08:30:03.000Z</time>
      </trkpt>
      <trkpt lat="47.27808" lon="-2.35356">
        <ele>26.200000762939</ele>
        <time>2021-03-25T08:30:04.000Z</time>
      </trkpt>
      <trkpt lat="47.27818" lon="-2.35364">
        <ele>26.200000762939</ele>
        <time>2021-03-25T08:30:06.000Z</time>
      </trkpt>
      <trkpt lat="47.27834" lon="-2.35364">
        <ele>26.200000762939</ele>
        <time>2021-03-25T08:30:09.000Z</time>
      </trkpt>
      <trkpt lat="47.27839" lon="-2.35363">
        <ele>26.200000762939</ele>
        <time>2021-03-25T08:30:10.000Z</time>
      </trkpt>
      <trkpt lat="47.27869" lon="-2.35362">
        <ele>26.200000762939</ele>
        <time>2021-03-25T08:30:16.000Z</time>
      </trkpt>
      <trkpt lat="47.27874" lon="-2.35362">
        <ele>26.200000762939</ele>
        <time>2021-03-25T08:30:17.000Z</time>
      </trkpt>
      <trkpt lat="47.27878" lon="-2.35365">
        <ele>26.200000762939</ele>
        <time>2021-03-25T08:30:18.000Z</time>
      </trkpt>
      <trkpt lat="47.2789" lon="-2.35377">
        <ele>26.200000762939</ele>
        <time>2021-03-25T08:30:21.000Z</time>
      </trkpt>
      <trkpt lat="47.27896" lon="-2.35386">
        <ele>26.200000762939</ele>
        <time>2021-03-25T08:30:23.000Z</time>
      </trkpt>
      <trkpt lat="47.27907" lon="-2.35404">
        <ele>26.200000762939</ele>
        <time>2021-03-25T08:30:27.000Z</time>
      </trkpt>
      <trkpt lat="47.27928" lon="-2.35434">
        <ele>26.200000762939</ele>
        <time>2021-03-25T08:30:34.000Z</time>
      </trkpt>
      <trkpt lat="47.27955" lon="-2.35458">
        <ele>26.200000762939</ele>
        <time>2021-03-25T08:30:40.000Z</time>
      </trkpt>
      <trkpt lat="47.27975" lon="-2.35471">
        <ele>26.200000762939</ele>
        <time>2021-03-25T08:30:44.000Z</time>
      </trkpt>
      <trkpt lat="47.2798" lon="-2.35476">
        <ele>26.200000762939</ele>
        <time>2021-03-25T08:30:45.000Z</time>
      </trkpt>
      <trkpt lat="47.27993" lon="-2.35503">
        <ele>26.200000762939</ele>
        <time>2021-03-25T08:30:49.000Z</time>
      </trkpt>
      <trkpt lat="47.28002" lon="-2.3552">
        <ele>26.200000762939</ele>
        <time>2021-03-25T08:30:52.000Z</time>
      </trkpt>
      <trkpt lat="47.28006" lon="-2.35532">
        <ele>26.200000762939</ele>
        <time>2021-03-25T08:30:54.000Z</time>
      </trkpt>
      <trkpt lat="47.28013" lon="-2.35554">
        <ele>27</ele>
        <time>2021-03-25T08:30:59.000Z</time>
      </trkpt>
      <trkpt lat="47.28016" lon="-2.35556">
        <ele>27.39999961853</ele>
        <time>2021-03-25T08:31:00.000Z</time>
      </trkpt>
      <trkpt lat="47.28019" lon="-2.35557">
        <ele>27.799999237061</ele>
        <time>2021-03-25T08:31:01.000Z</time>
      </trkpt>
      <trkpt lat="47.28023" lon="-2.35558">
        <ele>28.200000762939</ele>
        <time>2021-03-25T08:31:02.000Z</time>
      </trkpt>
      <trkpt lat="47.28026" lon="-2.3556">
        <ele>28.200000762939</ele>
        <time>2021-03-25T08:31:03.000Z</time>
      </trkpt>
      <trkpt lat="47.28035" lon="-2.35569">
        <ele>28.200000762939</ele>
        <time>2021-03-25T08:31:06.000Z</time>
      </trkpt>
      <trkpt lat="47.28039" lon="-2.35575">
        <ele>28.200000762939</ele>
        <time>2021-03-25T08:31:08.000Z</time>
      </trkpt>
      <trkpt lat="47.28049" lon="-2.3558">
        <ele>28.200000762939</ele>
        <time>2021-03-25T08:31:13.000Z</time>
      </trkpt>
      <trkpt lat="47.28053" lon="-2.35584">
        <ele>28.200000762939</ele>
        <time>2021-03-25T08:31:19.000Z</time>
      </trkpt>
      <trkpt lat="47.28064" lon="-2.35572">
        <ele>36.400001525879</ele>
        <time>2021-03-25T08:38:37.000Z</time>
      </trkpt>
      <trkpt lat="47.28068" lon="-2.35565">
        <ele>36.400001525879</ele>
        <time>2021-03-25T08:38:40.000Z</time>
      </trkpt>
      <trkpt lat="47.28076" lon="-2.35559">
        <ele>36.400001525879</ele>
        <time>2021-03-25T08:38:43.000Z</time>
      </trkpt>
      <trkpt lat="47.2808" lon="-2.35557">
        <ele>36.400001525879</ele>
        <time>2021-03-25T08:38:45.000Z</time>
      </trkpt>
      <trkpt lat="47.28094" lon="-2.35551">
        <ele>36.400001525879</ele>
        <time>2021-03-25T08:38:50.000Z</time>
      </trkpt>
      <trkpt lat="47.28113" lon="-2.35551">
        <ele>36.799999237061</ele>
        <time>2021-03-25T08:38:55.000Z</time>
      </trkpt>
      <trkpt lat="47.28117" lon="-2.35552">
        <ele>37.200000762939</ele>
        <time>2021-03-25T08:38:56.000Z</time>
      </trkpt>
      <trkpt lat="47.2812" lon="-2.35552">
        <ele>37.599998474121</ele>
        <time>2021-03-25T08:38:57.000Z</time>
      </trkpt>
      <trkpt lat="47.28124" lon="-2.35552">
        <ele>38</ele>
        <time>2021-03-25T08:38:58.000Z</time>
      </trkpt>
      <trkpt lat="47.28127" lon="-2.35553">
        <ele>38.400001525879</ele>
        <time>2021-03-25T08:38:59.000Z</time>
      </trkpt>
      <trkpt lat="47.28137" lon="-2.3555">
        <ele>38.400001525879</ele>
        <time>2021-03-25T08:39:02.000Z</time>
      </trkpt>
      <trkpt lat="47.28147" lon="-2.35531">
        <ele>38.400001525879</ele>
        <time>2021-03-25T08:39:06.000Z</time>
      </trkpt>
      <trkpt lat="47.28164" lon="-2.35499">
        <ele>38.400001525879</ele>
        <time>2021-03-25T08:39:12.000Z</time>
      </trkpt>
      <trkpt lat="47.2819" lon="-2.3546">
        <ele>38.400001525879</ele>
        <time>2021-03-25T08:39:20.000Z</time>
      </trkpt>
      <trkpt lat="47.28197" lon="-2.3545">
        <ele>38.400001525879</ele>
        <time>2021-03-25T08:39:22.000Z</time>
      </trkpt>
      <trkpt lat="47.2821" lon="-2.35437">
        <ele>38.400001525879</ele>
        <time>2021-03-25T08:39:25.000Z</time>
      </trkpt>
      <trkpt lat="47.28243" lon="-2.35401">
        <ele>38.400001525879</ele>
        <time>2021-03-25T08:39:33.000Z</time>
      </trkpt>
      <trkpt lat="47.2825" lon="-2.35401">
        <ele>38.400001525879</ele>
        <time>2021-03-25T08:39:35.000Z</time>
      </trkpt>
      <trkpt lat="47.28252" lon="-2.35404">
        <ele>38.400001525879</ele>
        <time>2021-03-25T08:39:36.000Z</time>
      </trkpt>
      <trkpt lat="47.28264" lon="-2.35412">
        <ele>38.400001525879</ele>
        <time>2021-03-25T08:39:40.000Z</time>
      </trkpt>
      <trkpt lat="47.28266" lon="-2.35409">
        <ele>38.400001525879</ele>
        <time>2021-03-25T08:39:41.000Z</time>
      </trkpt>
      <trkpt lat="47.2828" lon="-2.354">
        <ele>38.400001525879</ele>
        <time>2021-03-25T08:39:46.000Z</time>
      </trkpt>
      <trkpt lat="47.28281" lon="-2.35395">
        <ele>38.400001525879</ele>
        <time>2021-03-25T08:39:47.000Z</time>
      </trkpt>
      <trkpt lat="47.28293" lon="-2.35375">
        <ele>38.400001525879</ele>
        <time>2021-03-25T08:39:52.000Z</time>
      </trkpt>
      <trkpt lat="47.28317" lon="-2.35359">
        <ele>38.400001525879</ele>
        <time>2021-03-25T08:39:58.000Z</time>
      </trkpt>
      <trkpt lat="47.28343" lon="-2.35342">
        <ele>38.400001525879</ele>
        <time>2021-03-25T08:40:05.000Z</time>
      </trkpt>
      <trkpt lat="47.28357" lon="-2.35337">
        <ele>38.400001525879</ele>
        <time>2021-03-25T08:40:10.000Z</time>
      </trkpt>
      <trkpt lat="47.28361" lon="-2.35348">
        <ele>38.400001525879</ele>
        <time>2021-03-25T08:40:13.000Z</time>
      </trkpt>
      <trkpt lat="47.28361" lon="-2.35351">
        <ele>38.799999237061</ele>
        <time>2021-03-25T08:40:14.000Z</time>
      </trkpt>
      <trkpt lat="47.28363" lon="-2.35354">
        <ele>39.200000762939</ele>
        <time>2021-03-25T08:40:15.000Z</time>
      </trkpt>
      <trkpt lat="47.28363" lon="-2.35357">
        <ele>39.599998474121</ele>
        <time>2021-03-25T08:40:16.000Z</time>
      </trkpt>
      <trkpt lat="47.28364" lon="-2.35359">
        <ele>40</ele>
        <time>2021-03-25T08:40:17.000Z</time>
      </trkpt>
      <trkpt lat="47.28365" lon="-2.35361">
        <ele>40.400001525879</ele>
        <time>2021-03-25T08:40:18.000Z</time>
      </trkpt>
      <trkpt lat="47.28367" lon="-2.35363">
        <ele>40.400001525879</ele>
        <time>2021-03-25T08:40:19.000Z</time>
      </trkpt>
      <trkpt lat="47.28371" lon="-2.35372">
        <ele>41</ele>
        <time>2021-03-25T08:40:22.000Z</time>
      </trkpt>
      <trkpt lat="47.28372" lon="-2.35375">
        <ele>41.400001525879</ele>
        <time>2021-03-25T08:40:23.000Z</time>
      </trkpt>
      <trkpt lat="47.28373" lon="-2.35378">
        <ele>41.799999237061</ele>
        <time>2021-03-25T08:40:24.000Z</time>
      </trkpt>
      <trkpt lat="47.28373" lon="-2.3538">
        <ele>42.400001525879</ele>
        <time>2021-03-25T08:40:25.000Z</time>
      </trkpt>
      <trkpt lat="47.28373" lon="-2.35381">
        <ele>43.200000762939</ele>
        <time>2021-03-25T08:40:26.000Z</time>
      </trkpt>
      <trkpt lat="47.28374" lon="-2.35384">
        <ele>43.799999237061</ele>
        <time>2021-03-25T08:40:27.000Z</time>
      </trkpt>
      <trkpt lat="47.28374" lon="-2.35386">
        <ele>44.200000762939</ele>
        <time>2021-03-25T08:40:28.000Z</time>
      </trkpt>
      <trkpt lat="47.28374" lon="-2.35388">
        <ele>44.599998474121</ele>
        <time>2021-03-25T08:40:29.000Z</time>
      </trkpt>
      <trkpt lat="47.28375" lon="-2.3539">
        <ele>45.200000762939</ele>
        <time>2021-03-25T08:40:30.000Z</time>
      </trkpt>
      <trkpt lat="47.28377" lon="-2.35392">
        <ele>45.599998474121</ele>
        <time>2021-03-25T08:40:31.000Z</time>
      </trkpt>
      <trkpt lat="47.28378" lon="-2.35394">
        <ele>46</ele>
        <time>2021-03-25T08:40:32.000Z</time>
      </trkpt>
      <trkpt lat="47.28379" lon="-2.35396">
        <ele>46.400001525879</ele>
        <time>2021-03-25T08:40:33.000Z</time>
      </trkpt>
      <trkpt lat="47.28381" lon="-2.35399">
        <ele>47</ele>
        <time>2021-03-25T08:40:34.000Z</time>
      </trkpt>
      <trkpt lat="47.28383" lon="-2.35402">
        <ele>47.400001525879</ele>
        <time>2021-03-25T08:40:35.000Z</time>
      </trkpt>
      <trkpt lat="47.28386" lon="-2.35407">
        <ele>47.799999237061</ele>
        <time>2021-03-25T08:40:37.000Z</time>
      </trkpt>
      <trkpt lat="47.28387" lon="-2.3541">
        <ele>48.200000762939</ele>
        <time>2021-03-25T08:40:38.000Z</time>
      </trkpt>
      <trkpt lat="47.28389" lon="-2.35412">
        <ele>48.599998474121</ele>
        <time>2021-03-25T08:40:39.000Z</time>
      </trkpt>
      <trkpt lat="47.28391" lon="-2.35413">
        <ele>49</ele>
        <time>2021-03-25T08:40:40.000Z</time>
      </trkpt>
      <trkpt lat="47.28393" lon="-2.35415">
        <ele>49.400001525879</ele>
        <time>2021-03-25T08:40:41.000Z</time>
      </trkpt>
      <trkpt lat="47.28398" lon="-2.35419">
        <ele>49.400001525879</ele>
        <time>2021-03-25T08:40:43.000Z</time>
      </trkpt>
      <trkpt lat="47.28411" lon="-2.35427">
        <ele>49.400001525879</ele>
        <time>2021-03-25T08:40:48.000Z</time>
      </trkpt>
      <trkpt lat="47.28434" lon="-2.35429">
        <ele>49.400001525879</ele>
        <time>2021-03-25T08:40:55.000Z</time>
      </trkpt>
      <trkpt lat="47.28445" lon="-2.35424">
        <ele>49.400001525879</ele>
        <time>2021-03-25T08:41:00.000Z</time>
      </trkpt>
      <trkpt lat="47.28451" lon="-2.35423">
        <ele>49.400001525879</ele>
        <time>2021-03-25T08:41:03.000Z</time>
      </trkpt>
      <trkpt lat="47.28454" lon="-2.35425">
        <ele>49.400001525879</ele>
        <time>2021-03-25T08:41:05.000Z</time>
      </trkpt>
      <trkpt lat="47.28459" lon="-2.35431">
        <ele>49.400001525879</ele>
        <time>2021-03-25T08:41:08.000Z</time>
      </trkpt>
      <trkpt lat="47.28466" lon="-2.35437">
        <ele>49.400001525879</ele>
        <time>2021-03-25T08:41:11.000Z</time>
      </trkpt>
      <trkpt lat="47.28469" lon="-2.35437">
        <ele>49.400001525879</ele>
        <time>2021-03-25T08:41:12.000Z</time>
      </trkpt>
      <trkpt lat="47.28479" lon="-2.35429">
        <ele>48.599998474121</ele>
        <time>2021-03-25T08:41:15.000Z</time>
      </trkpt>
      <trkpt lat="47.28483" lon="-2.35426">
        <ele>48.200000762939</ele>
        <time>2021-03-25T08:41:16.000Z</time>
      </trkpt>
      <trkpt lat="47.28487" lon="-2.35426">
        <ele>47.599998474121</ele>
        <time>2021-03-25T08:41:17.000Z</time>
      </trkpt>
      <trkpt lat="47.28491" lon="-2.35424">
        <ele>47.200000762939</ele>
        <time>2021-03-25T08:41:18.000Z</time>
      </trkpt>
      <trkpt lat="47.28495" lon="-2.35424">
        <ele>46.599998474121</ele>
        <time>2021-03-25T08:41:19.000Z</time>
      </trkpt>
      <trkpt lat="47.28499" lon="-2.35424">
        <ele>46</ele>
        <time>2021-03-25T08:41:20.000Z</time>
      </trkpt>
      <trkpt lat="47.28503" lon="-2.35424">
        <ele>45.599998474121</ele>
        <time>2021-03-25T08:41:21.000Z</time>
      </trkpt>
      <trkpt lat="47.28505" lon="-2.35423">
        <ele>45</ele>
        <time>2021-03-25T08:41:22.000Z</time>
      </trkpt>
      <trkpt lat="47.28522" lon="-2.35424">
        <ele>45</ele>
        <time>2021-03-25T08:41:26.000Z</time>
      </trkpt>
      <trkpt lat="47.28533" lon="-2.35431">
        <ele>45</ele>
        <time>2021-03-25T08:41:29.000Z</time>
      </trkpt>
      <trkpt lat="47.28535" lon="-2.3543">
        <ele>45</ele>
        <time>2021-03-25T08:41:30.000Z</time>
      </trkpt>
      <trkpt lat="47.28541" lon="-2.35426">
        <ele>44.599998474121</ele>
        <time>2021-03-25T08:41:34.000Z</time>
      </trkpt>
      <trkpt lat="47.28543" lon="-2.35426">
        <ele>44.200000762939</ele>
        <time>2021-03-25T08:41:35.000Z</time>
      </trkpt>
      <trkpt lat="47.28544" lon="-2.35425">
        <ele>43.799999237061</ele>
        <time>2021-03-25T08:41:36.000Z</time>
      </trkpt>
      <trkpt lat="47.28544" lon="-2.35425">
        <ele>43.400001525879</ele>
        <time>2021-03-25T08:41:37.000Z</time>
      </trkpt>
      <trkpt lat="47.28544" lon="-2.35425">
        <ele>43</ele>
        <time>2021-03-25T08:41:38.000Z</time>
      </trkpt>
      <trkpt lat="47.28552" lon="-2.35422">
        <ele>43</ele>
        <time>2021-03-25T08:41:45.000Z</time>
      </trkpt>
      <trkpt lat="47.28558" lon="-2.35415">
        <ele>43</ele>
        <time>2021-03-25T08:41:51.000Z</time>
      </trkpt>
      <trkpt lat="47.28563" lon="-2.35416">
        <ele>43</ele>
        <time>2021-03-25T08:41:56.000Z</time>
      </trkpt>
      <trkpt lat="47.28568" lon="-2.35433">
        <ele>43</ele>
        <time>2021-03-25T08:41:59.000Z</time>
      </trkpt>
      <trkpt lat="47.28572" lon="-2.35465">
        <ele>43</ele>
        <time>2021-03-25T08:42:05.000Z</time>
      </trkpt>
      <trkpt lat="47.28572" lon="-2.35471">
        <ele>43.400001525879</ele>
        <time>2021-03-25T08:42:06.000Z</time>
      </trkpt>
      <trkpt lat="47.28573" lon="-2.35477">
        <ele>43.799999237061</ele>
        <time>2021-03-25T08:42:07.000Z</time>
      </trkpt>
      <trkpt lat="47.28573" lon="-2.35481">
        <ele>44.200000762939</ele>
        <time>2021-03-25T08:42:08.000Z</time>
      </trkpt>
      <trkpt lat="47.28574" lon="-2.35486">
        <ele>44.599998474121</ele>
        <time>2021-03-25T08:42:09.000Z</time>
      </trkpt>
      <trkpt lat="47.28575" lon="-2.35492">
        <ele>45</ele>
        <time>2021-03-25T08:42:10.000Z</time>
      </trkpt>
      <trkpt lat="47.28576" lon="-2.35497">
        <ele>45</ele>
        <time>2021-03-25T08:42:11.000Z</time>
      </trkpt>
      <trkpt lat="47.2858" lon="-2.35522">
        <ele>45</ele>
        <time>2021-03-25T08:42:15.000Z</time>
      </trkpt>
      <trkpt lat="47.28581" lon="-2.35529">
        <ele>45</ele>
        <time>2021-03-25T08:42:16.000Z</time>
      </trkpt>
      <trkpt lat="47.28583" lon="-2.35541">
        <ele>45</ele>
        <time>2021-03-25T08:42:18.000Z</time>
      </trkpt>
      <trkpt lat="47.28586" lon="-2.3556">
        <ele>45</ele>
        <time>2021-03-25T08:42:21.000Z</time>
      </trkpt>
      <trkpt lat="47.28587" lon="-2.35579">
        <ele>45</ele>
        <time>2021-03-25T08:42:24.000Z</time>
      </trkpt>
      <trkpt lat="47.28591" lon="-2.35605">
        <ele>45</ele>
        <time>2021-03-25T08:42:28.000Z</time>
      </trkpt>
      <trkpt lat="47.28599" lon="-2.35638">
        <ele>45</ele>
        <time>2021-03-25T08:42:34.000Z</time>
      </trkpt>
      <trkpt lat="47.28601" lon="-2.35651">
        <ele>45.400001525879</ele>
        <time>2021-03-25T08:42:36.000Z</time>
      </trkpt>
      <trkpt lat="47.28602" lon="-2.35657">
        <ele>45.799999237061</ele>
        <time>2021-03-25T08:42:37.000Z</time>
      </trkpt>
      <trkpt lat="47.28603" lon="-2.35664">
        <ele>46.200000762939</ele>
        <time>2021-03-25T08:42:38.000Z</time>
      </trkpt>
      <trkpt lat="47.28604" lon="-2.35671">
        <ele>46.599998474121</ele>
        <time>2021-03-25T08:42:39.000Z</time>
      </trkpt>
      <trkpt lat="47.28605" lon="-2.35678">
        <ele>47</ele>
        <time>2021-03-25T08:42:40.000Z</time>
      </trkpt>
      <trkpt lat="47.28605" lon="-2.35685">
        <ele>47</ele>
        <time>2021-03-25T08:42:41.000Z</time>
      </trkpt>
      <trkpt lat="47.2861" lon="-2.35722">
        <ele>47</ele>
        <time>2021-03-25T08:42:46.000Z</time>
      </trkpt>
      <trkpt lat="47.28614" lon="-2.35735">
        <ele>47</ele>
        <time>2021-03-25T08:42:48.000Z</time>
      </trkpt>
      <trkpt lat="47.28626" lon="-2.3575">
        <ele>47</ele>
        <time>2021-03-25T08:42:51.000Z</time>
      </trkpt>
      <trkpt lat="47.28633" lon="-2.35769">
        <ele>47</ele>
        <time>2021-03-25T08:42:54.000Z</time>
      </trkpt>
      <trkpt lat="47.28636" lon="-2.35783">
        <ele>47</ele>
        <time>2021-03-25T08:42:56.000Z</time>
      </trkpt>
      <trkpt lat="47.28639" lon="-2.35797">
        <ele>47</ele>
        <time>2021-03-25T08:42:58.000Z</time>
      </trkpt>
      <trkpt lat="47.28641" lon="-2.35809">
        <ele>47</ele>
        <time>2021-03-25T08:43:00.000Z</time>
      </trkpt>
      <trkpt lat="47.28642" lon="-2.35815">
        <ele>47</ele>
        <time>2021-03-25T08:43:01.000Z</time>
      </trkpt>
      <trkpt lat="47.28646" lon="-2.35841">
        <ele>47</ele>
        <time>2021-03-25T08:43:06.000Z</time>
      </trkpt>
      <trkpt lat="47.28653" lon="-2.35857">
        <ele>47.400001525879</ele>
        <time>2021-03-25T08:43:09.000Z</time>
      </trkpt>
      <trkpt lat="47.28655" lon="-2.35862">
        <ele>48</ele>
        <time>2021-03-25T08:43:10.000Z</time>
      </trkpt>
      <trkpt lat="47.28657" lon="-2.35867">
        <ele>48.400001525879</ele>
        <time>2021-03-25T08:43:11.000Z</time>
      </trkpt>
      <trkpt lat="47.28659" lon="-2.35873">
        <ele>48.799999237061</ele>
        <time>2021-03-25T08:43:12.000Z</time>
      </trkpt>
      <trkpt lat="47.28661" lon="-2.35878">
        <ele>49.200000762939</ele>
        <time>2021-03-25T08:43:13.000Z</time>
      </trkpt>
      <trkpt lat="47.28668" lon="-2.359">
        <ele>49.200000762939</ele>
        <time>2021-03-25T08:43:17.000Z</time>
      </trkpt>
      <trkpt lat="47.28675" lon="-2.35917">
        <ele>49.200000762939</ele>
        <time>2021-03-25T08:43:21.000Z</time>
      </trkpt>
      <trkpt lat="47.28678" lon="-2.35916">
        <ele>49.200000762939</ele>
        <time>2021-03-25T08:43:22.000Z</time>
      </trkpt>
      <trkpt lat="47.28689" lon="-2.35902">
        <ele>49.200000762939</ele>
        <time>2021-03-25T08:43:26.000Z</time>
      </trkpt>
      <trkpt lat="47.28714" lon="-2.35866">
        <ele>49.200000762939</ele>
        <time>2021-03-25T08:43:34.000Z</time>
      </trkpt>
      <trkpt lat="47.28721" lon="-2.35855">
        <ele>49.599998474121</ele>
        <time>2021-03-25T08:43:36.000Z</time>
      </trkpt>
      <trkpt lat="47.28724" lon="-2.35849">
        <ele>50</ele>
        <time>2021-03-25T08:43:37.000Z</time>
      </trkpt>
      <trkpt lat="47.28727" lon="-2.35844">
        <ele>50.400001525879</ele>
        <time>2021-03-25T08:43:38.000Z</time>
      </trkpt>
      <trkpt lat="47.2873" lon="-2.35838">
        <ele>50.799999237061</ele>
        <time>2021-03-25T08:43:39.000Z</time>
      </trkpt>
      <trkpt lat="47.28732" lon="-2.35832">
        <ele>51.400001525879</ele>
        <time>2021-03-25T08:43:40.000Z</time>
      </trkpt>
      <trkpt lat="47.28739" lon="-2.3582">
        <ele>51.400001525879</ele>
        <time>2021-03-25T08:43:42.000Z</time>
      </trkpt>
      <trkpt lat="47.28769" lon="-2.35761">
        <ele>51.400001525879</ele>
        <time>2021-03-25T08:43:52.000Z</time>
      </trkpt>
      <trkpt lat="47.28792" lon="-2.35717">
        <ele>51.400001525879</ele>
        <time>2021-03-25T08:44:00.000Z</time>
      </trkpt>
      <trkpt lat="47.28806" lon="-2.35689">
        <ele>51.400001525879</ele>
        <time>2021-03-25T08:44:06.000Z</time>
      </trkpt>
      <trkpt lat="47.28815" lon="-2.35673">
        <ele>51.400001525879</ele>
        <time>2021-03-25T08:44:11.000Z</time>
      </trkpt>
      <trkpt lat="47.28826" lon="-2.35668">
        <ele>51.400001525879</ele>
        <time>2021-03-25T08:44:17.000Z</time>
      </trkpt>
      <trkpt lat="47.28835" lon="-2.35657">
        <ele>51.400001525879</ele>
        <time>2021-03-25T08:44:23.000Z</time>
      </trkpt>
      <trkpt lat="47.28844" lon="-2.35641">
        <ele>51.400001525879</ele>
        <time>2021-03-25T08:44:31.000Z</time>
      </trkpt>
      <trkpt lat="47.28854" lon="-2.35631">
        <ele>51.400001525879</ele>
        <time>2021-03-25T08:44:39.000Z</time>
      </trkpt>
      <trkpt lat="47.28861" lon="-2.35622">
        <ele>51.400001525879</ele>
        <time>2021-03-25T08:44:45.000Z</time>
      </trkpt>
      <trkpt lat="47.28874" lon="-2.3561">
        <ele>51.400001525879</ele>
        <time>2021-03-25T08:44:53.000Z</time>
      </trkpt>
      <trkpt lat="47.28888" lon="-2.35596">
        <ele>51.400001525879</ele>
        <time>2021-03-25T08:45:02.000Z</time>
      </trkpt>
      <trkpt lat="47.28889" lon="-2.35595">
        <ele>51.400001525879</ele>
        <time>2021-03-25T08:45:03.000Z</time>
      </trkpt>
      <trkpt lat="47.28892" lon="-2.35599">
        <ele>51.400001525879</ele>
        <time>2021-03-25T08:45:05.000Z</time>
      </trkpt>
      <trkpt lat="47.28887" lon="-2.35605">
        <ele>51.400001525879</ele>
        <time>2021-03-25T08:45:09.000Z</time>
      </trkpt>
      <trkpt lat="47.28877" lon="-2.35612">
        <ele>51.400001525879</ele>
        <time>2021-03-25T08:45:14.000Z</time>
      </trkpt>
      <trkpt lat="47.28873" lon="-2.35617">
        <ele>51.400001525879</ele>
        <time>2021-03-25T08:45:16.000Z</time>
      </trkpt>
      <trkpt lat="47.2886" lon="-2.35629">
        <ele>51.400001525879</ele>
        <time>2021-03-25T08:45:22.000Z</time>
      </trkpt>
      <trkpt lat="47.28846" lon="-2.35646">
        <ele>51.799999237061</ele>
        <time>2021-03-25T08:45:28.000Z</time>
      </trkpt>
      <trkpt lat="47.28843" lon="-2.35648">
        <ele>52.200000762939</ele>
        <time>2021-03-25T08:45:29.000Z</time>
      </trkpt>
      <trkpt lat="47.28841" lon="-2.3565">
        <ele>52.599998474121</ele>
        <time>2021-03-25T08:45:30.000Z</time>
      </trkpt>
      <trkpt lat="47.28838" lon="-2.35653">
        <ele>53</ele>
        <time>2021-03-25T08:45:31.000Z</time>
      </trkpt>
      <trkpt lat="47.28836" lon="-2.35655">
        <ele>53.400001525879</ele>
        <time>2021-03-25T08:45:32.000Z</time>
      </trkpt>
      <trkpt lat="47.28833" lon="-2.35658">
        <ele>53.400001525879</ele>
        <time>2021-03-25T08:45:33.000Z</time>
      </trkpt>
      <trkpt lat="47.28816" lon="-2.35679">
        <ele>53.400001525879</ele>
        <time>2021-03-25T08:45:40.000Z</time>
      </trkpt>
      <trkpt lat="47.28802" lon="-2.35705">
        <ele>53.400001525879</ele>
        <time>2021-03-25T08:45:47.000Z</time>
      </trkpt>
      <trkpt lat="47.28785" lon="-2.35739">
        <ele>53.400001525879</ele>
        <time>2021-03-25T08:45:56.000Z</time>
      </trkpt>
      <trkpt lat="47.28768" lon="-2.3577">
        <ele>53.400001525879</ele>
        <time>2021-03-25T08:46:04.000Z</time>
      </trkpt>
      <trkpt lat="47.28754" lon="-2.35802">
        <ele>53.400001525879</ele>
        <time>2021-03-25T08:46:12.000Z</time>
      </trkpt>
      <trkpt lat="47.2874" lon="-2.35827">
        <ele>53.400001525879</ele>
        <time>2021-03-25T08:46:19.000Z</time>
      </trkpt>
      <trkpt lat="47.28726" lon="-2.35854">
        <ele>53.400001525879</ele>
        <time>2021-03-25T08:46:26.000Z</time>
      </trkpt>
      <trkpt lat="47.28711" lon="-2.35879">
        <ele>53.400001525879</ele>
        <time>2021-03-25T08:46:32.000Z</time>
      </trkpt>
      <trkpt lat="47.2869" lon="-2.35908">
        <ele>53.400001525879</ele>
        <time>2021-03-25T08:46:39.000Z</time>
      </trkpt>
      <trkpt lat="47.28684" lon="-2.35916">
        <ele>53.400001525879</ele>
        <time>2021-03-25T08:46:41.000Z</time>
      </trkpt>
      <trkpt lat="47.28674" lon="-2.3592">
        <ele>53.400001525879</ele>
        <time>2021-03-25T08:46:44.000Z</time>
      </trkpt>
      <trkpt lat="47.28669" lon="-2.35913">
        <ele>53.400001525879</ele>
        <time>2021-03-25T08:46:46.000Z</time>
      </trkpt>
      <trkpt lat="47.28668" lon="-2.35908">
        <ele>53.400001525879</ele>
        <time>2021-03-25T08:46:47.000Z</time>
      </trkpt>
      <trkpt lat="47.28666" lon="-2.35903">
        <ele>53.400001525879</ele>
        <time>2021-03-25T08:46:48.000Z</time>
      </trkpt>
      <trkpt lat="47.28656" lon="-2.35865">
        <ele>53.400001525879</ele>
        <time>2021-03-25T08:46:55.000Z</time>
      </trkpt>
      <trkpt lat="47.28641" lon="-2.3583">
        <ele>53.400001525879</ele>
        <time>2021-03-25T08:47:02.000Z</time>
      </trkpt>
      <trkpt lat="47.2864" lon="-2.35825">
        <ele>53</ele>
        <time>2021-03-25T08:47:03.000Z</time>
      </trkpt>
      <trkpt lat="47.2864" lon="-2.35821">
        <ele>52.599998474121</ele>
        <time>2021-03-25T08:47:04.000Z</time>
      </trkpt>
      <trkpt lat="47.2864" lon="-2.35818">
        <ele>52</ele>
        <time>2021-03-25T08:47:05.000Z</time>
      </trkpt>
      <trkpt lat="47.2864" lon="-2.35815">
        <ele>51.599998474121</ele>
        <time>2021-03-25T08:47:06.000Z</time>
      </trkpt>
      <trkpt lat="47.2864" lon="-2.35812">
        <ele>51.200000762939</ele>
        <time>2021-03-25T08:47:07.000Z</time>
      </trkpt>
      <trkpt lat="47.28636" lon="-2.35794">
        <ele>51.200000762939</ele>
        <time>2021-03-25T08:47:11.000Z</time>
      </trkpt>
      <trkpt lat="47.28624" lon="-2.3575">
        <ele>51.200000762939</ele>
        <time>2021-03-25T08:47:18.000Z</time>
      </trkpt>
      <trkpt lat="47.28617" lon="-2.35741">
        <ele>51.200000762939</ele>
        <time>2021-03-25T08:47:22.000Z</time>
      </trkpt>
      <trkpt lat="47.28614" lon="-2.35739">
        <ele>51.200000762939</ele>
        <time>2021-03-25T08:47:26.000Z</time>
      </trkpt>
      <trkpt lat="47.28618" lon="-2.35739">
        <ele>51.200000762939</ele>
        <time>2021-03-25T08:47:37.000Z</time>
      </trkpt>
      <trkpt lat="47.28618" lon="-2.3574">
        <ele>51.200000762939</ele>
        <time>2021-03-25T08:47:38.000Z</time>
      </trkpt>
      <trkpt lat="47.2862" lon="-2.3574">
        <ele>51.200000762939</ele>
        <time>2021-03-25T08:47:42.000Z</time>
      </trkpt>
      <trkpt lat="47.28623" lon="-2.35744">
        <ele>51.200000762939</ele>
        <time>2021-03-25T08:47:44.000Z</time>
      </trkpt>
      <trkpt lat="47.28631" lon="-2.35759">
        <ele>51.200000762939</ele>
        <time>2021-03-25T08:47:48.000Z</time>
      </trkpt>
      <trkpt lat="47.28637" lon="-2.35787">
        <ele>51.200000762939</ele>
        <time>2021-03-25T08:47:53.000Z</time>
      </trkpt>
      <trkpt lat="47.28642" lon="-2.35806">
        <ele>51.200000762939</ele>
        <time>2021-03-25T08:47:58.000Z</time>
      </trkpt>
      <trkpt lat="47.28643" lon="-2.35809">
        <ele>51.200000762939</ele>
        <time>2021-03-25T08:47:59.000Z</time>
      </trkpt>
      <trkpt lat="47.28643" lon="-2.35823">
        <ele>51.200000762939</ele>
        <time>2021-03-25T08:48:04.000Z</time>
      </trkpt>
      <trkpt lat="47.28647" lon="-2.35848">
        <ele>51.200000762939</ele>
        <time>2021-03-25T08:48:09.000Z</time>
      </trkpt>
      <trkpt lat="47.28659" lon="-2.35876">
        <ele>51.200000762939</ele>
        <time>2021-03-25T08:48:15.000Z</time>
      </trkpt>
      <trkpt lat="47.28671" lon="-2.35914">
        <ele>51.200000762939</ele>
        <time>2021-03-25T08:48:23.000Z</time>
      </trkpt>
      <trkpt lat="47.28673" lon="-2.35917">
        <ele>51.200000762939</ele>
        <time>2021-03-25T08:48:24.000Z</time>
      </trkpt>
      <trkpt lat="47.28679" lon="-2.35916">
        <ele>51.200000762939</ele>
        <time>2021-03-25T08:48:26.000Z</time>
      </trkpt>
      <trkpt lat="47.28685" lon="-2.3591">
        <ele>51.200000762939</ele>
        <time>2021-03-25T08:48:28.000Z</time>
      </trkpt>
      <trkpt lat="47.28695" lon="-2.35898">
        <ele>51.200000762939</ele>
        <time>2021-03-25T08:48:31.000Z</time>
      </trkpt>
      <trkpt lat="47.28702" lon="-2.35889">
        <ele>51.599998474121</ele>
        <time>2021-03-25T08:48:33.000Z</time>
      </trkpt>
      <trkpt lat="47.28705" lon="-2.35885">
        <ele>52</ele>
        <time>2021-03-25T08:48:34.000Z</time>
      </trkpt>
      <trkpt lat="47.28708" lon="-2.3588">
        <ele>52.400001525879</ele>
        <time>2021-03-25T08:48:35.000Z</time>
      </trkpt>
      <trkpt lat="47.28711" lon="-2.35875">
        <ele>52.799999237061</ele>
        <time>2021-03-25T08:48:36.000Z</time>
      </trkpt>
      <trkpt lat="47.28715" lon="-2.35869">
        <ele>53.200000762939</ele>
        <time>2021-03-25T08:48:37.000Z</time>
      </trkpt>
      <trkpt lat="47.2872" lon="-2.35858">
        <ele>53.200000762939</ele>
        <time>2021-03-25T08:48:39.000Z</time>
      </trkpt>
      <trkpt lat="47.28747" lon="-2.35806">
        <ele>53.200000762939</ele>
        <time>2021-03-25T08:48:48.000Z</time>
      </trkpt>
      <trkpt lat="47.28774" lon="-2.35755">
        <ele>53.200000762939</ele>
        <time>2021-03-25T08:48:57.000Z</time>
      </trkpt>
      <trkpt lat="47.288" lon="-2.35705">
        <ele>53.200000762939</ele>
        <time>2021-03-25T08:49:05.000Z</time>
      </trkpt>
      <trkpt lat="47.28826" lon="-2.35663">
        <ele>53.200000762939</ele>
        <time>2021-03-25T08:49:12.000Z</time>
      </trkpt>
      <trkpt lat="47.28854" lon="-2.35632">
        <ele>53.799999237061</ele>
        <time>2021-03-25T08:49:18.000Z</time>
      </trkpt>
      <trkpt lat="47.28859" lon="-2.35627">
        <ele>54.200000762939</ele>
        <time>2021-03-25T08:49:19.000Z</time>
      </trkpt>
      <trkpt lat="47.28863" lon="-2.35622">
        <ele>54.599998474121</ele>
        <time>2021-03-25T08:49:20.000Z</time>
      </trkpt>
      <trkpt lat="47.28867" lon="-2.35618">
        <ele>55</ele>
        <time>2021-03-25T08:49:21.000Z</time>
      </trkpt>
      <trkpt lat="47.28872" lon="-2.35613">
        <ele>55.400001525879</ele>
        <time>2021-03-25T08:49:22.000Z</time>
      </trkpt>
      <trkpt lat="47.2889" lon="-2.35595">
        <ele>55.400001525879</ele>
        <time>2021-03-25T08:49:26.000Z</time>
      </trkpt>
      <trkpt lat="47.28919" lon="-2.35563">
        <ele>55.400001525879</ele>
        <time>2021-03-25T08:49:33.000Z</time>
      </trkpt>
      <trkpt lat="47.28926" lon="-2.35556">
        <ele>55.400001525879</ele>
        <time>2021-03-25T08:49:37.000Z</time>
      </trkpt>
      <trkpt lat="47.28931" lon="-2.35562">
        <ele>55.400001525879</ele>
        <time>2021-03-25T08:49:39.000Z</time>
      </trkpt>
      <trkpt lat="47.28934" lon="-2.35571">
        <ele>55.400001525879</ele>
        <time>2021-03-25T08:49:41.000Z</time>
      </trkpt>
      <trkpt lat="47.28939" lon="-2.35587">
        <ele>55.400001525879</ele>
        <time>2021-03-25T08:49:44.000Z</time>
      </trkpt>
      <trkpt lat="47.28945" lon="-2.35603">
        <ele>55.400001525879</ele>
        <time>2021-03-25T08:49:48.000Z</time>
      </trkpt>
      <trkpt lat="47.28951" lon="-2.35623">
        <ele>55.400001525879</ele>
        <time>2021-03-25T08:49:56.000Z</time>
      </trkpt>
      <trkpt lat="47.28956" lon="-2.35635">
        <ele>55.400001525879</ele>
        <time>2021-03-25T08:50:03.000Z</time>
      </trkpt>
      <trkpt lat="47.28963" lon="-2.35647">
        <ele>55.400001525879</ele>
        <time>2021-03-25T08:50:09.000Z</time>
      </trkpt>
      <trkpt lat="47.28964" lon="-2.35651">
        <ele>55.400001525879</ele>
        <time>2021-03-25T08:50:11.000Z</time>
      </trkpt>
      <trkpt lat="47.28967" lon="-2.35658">
        <ele>55.400001525879</ele>
        <time>2021-03-25T08:50:14.000Z</time>
      </trkpt>
      <trkpt lat="47.28973" lon="-2.3567">
        <ele>55.400001525879</ele>
        <time>2021-03-25T08:50:19.000Z</time>
      </trkpt>
      <trkpt lat="47.28975" lon="-2.35672">
        <ele>55.400001525879</ele>
        <time>2021-03-25T08:50:20.000Z</time>
      </trkpt>
      <trkpt lat="47.28985" lon="-2.35692">
        <ele>55.400001525879</ele>
        <time>2021-03-25T08:50:28.000Z</time>
      </trkpt>
      <trkpt lat="47.29" lon="-2.35707">
        <ele>55.400001525879</ele>
        <time>2021-03-25T08:50:36.000Z</time>
      </trkpt>
      <trkpt lat="47.29013" lon="-2.3571">
        <ele>55.400001525879</ele>
        <time>2021-03-25T08:50:43.000Z</time>
      </trkpt>
      <trkpt lat="47.29015" lon="-2.35711">
        <ele>55.400001525879</ele>
        <time>2021-03-25T08:50:45.000Z</time>
      </trkpt>
      <trkpt lat="47.29017" lon="-2.35715">
        <ele>55.400001525879</ele>
        <time>2021-03-25T08:50:47.000Z</time>
      </trkpt>
      <trkpt lat="47.29019" lon="-2.35727">
        <ele>55.400001525879</ele>
        <time>2021-03-25T08:50:53.000Z</time>
      </trkpt>
      <trkpt lat="47.29013" lon="-2.35734">
        <ele>55.400001525879</ele>
        <time>2021-03-25T08:50:58.000Z</time>
      </trkpt>
      <trkpt lat="47.29012" lon="-2.35734">
        <ele>55.400001525879</ele>
        <time>2021-03-25T08:50:59.000Z</time>
      </trkpt>
      <trkpt lat="47.2901" lon="-2.35734">
        <ele>55.799999237061</ele>
        <time>2021-03-25T08:51:00.000Z</time>
      </trkpt>
      <trkpt lat="47.29008" lon="-2.35734">
        <ele>56.200000762939</ele>
        <time>2021-03-25T08:51:01.000Z</time>
      </trkpt>
      <trkpt lat="47.29005" lon="-2.35733">
        <ele>56.599998474121</ele>
        <time>2021-03-25T08:51:02.000Z</time>
      </trkpt>
      <trkpt lat="47.29003" lon="-2.35731">
        <ele>57</ele>
        <time>2021-03-25T08:51:03.000Z</time>
      </trkpt>
      <trkpt lat="47.29002" lon="-2.35729">
        <ele>57.400001525879</ele>
        <time>2021-03-25T08:51:04.000Z</time>
      </trkpt>
      <trkpt lat="47.29001" lon="-2.35726">
        <ele>57.400001525879</ele>
        <time>2021-03-25T08:51:05.000Z</time>
      </trkpt>
      <trkpt lat="47.29003" lon="-2.35713">
        <ele>57.400001525879</ele>
        <time>2021-03-25T08:51:10.000Z</time>
      </trkpt>
      <trkpt lat="47.29004" lon="-2.35703">
        <ele>57.400001525879</ele>
        <time>2021-03-25T08:51:14.000Z</time>
      </trkpt>
      <trkpt lat="47.28997" lon="-2.35699">
        <ele>57.400001525879</ele>
        <time>2021-03-25T08:51:18.000Z</time>
      </trkpt>
      <trkpt lat="47.28985" lon="-2.35689">
        <ele>57.400001525879</ele>
        <time>2021-03-25T08:51:23.000Z</time>
      </trkpt>
      <trkpt lat="47.28974" lon="-2.35672">
        <ele>57.400001525879</ele>
        <time>2021-03-25T08:51:28.000Z</time>
      </trkpt>
      <trkpt lat="47.28963" lon="-2.35648">
        <ele>57.400001525879</ele>
        <time>2021-03-25T08:51:34.000Z</time>
      </trkpt>
      <trkpt lat="47.28955" lon="-2.3563">
        <ele>57.400001525879</ele>
        <time>2021-03-25T08:51:40.000Z</time>
      </trkpt>
      <trkpt lat="47.28955" lon="-2.35629">
        <ele>57.400001525879</ele>
        <time>2021-03-25T08:51:41.000Z</time>
      </trkpt>
      <trkpt lat="47.28956" lon="-2.35634">
        <ele>57.400001525879</ele>
        <time>2021-03-25T08:52:20.000Z</time>
      </trkpt>
      <trkpt lat="47.28957" lon="-2.35636">
        <ele>57.400001525879</ele>
        <time>2021-03-25T08:52:21.000Z</time>
      </trkpt>
      <trkpt lat="47.28964" lon="-2.35648">
        <ele>57.400001525879</ele>
        <time>2021-03-25T08:52:26.000Z</time>
      </trkpt>
      <trkpt lat="47.28972" lon="-2.35668">
        <ele>57.400001525879</ele>
        <time>2021-03-25T08:52:33.000Z</time>
      </trkpt>
      <trkpt lat="47.2898" lon="-2.35681">
        <ele>57.400001525879</ele>
        <time>2021-03-25T08:52:39.000Z</time>
      </trkpt>
      <trkpt lat="47.28989" lon="-2.35695">
        <ele>57.400001525879</ele>
        <time>2021-03-25T08:52:46.000Z</time>
      </trkpt>
      <trkpt lat="47.29008" lon="-2.35704">
        <ele>57.400001525879</ele>
        <time>2021-03-25T08:52:53.000Z</time>
      </trkpt>
      <trkpt lat="47.29025" lon="-2.35698">
        <ele>57.400001525879</ele>
        <time>2021-03-25T08:52:58.000Z</time>
      </trkpt>
      <trkpt lat="47.29049" lon="-2.35676">
        <ele>57.400001525879</ele>
        <time>2021-03-25T08:53:05.000Z</time>
      </trkpt>
      <trkpt lat="47.29076" lon="-2.35649">
        <ele>57.400001525879</ele>
        <time>2021-03-25T08:53:13.000Z</time>
      </trkpt>
      <trkpt lat="47.29095" lon="-2.35635">
        <ele>57.400001525879</ele>
        <time>2021-03-25T08:53:19.000Z</time>
      </trkpt>
      <trkpt lat="47.29107" lon="-2.35618">
        <ele>57.400001525879</ele>
        <time>2021-03-25T08:53:25.000Z</time>
      </trkpt>
      <trkpt lat="47.29108" lon="-2.35608">
        <ele>57.400001525879</ele>
        <time>2021-03-25T08:53:29.000Z</time>
      </trkpt>
      <trkpt lat="47.29113" lon="-2.35599">
        <ele>57.400001525879</ele>
        <time>2021-03-25T08:53:33.000Z</time>
      </trkpt>
      <trkpt lat="47.29115" lon="-2.35594">
        <ele>57.400001525879</ele>
        <time>2021-03-25T08:53:35.000Z</time>
      </trkpt>
      <trkpt lat="47.29115" lon="-2.35591">
        <ele>57.400001525879</ele>
        <time>2021-03-25T08:53:36.000Z</time>
      </trkpt>
      <trkpt lat="47.2911" lon="-2.35586">
        <ele>57.400001525879</ele>
        <time>2021-03-25T08:53:39.000Z</time>
      </trkpt>
      <trkpt lat="47.29105" lon="-2.35595">
        <ele>57.400001525879</ele>
        <time>2021-03-25T08:53:43.000Z</time>
      </trkpt>
      <trkpt lat="47.29105" lon="-2.35603">
        <ele>57.400001525879</ele>
        <time>2021-03-25T08:53:45.000Z</time>
      </trkpt>
      <trkpt lat="47.29106" lon="-2.35619">
        <ele>57.400001525879</ele>
        <time>2021-03-25T08:53:49.000Z</time>
      </trkpt>
      <trkpt lat="47.29102" lon="-2.35628">
        <ele>57.400001525879</ele>
        <time>2021-03-25T08:53:52.000Z</time>
      </trkpt>
      <trkpt lat="47.291" lon="-2.3563">
        <ele>57.400001525879</ele>
        <time>2021-03-25T08:53:53.000Z</time>
      </trkpt>
      <trkpt lat="47.29087" lon="-2.35643">
        <ele>57.400001525879</ele>
        <time>2021-03-25T08:53:59.000Z</time>
      </trkpt>
      <trkpt lat="47.29075" lon="-2.35649">
        <ele>57.400001525879</ele>
        <time>2021-03-25T08:54:04.000Z</time>
      </trkpt>
      <trkpt lat="47.29063" lon="-2.35663">
        <ele>57.400001525879</ele>
        <time>2021-03-25T08:54:12.000Z</time>
      </trkpt>
      <trkpt lat="47.29048" lon="-2.35679">
        <ele>57.400001525879</ele>
        <time>2021-03-25T08:54:20.000Z</time>
      </trkpt>
      <trkpt lat="47.29031" lon="-2.35695">
        <ele>57.400001525879</ele>
        <time>2021-03-25T08:54:28.000Z</time>
      </trkpt>
      <trkpt lat="47.29018" lon="-2.35703">
        <ele>57.400001525879</ele>
        <time>2021-03-25T08:54:34.000Z</time>
      </trkpt>
      <trkpt lat="47.29005" lon="-2.35704">
        <ele>57.400001525879</ele>
        <time>2021-03-25T08:54:40.000Z</time>
      </trkpt>
      <trkpt lat="47.29004" lon="-2.35704">
        <ele>57.400001525879</ele>
        <time>2021-03-25T08:54:42.000Z</time>
      </trkpt>
      <trkpt lat="47.29006" lon="-2.35704">
        <ele>59.400001525879</ele>
        <time>2021-03-25T08:55:12.000Z</time>
      </trkpt>
      <trkpt lat="47.29014" lon="-2.35703">
        <ele>59.400001525879</ele>
        <time>2021-03-25T08:55:16.000Z</time>
      </trkpt>
      <trkpt lat="47.2902" lon="-2.357">
        <ele>59.400001525879</ele>
        <time>2021-03-25T08:55:18.000Z</time>
      </trkpt>
      <trkpt lat="47.29043" lon="-2.35682">
        <ele>59.400001525879</ele>
        <time>2021-03-25T08:55:25.000Z</time>
      </trkpt>
      <trkpt lat="47.29061" lon="-2.35661">
        <ele>59.400001525879</ele>
        <time>2021-03-25T08:55:32.000Z</time>
      </trkpt>
      <trkpt lat="47.2908" lon="-2.35643">
        <ele>59.400001525879</ele>
        <time>2021-03-25T08:55:40.000Z</time>
      </trkpt>
      <trkpt lat="47.29085" lon="-2.35641">
        <ele>59.400001525879</ele>
        <time>2021-03-25T08:55:43.000Z</time>
      </trkpt>
      <trkpt lat="47.29087" lon="-2.35644">
        <ele>59.400001525879</ele>
        <time>2021-03-25T08:55:45.000Z</time>
      </trkpt>
      <trkpt lat="47.29089" lon="-2.35651">
        <ele>59.400001525879</ele>
        <time>2021-03-25T08:55:47.000Z</time>
      </trkpt>
      <trkpt lat="47.29092" lon="-2.3566">
        <ele>59.400001525879</ele>
        <time>2021-03-25T08:55:49.000Z</time>
      </trkpt>
      <trkpt lat="47.29094" lon="-2.35677">
        <ele>59.400001525879</ele>
        <time>2021-03-25T08:55:53.000Z</time>
      </trkpt>
      <trkpt lat="47.29095" lon="-2.35698">
        <ele>59.400001525879</ele>
        <time>2021-03-25T08:55:59.000Z</time>
      </trkpt>
      <trkpt lat="47.29105" lon="-2.35725">
        <ele>59.400001525879</ele>
        <time>2021-03-25T08:56:04.000Z</time>
      </trkpt>
      <trkpt lat="47.29124" lon="-2.35773">
        <ele>59.400001525879</ele>
        <time>2021-03-25T08:56:12.000Z</time>
      </trkpt>
      <trkpt lat="47.29137" lon="-2.35807">
        <ele>59.400001525879</ele>
        <time>2021-03-25T08:56:19.000Z</time>
      </trkpt>
      <trkpt lat="47.29143" lon="-2.35823">
        <ele>59.400001525879</ele>
        <time>2021-03-25T08:56:25.000Z</time>
      </trkpt>
      <trkpt lat="47.29145" lon="-2.35826">
        <ele>59.400001525879</ele>
        <time>2021-03-25T08:56:26.000Z</time>
      </trkpt>
      <trkpt lat="47.29151" lon="-2.35828">
        <ele>59.400001525879</ele>
        <time>2021-03-25T08:56:28.000Z</time>
      </trkpt>
      <trkpt lat="47.29158" lon="-2.35825">
        <ele>59.400001525879</ele>
        <time>2021-03-25T08:56:30.000Z</time>
      </trkpt>
      <trkpt lat="47.29165" lon="-2.3582">
        <ele>59.400001525879</ele>
        <time>2021-03-25T08:56:32.000Z</time>
      </trkpt>
      <trkpt lat="47.29198" lon="-2.35798">
        <ele>59.400001525879</ele>
        <time>2021-03-25T08:56:40.000Z</time>
      </trkpt>
      <trkpt lat="47.29228" lon="-2.35772">
        <ele>59.400001525879</ele>
        <time>2021-03-25T08:56:48.000Z</time>
      </trkpt>
      <trkpt lat="47.29245" lon="-2.35752">
        <ele>59.400001525879</ele>
        <time>2021-03-25T08:56:53.000Z</time>
      </trkpt>
      <trkpt lat="47.2925" lon="-2.35745">
        <ele>59.400001525879</ele>
        <time>2021-03-25T08:56:55.000Z</time>
      </trkpt>
      <trkpt lat="47.29253" lon="-2.35734">
        <ele>59.400001525879</ele>
        <time>2021-03-25T08:56:59.000Z</time>
      </trkpt>
      <trkpt lat="47.29254" lon="-2.35733">
        <ele>59.400001525879</ele>
        <time>2021-03-25T08:57:00.000Z</time>
      </trkpt>
      <trkpt lat="47.29254" lon="-2.3573">
        <ele>59.400001525879</ele>
        <time>2021-03-25T08:57:03.000Z</time>
      </trkpt>
      <trkpt lat="47.29258" lon="-2.35727">
        <ele>59.400001525879</ele>
        <time>2021-03-25T08:57:10.000Z</time>
      </trkpt>
      <trkpt lat="47.2927" lon="-2.35733">
        <ele>59.400001525879</ele>
        <time>2021-03-25T08:57:13.000Z</time>
      </trkpt>
      <trkpt lat="47.29278" lon="-2.35742">
        <ele>59.400001525879</ele>
        <time>2021-03-25T08:57:15.000Z</time>
      </trkpt>
      <trkpt lat="47.29293" lon="-2.35757">
        <ele>59.400001525879</ele>
        <time>2021-03-25T08:57:18.000Z</time>
      </trkpt>
      <trkpt lat="47.29333" lon="-2.35794">
        <ele>59.400001525879</ele>
        <time>2021-03-25T08:57:25.000Z</time>
      </trkpt>
      <trkpt lat="47.29362" lon="-2.35819">
        <ele>59.400001525879</ele>
        <time>2021-03-25T08:57:30.000Z</time>
      </trkpt>
      <trkpt lat="47.29373" lon="-2.35828">
        <ele>59.400001525879</ele>
        <time>2021-03-25T08:57:32.000Z</time>
      </trkpt>
      <trkpt lat="47.2939" lon="-2.35844">
        <ele>59.400001525879</ele>
        <time>2021-03-25T08:57:36.000Z</time>
      </trkpt>
      <trkpt lat="47.29406" lon="-2.35862">
        <ele>59.400001525879</ele>
        <time>2021-03-25T08:57:42.000Z</time>
      </trkpt>
      <trkpt lat="47.29425" lon="-2.35885">
        <ele>59.400001525879</ele>
        <time>2021-03-25T08:57:49.000Z</time>
      </trkpt>
      <trkpt lat="47.29438" lon="-2.35898">
        <ele>59.400001525879</ele>
        <time>2021-03-25T08:57:54.000Z</time>
      </trkpt>
      <trkpt lat="47.29449" lon="-2.35902">
        <ele>59.400001525879</ele>
        <time>2021-03-25T08:57:59.000Z</time>
      </trkpt>
      <trkpt lat="47.29458" lon="-2.359">
        <ele>59.400001525879</ele>
        <time>2021-03-25T08:58:05.000Z</time>
      </trkpt>
      <trkpt lat="47.29465" lon="-2.35899">
        <ele>59.400001525879</ele>
        <time>2021-03-25T08:58:10.000Z</time>
      </trkpt>
      <trkpt lat="47.29467" lon="-2.35901">
        <ele>59.400001525879</ele>
        <time>2021-03-25T08:58:28.000Z</time>
      </trkpt>
      <trkpt lat="47.29476" lon="-2.35904">
        <ele>59.400001525879</ele>
        <time>2021-03-25T08:58:32.000Z</time>
      </trkpt>
      <trkpt lat="47.29479" lon="-2.35903">
        <ele>59.400001525879</ele>
        <time>2021-03-25T08:58:33.000Z</time>
      </trkpt>
      <trkpt lat="47.29491" lon="-2.359">
        <ele>59.400001525879</ele>
        <time>2021-03-25T08:58:37.000Z</time>
      </trkpt>
      <trkpt lat="47.29497" lon="-2.35901">
        <ele>59.400001525879</ele>
        <time>2021-03-25T08:58:39.000Z</time>
      </trkpt>
      <trkpt lat="47.29501" lon="-2.35908">
        <ele>59.400001525879</ele>
        <time>2021-03-25T08:58:41.000Z</time>
      </trkpt>
      <trkpt lat="47.2951" lon="-2.35935">
        <ele>59.400001525879</ele>
        <time>2021-03-25T08:58:46.000Z</time>
      </trkpt>
      <trkpt lat="47.2952" lon="-2.35937">
        <ele>59.400001525879</ele>
        <time>2021-03-25T08:58:49.000Z</time>
      </trkpt>
      <trkpt lat="47.29529" lon="-2.35932">
        <ele>59.400001525879</ele>
        <time>2021-03-25T08:58:51.000Z</time>
      </trkpt>
      <trkpt lat="47.29542" lon="-2.35925">
        <ele>59.400001525879</ele>
        <time>2021-03-25T08:58:54.000Z</time>
      </trkpt>
      <trkpt lat="47.29571" lon="-2.35908">
        <ele>59.400001525879</ele>
        <time>2021-03-25T08:59:00.000Z</time>
      </trkpt>
      <trkpt lat="47.29612" lon="-2.35884">
        <ele>59.400001525879</ele>
        <time>2021-03-25T08:59:08.000Z</time>
      </trkpt>
      <trkpt lat="47.29643" lon="-2.35865">
        <ele>59.400001525879</ele>
        <time>2021-03-25T08:59:14.000Z</time>
      </trkpt>
      <trkpt lat="47.29648" lon="-2.35859">
        <ele>59.400001525879</ele>
        <time>2021-03-25T08:59:15.000Z</time>
      </trkpt>
      <trkpt lat="47.29651" lon="-2.35852">
        <ele>59.799999237061</ele>
        <time>2021-03-25T08:59:16.000Z</time>
      </trkpt>
      <trkpt lat="47.29654" lon="-2.35845">
        <ele>60.200000762939</ele>
        <time>2021-03-25T08:59:17.000Z</time>
      </trkpt>
      <trkpt lat="47.29658" lon="-2.3584">
        <ele>60.599998474121</ele>
        <time>2021-03-25T08:59:18.000Z</time>
      </trkpt>
      <trkpt lat="47.29663" lon="-2.35837">
        <ele>61</ele>
        <time>2021-03-25T08:59:19.000Z</time>
      </trkpt>
      <trkpt lat="47.29668" lon="-2.35837">
        <ele>61.400001525879</ele>
        <time>2021-03-25T08:59:20.000Z</time>
      </trkpt>
      <trkpt lat="47.29674" lon="-2.35838">
        <ele>61.400001525879</ele>
        <time>2021-03-25T08:59:21.000Z</time>
      </trkpt>
      <trkpt lat="47.29681" lon="-2.35839">
        <ele>61.400001525879</ele>
        <time>2021-03-25T08:59:22.000Z</time>
      </trkpt>
      <trkpt lat="47.29694" lon="-2.35837">
        <ele>61.400001525879</ele>
        <time>2021-03-25T08:59:24.000Z</time>
      </trkpt>
      <trkpt lat="47.29707" lon="-2.35832">
        <ele>61.400001525879</ele>
        <time>2021-03-25T08:59:26.000Z</time>
      </trkpt>
      <trkpt lat="47.29745" lon="-2.35812">
        <ele>61.400001525879</ele>
        <time>2021-03-25T08:59:32.000Z</time>
      </trkpt>
      <trkpt lat="47.29761" lon="-2.35804">
        <ele>61.799999237061</ele>
        <time>2021-03-25T08:59:35.000Z</time>
      </trkpt>
      <trkpt lat="47.29766" lon="-2.35803">
        <ele>62.400001525879</ele>
        <time>2021-03-25T08:59:36.000Z</time>
      </trkpt>
      <trkpt lat="47.29772" lon="-2.35801">
        <ele>62.799999237061</ele>
        <time>2021-03-25T08:59:37.000Z</time>
      </trkpt>
      <trkpt lat="47.29777" lon="-2.358">
        <ele>63.200000762939</ele>
        <time>2021-03-25T08:59:38.000Z</time>
      </trkpt>
      <trkpt lat="47.29781" lon="-2.35798">
        <ele>63.799999237061</ele>
        <time>2021-03-25T08:59:39.000Z</time>
      </trkpt>
      <trkpt lat="47.29811" lon="-2.35788">
        <ele>63.799999237061</ele>
        <time>2021-03-25T08:59:45.000Z</time>
      </trkpt>
      <trkpt lat="47.29852" lon="-2.35774">
        <ele>63.799999237061</ele>
        <time>2021-03-25T08:59:52.000Z</time>
      </trkpt>
      <trkpt lat="47.29899" lon="-2.35754">
        <ele>63.799999237061</ele>
        <time>2021-03-25T08:59:59.000Z</time>
      </trkpt>
      <trkpt lat="47.29927" lon="-2.35734">
        <ele>63.799999237061</ele>
        <time>2021-03-25T09:00:04.000Z</time>
      </trkpt>
      <trkpt lat="47.29963" lon="-2.35707">
        <ele>63.799999237061</ele>
        <time>2021-03-25T09:00:11.000Z</time>
      </trkpt>
      <trkpt lat="47.3" lon="-2.35684">
        <ele>63.799999237061</ele>
        <time>2021-03-25T09:00:18.000Z</time>
      </trkpt>
      <trkpt lat="47.30044" lon="-2.35658">
        <ele>63.799999237061</ele>
        <time>2021-03-25T09:00:26.000Z</time>
      </trkpt>
      <trkpt lat="47.30087" lon="-2.35631">
        <ele>63.799999237061</ele>
        <time>2021-03-25T09:00:34.000Z</time>
      </trkpt>
      <trkpt lat="47.30117" lon="-2.3561">
        <ele>63.799999237061</ele>
        <time>2021-03-25T09:00:40.000Z</time>
      </trkpt>
      <trkpt lat="47.30122" lon="-2.35605">
        <ele>63.799999237061</ele>
        <time>2021-03-25T09:00:41.000Z</time>
      </trkpt>
      <trkpt lat="47.30131" lon="-2.35596">
        <ele>63.799999237061</ele>
        <time>2021-03-25T09:00:43.000Z</time>
      </trkpt>
      <trkpt lat="47.30143" lon="-2.35593">
        <ele>63.799999237061</ele>
        <time>2021-03-25T09:00:45.000Z</time>
      </trkpt>
      <trkpt lat="47.30149" lon="-2.35592">
        <ele>63.799999237061</ele>
        <time>2021-03-25T09:00:46.000Z</time>
      </trkpt>
      <trkpt lat="47.30174" lon="-2.3558">
        <ele>64.199996948242</ele>
        <time>2021-03-25T09:00:50.000Z</time>
      </trkpt>
      <trkpt lat="47.3018" lon="-2.35577">
        <ele>64.599998474121</ele>
        <time>2021-03-25T09:00:51.000Z</time>
      </trkpt>
      <trkpt lat="47.30186" lon="-2.35576">
        <ele>65</ele>
        <time>2021-03-25T09:00:52.000Z</time>
      </trkpt>
      <trkpt lat="47.30193" lon="-2.35574">
        <ele>65.400001525879</ele>
        <time>2021-03-25T09:00:53.000Z</time>
      </trkpt>
      <trkpt lat="47.30199" lon="-2.35573">
        <ele>65.800003051758</ele>
        <time>2021-03-25T09:00:54.000Z</time>
      </trkpt>
      <trkpt lat="47.30213" lon="-2.35572">
        <ele>65.800003051758</ele>
        <time>2021-03-25T09:00:56.000Z</time>
      </trkpt>
      <trkpt lat="47.30259" lon="-2.35577">
        <ele>65.800003051758</ele>
        <time>2021-03-25T09:01:03.000Z</time>
      </trkpt>
      <trkpt lat="47.30308" lon="-2.35585">
        <ele>65.800003051758</ele>
        <time>2021-03-25T09:01:10.000Z</time>
      </trkpt>
      <trkpt lat="47.30349" lon="-2.35592">
        <ele>65.800003051758</ele>
        <time>2021-03-25T09:01:16.000Z</time>
      </trkpt>
      <trkpt lat="47.3037" lon="-2.35591">
        <ele>65.800003051758</ele>
        <time>2021-03-25T09:01:19.000Z</time>
      </trkpt>
      <trkpt lat="47.30384" lon="-2.35587">
        <ele>65.800003051758</ele>
        <time>2021-03-25T09:01:21.000Z</time>
      </trkpt>
      <trkpt lat="47.3039" lon="-2.35583">
        <ele>65.800003051758</ele>
        <time>2021-03-25T09:01:22.000Z</time>
      </trkpt>
      <trkpt lat="47.30407" lon="-2.35568">
        <ele>65.800003051758</ele>
        <time>2021-03-25T09:01:25.000Z</time>
      </trkpt>
      <trkpt lat="47.30413" lon="-2.35562">
        <ele>65.800003051758</ele>
        <time>2021-03-25T09:01:26.000Z</time>
      </trkpt>
      <trkpt lat="47.30436" lon="-2.3553">
        <ele>65.800003051758</ele>
        <time>2021-03-25T09:01:31.000Z</time>
      </trkpt>
      <trkpt lat="47.30463" lon="-2.35507">
        <ele>65.800003051758</ele>
        <time>2021-03-25T09:01:36.000Z</time>
      </trkpt>
      <trkpt lat="47.30489" lon="-2.35494">
        <ele>65.800003051758</ele>
        <time>2021-03-25T09:01:40.000Z</time>
      </trkpt>
      <trkpt lat="47.30494" lon="-2.35489">
        <ele>65.800003051758</ele>
        <time>2021-03-25T09:01:41.000Z</time>
      </trkpt>
      <trkpt lat="47.30527" lon="-2.35457">
        <ele>65.800003051758</ele>
        <time>2021-03-25T09:01:47.000Z</time>
      </trkpt>
      <trkpt lat="47.30554" lon="-2.35427">
        <ele>65.800003051758</ele>
        <time>2021-03-25T09:01:53.000Z</time>
      </trkpt>
      <trkpt lat="47.30583" lon="-2.35394">
        <ele>65.800003051758</ele>
        <time>2021-03-25T09:02:00.000Z</time>
      </trkpt>
      <trkpt lat="47.30623" lon="-2.3535">
        <ele>65.800003051758</ele>
        <time>2021-03-25T09:02:08.000Z</time>
      </trkpt>
      <trkpt lat="47.30665" lon="-2.35314">
        <ele>65.800003051758</ele>
        <time>2021-03-25T09:02:15.000Z</time>
      </trkpt>
      <trkpt lat="47.30706" lon="-2.35289">
        <ele>65.800003051758</ele>
        <time>2021-03-25T09:02:21.000Z</time>
      </trkpt>
      <trkpt lat="47.30749" lon="-2.35258">
        <ele>65.800003051758</ele>
        <time>2021-03-25T09:02:27.000Z</time>
      </trkpt>
      <trkpt lat="47.30793" lon="-2.35217">
        <ele>65.800003051758</ele>
        <time>2021-03-25T09:02:33.000Z</time>
      </trkpt>
      <trkpt lat="47.30801" lon="-2.3521">
        <ele>65.199996948242</ele>
        <time>2021-03-25T09:02:34.000Z</time>
      </trkpt>
      <trkpt lat="47.30808" lon="-2.35203">
        <ele>64.800003051758</ele>
        <time>2021-03-25T09:02:35.000Z</time>
      </trkpt>
      <trkpt lat="47.30816" lon="-2.35195">
        <ele>64.400001525879</ele>
        <time>2021-03-25T09:02:36.000Z</time>
      </trkpt>
      <trkpt lat="47.30824" lon="-2.35188">
        <ele>64</ele>
        <time>2021-03-25T09:02:37.000Z</time>
      </trkpt>
      <trkpt lat="47.30831" lon="-2.35181">
        <ele>63.400001525879</ele>
        <time>2021-03-25T09:02:38.000Z</time>
      </trkpt>
      <trkpt lat="47.30855" lon="-2.35164">
        <ele>63.400001525879</ele>
        <time>2021-03-25T09:02:41.000Z</time>
      </trkpt>
      <trkpt lat="47.30879" lon="-2.35154">
        <ele>63.400001525879</ele>
        <time>2021-03-25T09:02:44.000Z</time>
      </trkpt>
      <trkpt lat="47.30896" lon="-2.35151">
        <ele>63.400001525879</ele>
        <time>2021-03-25T09:02:46.000Z</time>
      </trkpt>
      <trkpt lat="47.30934" lon="-2.3515">
        <ele>63.400001525879</ele>
        <time>2021-03-25T09:02:51.000Z</time>
      </trkpt>
      <trkpt lat="47.30965" lon="-2.3515">
        <ele>63.400001525879</ele>
        <time>2021-03-25T09:02:56.000Z</time>
      </trkpt>
      <trkpt lat="47.30981" lon="-2.35147">
        <ele>63.400001525879</ele>
        <time>2021-03-25T09:02:59.000Z</time>
      </trkpt>
      <trkpt lat="47.30991" lon="-2.35146">
        <ele>63.400001525879</ele>
        <time>2021-03-25T09:03:01.000Z</time>
      </trkpt>
      <trkpt lat="47.30998" lon="-2.35161">
        <ele>63.400001525879</ele>
        <time>2021-03-25T09:03:04.000Z</time>
      </trkpt>
      <trkpt lat="47.30999" lon="-2.35168">
        <ele>63.400001525879</ele>
        <time>2021-03-25T09:03:05.000Z</time>
      </trkpt>
      <trkpt lat="47.31004" lon="-2.35208">
        <ele>63.400001525879</ele>
        <time>2021-03-25T09:03:10.000Z</time>
      </trkpt>
      <trkpt lat="47.31009" lon="-2.35265">
        <ele>63.400001525879</ele>
        <time>2021-03-25T09:03:17.000Z</time>
      </trkpt>
      <trkpt lat="47.31011" lon="-2.35272">
        <ele>63.400001525879</ele>
        <time>2021-03-25T09:03:18.000Z</time>
      </trkpt>
      <trkpt lat="47.31022" lon="-2.35289">
        <ele>63.400001525879</ele>
        <time>2021-03-25T09:03:21.000Z</time>
      </trkpt>
      <trkpt lat="47.31037" lon="-2.35297">
        <ele>63.400001525879</ele>
        <time>2021-03-25T09:03:24.000Z</time>
      </trkpt>
      <trkpt lat="47.31042" lon="-2.353">
        <ele>63.400001525879</ele>
        <time>2021-03-25T09:03:25.000Z</time>
      </trkpt>
      <trkpt lat="47.31047" lon="-2.35304">
        <ele>63.400001525879</ele>
        <time>2021-03-25T09:03:26.000Z</time>
      </trkpt>
      <trkpt lat="47.3105" lon="-2.35309">
        <ele>64</ele>
        <time>2021-03-25T09:03:27.000Z</time>
      </trkpt>
      <trkpt lat="47.31053" lon="-2.35316">
        <ele>64.400001525879</ele>
        <time>2021-03-25T09:03:28.000Z</time>
      </trkpt>
      <trkpt lat="47.31056" lon="-2.35323">
        <ele>64.800003051758</ele>
        <time>2021-03-25T09:03:29.000Z</time>
      </trkpt>
      <trkpt lat="47.31058" lon="-2.35331">
        <ele>65.599998474121</ele>
        <time>2021-03-25T09:03:30.000Z</time>
      </trkpt>
      <trkpt lat="47.3106" lon="-2.35347">
        <ele>65.599998474121</ele>
        <time>2021-03-25T09:03:32.000Z</time>
      </trkpt>
      <trkpt lat="47.31062" lon="-2.35354">
        <ele>65.599998474121</ele>
        <time>2021-03-25T09:03:33.000Z</time>
      </trkpt>
      <trkpt lat="47.31065" lon="-2.35377">
        <ele>65.599998474121</ele>
        <time>2021-03-25T09:03:36.000Z</time>
      </trkpt>
      <trkpt lat="47.31066" lon="-2.35391">
        <ele>66</ele>
        <time>2021-03-25T09:03:38.000Z</time>
      </trkpt>
      <trkpt lat="47.31067" lon="-2.35398">
        <ele>66.400001525879</ele>
        <time>2021-03-25T09:03:39.000Z</time>
      </trkpt>
      <trkpt lat="47.31068" lon="-2.35405">
        <ele>66.800003051758</ele>
        <time>2021-03-25T09:03:40.000Z</time>
      </trkpt>
      <trkpt lat="47.31069" lon="-2.35412">
        <ele>67.199996948242</ele>
        <time>2021-03-25T09:03:41.000Z</time>
      </trkpt>
      <trkpt lat="47.3107" lon="-2.35419">
        <ele>67.599998474121</ele>
        <time>2021-03-25T09:03:42.000Z</time>
      </trkpt>
      <trkpt lat="47.31072" lon="-2.35425">
        <ele>67.599998474121</ele>
        <time>2021-03-25T09:03:43.000Z</time>
      </trkpt>
      <trkpt lat="47.31078" lon="-2.35436">
        <ele>67.599998474121</ele>
        <time>2021-03-25T09:03:45.000Z</time>
      </trkpt>
      <trkpt lat="47.31086" lon="-2.35446">
        <ele>68</ele>
        <time>2021-03-25T09:03:47.000Z</time>
      </trkpt>
      <trkpt lat="47.31089" lon="-2.35451">
        <ele>68.599998474121</ele>
        <time>2021-03-25T09:03:48.000Z</time>
      </trkpt>
      <trkpt lat="47.31093" lon="-2.35455">
        <ele>69</ele>
        <time>2021-03-25T09:03:49.000Z</time>
      </trkpt>
      <trkpt lat="47.31096" lon="-2.3546">
        <ele>69.400001525879</ele>
        <time>2021-03-25T09:03:50.000Z</time>
      </trkpt>
      <trkpt lat="47.31099" lon="-2.35465">
        <ele>69.800003051758</ele>
        <time>2021-03-25T09:03:51.000Z</time>
      </trkpt>
      <trkpt lat="47.31117" lon="-2.35498">
        <ele>69.800003051758</ele>
        <time>2021-03-25T09:03:56.000Z</time>
      </trkpt>
      <trkpt lat="47.31131" lon="-2.35545">
        <ele>69.800003051758</ele>
        <time>2021-03-25T09:04:01.000Z</time>
      </trkpt>
      <trkpt lat="47.31158" lon="-2.35619">
        <ele>69.800003051758</ele>
        <time>2021-03-25T09:04:09.000Z</time>
      </trkpt>
      <trkpt lat="47.31182" lon="-2.35665">
        <ele>69.400001525879</ele>
        <time>2021-03-25T09:04:15.000Z</time>
      </trkpt>
      <trkpt lat="47.31187" lon="-2.35669">
        <ele>69</ele>
        <time>2021-03-25T09:04:16.000Z</time>
      </trkpt>
      <trkpt lat="47.31193" lon="-2.35669">
        <ele>68.599998474121</ele>
        <time>2021-03-25T09:04:17.000Z</time>
      </trkpt>
      <trkpt lat="47.31198" lon="-2.35667">
        <ele>68.199996948242</ele>
        <time>2021-03-25T09:04:18.000Z</time>
      </trkpt>
      <trkpt lat="47.31203" lon="-2.35662">
        <ele>67.800003051758</ele>
        <time>2021-03-25T09:04:19.000Z</time>
      </trkpt>
      <trkpt lat="47.31213" lon="-2.35651">
        <ele>67.800003051758</ele>
        <time>2021-03-25T09:04:21.000Z</time>
      </trkpt>
      <trkpt lat="47.31224" lon="-2.35641">
        <ele>67.800003051758</ele>
        <time>2021-03-25T09:04:23.000Z</time>
      </trkpt>
      <trkpt lat="47.31247" lon="-2.35619">
        <ele>67.800003051758</ele>
        <time>2021-03-25T09:04:27.000Z</time>
      </trkpt>
      <trkpt lat="47.31295" lon="-2.35578">
        <ele>67.800003051758</ele>
        <time>2021-03-25T09:04:35.000Z</time>
      </trkpt>
      <trkpt lat="47.31301" lon="-2.35574">
        <ele>67.400001525879</ele>
        <time>2021-03-25T09:04:36.000Z</time>
      </trkpt>
      <trkpt lat="47.31307" lon="-2.3557">
        <ele>67</ele>
        <time>2021-03-25T09:04:37.000Z</time>
      </trkpt>
      <trkpt lat="47.31312" lon="-2.35565">
        <ele>66.400001525879</ele>
        <time>2021-03-25T09:04:38.000Z</time>
      </trkpt>
      <trkpt lat="47.31316" lon="-2.35562">
        <ele>66</ele>
        <time>2021-03-25T09:04:39.000Z</time>
      </trkpt>
      <trkpt lat="47.31321" lon="-2.35561">
        <ele>65.599998474121</ele>
        <time>2021-03-25T09:04:40.000Z</time>
      </trkpt>
      <trkpt lat="47.31325" lon="-2.35562">
        <ele>65.599998474121</ele>
        <time>2021-03-25T09:04:41.000Z</time>
      </trkpt>
      <trkpt lat="47.31329" lon="-2.35573">
        <ele>65.599998474121</ele>
        <time>2021-03-25T09:04:43.000Z</time>
      </trkpt>
      <trkpt lat="47.3133" lon="-2.35586">
        <ele>65.599998474121</ele>
        <time>2021-03-25T09:04:45.000Z</time>
      </trkpt>
      <trkpt lat="47.31331" lon="-2.356">
        <ele>65.599998474121</ele>
        <time>2021-03-25T09:04:47.000Z</time>
      </trkpt>
      <trkpt lat="47.31331" lon="-2.35651">
        <ele>65.599998474121</ele>
        <time>2021-03-25T09:04:54.000Z</time>
      </trkpt>
      <trkpt lat="47.31332" lon="-2.35703">
        <ele>65.599998474121</ele>
        <time>2021-03-25T09:05:01.000Z</time>
      </trkpt>
      <trkpt lat="47.31332" lon="-2.35718">
        <ele>65.599998474121</ele>
        <time>2021-03-25T09:05:03.000Z</time>
      </trkpt>
      <trkpt lat="47.31331" lon="-2.3574">
        <ele>65.599998474121</ele>
        <time>2021-03-25T09:05:06.000Z</time>
      </trkpt>
      <trkpt lat="47.31331" lon="-2.35747">
        <ele>65.599998474121</ele>
        <time>2021-03-25T09:05:07.000Z</time>
      </trkpt>
      <trkpt lat="47.31332" lon="-2.35769">
        <ele>65.599998474121</ele>
        <time>2021-03-25T09:05:10.000Z</time>
      </trkpt>
      <trkpt lat="47.31334" lon="-2.35785">
        <ele>65.599998474121</ele>
        <time>2021-03-25T09:05:12.000Z</time>
      </trkpt>
      <trkpt lat="47.31337" lon="-2.35818">
        <ele>65.599998474121</ele>
        <time>2021-03-25T09:05:16.000Z</time>
      </trkpt>
      <trkpt lat="47.31337" lon="-2.35826">
        <ele>65.599998474121</ele>
        <time>2021-03-25T09:05:17.000Z</time>
      </trkpt>
      <trkpt lat="47.31338" lon="-2.35836">
        <ele>65.599998474121</ele>
        <time>2021-03-25T09:05:18.000Z</time>
      </trkpt>
      <trkpt lat="47.31341" lon="-2.35854">
        <ele>65.599998474121</ele>
        <time>2021-03-25T09:05:20.000Z</time>
      </trkpt>
      <trkpt lat="47.31344" lon="-2.35863">
        <ele>65.599998474121</ele>
        <time>2021-03-25T09:05:21.000Z</time>
      </trkpt>
      <trkpt lat="47.31359" lon="-2.35898">
        <ele>65.599998474121</ele>
        <time>2021-03-25T09:05:25.000Z</time>
      </trkpt>
      <trkpt lat="47.31363" lon="-2.35907">
        <ele>65.199996948242</ele>
        <time>2021-03-25T09:05:26.000Z</time>
      </trkpt>
      <trkpt lat="47.31367" lon="-2.35915">
        <ele>64.800003051758</ele>
        <time>2021-03-25T09:05:27.000Z</time>
      </trkpt>
      <trkpt lat="47.31371" lon="-2.35923">
        <ele>64.400001525879</ele>
        <time>2021-03-25T09:05:28.000Z</time>
      </trkpt>
      <trkpt lat="47.31375" lon="-2.35931">
        <ele>64</ele>
        <time>2021-03-25T09:05:29.000Z</time>
      </trkpt>
      <trkpt lat="47.3138" lon="-2.35938">
        <ele>63.400001525879</ele>
        <time>2021-03-25T09:05:30.000Z</time>
      </trkpt>
      <trkpt lat="47.31396" lon="-2.35968">
        <ele>63.400001525879</ele>
        <time>2021-03-25T09:05:34.000Z</time>
      </trkpt>
      <trkpt lat="47.31409" lon="-2.36002">
        <ele>63.400001525879</ele>
        <time>2021-03-25T09:05:39.000Z</time>
      </trkpt>
      <trkpt lat="47.31418" lon="-2.36024">
        <ele>63.400001525879</ele>
        <time>2021-03-25T09:05:42.000Z</time>
      </trkpt>
      <trkpt lat="47.3142" lon="-2.3603">
        <ele>64</ele>
        <time>2021-03-25T09:05:44.000Z</time>
      </trkpt>
      <trkpt lat="47.31422" lon="-2.36036">
        <ele>64.400001525879</ele>
        <time>2021-03-25T09:05:45.000Z</time>
      </trkpt>
      <trkpt lat="47.31425" lon="-2.36042">
        <ele>64.800003051758</ele>
        <time>2021-03-25T09:05:46.000Z</time>
      </trkpt>
      <trkpt lat="47.31427" lon="-2.36048">
        <ele>65.199996948242</ele>
        <time>2021-03-25T09:05:47.000Z</time>
      </trkpt>
      <trkpt lat="47.31429" lon="-2.36054">
        <ele>65.599998474121</ele>
        <time>2021-03-25T09:05:48.000Z</time>
      </trkpt>
      <trkpt lat="47.31432" lon="-2.36066">
        <ele>65.599998474121</ele>
        <time>2021-03-25T09:05:50.000Z</time>
      </trkpt>
      <trkpt lat="47.31434" lon="-2.36072">
        <ele>65.599998474121</ele>
        <time>2021-03-25T09:05:51.000Z</time>
      </trkpt>
      <trkpt lat="47.31439" lon="-2.36091">
        <ele>66</ele>
        <time>2021-03-25T09:05:54.000Z</time>
      </trkpt>
      <trkpt lat="47.31441" lon="-2.36097">
        <ele>66.400001525879</ele>
        <time>2021-03-25T09:05:55.000Z</time>
      </trkpt>
      <trkpt lat="47.31444" lon="-2.36103">
        <ele>66.800003051758</ele>
        <time>2021-03-25T09:05:56.000Z</time>
      </trkpt>
      <trkpt lat="47.31446" lon="-2.36109">
        <ele>67.199996948242</ele>
        <time>2021-03-25T09:05:57.000Z</time>
      </trkpt>
      <trkpt lat="47.31449" lon="-2.36116">
        <ele>67.800003051758</ele>
        <time>2021-03-25T09:05:58.000Z</time>
      </trkpt>
      <trkpt lat="47.31452" lon="-2.36129">
        <ele>67.800003051758</ele>
        <time>2021-03-25T09:06:00.000Z</time>
      </trkpt>
      <trkpt lat="47.31453" lon="-2.36136">
        <ele>67.800003051758</ele>
        <time>2021-03-25T09:06:01.000Z</time>
      </trkpt>
      <trkpt lat="47.31459" lon="-2.36157">
        <ele>67.800003051758</ele>
        <time>2021-03-25T09:06:04.000Z</time>
      </trkpt>
      <trkpt lat="47.3146" lon="-2.36164">
        <ele>67.800003051758</ele>
        <time>2021-03-25T09:06:05.000Z</time>
      </trkpt>
      <trkpt lat="47.31471" lon="-2.36219">
        <ele>67.800003051758</ele>
        <time>2021-03-25T09:06:12.000Z</time>
      </trkpt>
      <trkpt lat="47.31483" lon="-2.36262">
        <ele>67.800003051758</ele>
        <time>2021-03-25T09:06:18.000Z</time>
      </trkpt>
      <trkpt lat="47.31492" lon="-2.36305">
        <ele>67.800003051758</ele>
        <time>2021-03-25T09:06:24.000Z</time>
      </trkpt>
      <trkpt lat="47.31494" lon="-2.3632">
        <ele>67.199996948242</ele>
        <time>2021-03-25T09:06:26.000Z</time>
      </trkpt>
      <trkpt lat="47.31494" lon="-2.36327">
        <ele>66.800003051758</ele>
        <time>2021-03-25T09:06:27.000Z</time>
      </trkpt>
      <trkpt lat="47.31494" lon="-2.36335">
        <ele>66.400001525879</ele>
        <time>2021-03-25T09:06:28.000Z</time>
      </trkpt>
      <trkpt lat="47.31494" lon="-2.36342">
        <ele>66</ele>
        <time>2021-03-25T09:06:29.000Z</time>
      </trkpt>
      <trkpt lat="47.31493" lon="-2.3635">
        <ele>65.599998474121</ele>
        <time>2021-03-25T09:06:30.000Z</time>
      </trkpt>
      <trkpt lat="47.31491" lon="-2.36364">
        <ele>65.599998474121</ele>
        <time>2021-03-25T09:06:33.000Z</time>
      </trkpt>
      <trkpt lat="47.31491" lon="-2.36372">
        <ele>65.199996948242</ele>
        <time>2021-03-25T09:06:35.000Z</time>
      </trkpt>
      <trkpt lat="47.31491" lon="-2.36375">
        <ele>64.800003051758</ele>
        <time>2021-03-25T09:06:36.000Z</time>
      </trkpt>
      <trkpt lat="47.31491" lon="-2.36378">
        <ele>64.400001525879</ele>
        <time>2021-03-25T09:06:37.000Z</time>
      </trkpt>
      <trkpt lat="47.31491" lon="-2.3638">
        <ele>63.799999237061</ele>
        <time>2021-03-25T09:06:38.000Z</time>
      </trkpt>
      <trkpt lat="47.31491" lon="-2.36382">
        <ele>63.400001525879</ele>
        <time>2021-03-25T09:06:39.000Z</time>
      </trkpt>
      <trkpt lat="47.31491" lon="-2.36382">
        <ele>63.400001525879</ele>
        <time>2021-03-25T09:06:41.000Z</time>
      </trkpt>
      <trkpt lat="47.31491" lon="-2.36383">
        <ele>63.400001525879</ele>
        <time>2021-03-25T09:07:04.000Z</time>
      </trkpt>
      <trkpt lat="47.3149" lon="-2.36397">
        <ele>63.400001525879</ele>
        <time>2021-03-25T09:07:09.000Z</time>
      </trkpt>
      <trkpt lat="47.31492" lon="-2.3641">
        <ele>63</ele>
        <time>2021-03-25T09:07:14.000Z</time>
      </trkpt>
      <trkpt lat="47.31492" lon="-2.36411">
        <ele>62.599998474121</ele>
        <time>2021-03-25T09:07:15.000Z</time>
      </trkpt>
      <trkpt lat="47.31491" lon="-2.36413">
        <ele>62.200000762939</ele>
        <time>2021-03-25T09:07:16.000Z</time>
      </trkpt>
      <trkpt lat="47.31491" lon="-2.36415">
        <ele>61.799999237061</ele>
        <time>2021-03-25T09:07:17.000Z</time>
      </trkpt>
      <trkpt lat="47.3149" lon="-2.36418">
        <ele>61.400001525879</ele>
        <time>2021-03-25T09:07:18.000Z</time>
      </trkpt>
      <trkpt lat="47.3149" lon="-2.36424">
        <ele>61.400001525879</ele>
        <time>2021-03-25T09:07:22.000Z</time>
      </trkpt>
      <trkpt lat="47.31494" lon="-2.36448">
        <ele>61.400001525879</ele>
        <time>2021-03-25T09:07:43.000Z</time>
      </trkpt>
      <trkpt lat="47.31493" lon="-2.3645">
        <ele>61.400001525879</ele>
        <time>2021-03-25T09:07:44.000Z</time>
      </trkpt>
      <trkpt lat="47.31493" lon="-2.36452">
        <ele>61.400001525879</ele>
        <time>2021-03-25T09:07:46.000Z</time>
      </trkpt>
      <trkpt lat="47.31493" lon="-2.36455">
        <ele>61.400001525879</ele>
        <time>2021-03-25T09:07:51.000Z</time>
      </trkpt>
      <trkpt lat="47.31493" lon="-2.36459">
        <ele>61.400001525879</ele>
        <time>2021-03-25T09:07:53.000Z</time>
      </trkpt>
      <trkpt lat="47.31495" lon="-2.36465">
        <ele>61.400001525879</ele>
        <time>2021-03-25T09:07:58.000Z</time>
      </trkpt>
      <trkpt lat="47.31496" lon="-2.36467">
        <ele>61.400001525879</ele>
        <time>2021-03-25T09:08:01.000Z</time>
      </trkpt>
      <trkpt lat="47.31496" lon="-2.3647">
        <ele>61.400001525879</ele>
        <time>2021-03-25T09:08:04.000Z</time>
      </trkpt>
      <trkpt lat="47.31496" lon="-2.36474">
        <ele>61</ele>
        <time>2021-03-25T09:08:05.000Z</time>
      </trkpt>
      <trkpt lat="47.31497" lon="-2.36477">
        <ele>60.599998474121</ele>
        <time>2021-03-25T09:08:06.000Z</time>
      </trkpt>
      <trkpt lat="47.31498" lon="-2.3648">
        <ele>60.200000762939</ele>
        <time>2021-03-25T09:08:07.000Z</time>
      </trkpt>
      <trkpt lat="47.31498" lon="-2.36484">
        <ele>59.799999237061</ele>
        <time>2021-03-25T09:08:08.000Z</time>
      </trkpt>
      <trkpt lat="47.31498" lon="-2.36487">
        <ele>59.400001525879</ele>
        <time>2021-03-25T09:08:09.000Z</time>
      </trkpt>
      <trkpt lat="47.315" lon="-2.36503">
        <ele>59.400001525879</ele>
        <time>2021-03-25T09:08:14.000Z</time>
      </trkpt>
      <trkpt lat="47.31501" lon="-2.36511">
        <ele>59.400001525879</ele>
        <time>2021-03-25T09:08:18.000Z</time>
      </trkpt>
      <trkpt lat="47.31501" lon="-2.36513">
        <ele>59.400001525879</ele>
        <time>2021-03-25T09:08:19.000Z</time>
      </trkpt>
      <trkpt lat="47.31501" lon="-2.36515">
        <ele>59.400001525879</ele>
        <time>2021-03-25T09:08:21.000Z</time>
      </trkpt>
      <trkpt lat="47.31497" lon="-2.36537">
        <ele>59.400001525879</ele>
        <time>2021-03-25T09:08:42.000Z</time>
      </trkpt>
      <trkpt lat="47.31497" lon="-2.36539">
        <ele>59.400001525879</ele>
        <time>2021-03-25T09:08:43.000Z</time>
      </trkpt>
      <trkpt lat="47.31496" lon="-2.36542">
        <ele>59.400001525879</ele>
        <time>2021-03-25T09:08:45.000Z</time>
      </trkpt>
      <trkpt lat="47.31496" lon="-2.36548">
        <ele>59.400001525879</ele>
        <time>2021-03-25T09:08:49.000Z</time>
      </trkpt>
      <trkpt lat="47.31496" lon="-2.36552">
        <ele>59.400001525879</ele>
        <time>2021-03-25T09:08:56.000Z</time>
      </trkpt>
      <trkpt lat="47.31496" lon="-2.36559">
        <ele>59.400001525879</ele>
        <time>2021-03-25T09:08:58.000Z</time>
      </trkpt>
      <trkpt lat="47.31494" lon="-2.36573">
        <ele>59.400001525879</ele>
        <time>2021-03-25T09:09:03.000Z</time>
      </trkpt>
      <trkpt lat="47.31497" lon="-2.3659">
        <ele>59.400001525879</ele>
        <time>2021-03-25T09:09:08.000Z</time>
      </trkpt>
      <trkpt lat="47.31503" lon="-2.3661">
        <ele>59.400001525879</ele>
        <time>2021-03-25T09:09:14.000Z</time>
      </trkpt>
      <trkpt lat="47.3151" lon="-2.36629">
        <ele>59.400001525879</ele>
        <time>2021-03-25T09:09:20.000Z</time>
      </trkpt>
      <trkpt lat="47.31517" lon="-2.36649">
        <ele>59.400001525879</ele>
        <time>2021-03-25T09:09:25.000Z</time>
      </trkpt>
      <trkpt lat="47.31523" lon="-2.36673">
        <ele>59.400001525879</ele>
        <time>2021-03-25T09:09:30.000Z</time>
      </trkpt>
      <trkpt lat="47.31525" lon="-2.3668">
        <ele>59.400001525879</ele>
        <time>2021-03-25T09:09:31.000Z</time>
      </trkpt>
      <trkpt lat="47.3153" lon="-2.36704">
        <ele>59.400001525879</ele>
        <time>2021-03-25T09:09:35.000Z</time>
      </trkpt>
      <trkpt lat="47.31538" lon="-2.36736">
        <ele>59.799999237061</ele>
        <time>2021-03-25T09:09:41.000Z</time>
      </trkpt>
      <trkpt lat="47.31539" lon="-2.36741">
        <ele>60.200000762939</ele>
        <time>2021-03-25T09:09:42.000Z</time>
      </trkpt>
      <trkpt lat="47.31539" lon="-2.36747">
        <ele>60.599998474121</ele>
        <time>2021-03-25T09:09:43.000Z</time>
      </trkpt>
      <trkpt lat="47.3154" lon="-2.36751">
        <ele>61</ele>
        <time>2021-03-25T09:09:44.000Z</time>
      </trkpt>
      <trkpt lat="47.31541" lon="-2.36755">
        <ele>61.400001525879</ele>
        <time>2021-03-25T09:09:45.000Z</time>
      </trkpt>
      <trkpt lat="47.31542" lon="-2.36764">
        <ele>61.400001525879</ele>
        <time>2021-03-25T09:09:47.000Z</time>
      </trkpt>
      <trkpt lat="47.31547" lon="-2.36791">
        <ele>61.400001525879</ele>
        <time>2021-03-25T09:09:54.000Z</time>
      </trkpt>
      <trkpt lat="47.31549" lon="-2.36797">
        <ele>61.400001525879</ele>
        <time>2021-03-25T09:09:56.000Z</time>
      </trkpt>
      <trkpt lat="47.31551" lon="-2.36808">
        <ele>61.400001525879</ele>
        <time>2021-03-25T09:09:59.000Z</time>
      </trkpt>
      <trkpt lat="47.31553" lon="-2.36813">
        <ele>61.400001525879</ele>
        <time>2021-03-25T09:10:00.000Z</time>
      </trkpt>
      <trkpt lat="47.31554" lon="-2.36818">
        <ele>62</ele>
        <time>2021-03-25T09:10:01.000Z</time>
      </trkpt>
      <trkpt lat="47.31555" lon="-2.36824">
        <ele>62.400001525879</ele>
        <time>2021-03-25T09:10:02.000Z</time>
      </trkpt>
      <trkpt lat="47.31556" lon="-2.36829">
        <ele>62.799999237061</ele>
        <time>2021-03-25T09:10:03.000Z</time>
      </trkpt>
      <trkpt lat="47.31557" lon="-2.36835">
        <ele>63.400001525879</ele>
        <time>2021-03-25T09:10:04.000Z</time>
      </trkpt>
      <trkpt lat="47.31559" lon="-2.3684">
        <ele>63.799999237061</ele>
        <time>2021-03-25T09:10:05.000Z</time>
      </trkpt>
      <trkpt lat="47.31571" lon="-2.36881">
        <ele>64.199996948242</ele>
        <time>2021-03-25T09:10:13.000Z</time>
      </trkpt>
      <trkpt lat="47.31572" lon="-2.36886">
        <ele>64.599998474121</ele>
        <time>2021-03-25T09:10:14.000Z</time>
      </trkpt>
      <trkpt lat="47.31574" lon="-2.36891">
        <ele>65</ele>
        <time>2021-03-25T09:10:15.000Z</time>
      </trkpt>
      <trkpt lat="47.31576" lon="-2.36896">
        <ele>65.400001525879</ele>
        <time>2021-03-25T09:10:16.000Z</time>
      </trkpt>
      <trkpt lat="47.31577" lon="-2.36901">
        <ele>65.800003051758</ele>
        <time>2021-03-25T09:10:17.000Z</time>
      </trkpt>
      <trkpt lat="47.31583" lon="-2.36922">
        <ele>65.800003051758</ele>
        <time>2021-03-25T09:10:21.000Z</time>
      </trkpt>
      <trkpt lat="47.31587" lon="-2.36933">
        <ele>66.199996948242</ele>
        <time>2021-03-25T09:10:23.000Z</time>
      </trkpt>
      <trkpt lat="47.31588" lon="-2.36938">
        <ele>66.800003051758</ele>
        <time>2021-03-25T09:10:24.000Z</time>
      </trkpt>
      <trkpt lat="47.3159" lon="-2.36944">
        <ele>67.199996948242</ele>
        <time>2021-03-25T09:10:25.000Z</time>
      </trkpt>
      <trkpt lat="47.31591" lon="-2.36949">
        <ele>67.599998474121</ele>
        <time>2021-03-25T09:10:26.000Z</time>
      </trkpt>
      <trkpt lat="47.31593" lon="-2.36955">
        <ele>68</ele>
        <time>2021-03-25T09:10:27.000Z</time>
      </trkpt>
      <trkpt lat="47.31596" lon="-2.36966">
        <ele>68</ele>
        <time>2021-03-25T09:10:29.000Z</time>
      </trkpt>
      <trkpt lat="47.31611" lon="-2.37007">
        <ele>68.400001525879</ele>
        <time>2021-03-25T09:10:36.000Z</time>
      </trkpt>
      <trkpt lat="47.31613" lon="-2.37013">
        <ele>68.800003051758</ele>
        <time>2021-03-25T09:10:37.000Z</time>
      </trkpt>
      <trkpt lat="47.31615" lon="-2.37019">
        <ele>69.199996948242</ele>
        <time>2021-03-25T09:10:38.000Z</time>
      </trkpt>
      <trkpt lat="47.31617" lon="-2.37025">
        <ele>69.599998474121</ele>
        <time>2021-03-25T09:10:39.000Z</time>
      </trkpt>
      <trkpt lat="47.31619" lon="-2.37032">
        <ele>70</ele>
        <time>2021-03-25T09:10:40.000Z</time>
      </trkpt>
      <trkpt lat="47.31621" lon="-2.37038">
        <ele>70</ele>
        <time>2021-03-25T09:10:41.000Z</time>
      </trkpt>
      <trkpt lat="47.31624" lon="-2.37044">
        <ele>70</ele>
        <time>2021-03-25T09:10:42.000Z</time>
      </trkpt>
      <trkpt lat="47.31631" lon="-2.37061">
        <ele>70</ele>
        <time>2021-03-25T09:10:45.000Z</time>
      </trkpt>
      <trkpt lat="47.31641" lon="-2.37084">
        <ele>70</ele>
        <time>2021-03-25T09:10:49.000Z</time>
      </trkpt>
      <trkpt lat="47.31645" lon="-2.3709">
        <ele>70.400001525879</ele>
        <time>2021-03-25T09:10:50.000Z</time>
      </trkpt>
      <trkpt lat="47.31648" lon="-2.37096">
        <ele>70.800003051758</ele>
        <time>2021-03-25T09:10:51.000Z</time>
      </trkpt>
      <trkpt lat="47.3165" lon="-2.37101">
        <ele>71.199996948242</ele>
        <time>2021-03-25T09:10:52.000Z</time>
      </trkpt>
      <trkpt lat="47.31653" lon="-2.37107">
        <ele>71.599998474121</ele>
        <time>2021-03-25T09:10:53.000Z</time>
      </trkpt>
      <trkpt lat="47.31656" lon="-2.37112">
        <ele>72</ele>
        <time>2021-03-25T09:10:54.000Z</time>
      </trkpt>
      <trkpt lat="47.31669" lon="-2.37139">
        <ele>72</ele>
        <time>2021-03-25T09:11:00.000Z</time>
      </trkpt>
      <trkpt lat="47.31675" lon="-2.37153">
        <ele>72</ele>
        <time>2021-03-25T09:11:04.000Z</time>
      </trkpt>
      <trkpt lat="47.31679" lon="-2.3716">
        <ele>72</ele>
        <time>2021-03-25T09:11:06.000Z</time>
      </trkpt>
      <trkpt lat="47.31688" lon="-2.3719">
        <ele>72</ele>
        <time>2021-03-25T09:11:12.000Z</time>
      </trkpt>
      <trkpt lat="47.31688" lon="-2.37197">
        <ele>72</ele>
        <time>2021-03-25T09:11:13.000Z</time>
      </trkpt>
      <trkpt lat="47.31685" lon="-2.37217">
        <ele>72</ele>
        <time>2021-03-25T09:11:16.000Z</time>
      </trkpt>
      <trkpt lat="47.31673" lon="-2.37238">
        <ele>72</ele>
        <time>2021-03-25T09:11:20.000Z</time>
      </trkpt>
      <trkpt lat="47.31669" lon="-2.37243">
        <ele>72</ele>
        <time>2021-03-25T09:11:21.000Z</time>
      </trkpt>
      <trkpt lat="47.31647" lon="-2.37263">
        <ele>72</ele>
        <time>2021-03-25T09:11:26.000Z</time>
      </trkpt>
      <trkpt lat="47.31628" lon="-2.37283">
        <ele>72</ele>
        <time>2021-03-25T09:11:31.000Z</time>
      </trkpt>
      <trkpt lat="47.31625" lon="-2.37288">
        <ele>72</ele>
        <time>2021-03-25T09:11:32.000Z</time>
      </trkpt>
      <trkpt lat="47.31617" lon="-2.37318">
        <ele>72</ele>
        <time>2021-03-25T09:11:36.000Z</time>
      </trkpt>
      <trkpt lat="47.31618" lon="-2.37327">
        <ele>72</ele>
        <time>2021-03-25T09:11:37.000Z</time>
      </trkpt>
      <trkpt lat="47.31622" lon="-2.37344">
        <ele>72</ele>
        <time>2021-03-25T09:11:39.000Z</time>
      </trkpt>
      <trkpt lat="47.31633" lon="-2.37399">
        <ele>72</ele>
        <time>2021-03-25T09:11:46.000Z</time>
      </trkpt>
      <trkpt lat="47.31634" lon="-2.37408">
        <ele>72</ele>
        <time>2021-03-25T09:11:47.000Z</time>
      </trkpt>
      <trkpt lat="47.31638" lon="-2.37486">
        <ele>72</ele>
        <time>2021-03-25T09:11:57.000Z</time>
      </trkpt>
      <trkpt lat="47.31638" lon="-2.37494">
        <ele>72</ele>
        <time>2021-03-25T09:11:58.000Z</time>
      </trkpt>
      <trkpt lat="47.31631" lon="-2.37525">
        <ele>72</ele>
        <time>2021-03-25T09:12:02.000Z</time>
      </trkpt>
      <trkpt lat="47.31626" lon="-2.37539">
        <ele>72</ele>
        <time>2021-03-25T09:12:04.000Z</time>
      </trkpt>
      <trkpt lat="47.31616" lon="-2.37569">
        <ele>72</ele>
        <time>2021-03-25T09:12:08.000Z</time>
      </trkpt>
      <trkpt lat="47.31615" lon="-2.37578">
        <ele>71.599998474121</ele>
        <time>2021-03-25T09:12:09.000Z</time>
      </trkpt>
      <trkpt lat="47.31614" lon="-2.37586">
        <ele>71.199996948242</ele>
        <time>2021-03-25T09:12:10.000Z</time>
      </trkpt>
      <trkpt lat="47.31614" lon="-2.37594">
        <ele>70.800003051758</ele>
        <time>2021-03-25T09:12:11.000Z</time>
      </trkpt>
      <trkpt lat="47.31615" lon="-2.37602">
        <ele>70.400001525879</ele>
        <time>2021-03-25T09:12:12.000Z</time>
      </trkpt>
      <trkpt lat="47.31615" lon="-2.3761">
        <ele>70</ele>
        <time>2021-03-25T09:12:13.000Z</time>
      </trkpt>
      <trkpt lat="47.31619" lon="-2.3764">
        <ele>70</ele>
        <time>2021-03-25T09:12:17.000Z</time>
      </trkpt>
      <trkpt lat="47.31622" lon="-2.37646">
        <ele>70</ele>
        <time>2021-03-25T09:12:18.000Z</time>
      </trkpt>
      <trkpt lat="47.31635" lon="-2.37655">
        <ele>70</ele>
        <time>2021-03-25T09:12:21.000Z</time>
      </trkpt>
      <trkpt lat="47.31645" lon="-2.37659">
        <ele>70</ele>
        <time>2021-03-25T09:12:23.000Z</time>
      </trkpt>
      <trkpt lat="47.31649" lon="-2.37662">
        <ele>70</ele>
        <time>2021-03-25T09:12:24.000Z</time>
      </trkpt>
      <trkpt lat="47.31663" lon="-2.37675">
        <ele>70</ele>
        <time>2021-03-25T09:12:27.000Z</time>
      </trkpt>
      <trkpt lat="47.31693" lon="-2.37707">
        <ele>70</ele>
        <time>2021-03-25T09:12:34.000Z</time>
      </trkpt>
      <trkpt lat="47.31719" lon="-2.37713">
        <ele>70</ele>
        <time>2021-03-25T09:12:39.000Z</time>
      </trkpt>
      <trkpt lat="47.31729" lon="-2.37711">
        <ele>70</ele>
        <time>2021-03-25T09:12:41.000Z</time>
      </trkpt>
      <trkpt lat="47.3175" lon="-2.37701">
        <ele>70</ele>
        <time>2021-03-25T09:12:45.000Z</time>
      </trkpt>
      <trkpt lat="47.31779" lon="-2.37674">
        <ele>70</ele>
        <time>2021-03-25T09:12:51.000Z</time>
      </trkpt>
      <trkpt lat="47.31799" lon="-2.37658">
        <ele>70</ele>
        <time>2021-03-25T09:12:55.000Z</time>
      </trkpt>
      <trkpt lat="47.31811" lon="-2.37651">
        <ele>70</ele>
        <time>2021-03-25T09:12:57.000Z</time>
      </trkpt>
      <trkpt lat="47.31817" lon="-2.3765">
        <ele>70</ele>
        <time>2021-03-25T09:12:58.000Z</time>
      </trkpt>
      <trkpt lat="47.31826" lon="-2.37657">
        <ele>70</ele>
        <time>2021-03-25T09:13:00.000Z</time>
      </trkpt>
      <trkpt lat="47.31828" lon="-2.37671">
        <ele>70</ele>
        <time>2021-03-25T09:13:02.000Z</time>
      </trkpt>
      <trkpt lat="47.31824" lon="-2.37685">
        <ele>70</ele>
        <time>2021-03-25T09:13:04.000Z</time>
      </trkpt>
      <trkpt lat="47.31823" lon="-2.37692">
        <ele>70</ele>
        <time>2021-03-25T09:13:05.000Z</time>
      </trkpt>
      <trkpt lat="47.31815" lon="-2.37744">
        <ele>70</ele>
        <time>2021-03-25T09:13:11.000Z</time>
      </trkpt>
      <trkpt lat="47.3181" lon="-2.37799">
        <ele>70</ele>
        <time>2021-03-25T09:13:17.000Z</time>
      </trkpt>
      <trkpt lat="47.31801" lon="-2.37878">
        <ele>70</ele>
        <time>2021-03-25T09:13:25.000Z</time>
      </trkpt>
      <trkpt lat="47.31798" lon="-2.37909">
        <ele>69.599998474121</ele>
        <time>2021-03-25T09:13:28.000Z</time>
      </trkpt>
      <trkpt lat="47.31797" lon="-2.3792">
        <ele>69.199996948242</ele>
        <time>2021-03-25T09:13:29.000Z</time>
      </trkpt>
      <trkpt lat="47.31796" lon="-2.3793">
        <ele>68.800003051758</ele>
        <time>2021-03-25T09:13:30.000Z</time>
      </trkpt>
      <trkpt lat="47.31795" lon="-2.37941">
        <ele>68.400001525879</ele>
        <time>2021-03-25T09:13:31.000Z</time>
      </trkpt>
      <trkpt lat="47.31794" lon="-2.37952">
        <ele>68</ele>
        <time>2021-03-25T09:13:32.000Z</time>
      </trkpt>
      <trkpt lat="47.31794" lon="-2.37964">
        <ele>68</ele>
        <time>2021-03-25T09:13:33.000Z</time>
      </trkpt>
      <trkpt lat="47.31795" lon="-2.38">
        <ele>67.599998474121</ele>
        <time>2021-03-25T09:13:36.000Z</time>
      </trkpt>
      <trkpt lat="47.31795" lon="-2.38012">
        <ele>67</ele>
        <time>2021-03-25T09:13:37.000Z</time>
      </trkpt>
      <trkpt lat="47.31796" lon="-2.38023">
        <ele>66.599998474121</ele>
        <time>2021-03-25T09:13:38.000Z</time>
      </trkpt>
      <trkpt lat="47.31797" lon="-2.38035">
        <ele>66.199996948242</ele>
        <time>2021-03-25T09:13:39.000Z</time>
      </trkpt>
      <trkpt lat="47.31797" lon="-2.38046">
        <ele>65.599998474121</ele>
        <time>2021-03-25T09:13:40.000Z</time>
      </trkpt>
      <trkpt lat="47.318" lon="-2.38078">
        <ele>65.599998474121</ele>
        <time>2021-03-25T09:13:43.000Z</time>
      </trkpt>
      <trkpt lat="47.31801" lon="-2.38097">
        <ele>65.599998474121</ele>
        <time>2021-03-25T09:13:45.000Z</time>
      </trkpt>
      <trkpt lat="47.31803" lon="-2.38126">
        <ele>65.599998474121</ele>
        <time>2021-03-25T09:13:48.000Z</time>
      </trkpt>
      <trkpt lat="47.31806" lon="-2.382">
        <ele>65.599998474121</ele>
        <time>2021-03-25T09:13:56.000Z</time>
      </trkpt>
      <trkpt lat="47.31809" lon="-2.38257">
        <ele>65.599998474121</ele>
        <time>2021-03-25T09:14:03.000Z</time>
      </trkpt>
      <trkpt lat="47.31811" lon="-2.38296">
        <ele>66</ele>
        <time>2021-03-25T09:14:08.000Z</time>
      </trkpt>
      <trkpt lat="47.31811" lon="-2.38304">
        <ele>66.400001525879</ele>
        <time>2021-03-25T09:14:09.000Z</time>
      </trkpt>
      <trkpt lat="47.31811" lon="-2.38313">
        <ele>66.800003051758</ele>
        <time>2021-03-25T09:14:10.000Z</time>
      </trkpt>
      <trkpt lat="47.3181" lon="-2.38321">
        <ele>67.199996948242</ele>
        <time>2021-03-25T09:14:11.000Z</time>
      </trkpt>
      <trkpt lat="47.31811" lon="-2.3833">
        <ele>67.599998474121</ele>
        <time>2021-03-25T09:14:12.000Z</time>
      </trkpt>
      <trkpt lat="47.3181" lon="-2.38382">
        <ele>68.199996948242</ele>
        <time>2021-03-25T09:14:18.000Z</time>
      </trkpt>
      <trkpt lat="47.3181" lon="-2.3839">
        <ele>68.599998474121</ele>
        <time>2021-03-25T09:14:19.000Z</time>
      </trkpt>
      <trkpt lat="47.31811" lon="-2.38399">
        <ele>69</ele>
        <time>2021-03-25T09:14:20.000Z</time>
      </trkpt>
      <trkpt lat="47.31811" lon="-2.38407">
        <ele>69.400001525879</ele>
        <time>2021-03-25T09:14:21.000Z</time>
      </trkpt>
      <trkpt lat="47.3181" lon="-2.38416">
        <ele>69.800003051758</ele>
        <time>2021-03-25T09:14:22.000Z</time>
      </trkpt>
      <trkpt lat="47.31811" lon="-2.38433">
        <ele>69.800003051758</ele>
        <time>2021-03-25T09:14:24.000Z</time>
      </trkpt>
      <trkpt lat="47.31811" lon="-2.38487">
        <ele>69.800003051758</ele>
        <time>2021-03-25T09:14:31.000Z</time>
      </trkpt>
      <trkpt lat="47.31811" lon="-2.38532">
        <ele>70.599998474121</ele>
        <time>2021-03-25T09:14:37.000Z</time>
      </trkpt>
      <trkpt lat="47.31811" lon="-2.3854">
        <ele>71.199996948242</ele>
        <time>2021-03-25T09:14:38.000Z</time>
      </trkpt>
      <trkpt lat="47.3181" lon="-2.38547">
        <ele>71.599998474121</ele>
        <time>2021-03-25T09:14:39.000Z</time>
      </trkpt>
      <trkpt lat="47.31811" lon="-2.38556">
        <ele>72</ele>
        <time>2021-03-25T09:14:40.000Z</time>
      </trkpt>
      <trkpt lat="47.31813" lon="-2.38601">
        <ele>72</ele>
        <time>2021-03-25T09:14:45.000Z</time>
      </trkpt>
      <trkpt lat="47.31819" lon="-2.38678">
        <ele>72</ele>
        <time>2021-03-25T09:14:53.000Z</time>
      </trkpt>
      <trkpt lat="47.31823" lon="-2.38746">
        <ele>72</ele>
        <time>2021-03-25T09:15:00.000Z</time>
      </trkpt>
      <trkpt lat="47.31823" lon="-2.38755">
        <ele>72</ele>
        <time>2021-03-25T09:15:01.000Z</time>
      </trkpt>
      <trkpt lat="47.31822" lon="-2.38795">
        <ele>72</ele>
        <time>2021-03-25T09:15:05.000Z</time>
      </trkpt>
      <trkpt lat="47.31826" lon="-2.38824">
        <ele>72</ele>
        <time>2021-03-25T09:15:08.000Z</time>
      </trkpt>
      <trkpt lat="47.31829" lon="-2.38843">
        <ele>72</ele>
        <time>2021-03-25T09:15:10.000Z</time>
      </trkpt>
      <trkpt lat="47.31844" lon="-2.38907">
        <ele>72</ele>
        <time>2021-03-25T09:15:17.000Z</time>
      </trkpt>
      <trkpt lat="47.3186" lon="-2.38963">
        <ele>72</ele>
        <time>2021-03-25T09:15:23.000Z</time>
      </trkpt>
      <trkpt lat="47.31863" lon="-2.38973">
        <ele>71.599998474121</ele>
        <time>2021-03-25T09:15:24.000Z</time>
      </trkpt>
      <trkpt lat="47.31867" lon="-2.38982">
        <ele>71.199996948242</ele>
        <time>2021-03-25T09:15:25.000Z</time>
      </trkpt>
      <trkpt lat="47.31871" lon="-2.38991">
        <ele>70.400001525879</ele>
        <time>2021-03-25T09:15:26.000Z</time>
      </trkpt>
      <trkpt lat="47.31875" lon="-2.39">
        <ele>70</ele>
        <time>2021-03-25T09:15:27.000Z</time>
      </trkpt>
      <trkpt lat="47.31884" lon="-2.39026">
        <ele>70</ele>
        <time>2021-03-25T09:15:30.000Z</time>
      </trkpt>
      <trkpt lat="47.31901" lon="-2.39089">
        <ele>70</ele>
        <time>2021-03-25T09:15:37.000Z</time>
      </trkpt>
      <trkpt lat="47.31919" lon="-2.39144">
        <ele>70</ele>
        <time>2021-03-25T09:15:43.000Z</time>
      </trkpt>
      <trkpt lat="47.31941" lon="-2.39216">
        <ele>70</ele>
        <time>2021-03-25T09:15:51.000Z</time>
      </trkpt>
      <trkpt lat="47.31943" lon="-2.39224">
        <ele>70.400001525879</ele>
        <time>2021-03-25T09:15:52.000Z</time>
      </trkpt>
      <trkpt lat="47.31946" lon="-2.39233">
        <ele>70.800003051758</ele>
        <time>2021-03-25T09:15:53.000Z</time>
      </trkpt>
      <trkpt lat="47.31948" lon="-2.39242">
        <ele>71.199996948242</ele>
        <time>2021-03-25T09:15:54.000Z</time>
      </trkpt>
      <trkpt lat="47.31951" lon="-2.39251">
        <ele>71.599998474121</ele>
        <time>2021-03-25T09:15:55.000Z</time>
      </trkpt>
      <trkpt lat="47.31953" lon="-2.39259">
        <ele>72</ele>
        <time>2021-03-25T09:15:56.000Z</time>
      </trkpt>
      <trkpt lat="47.3196" lon="-2.39285">
        <ele>72</ele>
        <time>2021-03-25T09:15:59.000Z</time>
      </trkpt>
      <trkpt lat="47.31968" lon="-2.39317">
        <ele>72</ele>
        <time>2021-03-25T09:16:03.000Z</time>
      </trkpt>
      <trkpt lat="47.31972" lon="-2.39333">
        <ele>72</ele>
        <time>2021-03-25T09:16:05.000Z</time>
      </trkpt>
      <trkpt lat="47.31984" lon="-2.3938">
        <ele>72</ele>
        <time>2021-03-25T09:16:11.000Z</time>
      </trkpt>
      <trkpt lat="47.31985" lon="-2.39388">
        <ele>72.400001525879</ele>
        <time>2021-03-25T09:16:12.000Z</time>
      </trkpt>
      <trkpt lat="47.31987" lon="-2.39396">
        <ele>72.800003051758</ele>
        <time>2021-03-25T09:16:13.000Z</time>
      </trkpt>
      <trkpt lat="47.31988" lon="-2.39404">
        <ele>73.400001525879</ele>
        <time>2021-03-25T09:16:14.000Z</time>
      </trkpt>
      <trkpt lat="47.3199" lon="-2.39412">
        <ele>74.199996948242</ele>
        <time>2021-03-25T09:16:15.000Z</time>
      </trkpt>
      <trkpt lat="47.31993" lon="-2.39427">
        <ele>74.199996948242</ele>
        <time>2021-03-25T09:16:17.000Z</time>
      </trkpt>
      <trkpt lat="47.31996" lon="-2.39434">
        <ele>74.199996948242</ele>
        <time>2021-03-25T09:16:18.000Z</time>
      </trkpt>
      <trkpt lat="47.32002" lon="-2.39463">
        <ele>74.199996948242</ele>
        <time>2021-03-25T09:16:22.000Z</time>
      </trkpt>
      <trkpt lat="47.32014" lon="-2.39518">
        <ele>74.199996948242</ele>
        <time>2021-03-25T09:16:29.000Z</time>
      </trkpt>
      <trkpt lat="47.3203" lon="-2.39579">
        <ele>74.599998474121</ele>
        <time>2021-03-25T09:16:37.000Z</time>
      </trkpt>
      <trkpt lat="47.32032" lon="-2.39586">
        <ele>75</ele>
        <time>2021-03-25T09:16:38.000Z</time>
      </trkpt>
      <trkpt lat="47.32034" lon="-2.39594">
        <ele>75.599998474121</ele>
        <time>2021-03-25T09:16:39.000Z</time>
      </trkpt>
      <trkpt lat="47.32035" lon="-2.39601">
        <ele>76.400001525879</ele>
        <time>2021-03-25T09:16:40.000Z</time>
      </trkpt>
      <trkpt lat="47.3204" lon="-2.39622">
        <ele>76.400001525879</ele>
        <time>2021-03-25T09:16:43.000Z</time>
      </trkpt>
      <trkpt lat="47.32051" lon="-2.39662">
        <ele>76.400001525879</ele>
        <time>2021-03-25T09:16:49.000Z</time>
      </trkpt>
      <trkpt lat="47.32055" lon="-2.39675">
        <ele>76.400001525879</ele>
        <time>2021-03-25T09:16:51.000Z</time>
      </trkpt>
      <trkpt lat="47.32063" lon="-2.39702">
        <ele>76.400001525879</ele>
        <time>2021-03-25T09:16:55.000Z</time>
      </trkpt>
      <trkpt lat="47.32066" lon="-2.39715">
        <ele>76.400001525879</ele>
        <time>2021-03-25T09:16:57.000Z</time>
      </trkpt>
      <trkpt lat="47.32071" lon="-2.39736">
        <ele>76.800003051758</ele>
        <time>2021-03-25T09:17:00.000Z</time>
      </trkpt>
      <trkpt lat="47.32072" lon="-2.39742">
        <ele>77.199996948242</ele>
        <time>2021-03-25T09:17:01.000Z</time>
      </trkpt>
      <trkpt lat="47.32074" lon="-2.39748">
        <ele>77.599998474121</ele>
        <time>2021-03-25T09:17:02.000Z</time>
      </trkpt>
      <trkpt lat="47.32075" lon="-2.39755">
        <ele>78</ele>
        <time>2021-03-25T09:17:03.000Z</time>
      </trkpt>
      <trkpt lat="47.32077" lon="-2.39761">
        <ele>78.400001525879</ele>
        <time>2021-03-25T09:17:04.000Z</time>
      </trkpt>
      <trkpt lat="47.32082" lon="-2.39776">
        <ele>78.400001525879</ele>
        <time>2021-03-25T09:17:07.000Z</time>
      </trkpt>
      <trkpt lat="47.32086" lon="-2.39793">
        <ele>78.400001525879</ele>
        <time>2021-03-25T09:17:12.000Z</time>
      </trkpt>
      <trkpt lat="47.32086" lon="-2.39811">
        <ele>78.400001525879</ele>
        <time>2021-03-25T09:17:19.000Z</time>
      </trkpt>
      <trkpt lat="47.32078" lon="-2.39824">
        <ele>78.400001525879</ele>
        <time>2021-03-25T09:17:23.000Z</time>
      </trkpt>
      <trkpt lat="47.32061" lon="-2.39843">
        <ele>78.400001525879</ele>
        <time>2021-03-25T09:17:30.000Z</time>
      </trkpt>
      <trkpt lat="47.32041" lon="-2.3986">
        <ele>78.400001525879</ele>
        <time>2021-03-25T09:17:36.000Z</time>
      </trkpt>
      <trkpt lat="47.32012" lon="-2.39886">
        <ele>78.400001525879</ele>
        <time>2021-03-25T09:17:43.000Z</time>
      </trkpt>
      <trkpt lat="47.31983" lon="-2.39912">
        <ele>78.400001525879</ele>
        <time>2021-03-25T09:17:49.000Z</time>
      </trkpt>
      <trkpt lat="47.31965" lon="-2.3993">
        <ele>78</ele>
        <time>2021-03-25T09:17:53.000Z</time>
      </trkpt>
      <trkpt lat="47.31959" lon="-2.39935">
        <ele>77.199996948242</ele>
        <time>2021-03-25T09:17:54.000Z</time>
      </trkpt>
      <trkpt lat="47.31954" lon="-2.3994">
        <ele>76.599998474121</ele>
        <time>2021-03-25T09:17:55.000Z</time>
      </trkpt>
      <trkpt lat="47.31949" lon="-2.39944">
        <ele>76.199996948242</ele>
        <time>2021-03-25T09:17:56.000Z</time>
      </trkpt>
      <trkpt lat="47.31916" lon="-2.39978">
        <ele>76.199996948242</ele>
        <time>2021-03-25T09:18:02.000Z</time>
      </trkpt>
      <trkpt lat="47.31888" lon="-2.40017">
        <ele>76.199996948242</ele>
        <time>2021-03-25T09:18:08.000Z</time>
      </trkpt>
      <trkpt lat="47.31882" lon="-2.40025">
        <ele>75.800003051758</ele>
        <time>2021-03-25T09:18:09.000Z</time>
      </trkpt>
      <trkpt lat="47.31877" lon="-2.40032">
        <ele>75.400001525879</ele>
        <time>2021-03-25T09:18:10.000Z</time>
      </trkpt>
      <trkpt lat="47.31872" lon="-2.40039">
        <ele>75</ele>
        <time>2021-03-25T09:18:11.000Z</time>
      </trkpt>
      <trkpt lat="47.31867" lon="-2.40046">
        <ele>74.599998474121</ele>
        <time>2021-03-25T09:18:12.000Z</time>
      </trkpt>
      <trkpt lat="47.31862" lon="-2.40053">
        <ele>74.199996948242</ele>
        <time>2021-03-25T09:18:13.000Z</time>
      </trkpt>
      <trkpt lat="47.31858" lon="-2.40059">
        <ele>74.199996948242</ele>
        <time>2021-03-25T09:18:14.000Z</time>
      </trkpt>
      <trkpt lat="47.31831" lon="-2.40096">
        <ele>74.199996948242</ele>
        <time>2021-03-25T09:18:20.000Z</time>
      </trkpt>
      <trkpt lat="47.31795" lon="-2.40145">
        <ele>74.199996948242</ele>
        <time>2021-03-25T09:18:28.000Z</time>
      </trkpt>
      <trkpt lat="47.31772" lon="-2.40183">
        <ele>74.199996948242</ele>
        <time>2021-03-25T09:18:34.000Z</time>
      </trkpt>
      <trkpt lat="47.31746" lon="-2.4023">
        <ele>74.199996948242</ele>
        <time>2021-03-25T09:18:41.000Z</time>
      </trkpt>
      <trkpt lat="47.31736" lon="-2.40248">
        <ele>74.199996948242</ele>
        <time>2021-03-25T09:18:44.000Z</time>
      </trkpt>
      <trkpt lat="47.31729" lon="-2.40256">
        <ele>74.199996948242</ele>
        <time>2021-03-25T09:18:46.000Z</time>
      </trkpt>
      <trkpt lat="47.31715" lon="-2.40278">
        <ele>74.199996948242</ele>
        <time>2021-03-25T09:18:51.000Z</time>
      </trkpt>
      <trkpt lat="47.31702" lon="-2.40297">
        <ele>74.199996948242</ele>
        <time>2021-03-25T09:18:55.000Z</time>
      </trkpt>
      <trkpt lat="47.31695" lon="-2.40305">
        <ele>74.199996948242</ele>
        <time>2021-03-25T09:18:57.000Z</time>
      </trkpt>
      <trkpt lat="47.31689" lon="-2.40324">
        <ele>74.199996948242</ele>
        <time>2021-03-25T09:19:01.000Z</time>
      </trkpt>
      <trkpt lat="47.31696" lon="-2.4034">
        <ele>74.199996948242</ele>
        <time>2021-03-25T09:19:04.000Z</time>
      </trkpt>
      <trkpt lat="47.31705" lon="-2.40345">
        <ele>74.199996948242</ele>
        <time>2021-03-25T09:19:06.000Z</time>
      </trkpt>
      <trkpt lat="47.31721" lon="-2.40353">
        <ele>74.199996948242</ele>
        <time>2021-03-25T09:19:09.000Z</time>
      </trkpt>
      <trkpt lat="47.31755" lon="-2.40377">
        <ele>74.199996948242</ele>
        <time>2021-03-25T09:19:15.000Z</time>
      </trkpt>
      <trkpt lat="47.31787" lon="-2.40404">
        <ele>74.199996948242</ele>
        <time>2021-03-25T09:19:21.000Z</time>
      </trkpt>
      <trkpt lat="47.31798" lon="-2.40411">
        <ele>74.199996948242</ele>
        <time>2021-03-25T09:19:23.000Z</time>
      </trkpt>
      <trkpt lat="47.31813" lon="-2.40422">
        <ele>74.199996948242</ele>
        <time>2021-03-25T09:19:26.000Z</time>
      </trkpt>
      <trkpt lat="47.3184" lon="-2.40442">
        <ele>74.199996948242</ele>
        <time>2021-03-25T09:19:32.000Z</time>
      </trkpt>
      <trkpt lat="47.31854" lon="-2.40453">
        <ele>74.599998474121</ele>
        <time>2021-03-25T09:19:36.000Z</time>
      </trkpt>
      <trkpt lat="47.31857" lon="-2.40456">
        <ele>75</ele>
        <time>2021-03-25T09:19:37.000Z</time>
      </trkpt>
      <trkpt lat="47.3186" lon="-2.40458">
        <ele>75.400001525879</ele>
        <time>2021-03-25T09:19:38.000Z</time>
      </trkpt>
      <trkpt lat="47.31863" lon="-2.4046">
        <ele>75.800003051758</ele>
        <time>2021-03-25T09:19:39.000Z</time>
      </trkpt>
      <trkpt lat="47.31867" lon="-2.40463">
        <ele>76.400001525879</ele>
        <time>2021-03-25T09:19:40.000Z</time>
      </trkpt>
      <trkpt lat="47.31882" lon="-2.40475">
        <ele>76.400001525879</ele>
        <time>2021-03-25T09:19:44.000Z</time>
      </trkpt>
      <trkpt lat="47.31905" lon="-2.40493">
        <ele>76.400001525879</ele>
        <time>2021-03-25T09:19:50.000Z</time>
      </trkpt>
      <trkpt lat="47.31935" lon="-2.40514">
        <ele>76.400001525879</ele>
        <time>2021-03-25T09:19:57.000Z</time>
      </trkpt>
      <trkpt lat="47.31943" lon="-2.40519">
        <ele>76.400001525879</ele>
        <time>2021-03-25T09:19:59.000Z</time>
      </trkpt>
      <trkpt lat="47.31955" lon="-2.40528">
        <ele>76.400001525879</ele>
        <time>2021-03-25T09:20:02.000Z</time>
      </trkpt>
      <trkpt lat="47.31971" lon="-2.40541">
        <ele>76.400001525879</ele>
        <time>2021-03-25T09:20:06.000Z</time>
      </trkpt>
      <trkpt lat="47.31975" lon="-2.40544">
        <ele>76.800003051758</ele>
        <time>2021-03-25T09:20:07.000Z</time>
      </trkpt>
      <trkpt lat="47.31979" lon="-2.40547">
        <ele>77.199996948242</ele>
        <time>2021-03-25T09:20:08.000Z</time>
      </trkpt>
      <trkpt lat="47.31983" lon="-2.40551">
        <ele>77.599998474121</ele>
        <time>2021-03-25T09:20:09.000Z</time>
      </trkpt>
      <trkpt lat="47.31987" lon="-2.40555">
        <ele>78</ele>
        <time>2021-03-25T09:20:10.000Z</time>
      </trkpt>
      <trkpt lat="47.31992" lon="-2.40559">
        <ele>78.400001525879</ele>
        <time>2021-03-25T09:20:11.000Z</time>
      </trkpt>
      <trkpt lat="47.32005" lon="-2.40571">
        <ele>78.400001525879</ele>
        <time>2021-03-25T09:20:14.000Z</time>
      </trkpt>
      <trkpt lat="47.32033" lon="-2.40594">
        <ele>78.400001525879</ele>
        <time>2021-03-25T09:20:20.000Z</time>
      </trkpt>
      <trkpt lat="47.32064" lon="-2.40622">
        <ele>78.400001525879</ele>
        <time>2021-03-25T09:20:27.000Z</time>
      </trkpt>
      <trkpt lat="47.32073" lon="-2.4063">
        <ele>78.800003051758</ele>
        <time>2021-03-25T09:20:29.000Z</time>
      </trkpt>
      <trkpt lat="47.32077" lon="-2.40635">
        <ele>79.199996948242</ele>
        <time>2021-03-25T09:20:30.000Z</time>
      </trkpt>
      <trkpt lat="47.32082" lon="-2.4064">
        <ele>79.599998474121</ele>
        <time>2021-03-25T09:20:31.000Z</time>
      </trkpt>
      <trkpt lat="47.32086" lon="-2.40645">
        <ele>80</ele>
        <time>2021-03-25T09:20:32.000Z</time>
      </trkpt>
      <trkpt lat="47.32091" lon="-2.4065">
        <ele>80.400001525879</ele>
        <time>2021-03-25T09:20:33.000Z</time>
      </trkpt>
      <trkpt lat="47.32096" lon="-2.40655">
        <ele>80.400001525879</ele>
        <time>2021-03-25T09:20:34.000Z</time>
      </trkpt>
      <trkpt lat="47.32121" lon="-2.40685">
        <ele>80.400001525879</ele>
        <time>2021-03-25T09:20:40.000Z</time>
      </trkpt>
      <trkpt lat="47.32155" lon="-2.40724">
        <ele>80.400001525879</ele>
        <time>2021-03-25T09:20:48.000Z</time>
      </trkpt>
      <trkpt lat="47.32184" lon="-2.4076">
        <ele>80.400001525879</ele>
        <time>2021-03-25T09:20:56.000Z</time>
      </trkpt>
      <trkpt lat="47.32197" lon="-2.40776">
        <ele>80.400001525879</ele>
        <time>2021-03-25T09:21:01.000Z</time>
      </trkpt>
      <trkpt lat="47.32203" lon="-2.40786">
        <ele>80.400001525879</ele>
        <time>2021-03-25T09:21:06.000Z</time>
      </trkpt>
      <trkpt lat="47.32214" lon="-2.40804">
        <ele>80.400001525879</ele>
        <time>2021-03-25T09:21:11.000Z</time>
      </trkpt>
      <trkpt lat="47.32223" lon="-2.40815">
        <ele>80.400001525879</ele>
        <time>2021-03-25T09:21:16.000Z</time>
      </trkpt>
      <trkpt lat="47.32226" lon="-2.4082">
        <ele>80.400001525879</ele>
        <time>2021-03-25T09:21:17.000Z</time>
      </trkpt>
      <trkpt lat="47.32239" lon="-2.40842">
        <ele>80.400001525879</ele>
        <time>2021-03-25T09:21:21.000Z</time>
      </trkpt>
      <trkpt lat="47.32264" lon="-2.40884">
        <ele>80.400001525879</ele>
        <time>2021-03-25T09:21:29.000Z</time>
      </trkpt>
      <trkpt lat="47.32272" lon="-2.409">
        <ele>80.800003051758</ele>
        <time>2021-03-25T09:21:32.000Z</time>
      </trkpt>
      <trkpt lat="47.32275" lon="-2.40905">
        <ele>81.199996948242</ele>
        <time>2021-03-25T09:21:33.000Z</time>
      </trkpt>
      <trkpt lat="47.32278" lon="-2.4091">
        <ele>81.599998474121</ele>
        <time>2021-03-25T09:21:34.000Z</time>
      </trkpt>
      <trkpt lat="47.32281" lon="-2.40916">
        <ele>82</ele>
        <time>2021-03-25T09:21:35.000Z</time>
      </trkpt>
      <trkpt lat="47.32284" lon="-2.40922">
        <ele>82.599998474121</ele>
        <time>2021-03-25T09:21:36.000Z</time>
      </trkpt>
      <trkpt lat="47.32311" lon="-2.40975">
        <ele>82.599998474121</ele>
        <time>2021-03-25T09:21:45.000Z</time>
      </trkpt>
      <trkpt lat="47.3232" lon="-2.40992">
        <ele>82.599998474121</ele>
        <time>2021-03-25T09:21:48.000Z</time>
      </trkpt>
      <trkpt lat="47.32334" lon="-2.41019">
        <ele>82.599998474121</ele>
        <time>2021-03-25T09:21:53.000Z</time>
      </trkpt>
      <trkpt lat="47.32351" lon="-2.41052">
        <ele>83</ele>
        <time>2021-03-25T09:21:59.000Z</time>
      </trkpt>
      <trkpt lat="47.32354" lon="-2.41057">
        <ele>83.400001525879</ele>
        <time>2021-03-25T09:22:00.000Z</time>
      </trkpt>
      <trkpt lat="47.32357" lon="-2.41062">
        <ele>83.800003051758</ele>
        <time>2021-03-25T09:22:01.000Z</time>
      </trkpt>
      <trkpt lat="47.32359" lon="-2.41067">
        <ele>84.599998474121</ele>
        <time>2021-03-25T09:22:02.000Z</time>
      </trkpt>
      <trkpt lat="47.32366" lon="-2.41079">
        <ele>84.599998474121</ele>
        <time>2021-03-25T09:22:05.000Z</time>
      </trkpt>
      <trkpt lat="47.32371" lon="-2.41087">
        <ele>84.599998474121</ele>
        <time>2021-03-25T09:22:07.000Z</time>
      </trkpt>
      <trkpt lat="47.32378" lon="-2.41103">
        <ele>84.599998474121</ele>
        <time>2021-03-25T09:22:10.000Z</time>
      </trkpt>
      <trkpt lat="47.32384" lon="-2.41114">
        <ele>84.599998474121</ele>
        <time>2021-03-25T09:22:12.000Z</time>
      </trkpt>
      <trkpt lat="47.3239" lon="-2.41124">
        <ele>84.599998474121</ele>
        <time>2021-03-25T09:22:14.000Z</time>
      </trkpt>
      <trkpt lat="47.324" lon="-2.41143">
        <ele>84.599998474121</ele>
        <time>2021-03-25T09:22:18.000Z</time>
      </trkpt>
      <trkpt lat="47.32417" lon="-2.41178">
        <ele>84.599998474121</ele>
        <time>2021-03-25T09:22:26.000Z</time>
      </trkpt>
      <trkpt lat="47.32429" lon="-2.41199">
        <ele>84.599998474121</ele>
        <time>2021-03-25T09:22:32.000Z</time>
      </trkpt>
      <trkpt lat="47.32434" lon="-2.41208">
        <ele>84.599998474121</ele>
        <time>2021-03-25T09:22:34.000Z</time>
      </trkpt>
      <trkpt lat="47.32442" lon="-2.41224">
        <ele>84.599998474121</ele>
        <time>2021-03-25T09:22:37.000Z</time>
      </trkpt>
      <trkpt lat="47.32465" lon="-2.41271">
        <ele>84.599998474121</ele>
        <time>2021-03-25T09:22:45.000Z</time>
      </trkpt>
      <trkpt lat="47.32496" lon="-2.41329">
        <ele>84.599998474121</ele>
        <time>2021-03-25T09:22:54.000Z</time>
      </trkpt>
      <trkpt lat="47.32529" lon="-2.41392">
        <ele>84.599998474121</ele>
        <time>2021-03-25T09:23:03.000Z</time>
      </trkpt>
      <trkpt lat="47.32539" lon="-2.41412">
        <ele>84.599998474121</ele>
        <time>2021-03-25T09:23:06.000Z</time>
      </trkpt>
      <trkpt lat="47.32549" lon="-2.41431">
        <ele>84.599998474121</ele>
        <time>2021-03-25T09:23:09.000Z</time>
      </trkpt>
      <trkpt lat="47.32552" lon="-2.41438">
        <ele>84.599998474121</ele>
        <time>2021-03-25T09:23:10.000Z</time>
      </trkpt>
      <trkpt lat="47.32558" lon="-2.41451">
        <ele>84.599998474121</ele>
        <time>2021-03-25T09:23:13.000Z</time>
      </trkpt>
      <trkpt lat="47.32562" lon="-2.41457">
        <ele>84.599998474121</ele>
        <time>2021-03-25T09:23:15.000Z</time>
      </trkpt>
      <trkpt lat="47.32566" lon="-2.41462">
        <ele>84.599998474121</ele>
        <time>2021-03-25T09:23:17.000Z</time>
      </trkpt>
      <trkpt lat="47.32568" lon="-2.4147">
        <ele>84.599998474121</ele>
        <time>2021-03-25T09:23:19.000Z</time>
      </trkpt>
      <trkpt lat="47.3257" lon="-2.41484">
        <ele>84.599998474121</ele>
        <time>2021-03-25T09:23:22.000Z</time>
      </trkpt>
      <trkpt lat="47.32577" lon="-2.41514">
        <ele>84.599998474121</ele>
        <time>2021-03-25T09:23:28.000Z</time>
      </trkpt>
      <trkpt lat="47.32589" lon="-2.4152">
        <ele>84.599998474121</ele>
        <time>2021-03-25T09:23:31.000Z</time>
      </trkpt>
      <trkpt lat="47.32594" lon="-2.41521">
        <ele>84.599998474121</ele>
        <time>2021-03-25T09:23:32.000Z</time>
      </trkpt>
      <trkpt lat="47.32608" lon="-2.41522">
        <ele>84.199996948242</ele>
        <time>2021-03-25T09:23:35.000Z</time>
      </trkpt>
      <trkpt lat="47.32613" lon="-2.41523">
        <ele>83.800003051758</ele>
        <time>2021-03-25T09:23:36.000Z</time>
      </trkpt>
      <trkpt lat="47.32617" lon="-2.41523">
        <ele>83.400001525879</ele>
        <time>2021-03-25T09:23:37.000Z</time>
      </trkpt>
      <trkpt lat="47.32622" lon="-2.41524">
        <ele>83</ele>
        <time>2021-03-25T09:23:38.000Z</time>
      </trkpt>
      <trkpt lat="47.32627" lon="-2.41525">
        <ele>82.599998474121</ele>
        <time>2021-03-25T09:23:39.000Z</time>
      </trkpt>
      <trkpt lat="47.32661" lon="-2.41532">
        <ele>82.599998474121</ele>
        <time>2021-03-25T09:23:46.000Z</time>
      </trkpt>
      <trkpt lat="47.32683" lon="-2.41537">
        <ele>82.599998474121</ele>
        <time>2021-03-25T09:23:51.000Z</time>
      </trkpt>
      <trkpt lat="47.32688" lon="-2.41538">
        <ele>82.199996948242</ele>
        <time>2021-03-25T09:23:53.000Z</time>
      </trkpt>
      <trkpt lat="47.32691" lon="-2.41539">
        <ele>81.800003051758</ele>
        <time>2021-03-25T09:23:54.000Z</time>
      </trkpt>
      <trkpt lat="47.32693" lon="-2.4154">
        <ele>81.199996948242</ele>
        <time>2021-03-25T09:23:55.000Z</time>
      </trkpt>
      <trkpt lat="47.32694" lon="-2.4154">
        <ele>80.800003051758</ele>
        <time>2021-03-25T09:23:56.000Z</time>
      </trkpt>
      <trkpt lat="47.32695" lon="-2.41541">
        <ele>80.400001525879</ele>
        <time>2021-03-25T09:23:57.000Z</time>
      </trkpt>
      <trkpt lat="47.32696" lon="-2.41542">
        <ele>80.400001525879</ele>
        <time>2021-03-25T09:23:59.000Z</time>
      </trkpt>
      <trkpt lat="47.32698" lon="-2.41544">
        <ele>80.400001525879</ele>
        <time>2021-03-25T09:24:53.000Z</time>
      </trkpt>
      <trkpt lat="47.32699" lon="-2.41546">
        <ele>80.400001525879</ele>
        <time>2021-03-25T09:24:54.000Z</time>
      </trkpt>
      <trkpt lat="47.32701" lon="-2.41564">
        <ele>80.400001525879</ele>
        <time>2021-03-25T09:24:58.000Z</time>
      </trkpt>
      <trkpt lat="47.327" lon="-2.41574">
        <ele>80.400001525879</ele>
        <time>2021-03-25T09:25:01.000Z</time>
      </trkpt>
      <trkpt lat="47.327" lon="-2.41576">
        <ele>80.400001525879</ele>
        <time>2021-03-25T09:25:02.000Z</time>
      </trkpt>
      <trkpt lat="47.32704" lon="-2.41588">
        <ele>80.400001525879</ele>
        <time>2021-03-25T09:25:07.000Z</time>
      </trkpt>
      <trkpt lat="47.32705" lon="-2.41594">
        <ele>80.400001525879</ele>
        <time>2021-03-25T09:25:08.000Z</time>
      </trkpt>
      <trkpt lat="47.32705" lon="-2.416">
        <ele>80.400001525879</ele>
        <time>2021-03-25T09:25:09.000Z</time>
      </trkpt>
      <trkpt lat="47.32711" lon="-2.41614">
        <ele>80.400001525879</ele>
        <time>2021-03-25T09:25:12.000Z</time>
      </trkpt>
      <trkpt lat="47.32716" lon="-2.41623">
        <ele>80.400001525879</ele>
        <time>2021-03-25T09:25:16.000Z</time>
      </trkpt>
      <trkpt lat="47.32715" lon="-2.41626">
        <ele>80.400001525879</ele>
        <time>2021-03-25T09:25:17.000Z</time>
      </trkpt>
      <trkpt lat="47.32709" lon="-2.41627">
        <ele>80.400001525879</ele>
        <time>2021-03-25T09:25:21.000Z</time>
      </trkpt>
      <trkpt lat="47.32708" lon="-2.41627">
        <ele>80.400001525879</ele>
        <time>2021-03-25T09:25:22.000Z</time>
      </trkpt>
      <trkpt lat="47.32708" lon="-2.41627">
        <ele>80.400001525879</ele>
        <time>2021-03-25T09:25:37.000Z</time>
      </trkpt>
      <trkpt lat="47.32706" lon="-2.41627">
        <ele>80.400001525879</ele>
        <time>2021-03-25T09:25:38.000Z</time>
      </trkpt>
      <trkpt lat="47.32694" lon="-2.41627">
        <ele>80.400001525879</ele>
        <time>2021-03-25T09:25:43.000Z</time>
      </trkpt>
      <trkpt lat="47.32678" lon="-2.41624">
        <ele>80.400001525879</ele>
        <time>2021-03-25T09:25:47.000Z</time>
      </trkpt>
      <trkpt lat="47.32673" lon="-2.41623">
        <ele>80.400001525879</ele>
        <time>2021-03-25T09:25:48.000Z</time>
      </trkpt>
      <trkpt lat="47.32652" lon="-2.41616">
        <ele>80.400001525879</ele>
        <time>2021-03-25T09:25:52.000Z</time>
      </trkpt>
      <trkpt lat="47.32633" lon="-2.4161">
        <ele>80.800003051758</ele>
        <time>2021-03-25T09:25:56.000Z</time>
      </trkpt>
      <trkpt lat="47.32629" lon="-2.41608">
        <ele>81.400001525879</ele>
        <time>2021-03-25T09:25:57.000Z</time>
      </trkpt>
      <trkpt lat="47.32624" lon="-2.41606">
        <ele>81.800003051758</ele>
        <time>2021-03-25T09:25:58.000Z</time>
      </trkpt>
      <trkpt lat="47.3262" lon="-2.41605">
        <ele>82.199996948242</ele>
        <time>2021-03-25T09:25:59.000Z</time>
      </trkpt>
      <trkpt lat="47.32616" lon="-2.41604">
        <ele>82.599998474121</ele>
        <time>2021-03-25T09:26:00.000Z</time>
      </trkpt>
      <trkpt lat="47.32607" lon="-2.41604">
        <ele>82.599998474121</ele>
        <time>2021-03-25T09:26:02.000Z</time>
      </trkpt>
      <trkpt lat="47.32599" lon="-2.41606">
        <ele>82.599998474121</ele>
        <time>2021-03-25T09:26:04.000Z</time>
      </trkpt>
      <trkpt lat="47.32594" lon="-2.41607">
        <ele>82.599998474121</ele>
        <time>2021-03-25T09:26:05.000Z</time>
      </trkpt>
      <trkpt lat="47.32585" lon="-2.41604">
        <ele>83</ele>
        <time>2021-03-25T09:26:07.000Z</time>
      </trkpt>
      <trkpt lat="47.3258" lon="-2.41601">
        <ele>84</ele>
        <time>2021-03-25T09:26:08.000Z</time>
      </trkpt>
      <trkpt lat="47.32576" lon="-2.41597">
        <ele>84.400001525879</ele>
        <time>2021-03-25T09:26:09.000Z</time>
      </trkpt>
      <trkpt lat="47.32572" lon="-2.41593">
        <ele>84.800003051758</ele>
        <time>2021-03-25T09:26:10.000Z</time>
      </trkpt>
      <trkpt lat="47.3256" lon="-2.41582">
        <ele>84.800003051758</ele>
        <time>2021-03-25T09:26:13.000Z</time>
      </trkpt>
      <trkpt lat="47.32555" lon="-2.41579">
        <ele>84.800003051758</ele>
        <time>2021-03-25T09:26:14.000Z</time>
      </trkpt>
      <trkpt lat="47.32542" lon="-2.41577">
        <ele>84.800003051758</ele>
        <time>2021-03-25T09:26:17.000Z</time>
      </trkpt>
      <trkpt lat="47.32537" lon="-2.41578">
        <ele>84.800003051758</ele>
        <time>2021-03-25T09:26:18.000Z</time>
      </trkpt>
      <trkpt lat="47.32527" lon="-2.41581">
        <ele>84.800003051758</ele>
        <time>2021-03-25T09:26:20.000Z</time>
      </trkpt>
      <trkpt lat="47.32513" lon="-2.41588">
        <ele>84.800003051758</ele>
        <time>2021-03-25T09:26:23.000Z</time>
      </trkpt>
      <trkpt lat="47.32508" lon="-2.41589">
        <ele>84.800003051758</ele>
        <time>2021-03-25T09:26:24.000Z</time>
      </trkpt>
      <trkpt lat="47.32492" lon="-2.41587">
        <ele>84.800003051758</ele>
        <time>2021-03-25T09:26:27.000Z</time>
      </trkpt>
      <trkpt lat="47.32487" lon="-2.41585">
        <ele>84.800003051758</ele>
        <time>2021-03-25T09:26:28.000Z</time>
      </trkpt>
      <trkpt lat="47.32455" lon="-2.41571">
        <ele>84.800003051758</ele>
        <time>2021-03-25T09:26:34.000Z</time>
      </trkpt>
      <trkpt lat="47.32423" lon="-2.41565">
        <ele>84.800003051758</ele>
        <time>2021-03-25T09:26:40.000Z</time>
      </trkpt>
      <trkpt lat="47.32408" lon="-2.41565">
        <ele>84.800003051758</ele>
        <time>2021-03-25T09:26:43.000Z</time>
      </trkpt>
      <trkpt lat="47.32393" lon="-2.4156">
        <ele>84.800003051758</ele>
        <time>2021-03-25T09:26:46.000Z</time>
      </trkpt>
      <trkpt lat="47.32385" lon="-2.41554">
        <ele>84.800003051758</ele>
        <time>2021-03-25T09:26:48.000Z</time>
      </trkpt>
      <trkpt lat="47.3237" lon="-2.41546">
        <ele>84.800003051758</ele>
        <time>2021-03-25T09:26:52.000Z</time>
      </trkpt>
      <trkpt lat="47.32362" lon="-2.41545">
        <ele>84.800003051758</ele>
        <time>2021-03-25T09:26:54.000Z</time>
      </trkpt>
      <trkpt lat="47.32348" lon="-2.41546">
        <ele>84.800003051758</ele>
        <time>2021-03-25T09:26:57.000Z</time>
      </trkpt>
      <trkpt lat="47.3234" lon="-2.41551">
        <ele>84.800003051758</ele>
        <time>2021-03-25T09:26:59.000Z</time>
      </trkpt>
      <trkpt lat="47.32336" lon="-2.41555">
        <ele>84.800003051758</ele>
        <time>2021-03-25T09:27:00.000Z</time>
      </trkpt>
      <trkpt lat="47.32328" lon="-2.41564">
        <ele>84.800003051758</ele>
        <time>2021-03-25T09:27:02.000Z</time>
      </trkpt>
      <trkpt lat="47.32317" lon="-2.41592">
        <ele>84.800003051758</ele>
        <time>2021-03-25T09:27:07.000Z</time>
      </trkpt>
      <trkpt lat="47.32314" lon="-2.41605">
        <ele>84.800003051758</ele>
        <time>2021-03-25T09:27:09.000Z</time>
      </trkpt>
      <trkpt lat="47.32311" lon="-2.41618">
        <ele>84.800003051758</ele>
        <time>2021-03-25T09:27:11.000Z</time>
      </trkpt>
      <trkpt lat="47.32307" lon="-2.41629">
        <ele>84.800003051758</ele>
        <time>2021-03-25T09:27:13.000Z</time>
      </trkpt>
      <trkpt lat="47.32298" lon="-2.41659">
        <ele>84.800003051758</ele>
        <time>2021-03-25T09:27:18.000Z</time>
      </trkpt>
      <trkpt lat="47.32299" lon="-2.41673">
        <ele>84.800003051758</ele>
        <time>2021-03-25T09:27:20.000Z</time>
      </trkpt>
      <trkpt lat="47.32299" lon="-2.41701">
        <ele>84.800003051758</ele>
        <time>2021-03-25T09:27:24.000Z</time>
      </trkpt>
      <trkpt lat="47.32298" lon="-2.41709">
        <ele>84.800003051758</ele>
        <time>2021-03-25T09:27:25.000Z</time>
      </trkpt>
      <trkpt lat="47.32292" lon="-2.41731">
        <ele>84.800003051758</ele>
        <time>2021-03-25T09:27:28.000Z</time>
      </trkpt>
      <trkpt lat="47.32282" lon="-2.41756">
        <ele>84.800003051758</ele>
        <time>2021-03-25T09:27:32.000Z</time>
      </trkpt>
      <trkpt lat="47.32285" lon="-2.41775">
        <ele>84.800003051758</ele>
        <time>2021-03-25T09:27:35.000Z</time>
      </trkpt>
      <trkpt lat="47.32291" lon="-2.41786">
        <ele>84.400001525879</ele>
        <time>2021-03-25T09:27:37.000Z</time>
      </trkpt>
      <trkpt lat="47.32294" lon="-2.41791">
        <ele>84</ele>
        <time>2021-03-25T09:27:38.000Z</time>
      </trkpt>
      <trkpt lat="47.32297" lon="-2.41795">
        <ele>83.599998474121</ele>
        <time>2021-03-25T09:27:39.000Z</time>
      </trkpt>
      <trkpt lat="47.32298" lon="-2.41799">
        <ele>83</ele>
        <time>2021-03-25T09:27:40.000Z</time>
      </trkpt>
      <trkpt lat="47.32299" lon="-2.41804">
        <ele>82.599998474121</ele>
        <time>2021-03-25T09:27:41.000Z</time>
      </trkpt>
      <trkpt lat="47.323" lon="-2.41809">
        <ele>82.599998474121</ele>
        <time>2021-03-25T09:27:42.000Z</time>
      </trkpt>
      <trkpt lat="47.32298" lon="-2.41821">
        <ele>82.599998474121</ele>
        <time>2021-03-25T09:27:45.000Z</time>
      </trkpt>
      <trkpt lat="47.32295" lon="-2.41824">
        <ele>82.599998474121</ele>
        <time>2021-03-25T09:27:46.000Z</time>
      </trkpt>
      <trkpt lat="47.32285" lon="-2.41838">
        <ele>82.199996948242</ele>
        <time>2021-03-25T09:27:50.000Z</time>
      </trkpt>
      <trkpt lat="47.32283" lon="-2.41841">
        <ele>81.800003051758</ele>
        <time>2021-03-25T09:27:51.000Z</time>
      </trkpt>
      <trkpt lat="47.3228" lon="-2.41844">
        <ele>81.400001525879</ele>
        <time>2021-03-25T09:27:52.000Z</time>
      </trkpt>
      <trkpt lat="47.32278" lon="-2.41847">
        <ele>81</ele>
        <time>2021-03-25T09:27:53.000Z</time>
      </trkpt>
      <trkpt lat="47.32275" lon="-2.4185">
        <ele>80.599998474121</ele>
        <time>2021-03-25T09:27:54.000Z</time>
      </trkpt>
      <trkpt lat="47.32264" lon="-2.41863">
        <ele>80.599998474121</ele>
        <time>2021-03-25T09:27:59.000Z</time>
      </trkpt>
      <trkpt lat="47.32257" lon="-2.41871">
        <ele>80.599998474121</ele>
        <time>2021-03-25T09:28:04.000Z</time>
      </trkpt>
      <trkpt lat="47.32256" lon="-2.41873">
        <ele>80.599998474121</ele>
        <time>2021-03-25T09:28:06.000Z</time>
      </trkpt>
      <trkpt lat="47.32255" lon="-2.41876">
        <ele>80.599998474121</ele>
        <time>2021-03-25T09:28:32.000Z</time>
      </trkpt>
      <trkpt lat="47.32256" lon="-2.41879">
        <ele>80.599998474121</ele>
        <time>2021-03-25T09:28:33.000Z</time>
      </trkpt>
      <trkpt lat="47.32261" lon="-2.41888">
        <ele>80.599998474121</ele>
        <time>2021-03-25T09:28:36.000Z</time>
      </trkpt>
      <trkpt lat="47.32265" lon="-2.41896">
        <ele>80.599998474121</ele>
        <time>2021-03-25T09:28:38.000Z</time>
      </trkpt>
      <trkpt lat="47.32279" lon="-2.41917">
        <ele>80.599998474121</ele>
        <time>2021-03-25T09:28:43.000Z</time>
      </trkpt>
      <trkpt lat="47.32285" lon="-2.41926">
        <ele>80.599998474121</ele>
        <time>2021-03-25T09:28:45.000Z</time>
      </trkpt>
      <trkpt lat="47.32301" lon="-2.41957">
        <ele>80.599998474121</ele>
        <time>2021-03-25T09:28:51.000Z</time>
      </trkpt>
      <trkpt lat="47.32317" lon="-2.41974">
        <ele>80.599998474121</ele>
        <time>2021-03-25T09:28:55.000Z</time>
      </trkpt>
      <trkpt lat="47.3232" lon="-2.41977">
        <ele>80.599998474121</ele>
        <time>2021-03-25T09:28:56.000Z</time>
      </trkpt>
      <trkpt lat="47.32332" lon="-2.41998">
        <ele>80.599998474121</ele>
        <time>2021-03-25T09:29:00.000Z</time>
      </trkpt>
      <trkpt lat="47.32335" lon="-2.42003">
        <ele>81</ele>
        <time>2021-03-25T09:29:01.000Z</time>
      </trkpt>
      <trkpt lat="47.32338" lon="-2.42007">
        <ele>81.400001525879</ele>
        <time>2021-03-25T09:29:02.000Z</time>
      </trkpt>
      <trkpt lat="47.32342" lon="-2.42011">
        <ele>82</ele>
        <time>2021-03-25T09:29:03.000Z</time>
      </trkpt>
      <trkpt lat="47.32346" lon="-2.42015">
        <ele>82.400001525879</ele>
        <time>2021-03-25T09:29:04.000Z</time>
      </trkpt>
      <trkpt lat="47.32351" lon="-2.42019">
        <ele>82.800003051758</ele>
        <time>2021-03-25T09:29:05.000Z</time>
      </trkpt>
      <trkpt lat="47.32377" lon="-2.42047">
        <ele>82.800003051758</ele>
        <time>2021-03-25T09:29:11.000Z</time>
      </trkpt>
      <trkpt lat="47.32382" lon="-2.4205">
        <ele>82.800003051758</ele>
        <time>2021-03-25T09:29:12.000Z</time>
      </trkpt>
      <trkpt lat="47.32391" lon="-2.4206">
        <ele>83.199996948242</ele>
        <time>2021-03-25T09:29:14.000Z</time>
      </trkpt>
      <trkpt lat="47.32395" lon="-2.42065">
        <ele>83.599998474121</ele>
        <time>2021-03-25T09:29:15.000Z</time>
      </trkpt>
      <trkpt lat="47.32399" lon="-2.42069">
        <ele>84</ele>
        <time>2021-03-25T09:29:16.000Z</time>
      </trkpt>
      <trkpt lat="47.32403" lon="-2.42074">
        <ele>84.400001525879</ele>
        <time>2021-03-25T09:29:17.000Z</time>
      </trkpt>
      <trkpt lat="47.32407" lon="-2.42078">
        <ele>84.800003051758</ele>
        <time>2021-03-25T09:29:18.000Z</time>
      </trkpt>
      <trkpt lat="47.32414" lon="-2.42085">
        <ele>84.800003051758</ele>
        <time>2021-03-25T09:29:20.000Z</time>
      </trkpt>
      <trkpt lat="47.32423" lon="-2.42097">
        <ele>84.800003051758</ele>
        <time>2021-03-25T09:29:23.000Z</time>
      </trkpt>
      <trkpt lat="47.32431" lon="-2.42108">
        <ele>84.800003051758</ele>
        <time>2021-03-25T09:29:26.000Z</time>
      </trkpt>
      <trkpt lat="47.3244" lon="-2.4212">
        <ele>84.800003051758</ele>
        <time>2021-03-25T09:29:30.000Z</time>
      </trkpt>
      <trkpt lat="47.3244" lon="-2.42123">
        <ele>85.199996948242</ele>
        <time>2021-03-25T09:29:31.000Z</time>
      </trkpt>
      <trkpt lat="47.32439" lon="-2.42128">
        <ele>85.599998474121</ele>
        <time>2021-03-25T09:29:32.000Z</time>
      </trkpt>
      <trkpt lat="47.32438" lon="-2.42133">
        <ele>86</ele>
        <time>2021-03-25T09:29:33.000Z</time>
      </trkpt>
      <trkpt lat="47.32436" lon="-2.42139">
        <ele>86.400001525879</ele>
        <time>2021-03-25T09:29:34.000Z</time>
      </trkpt>
      <trkpt lat="47.32433" lon="-2.42144">
        <ele>86.800003051758</ele>
        <time>2021-03-25T09:29:35.000Z</time>
      </trkpt>
      <trkpt lat="47.32419" lon="-2.42165">
        <ele>86.800003051758</ele>
        <time>2021-03-25T09:29:39.000Z</time>
      </trkpt>
      <trkpt lat="47.32415" lon="-2.42171">
        <ele>86.800003051758</ele>
        <time>2021-03-25T09:29:40.000Z</time>
      </trkpt>
      <trkpt lat="47.32392" lon="-2.42197">
        <ele>86.800003051758</ele>
        <time>2021-03-25T09:29:45.000Z</time>
      </trkpt>
      <trkpt lat="47.32377" lon="-2.42213">
        <ele>86.800003051758</ele>
        <time>2021-03-25T09:29:48.000Z</time>
      </trkpt>
      <trkpt lat="47.32364" lon="-2.42229">
        <ele>86.800003051758</ele>
        <time>2021-03-25T09:29:51.000Z</time>
      </trkpt>
      <trkpt lat="47.32342" lon="-2.4226">
        <ele>86.800003051758</ele>
        <time>2021-03-25T09:29:56.000Z</time>
      </trkpt>
      <trkpt lat="47.3233" lon="-2.42279">
        <ele>86.800003051758</ele>
        <time>2021-03-25T09:29:59.000Z</time>
      </trkpt>
      <trkpt lat="47.3232" lon="-2.42299">
        <ele>86.800003051758</ele>
        <time>2021-03-25T09:30:02.000Z</time>
      </trkpt>
      <trkpt lat="47.3232" lon="-2.42316">
        <ele>86.800003051758</ele>
        <time>2021-03-25T09:30:04.000Z</time>
      </trkpt>
      <trkpt lat="47.32321" lon="-2.42334">
        <ele>86.400001525879</ele>
        <time>2021-03-25T09:30:06.000Z</time>
      </trkpt>
      <trkpt lat="47.32322" lon="-2.42344">
        <ele>86</ele>
        <time>2021-03-25T09:30:07.000Z</time>
      </trkpt>
      <trkpt lat="47.32323" lon="-2.42353">
        <ele>85.599998474121</ele>
        <time>2021-03-25T09:30:08.000Z</time>
      </trkpt>
      <trkpt lat="47.32324" lon="-2.42363">
        <ele>85.199996948242</ele>
        <time>2021-03-25T09:30:09.000Z</time>
      </trkpt>
      <trkpt lat="47.32325" lon="-2.42373">
        <ele>84.800003051758</ele>
        <time>2021-03-25T09:30:10.000Z</time>
      </trkpt>
      <trkpt lat="47.32332" lon="-2.4244">
        <ele>84.800003051758</ele>
        <time>2021-03-25T09:30:17.000Z</time>
      </trkpt>
      <trkpt lat="47.32334" lon="-2.42449">
        <ele>84.800003051758</ele>
        <time>2021-03-25T09:30:18.000Z</time>
      </trkpt>
      <trkpt lat="47.3234" lon="-2.42478">
        <ele>84.400001525879</ele>
        <time>2021-03-25T09:30:21.000Z</time>
      </trkpt>
      <trkpt lat="47.32342" lon="-2.42488">
        <ele>84</ele>
        <time>2021-03-25T09:30:22.000Z</time>
      </trkpt>
      <trkpt lat="47.32344" lon="-2.42499">
        <ele>83.599998474121</ele>
        <time>2021-03-25T09:30:23.000Z</time>
      </trkpt>
      <trkpt lat="47.32345" lon="-2.42509">
        <ele>83.199996948242</ele>
        <time>2021-03-25T09:30:24.000Z</time>
      </trkpt>
      <trkpt lat="47.32347" lon="-2.4252">
        <ele>82.800003051758</ele>
        <time>2021-03-25T09:30:25.000Z</time>
      </trkpt>
      <trkpt lat="47.32354" lon="-2.42562">
        <ele>82.800003051758</ele>
        <time>2021-03-25T09:30:29.000Z</time>
      </trkpt>
      <trkpt lat="47.3236" lon="-2.42582">
        <ele>82.400001525879</ele>
        <time>2021-03-25T09:30:31.000Z</time>
      </trkpt>
      <trkpt lat="47.32362" lon="-2.42592">
        <ele>81.800003051758</ele>
        <time>2021-03-25T09:30:32.000Z</time>
      </trkpt>
      <trkpt lat="47.32363" lon="-2.42602">
        <ele>81.400001525879</ele>
        <time>2021-03-25T09:30:33.000Z</time>
      </trkpt>
      <trkpt lat="47.32364" lon="-2.4261">
        <ele>81</ele>
        <time>2021-03-25T09:30:34.000Z</time>
      </trkpt>
      <trkpt lat="47.32365" lon="-2.42619">
        <ele>80.599998474121</ele>
        <time>2021-03-25T09:30:35.000Z</time>
      </trkpt>
      <trkpt lat="47.32366" lon="-2.42657">
        <ele>80.599998474121</ele>
        <time>2021-03-25T09:30:39.000Z</time>
      </trkpt>
      <trkpt lat="47.32369" lon="-2.42666">
        <ele>80</ele>
        <time>2021-03-25T09:30:40.000Z</time>
      </trkpt>
      <trkpt lat="47.32371" lon="-2.42675">
        <ele>79.599998474121</ele>
        <time>2021-03-25T09:30:41.000Z</time>
      </trkpt>
      <trkpt lat="47.32373" lon="-2.42685">
        <ele>79.199996948242</ele>
        <time>2021-03-25T09:30:42.000Z</time>
      </trkpt>
      <trkpt lat="47.32375" lon="-2.42694">
        <ele>78.800003051758</ele>
        <time>2021-03-25T09:30:43.000Z</time>
      </trkpt>
      <trkpt lat="47.32377" lon="-2.42704">
        <ele>78.400001525879</ele>
        <time>2021-03-25T09:30:44.000Z</time>
      </trkpt>
      <trkpt lat="47.32389" lon="-2.42742">
        <ele>78.400001525879</ele>
        <time>2021-03-25T09:30:48.000Z</time>
      </trkpt>
      <trkpt lat="47.32392" lon="-2.42752">
        <ele>78.400001525879</ele>
        <time>2021-03-25T09:30:49.000Z</time>
      </trkpt>
      <trkpt lat="47.32394" lon="-2.42762">
        <ele>78</ele>
        <time>2021-03-25T09:30:50.000Z</time>
      </trkpt>
      <trkpt lat="47.32395" lon="-2.42772">
        <ele>77.400001525879</ele>
        <time>2021-03-25T09:30:51.000Z</time>
      </trkpt>
      <trkpt lat="47.32396" lon="-2.42783">
        <ele>77</ele>
        <time>2021-03-25T09:30:52.000Z</time>
      </trkpt>
      <trkpt lat="47.32397" lon="-2.42793">
        <ele>76.599998474121</ele>
        <time>2021-03-25T09:30:53.000Z</time>
      </trkpt>
      <trkpt lat="47.32398" lon="-2.42803">
        <ele>76.199996948242</ele>
        <time>2021-03-25T09:30:54.000Z</time>
      </trkpt>
      <trkpt lat="47.324" lon="-2.42843">
        <ele>76.199996948242</ele>
        <time>2021-03-25T09:30:58.000Z</time>
      </trkpt>
      <trkpt lat="47.32401" lon="-2.42873">
        <ele>75.800003051758</ele>
        <time>2021-03-25T09:31:01.000Z</time>
      </trkpt>
      <trkpt lat="47.32402" lon="-2.42882">
        <ele>75.199996948242</ele>
        <time>2021-03-25T09:31:02.000Z</time>
      </trkpt>
      <trkpt lat="47.32402" lon="-2.4289">
        <ele>74.800003051758</ele>
        <time>2021-03-25T09:31:03.000Z</time>
      </trkpt>
      <trkpt lat="47.32399" lon="-2.42896">
        <ele>73.800003051758</ele>
        <time>2021-03-25T09:31:04.000Z</time>
      </trkpt>
      <trkpt lat="47.32395" lon="-2.42899">
        <ele>73.800003051758</ele>
        <time>2021-03-25T09:31:05.000Z</time>
      </trkpt>
      <trkpt lat="47.32379" lon="-2.42901">
        <ele>73.800003051758</ele>
        <time>2021-03-25T09:31:08.000Z</time>
      </trkpt>
      <trkpt lat="47.32374" lon="-2.42901">
        <ele>73.800003051758</ele>
        <time>2021-03-25T09:31:09.000Z</time>
      </trkpt>
      <trkpt lat="47.32364" lon="-2.42903">
        <ele>73.800003051758</ele>
        <time>2021-03-25T09:31:12.000Z</time>
      </trkpt>
      <trkpt lat="47.32363" lon="-2.42907">
        <ele>73.800003051758</ele>
        <time>2021-03-25T09:31:13.000Z</time>
      </trkpt>
      <trkpt lat="47.32363" lon="-2.42917">
        <ele>73.400001525879</ele>
        <time>2021-03-25T09:31:15.000Z</time>
      </trkpt>
      <trkpt lat="47.32363" lon="-2.42923">
        <ele>73</ele>
        <time>2021-03-25T09:31:16.000Z</time>
      </trkpt>
      <trkpt lat="47.32364" lon="-2.42928">
        <ele>72.599998474121</ele>
        <time>2021-03-25T09:31:17.000Z</time>
      </trkpt>
      <trkpt lat="47.32364" lon="-2.42934">
        <ele>72.199996948242</ele>
        <time>2021-03-25T09:31:18.000Z</time>
      </trkpt>
      <trkpt lat="47.32364" lon="-2.42941">
        <ele>71.800003051758</ele>
        <time>2021-03-25T09:31:19.000Z</time>
      </trkpt>
      <trkpt lat="47.32364" lon="-2.42948">
        <ele>71.800003051758</ele>
        <time>2021-03-25T09:31:20.000Z</time>
      </trkpt>
      <trkpt lat="47.32363" lon="-2.42973">
        <ele>71.800003051758</ele>
        <time>2021-03-25T09:31:23.000Z</time>
      </trkpt>
      <trkpt lat="47.32359" lon="-2.43002">
        <ele>71.800003051758</ele>
        <time>2021-03-25T09:31:26.000Z</time>
      </trkpt>
      <trkpt lat="47.32356" lon="-2.43011">
        <ele>71.800003051758</ele>
        <time>2021-03-25T09:31:27.000Z</time>
      </trkpt>
      <trkpt lat="47.3235" lon="-2.43028">
        <ele>70.800003051758</ele>
        <time>2021-03-25T09:31:29.000Z</time>
      </trkpt>
      <trkpt lat="47.32346" lon="-2.43037">
        <ele>70.400001525879</ele>
        <time>2021-03-25T09:31:30.000Z</time>
      </trkpt>
      <trkpt lat="47.32342" lon="-2.43045">
        <ele>70</ele>
        <time>2021-03-25T09:31:31.000Z</time>
      </trkpt>
      <trkpt lat="47.32339" lon="-2.43053">
        <ele>69.599998474121</ele>
        <time>2021-03-25T09:31:32.000Z</time>
      </trkpt>
      <trkpt lat="47.32333" lon="-2.43069">
        <ele>69.599998474121</ele>
        <time>2021-03-25T09:31:34.000Z</time>
      </trkpt>
      <trkpt lat="47.32326" lon="-2.43083">
        <ele>69.599998474121</ele>
        <time>2021-03-25T09:31:36.000Z</time>
      </trkpt>
      <trkpt lat="47.32317" lon="-2.43095">
        <ele>69.199996948242</ele>
        <time>2021-03-25T09:31:38.000Z</time>
      </trkpt>
      <trkpt lat="47.32313" lon="-2.431">
        <ele>68.800003051758</ele>
        <time>2021-03-25T09:31:39.000Z</time>
      </trkpt>
      <trkpt lat="47.32309" lon="-2.43105">
        <ele>68.199996948242</ele>
        <time>2021-03-25T09:31:40.000Z</time>
      </trkpt>
      <trkpt lat="47.32306" lon="-2.43111">
        <ele>67.800003051758</ele>
        <time>2021-03-25T09:31:41.000Z</time>
      </trkpt>
      <trkpt lat="47.32302" lon="-2.43115">
        <ele>67.400001525879</ele>
        <time>2021-03-25T09:31:42.000Z</time>
      </trkpt>
      <trkpt lat="47.32297" lon="-2.43119">
        <ele>67.400001525879</ele>
        <time>2021-03-25T09:31:43.000Z</time>
      </trkpt>
      <trkpt lat="47.32272" lon="-2.4313">
        <ele>67.400001525879</ele>
        <time>2021-03-25T09:31:48.000Z</time>
      </trkpt>
      <trkpt lat="47.32228" lon="-2.43145">
        <ele>67.400001525879</ele>
        <time>2021-03-25T09:31:56.000Z</time>
      </trkpt>
      <trkpt lat="47.3218" lon="-2.43165">
        <ele>67</ele>
        <time>2021-03-25T09:32:04.000Z</time>
      </trkpt>
      <trkpt lat="47.32173" lon="-2.43168">
        <ele>66.599998474121</ele>
        <time>2021-03-25T09:32:05.000Z</time>
      </trkpt>
      <trkpt lat="47.32167" lon="-2.4317">
        <ele>66.199996948242</ele>
        <time>2021-03-25T09:32:06.000Z</time>
      </trkpt>
      <trkpt lat="47.32161" lon="-2.43173">
        <ele>65.800003051758</ele>
        <time>2021-03-25T09:32:07.000Z</time>
      </trkpt>
      <trkpt lat="47.32155" lon="-2.43175">
        <ele>65.400001525879</ele>
        <time>2021-03-25T09:32:08.000Z</time>
      </trkpt>
      <trkpt lat="47.32149" lon="-2.43178">
        <ele>65.400001525879</ele>
        <time>2021-03-25T09:32:09.000Z</time>
      </trkpt>
      <trkpt lat="47.32137" lon="-2.43184">
        <ele>65.400001525879</ele>
        <time>2021-03-25T09:32:11.000Z</time>
      </trkpt>
      <trkpt lat="47.32096" lon="-2.43203">
        <ele>65.400001525879</ele>
        <time>2021-03-25T09:32:18.000Z</time>
      </trkpt>
      <trkpt lat="47.3209" lon="-2.43206">
        <ele>65</ele>
        <time>2021-03-25T09:32:19.000Z</time>
      </trkpt>
      <trkpt lat="47.32085" lon="-2.43208">
        <ele>64.400001525879</ele>
        <time>2021-03-25T09:32:20.000Z</time>
      </trkpt>
      <trkpt lat="47.32079" lon="-2.43211">
        <ele>64</ele>
        <time>2021-03-25T09:32:21.000Z</time>
      </trkpt>
      <trkpt lat="47.32073" lon="-2.43215">
        <ele>63.400001525879</ele>
        <time>2021-03-25T09:32:22.000Z</time>
      </trkpt>
      <trkpt lat="47.32067" lon="-2.43219">
        <ele>63</ele>
        <time>2021-03-25T09:32:23.000Z</time>
      </trkpt>
      <trkpt lat="47.32056" lon="-2.43225">
        <ele>63</ele>
        <time>2021-03-25T09:32:25.000Z</time>
      </trkpt>
      <trkpt lat="47.32015" lon="-2.43257">
        <ele>62.599998474121</ele>
        <time>2021-03-25T09:32:32.000Z</time>
      </trkpt>
      <trkpt lat="47.32008" lon="-2.43261">
        <ele>62.200000762939</ele>
        <time>2021-03-25T09:32:33.000Z</time>
      </trkpt>
      <trkpt lat="47.32002" lon="-2.43265">
        <ele>61.799999237061</ele>
        <time>2021-03-25T09:32:34.000Z</time>
      </trkpt>
      <trkpt lat="47.31996" lon="-2.43269">
        <ele>61.400001525879</ele>
        <time>2021-03-25T09:32:35.000Z</time>
      </trkpt>
      <trkpt lat="47.31991" lon="-2.43272">
        <ele>61</ele>
        <time>2021-03-25T09:32:36.000Z</time>
      </trkpt>
      <trkpt lat="47.31986" lon="-2.43276">
        <ele>61</ele>
        <time>2021-03-25T09:32:37.000Z</time>
      </trkpt>
      <trkpt lat="47.31979" lon="-2.43287">
        <ele>60.400001525879</ele>
        <time>2021-03-25T09:32:39.000Z</time>
      </trkpt>
      <trkpt lat="47.31977" lon="-2.43295">
        <ele>59.799999237061</ele>
        <time>2021-03-25T09:32:40.000Z</time>
      </trkpt>
      <trkpt lat="47.31976" lon="-2.43302">
        <ele>59.200000762939</ele>
        <time>2021-03-25T09:32:41.000Z</time>
      </trkpt>
      <trkpt lat="47.31975" lon="-2.43311">
        <ele>58.799999237061</ele>
        <time>2021-03-25T09:32:42.000Z</time>
      </trkpt>
      <trkpt lat="47.31975" lon="-2.43319">
        <ele>58.200000762939</ele>
        <time>2021-03-25T09:32:43.000Z</time>
      </trkpt>
      <trkpt lat="47.31974" lon="-2.43328">
        <ele>58.200000762939</ele>
        <time>2021-03-25T09:32:44.000Z</time>
      </trkpt>
      <trkpt lat="47.31973" lon="-2.43337">
        <ele>57.799999237061</ele>
        <time>2021-03-25T09:32:45.000Z</time>
      </trkpt>
      <trkpt lat="47.31972" lon="-2.43347">
        <ele>57.400001525879</ele>
        <time>2021-03-25T09:32:46.000Z</time>
      </trkpt>
      <trkpt lat="47.3197" lon="-2.43357">
        <ele>56.799999237061</ele>
        <time>2021-03-25T09:32:47.000Z</time>
      </trkpt>
      <trkpt lat="47.31968" lon="-2.43366">
        <ele>56.400001525879</ele>
        <time>2021-03-25T09:32:48.000Z</time>
      </trkpt>
      <trkpt lat="47.31965" lon="-2.43376">
        <ele>56</ele>
        <time>2021-03-25T09:32:49.000Z</time>
      </trkpt>
      <trkpt lat="47.31943" lon="-2.43444">
        <ele>56</ele>
        <time>2021-03-25T09:32:56.000Z</time>
      </trkpt>
      <trkpt lat="47.3194" lon="-2.43454">
        <ele>55.599998474121</ele>
        <time>2021-03-25T09:32:57.000Z</time>
      </trkpt>
      <trkpt lat="47.31936" lon="-2.43464">
        <ele>55</ele>
        <time>2021-03-25T09:32:58.000Z</time>
      </trkpt>
      <trkpt lat="47.31934" lon="-2.43475">
        <ele>54.599998474121</ele>
        <time>2021-03-25T09:32:59.000Z</time>
      </trkpt>
      <trkpt lat="47.31931" lon="-2.43487">
        <ele>54.200000762939</ele>
        <time>2021-03-25T09:33:00.000Z</time>
      </trkpt>
      <trkpt lat="47.31929" lon="-2.43498">
        <ele>53.599998474121</ele>
        <time>2021-03-25T09:33:01.000Z</time>
      </trkpt>
      <trkpt lat="47.31928" lon="-2.4351">
        <ele>53.599998474121</ele>
        <time>2021-03-25T09:33:02.000Z</time>
      </trkpt>
      <trkpt lat="47.31928" lon="-2.43532">
        <ele>53.200000762939</ele>
        <time>2021-03-25T09:33:04.000Z</time>
      </trkpt>
      <trkpt lat="47.31929" lon="-2.43543">
        <ele>52.799999237061</ele>
        <time>2021-03-25T09:33:05.000Z</time>
      </trkpt>
      <trkpt lat="47.3193" lon="-2.43554">
        <ele>52.200000762939</ele>
        <time>2021-03-25T09:33:06.000Z</time>
      </trkpt>
      <trkpt lat="47.3193" lon="-2.43566">
        <ele>51.799999237061</ele>
        <time>2021-03-25T09:33:07.000Z</time>
      </trkpt>
      <trkpt lat="47.31929" lon="-2.43577">
        <ele>51.400001525879</ele>
        <time>2021-03-25T09:33:08.000Z</time>
      </trkpt>
      <trkpt lat="47.31926" lon="-2.43588">
        <ele>51.400001525879</ele>
        <time>2021-03-25T09:33:09.000Z</time>
      </trkpt>
      <trkpt lat="47.31917" lon="-2.43605">
        <ele>50.799999237061</ele>
        <time>2021-03-25T09:33:11.000Z</time>
      </trkpt>
      <trkpt lat="47.3191" lon="-2.43611">
        <ele>50.400001525879</ele>
        <time>2021-03-25T09:33:12.000Z</time>
      </trkpt>
      <trkpt lat="47.31903" lon="-2.43617">
        <ele>50</ele>
        <time>2021-03-25T09:33:13.000Z</time>
      </trkpt>
      <trkpt lat="47.31897" lon="-2.43623">
        <ele>49.599998474121</ele>
        <time>2021-03-25T09:33:14.000Z</time>
      </trkpt>
      <trkpt lat="47.31893" lon="-2.4363">
        <ele>49.200000762939</ele>
        <time>2021-03-25T09:33:15.000Z</time>
      </trkpt>
      <trkpt lat="47.31891" lon="-2.43639">
        <ele>48.599998474121</ele>
        <time>2021-03-25T09:33:16.000Z</time>
      </trkpt>
      <trkpt lat="47.31891" lon="-2.43649">
        <ele>48</ele>
        <time>2021-03-25T09:33:17.000Z</time>
      </trkpt>
      <trkpt lat="47.31893" lon="-2.43659">
        <ele>47.400001525879</ele>
        <time>2021-03-25T09:33:18.000Z</time>
      </trkpt>
      <trkpt lat="47.31897" lon="-2.43666">
        <ele>46.799999237061</ele>
        <time>2021-03-25T09:33:19.000Z</time>
      </trkpt>
      <trkpt lat="47.31901" lon="-2.43675">
        <ele>46.200000762939</ele>
        <time>2021-03-25T09:33:20.000Z</time>
      </trkpt>
      <trkpt lat="47.31905" lon="-2.43683">
        <ele>45.599998474121</ele>
        <time>2021-03-25T09:33:21.000Z</time>
      </trkpt>
      <trkpt lat="47.31909" lon="-2.43691">
        <ele>45</ele>
        <time>2021-03-25T09:33:22.000Z</time>
      </trkpt>
      <trkpt lat="47.31932" lon="-2.43742">
        <ele>45</ele>
        <time>2021-03-25T09:33:28.000Z</time>
      </trkpt>
      <trkpt lat="47.31955" lon="-2.43801">
        <ele>45</ele>
        <time>2021-03-25T09:33:35.000Z</time>
      </trkpt>
      <trkpt lat="47.3197" lon="-2.43828">
        <ele>45</ele>
        <time>2021-03-25T09:33:39.000Z</time>
      </trkpt>
      <trkpt lat="47.31975" lon="-2.43833">
        <ele>45</ele>
        <time>2021-03-25T09:33:40.000Z</time>
      </trkpt>
      <trkpt lat="47.31992" lon="-2.43835">
        <ele>45</ele>
        <time>2021-03-25T09:33:43.000Z</time>
      </trkpt>
      <trkpt lat="47.32005" lon="-2.43823">
        <ele>45.400001525879</ele>
        <time>2021-03-25T09:33:46.000Z</time>
      </trkpt>
      <trkpt lat="47.32009" lon="-2.43818">
        <ele>45.799999237061</ele>
        <time>2021-03-25T09:33:47.000Z</time>
      </trkpt>
      <trkpt lat="47.32013" lon="-2.43813">
        <ele>46.200000762939</ele>
        <time>2021-03-25T09:33:48.000Z</time>
      </trkpt>
      <trkpt lat="47.32016" lon="-2.4381">
        <ele>46.599998474121</ele>
        <time>2021-03-25T09:33:49.000Z</time>
      </trkpt>
      <trkpt lat="47.3202" lon="-2.43807">
        <ele>47</ele>
        <time>2021-03-25T09:33:50.000Z</time>
      </trkpt>
      <trkpt lat="47.32028" lon="-2.43802">
        <ele>47.400001525879</ele>
        <time>2021-03-25T09:33:52.000Z</time>
      </trkpt>
      <trkpt lat="47.32032" lon="-2.43801">
        <ele>47.799999237061</ele>
        <time>2021-03-25T09:33:53.000Z</time>
      </trkpt>
      <trkpt lat="47.32036" lon="-2.43804">
        <ele>48.200000762939</ele>
        <time>2021-03-25T09:33:54.000Z</time>
      </trkpt>
      <trkpt lat="47.32039" lon="-2.43809">
        <ele>48.599998474121</ele>
        <time>2021-03-25T09:33:55.000Z</time>
      </trkpt>
      <trkpt lat="47.32041" lon="-2.43815">
        <ele>49.200000762939</ele>
        <time>2021-03-25T09:33:56.000Z</time>
      </trkpt>
      <trkpt lat="47.32044" lon="-2.4382">
        <ele>50.200000762939</ele>
        <time>2021-03-25T09:33:57.000Z</time>
      </trkpt>
      <trkpt lat="47.32046" lon="-2.43826">
        <ele>50.599998474121</ele>
        <time>2021-03-25T09:33:58.000Z</time>
      </trkpt>
      <trkpt lat="47.32049" lon="-2.43831">
        <ele>51.200000762939</ele>
        <time>2021-03-25T09:33:59.000Z</time>
      </trkpt>
      <trkpt lat="47.32054" lon="-2.43843">
        <ele>51.599998474121</ele>
        <time>2021-03-25T09:34:01.000Z</time>
      </trkpt>
      <trkpt lat="47.32057" lon="-2.43849">
        <ele>52</ele>
        <time>2021-03-25T09:34:02.000Z</time>
      </trkpt>
      <trkpt lat="47.3206" lon="-2.43854">
        <ele>52.400001525879</ele>
        <time>2021-03-25T09:34:03.000Z</time>
      </trkpt>
      <trkpt lat="47.32063" lon="-2.4386">
        <ele>52.799999237061</ele>
        <time>2021-03-25T09:34:04.000Z</time>
      </trkpt>
      <trkpt lat="47.32067" lon="-2.43866">
        <ele>53.200000762939</ele>
        <time>2021-03-25T09:34:05.000Z</time>
      </trkpt>
      <trkpt lat="47.3208" lon="-2.43887">
        <ele>53.200000762939</ele>
        <time>2021-03-25T09:34:09.000Z</time>
      </trkpt>
      <trkpt lat="47.32084" lon="-2.43891">
        <ele>53.200000762939</ele>
        <time>2021-03-25T09:34:10.000Z</time>
      </trkpt>
      <trkpt lat="47.32105" lon="-2.43904">
        <ele>53.200000762939</ele>
        <time>2021-03-25T09:34:15.000Z</time>
      </trkpt>
      <trkpt lat="47.32114" lon="-2.43908">
        <ele>53.200000762939</ele>
        <time>2021-03-25T09:34:17.000Z</time>
      </trkpt>
      <trkpt lat="47.32123" lon="-2.43913">
        <ele>53.799999237061</ele>
        <time>2021-03-25T09:34:19.000Z</time>
      </trkpt>
      <trkpt lat="47.32127" lon="-2.43915">
        <ele>54.200000762939</ele>
        <time>2021-03-25T09:34:20.000Z</time>
      </trkpt>
      <trkpt lat="47.3213" lon="-2.43918">
        <ele>54.599998474121</ele>
        <time>2021-03-25T09:34:21.000Z</time>
      </trkpt>
      <trkpt lat="47.32134" lon="-2.4392">
        <ele>55.400001525879</ele>
        <time>2021-03-25T09:34:22.000Z</time>
      </trkpt>
      <trkpt lat="47.32143" lon="-2.43931">
        <ele>55.799999237061</ele>
        <time>2021-03-25T09:34:25.000Z</time>
      </trkpt>
      <trkpt lat="47.32145" lon="-2.43936">
        <ele>56.200000762939</ele>
        <time>2021-03-25T09:34:26.000Z</time>
      </trkpt>
      <trkpt lat="47.32147" lon="-2.4394">
        <ele>56.599998474121</ele>
        <time>2021-03-25T09:34:27.000Z</time>
      </trkpt>
      <trkpt lat="47.32149" lon="-2.43945">
        <ele>57</ele>
        <time>2021-03-25T09:34:28.000Z</time>
      </trkpt>
      <trkpt lat="47.32152" lon="-2.43949">
        <ele>57.400001525879</ele>
        <time>2021-03-25T09:34:29.000Z</time>
      </trkpt>
      <trkpt lat="47.3216" lon="-2.43962">
        <ele>57.400001525879</ele>
        <time>2021-03-25T09:34:32.000Z</time>
      </trkpt>
      <trkpt lat="47.32166" lon="-2.43969">
        <ele>57.799999237061</ele>
        <time>2021-03-25T09:34:34.000Z</time>
      </trkpt>
      <trkpt lat="47.32169" lon="-2.43973">
        <ele>58.200000762939</ele>
        <time>2021-03-25T09:34:35.000Z</time>
      </trkpt>
      <trkpt lat="47.32171" lon="-2.43978">
        <ele>58.599998474121</ele>
        <time>2021-03-25T09:34:36.000Z</time>
      </trkpt>
      <trkpt lat="47.32174" lon="-2.43982">
        <ele>59</ele>
        <time>2021-03-25T09:34:37.000Z</time>
      </trkpt>
      <trkpt lat="47.32177" lon="-2.43985">
        <ele>59.400001525879</ele>
        <time>2021-03-25T09:34:38.000Z</time>
      </trkpt>
      <trkpt lat="47.3218" lon="-2.43989">
        <ele>59.400001525879</ele>
        <time>2021-03-25T09:34:39.000Z</time>
      </trkpt>
      <trkpt lat="47.32202" lon="-2.44019">
        <ele>60.200000762939</ele>
        <time>2021-03-25T09:34:47.000Z</time>
      </trkpt>
      <trkpt lat="47.32205" lon="-2.44023">
        <ele>60.599998474121</ele>
        <time>2021-03-25T09:34:48.000Z</time>
      </trkpt>
      <trkpt lat="47.32208" lon="-2.44026">
        <ele>61</ele>
        <time>2021-03-25T09:34:49.000Z</time>
      </trkpt>
      <trkpt lat="47.32211" lon="-2.4403">
        <ele>61.400001525879</ele>
        <time>2021-03-25T09:34:50.000Z</time>
      </trkpt>
      <trkpt lat="47.32221" lon="-2.44047">
        <ele>61.400001525879</ele>
        <time>2021-03-25T09:34:55.000Z</time>
      </trkpt>
      <trkpt lat="47.32221" lon="-2.44053">
        <ele>61.400001525879</ele>
        <time>2021-03-25T09:34:56.000Z</time>
      </trkpt>
      <trkpt lat="47.32217" lon="-2.44062">
        <ele>61.400001525879</ele>
        <time>2021-03-25T09:34:58.000Z</time>
      </trkpt>
      <trkpt lat="47.32205" lon="-2.44071">
        <ele>61.400001525879</ele>
        <time>2021-03-25T09:35:01.000Z</time>
      </trkpt>
      <trkpt lat="47.32195" lon="-2.4408">
        <ele>61.400001525879</ele>
        <time>2021-03-25T09:35:03.000Z</time>
      </trkpt>
      <trkpt lat="47.3218" lon="-2.44094">
        <ele>61.400001525879</ele>
        <time>2021-03-25T09:35:06.000Z</time>
      </trkpt>
      <trkpt lat="47.32153" lon="-2.44124">
        <ele>61</ele>
        <time>2021-03-25T09:35:11.000Z</time>
      </trkpt>
      <trkpt lat="47.32148" lon="-2.44131">
        <ele>60.599998474121</ele>
        <time>2021-03-25T09:35:12.000Z</time>
      </trkpt>
      <trkpt lat="47.32143" lon="-2.44137">
        <ele>60.200000762939</ele>
        <time>2021-03-25T09:35:13.000Z</time>
      </trkpt>
      <trkpt lat="47.32137" lon="-2.44145">
        <ele>59.799999237061</ele>
        <time>2021-03-25T09:35:14.000Z</time>
      </trkpt>
      <trkpt lat="47.32131" lon="-2.44152">
        <ele>59.400001525879</ele>
        <time>2021-03-25T09:35:15.000Z</time>
      </trkpt>
      <trkpt lat="47.32118" lon="-2.44168">
        <ele>59</ele>
        <time>2021-03-25T09:35:17.000Z</time>
      </trkpt>
      <trkpt lat="47.32112" lon="-2.44176">
        <ele>58.400001525879</ele>
        <time>2021-03-25T09:35:18.000Z</time>
      </trkpt>
      <trkpt lat="47.32105" lon="-2.44184">
        <ele>58</ele>
        <time>2021-03-25T09:35:19.000Z</time>
      </trkpt>
      <trkpt lat="47.32099" lon="-2.44192">
        <ele>57.599998474121</ele>
        <time>2021-03-25T09:35:20.000Z</time>
      </trkpt>
      <trkpt lat="47.32093" lon="-2.44201">
        <ele>57</ele>
        <time>2021-03-25T09:35:21.000Z</time>
      </trkpt>
      <trkpt lat="47.32086" lon="-2.44209">
        <ele>56.400001525879</ele>
        <time>2021-03-25T09:35:22.000Z</time>
      </trkpt>
      <trkpt lat="47.3208" lon="-2.44218">
        <ele>55.400001525879</ele>
        <time>2021-03-25T09:35:23.000Z</time>
      </trkpt>
      <trkpt lat="47.32073" lon="-2.44226">
        <ele>54.599998474121</ele>
        <time>2021-03-25T09:35:24.000Z</time>
      </trkpt>
      <trkpt lat="47.32066" lon="-2.44235">
        <ele>53.799999237061</ele>
        <time>2021-03-25T09:35:25.000Z</time>
      </trkpt>
      <trkpt lat="47.32059" lon="-2.44244">
        <ele>53</ele>
        <time>2021-03-25T09:35:26.000Z</time>
      </trkpt>
      <trkpt lat="47.32052" lon="-2.44254">
        <ele>52.200000762939</ele>
        <time>2021-03-25T09:35:27.000Z</time>
      </trkpt>
      <trkpt lat="47.32039" lon="-2.44274">
        <ele>51.599998474121</ele>
        <time>2021-03-25T09:35:29.000Z</time>
      </trkpt>
      <trkpt lat="47.32033" lon="-2.44284">
        <ele>51.200000762939</ele>
        <time>2021-03-25T09:35:30.000Z</time>
      </trkpt>
      <trkpt lat="47.32026" lon="-2.44295">
        <ele>50.599998474121</ele>
        <time>2021-03-25T09:35:31.000Z</time>
      </trkpt>
      <trkpt lat="47.3202" lon="-2.44305">
        <ele>50.200000762939</ele>
        <time>2021-03-25T09:35:32.000Z</time>
      </trkpt>
      <trkpt lat="47.32014" lon="-2.44316">
        <ele>49.799999237061</ele>
        <time>2021-03-25T09:35:33.000Z</time>
      </trkpt>
      <trkpt lat="47.32007" lon="-2.44327">
        <ele>49.200000762939</ele>
        <time>2021-03-25T09:35:34.000Z</time>
      </trkpt>
      <trkpt lat="47.32001" lon="-2.44337">
        <ele>48.799999237061</ele>
        <time>2021-03-25T09:35:35.000Z</time>
      </trkpt>
      <trkpt lat="47.31994" lon="-2.44346">
        <ele>47.799999237061</ele>
        <time>2021-03-25T09:35:36.000Z</time>
      </trkpt>
      <trkpt lat="47.31988" lon="-2.44356">
        <ele>47</ele>
        <time>2021-03-25T09:35:37.000Z</time>
      </trkpt>
      <trkpt lat="47.31982" lon="-2.44365">
        <ele>46.400001525879</ele>
        <time>2021-03-25T09:35:38.000Z</time>
      </trkpt>
      <trkpt lat="47.31976" lon="-2.44375">
        <ele>45.799999237061</ele>
        <time>2021-03-25T09:35:39.000Z</time>
      </trkpt>
      <trkpt lat="47.31971" lon="-2.44385">
        <ele>45.200000762939</ele>
        <time>2021-03-25T09:35:40.000Z</time>
      </trkpt>
      <trkpt lat="47.31966" lon="-2.44395">
        <ele>44.400001525879</ele>
        <time>2021-03-25T09:35:41.000Z</time>
      </trkpt>
      <trkpt lat="47.31962" lon="-2.44405">
        <ele>43.799999237061</ele>
        <time>2021-03-25T09:35:42.000Z</time>
      </trkpt>
      <trkpt lat="47.31959" lon="-2.44416">
        <ele>43.200000762939</ele>
        <time>2021-03-25T09:35:43.000Z</time>
      </trkpt>
      <trkpt lat="47.31956" lon="-2.44426">
        <ele>42.599998474121</ele>
        <time>2021-03-25T09:35:44.000Z</time>
      </trkpt>
      <trkpt lat="47.31952" lon="-2.44436">
        <ele>42.200000762939</ele>
        <time>2021-03-25T09:35:45.000Z</time>
      </trkpt>
      <trkpt lat="47.31948" lon="-2.44446">
        <ele>41.599998474121</ele>
        <time>2021-03-25T09:35:46.000Z</time>
      </trkpt>
      <trkpt lat="47.31944" lon="-2.44455">
        <ele>41</ele>
        <time>2021-03-25T09:35:47.000Z</time>
      </trkpt>
      <trkpt lat="47.3194" lon="-2.44465">
        <ele>40.599998474121</ele>
        <time>2021-03-25T09:35:48.000Z</time>
      </trkpt>
      <trkpt lat="47.31936" lon="-2.44474">
        <ele>40.599998474121</ele>
        <time>2021-03-25T09:35:49.000Z</time>
      </trkpt>
      <trkpt lat="47.31912" lon="-2.44534">
        <ele>40.599998474121</ele>
        <time>2021-03-25T09:35:56.000Z</time>
      </trkpt>
      <trkpt lat="47.31906" lon="-2.4455">
        <ele>40.599998474121</ele>
        <time>2021-03-25T09:35:58.000Z</time>
      </trkpt>
      <trkpt lat="47.31907" lon="-2.44567">
        <ele>40.599998474121</ele>
        <time>2021-03-25T09:36:00.000Z</time>
      </trkpt>
      <trkpt lat="47.3192" lon="-2.44586">
        <ele>40.599998474121</ele>
        <time>2021-03-25T09:36:03.000Z</time>
      </trkpt>
      <trkpt lat="47.31952" lon="-2.44621">
        <ele>40.599998474121</ele>
        <time>2021-03-25T09:36:10.000Z</time>
      </trkpt>
      <trkpt lat="47.31988" lon="-2.44662">
        <ele>40.599998474121</ele>
        <time>2021-03-25T09:36:18.000Z</time>
      </trkpt>
      <trkpt lat="47.32001" lon="-2.44678">
        <ele>40.599998474121</ele>
        <time>2021-03-25T09:36:21.000Z</time>
      </trkpt>
      <trkpt lat="47.32012" lon="-2.44696">
        <ele>40.599998474121</ele>
        <time>2021-03-25T09:36:24.000Z</time>
      </trkpt>
      <trkpt lat="47.32044" lon="-2.44741">
        <ele>40.599998474121</ele>
        <time>2021-03-25T09:36:32.000Z</time>
      </trkpt>
      <trkpt lat="47.32047" lon="-2.44747">
        <ele>40.599998474121</ele>
        <time>2021-03-25T09:36:33.000Z</time>
      </trkpt>
      <trkpt lat="47.32062" lon="-2.44772">
        <ele>40.599998474121</ele>
        <time>2021-03-25T09:36:37.000Z</time>
      </trkpt>
      <trkpt lat="47.32073" lon="-2.44794">
        <ele>40.599998474121</ele>
        <time>2021-03-25T09:36:41.000Z</time>
      </trkpt>
      <trkpt lat="47.32078" lon="-2.44805">
        <ele>40.599998474121</ele>
        <time>2021-03-25T09:36:43.000Z</time>
      </trkpt>
      <trkpt lat="47.32098" lon="-2.44851">
        <ele>40.599998474121</ele>
        <time>2021-03-25T09:36:50.000Z</time>
      </trkpt>
      <trkpt lat="47.32119" lon="-2.44899">
        <ele>41</ele>
        <time>2021-03-25T09:36:57.000Z</time>
      </trkpt>
      <trkpt lat="47.32122" lon="-2.44906">
        <ele>41.400001525879</ele>
        <time>2021-03-25T09:36:58.000Z</time>
      </trkpt>
      <trkpt lat="47.32125" lon="-2.44913">
        <ele>41.799999237061</ele>
        <time>2021-03-25T09:36:59.000Z</time>
      </trkpt>
      <trkpt lat="47.32128" lon="-2.44919">
        <ele>42.200000762939</ele>
        <time>2021-03-25T09:37:00.000Z</time>
      </trkpt>
      <trkpt lat="47.32132" lon="-2.44925">
        <ele>42.599998474121</ele>
        <time>2021-03-25T09:37:01.000Z</time>
      </trkpt>
      <trkpt lat="47.32139" lon="-2.44935">
        <ele>42.599998474121</ele>
        <time>2021-03-25T09:37:03.000Z</time>
      </trkpt>
      <trkpt lat="47.32143" lon="-2.4494">
        <ele>42.599998474121</ele>
        <time>2021-03-25T09:37:04.000Z</time>
      </trkpt>
      <trkpt lat="47.32156" lon="-2.44951">
        <ele>42.599998474121</ele>
        <time>2021-03-25T09:37:07.000Z</time>
      </trkpt>
      <trkpt lat="47.32165" lon="-2.44957">
        <ele>42.599998474121</ele>
        <time>2021-03-25T09:37:09.000Z</time>
      </trkpt>
      <trkpt lat="47.32182" lon="-2.44971">
        <ele>43</ele>
        <time>2021-03-25T09:37:13.000Z</time>
      </trkpt>
      <trkpt lat="47.32186" lon="-2.44974">
        <ele>43.400001525879</ele>
        <time>2021-03-25T09:37:14.000Z</time>
      </trkpt>
      <trkpt lat="47.32189" lon="-2.44979">
        <ele>43.799999237061</ele>
        <time>2021-03-25T09:37:15.000Z</time>
      </trkpt>
      <trkpt lat="47.32192" lon="-2.44983">
        <ele>44.599998474121</ele>
        <time>2021-03-25T09:37:16.000Z</time>
      </trkpt>
      <trkpt lat="47.32208" lon="-2.45017">
        <ele>44.599998474121</ele>
        <time>2021-03-25T09:37:22.000Z</time>
      </trkpt>
      <trkpt lat="47.32214" lon="-2.45028">
        <ele>45</ele>
        <time>2021-03-25T09:37:24.000Z</time>
      </trkpt>
      <trkpt lat="47.32217" lon="-2.45034">
        <ele>45.400001525879</ele>
        <time>2021-03-25T09:37:25.000Z</time>
      </trkpt>
      <trkpt lat="47.3222" lon="-2.45041">
        <ele>45.799999237061</ele>
        <time>2021-03-25T09:37:26.000Z</time>
      </trkpt>
      <trkpt lat="47.32223" lon="-2.45047">
        <ele>46.200000762939</ele>
        <time>2021-03-25T09:37:27.000Z</time>
      </trkpt>
      <trkpt lat="47.32225" lon="-2.45054">
        <ele>46.799999237061</ele>
        <time>2021-03-25T09:37:28.000Z</time>
      </trkpt>
      <trkpt lat="47.3225" lon="-2.45111">
        <ele>46.799999237061</ele>
        <time>2021-03-25T09:37:37.000Z</time>
      </trkpt>
      <trkpt lat="47.32265" lon="-2.4516">
        <ele>46.799999237061</ele>
        <time>2021-03-25T09:37:43.000Z</time>
      </trkpt>
      <trkpt lat="47.32273" lon="-2.45191">
        <ele>46.400001525879</ele>
        <time>2021-03-25T09:37:46.000Z</time>
      </trkpt>
      <trkpt lat="47.32277" lon="-2.45202">
        <ele>46</ele>
        <time>2021-03-25T09:37:47.000Z</time>
      </trkpt>
      <trkpt lat="47.32281" lon="-2.45212">
        <ele>45.400001525879</ele>
        <time>2021-03-25T09:37:48.000Z</time>
      </trkpt>
      <trkpt lat="47.32285" lon="-2.45222">
        <ele>44.799999237061</ele>
        <time>2021-03-25T09:37:49.000Z</time>
      </trkpt>
      <trkpt lat="47.3229" lon="-2.4523">
        <ele>44</ele>
        <time>2021-03-25T09:37:50.000Z</time>
      </trkpt>
      <trkpt lat="47.32293" lon="-2.45239">
        <ele>43.400001525879</ele>
        <time>2021-03-25T09:37:51.000Z</time>
      </trkpt>
      <trkpt lat="47.32296" lon="-2.45247">
        <ele>42.599998474121</ele>
        <time>2021-03-25T09:37:52.000Z</time>
      </trkpt>
      <trkpt lat="47.32299" lon="-2.45256">
        <ele>42</ele>
        <time>2021-03-25T09:37:53.000Z</time>
      </trkpt>
      <trkpt lat="47.32309" lon="-2.4529">
        <ele>42</ele>
        <time>2021-03-25T09:37:58.000Z</time>
      </trkpt>
      <trkpt lat="47.32311" lon="-2.45296">
        <ele>42.400001525879</ele>
        <time>2021-03-25T09:37:59.000Z</time>
      </trkpt>
      <trkpt lat="47.32312" lon="-2.45303">
        <ele>42.799999237061</ele>
        <time>2021-03-25T09:38:00.000Z</time>
      </trkpt>
      <trkpt lat="47.32314" lon="-2.45308">
        <ele>43.200000762939</ele>
        <time>2021-03-25T09:38:01.000Z</time>
      </trkpt>
      <trkpt lat="47.32315" lon="-2.45314">
        <ele>43.599998474121</ele>
        <time>2021-03-25T09:38:02.000Z</time>
      </trkpt>
      <trkpt lat="47.32315" lon="-2.45321">
        <ele>44.200000762939</ele>
        <time>2021-03-25T09:38:03.000Z</time>
      </trkpt>
      <trkpt lat="47.32315" lon="-2.45335">
        <ele>44.200000762939</ele>
        <time>2021-03-25T09:38:05.000Z</time>
      </trkpt>
      <trkpt lat="47.32317" lon="-2.45359">
        <ele>44.200000762939</ele>
        <time>2021-03-25T09:38:08.000Z</time>
      </trkpt>
      <trkpt lat="47.32318" lon="-2.45376">
        <ele>44.200000762939</ele>
        <time>2021-03-25T09:38:10.000Z</time>
      </trkpt>
      <trkpt lat="47.3232" lon="-2.45391">
        <ele>43.599998474121</ele>
        <time>2021-03-25T09:38:13.000Z</time>
      </trkpt>
      <trkpt lat="47.3232" lon="-2.45395">
        <ele>43.200000762939</ele>
        <time>2021-03-25T09:38:14.000Z</time>
      </trkpt>
      <trkpt lat="47.32318" lon="-2.454">
        <ele>42.799999237061</ele>
        <time>2021-03-25T09:38:15.000Z</time>
      </trkpt>
      <trkpt lat="47.32315" lon="-2.45405">
        <ele>42.400001525879</ele>
        <time>2021-03-25T09:38:16.000Z</time>
      </trkpt>
      <trkpt lat="47.32314" lon="-2.45412">
        <ele>42</ele>
        <time>2021-03-25T09:38:17.000Z</time>
      </trkpt>
      <trkpt lat="47.32319" lon="-2.45426">
        <ele>41.599998474121</ele>
        <time>2021-03-25T09:38:19.000Z</time>
      </trkpt>
      <trkpt lat="47.32322" lon="-2.45432">
        <ele>41.200000762939</ele>
        <time>2021-03-25T09:38:20.000Z</time>
      </trkpt>
      <trkpt lat="47.32325" lon="-2.45439">
        <ele>40.599998474121</ele>
        <time>2021-03-25T09:38:21.000Z</time>
      </trkpt>
      <trkpt lat="47.32328" lon="-2.45445">
        <ele>40.200000762939</ele>
        <time>2021-03-25T09:38:22.000Z</time>
      </trkpt>
      <trkpt lat="47.32332" lon="-2.45451">
        <ele>39.799999237061</ele>
        <time>2021-03-25T09:38:23.000Z</time>
      </trkpt>
      <trkpt lat="47.32336" lon="-2.45456">
        <ele>39.799999237061</ele>
        <time>2021-03-25T09:38:24.000Z</time>
      </trkpt>
      <trkpt lat="47.3234" lon="-2.45461">
        <ele>39.799999237061</ele>
        <time>2021-03-25T09:38:25.000Z</time>
      </trkpt>
      <trkpt lat="47.32347" lon="-2.45472">
        <ele>39.799999237061</ele>
        <time>2021-03-25T09:38:27.000Z</time>
      </trkpt>
      <trkpt lat="47.32365" lon="-2.45498">
        <ele>39.799999237061</ele>
        <time>2021-03-25T09:38:32.000Z</time>
      </trkpt>
      <trkpt lat="47.32376" lon="-2.45518">
        <ele>39.799999237061</ele>
        <time>2021-03-25T09:38:37.000Z</time>
      </trkpt>
      <trkpt lat="47.32391" lon="-2.45546">
        <ele>39.799999237061</ele>
        <time>2021-03-25T09:38:44.000Z</time>
      </trkpt>
      <trkpt lat="47.32403" lon="-2.4556">
        <ele>39.799999237061</ele>
        <time>2021-03-25T09:38:50.000Z</time>
      </trkpt>
      <trkpt lat="47.32413" lon="-2.4557">
        <ele>39.799999237061</ele>
        <time>2021-03-25T09:38:57.000Z</time>
      </trkpt>
      <trkpt lat="47.32414" lon="-2.45586">
        <ele>39.799999237061</ele>
        <time>2021-03-25T09:39:02.000Z</time>
      </trkpt>
      <trkpt lat="47.32413" lon="-2.45594">
        <ele>39.799999237061</ele>
        <time>2021-03-25T09:39:06.000Z</time>
      </trkpt>
      <trkpt lat="47.32411" lon="-2.45595">
        <ele>39.799999237061</ele>
        <time>2021-03-25T09:39:08.000Z</time>
      </trkpt>
      <trkpt lat="47.32411" lon="-2.45595">
        <ele>39.799999237061</ele>
        <time>2021-03-25T09:39:09.000Z</time>
      </trkpt>
      <trkpt lat="47.32409" lon="-2.45596">
        <ele>39.799999237061</ele>
        <time>2021-03-25T09:39:19.000Z</time>
      </trkpt>
      <trkpt lat="47.324" lon="-2.45605">
        <ele>39.799999237061</ele>
        <time>2021-03-25T09:39:23.000Z</time>
      </trkpt>
      <trkpt lat="47.32377" lon="-2.45621">
        <ele>39.799999237061</ele>
        <time>2021-03-25T09:39:28.000Z</time>
      </trkpt>
      <trkpt lat="47.32357" lon="-2.45638">
        <ele>39.799999237061</ele>
        <time>2021-03-25T09:39:32.000Z</time>
      </trkpt>
      <trkpt lat="47.32347" lon="-2.45649">
        <ele>39.799999237061</ele>
        <time>2021-03-25T09:39:34.000Z</time>
      </trkpt>
      <trkpt lat="47.32308" lon="-2.45692">
        <ele>39.799999237061</ele>
        <time>2021-03-25T09:39:41.000Z</time>
      </trkpt>
      <trkpt lat="47.32304" lon="-2.45699">
        <ele>39.799999237061</ele>
        <time>2021-03-25T09:39:42.000Z</time>
      </trkpt>
      <trkpt lat="47.32299" lon="-2.45706">
        <ele>39.400001525879</ele>
        <time>2021-03-25T09:39:43.000Z</time>
      </trkpt>
      <trkpt lat="47.32295" lon="-2.45714">
        <ele>39</ele>
        <time>2021-03-25T09:39:44.000Z</time>
      </trkpt>
      <trkpt lat="47.32291" lon="-2.45721">
        <ele>38</ele>
        <time>2021-03-25T09:39:45.000Z</time>
      </trkpt>
      <trkpt lat="47.32288" lon="-2.4573">
        <ele>37.599998474121</ele>
        <time>2021-03-25T09:39:46.000Z</time>
      </trkpt>
      <trkpt lat="47.32258" lon="-2.45785">
        <ele>37.599998474121</ele>
        <time>2021-03-25T09:39:53.000Z</time>
      </trkpt>
      <trkpt lat="47.32245" lon="-2.45808">
        <ele>37.200000762939</ele>
        <time>2021-03-25T09:39:56.000Z</time>
      </trkpt>
      <trkpt lat="47.32241" lon="-2.45814">
        <ele>36.799999237061</ele>
        <time>2021-03-25T09:39:57.000Z</time>
      </trkpt>
      <trkpt lat="47.32237" lon="-2.45821">
        <ele>36.400001525879</ele>
        <time>2021-03-25T09:39:58.000Z</time>
      </trkpt>
      <trkpt lat="47.32233" lon="-2.45828">
        <ele>36</ele>
        <time>2021-03-25T09:39:59.000Z</time>
      </trkpt>
      <trkpt lat="47.32229" lon="-2.45834">
        <ele>35.599998474121</ele>
        <time>2021-03-25T09:40:00.000Z</time>
      </trkpt>
      <trkpt lat="47.32226" lon="-2.45841">
        <ele>35.599998474121</ele>
        <time>2021-03-25T09:40:01.000Z</time>
      </trkpt>
      <trkpt lat="47.32222" lon="-2.45847">
        <ele>35.599998474121</ele>
        <time>2021-03-25T09:40:02.000Z</time>
      </trkpt>
      <trkpt lat="47.32207" lon="-2.45864">
        <ele>35.599998474121</ele>
        <time>2021-03-25T09:40:06.000Z</time>
      </trkpt>
      <trkpt lat="47.32201" lon="-2.45877">
        <ele>35.599998474121</ele>
        <time>2021-03-25T09:40:10.000Z</time>
      </trkpt>
      <trkpt lat="47.32207" lon="-2.45893">
        <ele>35.599998474121</ele>
        <time>2021-03-25T09:40:13.000Z</time>
      </trkpt>
      <trkpt lat="47.32224" lon="-2.45936">
        <ele>35.599998474121</ele>
        <time>2021-03-25T09:40:19.000Z</time>
      </trkpt>
      <trkpt lat="47.32234" lon="-2.45955">
        <ele>35.599998474121</ele>
        <time>2021-03-25T09:40:22.000Z</time>
      </trkpt>
      <trkpt lat="47.32247" lon="-2.4597">
        <ele>35.599998474121</ele>
        <time>2021-03-25T09:40:25.000Z</time>
      </trkpt>
      <trkpt lat="47.32264" lon="-2.4599">
        <ele>35.599998474121</ele>
        <time>2021-03-25T09:40:29.000Z</time>
      </trkpt>
      <trkpt lat="47.32271" lon="-2.46003">
        <ele>35.599998474121</ele>
        <time>2021-03-25T09:40:31.000Z</time>
      </trkpt>
      <trkpt lat="47.32277" lon="-2.46019">
        <ele>35.599998474121</ele>
        <time>2021-03-25T09:40:33.000Z</time>
      </trkpt>
      <trkpt lat="47.32293" lon="-2.46055">
        <ele>35.599998474121</ele>
        <time>2021-03-25T09:40:38.000Z</time>
      </trkpt>
      <trkpt lat="47.32327" lon="-2.46118">
        <ele>35.599998474121</ele>
        <time>2021-03-25T09:40:47.000Z</time>
      </trkpt>
      <trkpt lat="47.32367" lon="-2.46178">
        <ele>35.599998474121</ele>
        <time>2021-03-25T09:40:56.000Z</time>
      </trkpt>
      <trkpt lat="47.32397" lon="-2.46232">
        <ele>35.599998474121</ele>
        <time>2021-03-25T09:41:03.000Z</time>
      </trkpt>
      <trkpt lat="47.32429" lon="-2.46295">
        <ele>35.599998474121</ele>
        <time>2021-03-25T09:41:11.000Z</time>
      </trkpt>
      <trkpt lat="47.32447" lon="-2.46347">
        <ele>35.599998474121</ele>
        <time>2021-03-25T09:41:17.000Z</time>
      </trkpt>
      <trkpt lat="47.32471" lon="-2.4639">
        <ele>35.599998474121</ele>
        <time>2021-03-25T09:41:23.000Z</time>
      </trkpt>
      <trkpt lat="47.32507" lon="-2.46443">
        <ele>35.599998474121</ele>
        <time>2021-03-25T09:41:31.000Z</time>
      </trkpt>
      <trkpt lat="47.32529" lon="-2.46492">
        <ele>35.599998474121</ele>
        <time>2021-03-25T09:41:37.000Z</time>
      </trkpt>
      <trkpt lat="47.32548" lon="-2.46531">
        <ele>35.599998474121</ele>
        <time>2021-03-25T09:41:42.000Z</time>
      </trkpt>
      <trkpt lat="47.3258" lon="-2.46571">
        <ele>35.599998474121</ele>
        <time>2021-03-25T09:41:48.000Z</time>
      </trkpt>
      <trkpt lat="47.32607" lon="-2.46615">
        <ele>35.599998474121</ele>
        <time>2021-03-25T09:41:54.000Z</time>
      </trkpt>
      <trkpt lat="47.32642" lon="-2.4666">
        <ele>35.599998474121</ele>
        <time>2021-03-25T09:42:01.000Z</time>
      </trkpt>
      <trkpt lat="47.32676" lon="-2.46685">
        <ele>35.599998474121</ele>
        <time>2021-03-25T09:42:07.000Z</time>
      </trkpt>
      <trkpt lat="47.32714" lon="-2.46721">
        <ele>35.599998474121</ele>
        <time>2021-03-25T09:42:14.000Z</time>
      </trkpt>
      <trkpt lat="47.32739" lon="-2.4676">
        <ele>35.599998474121</ele>
        <time>2021-03-25T09:42:20.000Z</time>
      </trkpt>
      <trkpt lat="47.32757" lon="-2.46798">
        <ele>35.599998474121</ele>
        <time>2021-03-25T09:42:26.000Z</time>
      </trkpt>
      <trkpt lat="47.32772" lon="-2.4683">
        <ele>35.599998474121</ele>
        <time>2021-03-25T09:42:32.000Z</time>
      </trkpt>
      <trkpt lat="47.32775" lon="-2.46832">
        <ele>35.599998474121</ele>
        <time>2021-03-25T09:42:33.000Z</time>
      </trkpt>
      <trkpt lat="47.32782" lon="-2.46828">
        <ele>35.599998474121</ele>
        <time>2021-03-25T09:42:35.000Z</time>
      </trkpt>
      <trkpt lat="47.32804" lon="-2.46807">
        <ele>35.599998474121</ele>
        <time>2021-03-25T09:42:41.000Z</time>
      </trkpt>
      <trkpt lat="47.32839" lon="-2.46774">
        <ele>35.599998474121</ele>
        <time>2021-03-25T09:42:49.000Z</time>
      </trkpt>
      <trkpt lat="47.32857" lon="-2.46747">
        <ele>35.599998474121</ele>
        <time>2021-03-25T09:42:54.000Z</time>
      </trkpt>
      <trkpt lat="47.3286" lon="-2.46741">
        <ele>35.599998474121</ele>
        <time>2021-03-25T09:42:55.000Z</time>
      </trkpt>
      <trkpt lat="47.32874" lon="-2.46713">
        <ele>35.599998474121</ele>
        <time>2021-03-25T09:42:59.000Z</time>
      </trkpt>
      <trkpt lat="47.3288" lon="-2.467">
        <ele>35.599998474121</ele>
        <time>2021-03-25T09:43:01.000Z</time>
      </trkpt>
      <trkpt lat="47.32893" lon="-2.46673">
        <ele>35.599998474121</ele>
        <time>2021-03-25T09:43:05.000Z</time>
      </trkpt>
      <trkpt lat="47.32911" lon="-2.46624">
        <ele>35.599998474121</ele>
        <time>2021-03-25T09:43:12.000Z</time>
      </trkpt>
      <trkpt lat="47.32926" lon="-2.46593">
        <ele>35.599998474121</ele>
        <time>2021-03-25T09:43:17.000Z</time>
      </trkpt>
      <trkpt lat="47.32933" lon="-2.46583">
        <ele>35.599998474121</ele>
        <time>2021-03-25T09:43:19.000Z</time>
      </trkpt>
      <trkpt lat="47.32949" lon="-2.4657">
        <ele>36</ele>
        <time>2021-03-25T09:43:23.000Z</time>
      </trkpt>
      <trkpt lat="47.32953" lon="-2.46568">
        <ele>36.400001525879</ele>
        <time>2021-03-25T09:43:24.000Z</time>
      </trkpt>
      <trkpt lat="47.32956" lon="-2.46566">
        <ele>36.799999237061</ele>
        <time>2021-03-25T09:43:25.000Z</time>
      </trkpt>
      <trkpt lat="47.3296" lon="-2.46564">
        <ele>37.200000762939</ele>
        <time>2021-03-25T09:43:26.000Z</time>
      </trkpt>
      <trkpt lat="47.32964" lon="-2.46562">
        <ele>37.599998474121</ele>
        <time>2021-03-25T09:43:27.000Z</time>
      </trkpt>
      <trkpt lat="47.32969" lon="-2.46562">
        <ele>37.599998474121</ele>
        <time>2021-03-25T09:43:28.000Z</time>
      </trkpt>
      <trkpt lat="47.32973" lon="-2.4656">
        <ele>38</ele>
        <time>2021-03-25T09:43:29.000Z</time>
      </trkpt>
      <trkpt lat="47.32978" lon="-2.46559">
        <ele>38.400001525879</ele>
        <time>2021-03-25T09:43:30.000Z</time>
      </trkpt>
      <trkpt lat="47.32981" lon="-2.46558">
        <ele>38.799999237061</ele>
        <time>2021-03-25T09:43:31.000Z</time>
      </trkpt>
      <trkpt lat="47.32985" lon="-2.46556">
        <ele>39.200000762939</ele>
        <time>2021-03-25T09:43:32.000Z</time>
      </trkpt>
      <trkpt lat="47.32989" lon="-2.46554">
        <ele>39.799999237061</ele>
        <time>2021-03-25T09:43:33.000Z</time>
      </trkpt>
      <trkpt lat="47.32993" lon="-2.46552">
        <ele>40.400001525879</ele>
        <time>2021-03-25T09:43:34.000Z</time>
      </trkpt>
      <trkpt lat="47.32997" lon="-2.46551">
        <ele>40.799999237061</ele>
        <time>2021-03-25T09:43:35.000Z</time>
      </trkpt>
      <trkpt lat="47.33001" lon="-2.4655">
        <ele>41.400001525879</ele>
        <time>2021-03-25T09:43:36.000Z</time>
      </trkpt>
      <trkpt lat="47.33005" lon="-2.46548">
        <ele>41.799999237061</ele>
        <time>2021-03-25T09:43:37.000Z</time>
      </trkpt>
      <trkpt lat="47.33013" lon="-2.46544">
        <ele>42.400001525879</ele>
        <time>2021-03-25T09:43:39.000Z</time>
      </trkpt>
      <trkpt lat="47.33017" lon="-2.46542">
        <ele>42.799999237061</ele>
        <time>2021-03-25T09:43:40.000Z</time>
      </trkpt>
      <trkpt lat="47.33021" lon="-2.4654">
        <ele>43.200000762939</ele>
        <time>2021-03-25T09:43:41.000Z</time>
      </trkpt>
      <trkpt lat="47.33025" lon="-2.46538">
        <ele>43.799999237061</ele>
        <time>2021-03-25T09:43:42.000Z</time>
      </trkpt>
      <trkpt lat="47.33029" lon="-2.46537">
        <ele>44.200000762939</ele>
        <time>2021-03-25T09:43:43.000Z</time>
      </trkpt>
      <trkpt lat="47.33032" lon="-2.46537">
        <ele>44.200000762939</ele>
        <time>2021-03-25T09:43:44.000Z</time>
      </trkpt>
      <trkpt lat="47.33036" lon="-2.46536">
        <ele>44.200000762939</ele>
        <time>2021-03-25T09:43:45.000Z</time>
      </trkpt>
      <trkpt lat="47.33052" lon="-2.46532">
        <ele>44.599998474121</ele>
        <time>2021-03-25T09:43:49.000Z</time>
      </trkpt>
      <trkpt lat="47.33056" lon="-2.46531">
        <ele>45</ele>
        <time>2021-03-25T09:43:50.000Z</time>
      </trkpt>
      <trkpt lat="47.33059" lon="-2.4653">
        <ele>45.400001525879</ele>
        <time>2021-03-25T09:43:51.000Z</time>
      </trkpt>
      <trkpt lat="47.33063" lon="-2.46528">
        <ele>46.200000762939</ele>
        <time>2021-03-25T09:43:52.000Z</time>
      </trkpt>
      <trkpt lat="47.33075" lon="-2.46529">
        <ele>46.200000762939</ele>
        <time>2021-03-25T09:43:56.000Z</time>
      </trkpt>
      <trkpt lat="47.33077" lon="-2.46535">
        <ele>46.200000762939</ele>
        <time>2021-03-25T09:43:57.000Z</time>
      </trkpt>
      <trkpt lat="47.33079" lon="-2.46541">
        <ele>46.599998474121</ele>
        <time>2021-03-25T09:43:58.000Z</time>
      </trkpt>
      <trkpt lat="47.3308" lon="-2.46547">
        <ele>47</ele>
        <time>2021-03-25T09:43:59.000Z</time>
      </trkpt>
      <trkpt lat="47.33082" lon="-2.46553">
        <ele>47.599998474121</ele>
        <time>2021-03-25T09:44:00.000Z</time>
      </trkpt>
      <trkpt lat="47.33084" lon="-2.4656">
        <ele>48</ele>
        <time>2021-03-25T09:44:01.000Z</time>
      </trkpt>
      <trkpt lat="47.33085" lon="-2.46566">
        <ele>48.400001525879</ele>
        <time>2021-03-25T09:44:02.000Z</time>
      </trkpt>
      <trkpt lat="47.33087" lon="-2.46572">
        <ele>48.400001525879</ele>
        <time>2021-03-25T09:44:03.000Z</time>
      </trkpt>
      <trkpt lat="47.33091" lon="-2.46585">
        <ele>48.400001525879</ele>
        <time>2021-03-25T09:44:05.000Z</time>
      </trkpt>
      <trkpt lat="47.33095" lon="-2.46598">
        <ele>48.400001525879</ele>
        <time>2021-03-25T09:44:07.000Z</time>
      </trkpt>
      <trkpt lat="47.33116" lon="-2.46645">
        <ele>48.400001525879</ele>
        <time>2021-03-25T09:44:14.000Z</time>
      </trkpt>
      <trkpt lat="47.33119" lon="-2.46651">
        <ele>49.200000762939</ele>
        <time>2021-03-25T09:44:15.000Z</time>
      </trkpt>
      <trkpt lat="47.33122" lon="-2.46658">
        <ele>49.599998474121</ele>
        <time>2021-03-25T09:44:16.000Z</time>
      </trkpt>
      <trkpt lat="47.33126" lon="-2.46665">
        <ele>50</ele>
        <time>2021-03-25T09:44:17.000Z</time>
      </trkpt>
      <trkpt lat="47.33129" lon="-2.46671">
        <ele>50.400001525879</ele>
        <time>2021-03-25T09:44:18.000Z</time>
      </trkpt>
      <trkpt lat="47.33136" lon="-2.46684">
        <ele>50.400001525879</ele>
        <time>2021-03-25T09:44:20.000Z</time>
      </trkpt>
      <trkpt lat="47.33161" lon="-2.46725">
        <ele>50.400001525879</ele>
        <time>2021-03-25T09:44:27.000Z</time>
      </trkpt>
      <trkpt lat="47.33189" lon="-2.4676">
        <ele>50.400001525879</ele>
        <time>2021-03-25T09:44:34.000Z</time>
      </trkpt>
      <trkpt lat="47.33197" lon="-2.4677">
        <ele>50.799999237061</ele>
        <time>2021-03-25T09:44:36.000Z</time>
      </trkpt>
      <trkpt lat="47.33201" lon="-2.46775">
        <ele>51.200000762939</ele>
        <time>2021-03-25T09:44:37.000Z</time>
      </trkpt>
      <trkpt lat="47.33206" lon="-2.46779">
        <ele>51.599998474121</ele>
        <time>2021-03-25T09:44:38.000Z</time>
      </trkpt>
      <trkpt lat="47.3321" lon="-2.46783">
        <ele>52</ele>
        <time>2021-03-25T09:44:39.000Z</time>
      </trkpt>
      <trkpt lat="47.33215" lon="-2.46786">
        <ele>52.400001525879</ele>
        <time>2021-03-25T09:44:40.000Z</time>
      </trkpt>
      <trkpt lat="47.33234" lon="-2.46788">
        <ele>52.400001525879</ele>
        <time>2021-03-25T09:44:44.000Z</time>
      </trkpt>
      <trkpt lat="47.3324" lon="-2.46787">
        <ele>52.400001525879</ele>
        <time>2021-03-25T09:44:45.000Z</time>
      </trkpt>
      <trkpt lat="47.33244" lon="-2.46785">
        <ele>52.400001525879</ele>
        <time>2021-03-25T09:44:46.000Z</time>
      </trkpt>
      <trkpt lat="47.33258" lon="-2.46781">
        <ele>52.400001525879</ele>
        <time>2021-03-25T09:44:49.000Z</time>
      </trkpt>
      <trkpt lat="47.33263" lon="-2.46781">
        <ele>52.400001525879</ele>
        <time>2021-03-25T09:44:50.000Z</time>
      </trkpt>
      <trkpt lat="47.33267" lon="-2.46782">
        <ele>53</ele>
        <time>2021-03-25T09:44:51.000Z</time>
      </trkpt>
      <trkpt lat="47.33272" lon="-2.46784">
        <ele>53.400001525879</ele>
        <time>2021-03-25T09:44:52.000Z</time>
      </trkpt>
      <trkpt lat="47.33276" lon="-2.46788">
        <ele>53.799999237061</ele>
        <time>2021-03-25T09:44:53.000Z</time>
      </trkpt>
      <trkpt lat="47.33279" lon="-2.46794">
        <ele>54.200000762939</ele>
        <time>2021-03-25T09:44:54.000Z</time>
      </trkpt>
      <trkpt lat="47.33282" lon="-2.46801">
        <ele>54.799999237061</ele>
        <time>2021-03-25T09:44:55.000Z</time>
      </trkpt>
      <trkpt lat="47.33284" lon="-2.46807">
        <ele>54.799999237061</ele>
        <time>2021-03-25T09:44:56.000Z</time>
      </trkpt>
      <trkpt lat="47.33306" lon="-2.46863">
        <ele>54.799999237061</ele>
        <time>2021-03-25T09:45:04.000Z</time>
      </trkpt>
      <trkpt lat="47.3331" lon="-2.46878">
        <ele>54.799999237061</ele>
        <time>2021-03-25T09:45:07.000Z</time>
      </trkpt>
      <trkpt lat="47.33311" lon="-2.46885">
        <ele>54.799999237061</ele>
        <time>2021-03-25T09:45:08.000Z</time>
      </trkpt>
      <trkpt lat="47.33321" lon="-2.46927">
        <ele>54.799999237061</ele>
        <time>2021-03-25T09:45:13.000Z</time>
      </trkpt>
      <trkpt lat="47.33329" lon="-2.46956">
        <ele>54.400001525879</ele>
        <time>2021-03-25T09:45:16.000Z</time>
      </trkpt>
      <trkpt lat="47.33331" lon="-2.46966">
        <ele>54</ele>
        <time>2021-03-25T09:45:17.000Z</time>
      </trkpt>
      <trkpt lat="47.33334" lon="-2.46976">
        <ele>53.599998474121</ele>
        <time>2021-03-25T09:45:18.000Z</time>
      </trkpt>
      <trkpt lat="47.33336" lon="-2.46986">
        <ele>53.200000762939</ele>
        <time>2021-03-25T09:45:19.000Z</time>
      </trkpt>
      <trkpt lat="47.33339" lon="-2.46998">
        <ele>52.799999237061</ele>
        <time>2021-03-25T09:45:20.000Z</time>
      </trkpt>
      <trkpt lat="47.33347" lon="-2.47046">
        <ele>52.400001525879</ele>
        <time>2021-03-25T09:45:24.000Z</time>
      </trkpt>
      <trkpt lat="47.33348" lon="-2.47057">
        <ele>52</ele>
        <time>2021-03-25T09:45:25.000Z</time>
      </trkpt>
      <trkpt lat="47.3335" lon="-2.47068">
        <ele>51.599998474121</ele>
        <time>2021-03-25T09:45:26.000Z</time>
      </trkpt>
      <trkpt lat="47.33351" lon="-2.4708">
        <ele>51.200000762939</ele>
        <time>2021-03-25T09:45:27.000Z</time>
      </trkpt>
      <trkpt lat="47.33353" lon="-2.4709">
        <ele>50.799999237061</ele>
        <time>2021-03-25T09:45:28.000Z</time>
      </trkpt>
      <trkpt lat="47.33357" lon="-2.4711">
        <ele>50.799999237061</ele>
        <time>2021-03-25T09:45:30.000Z</time>
      </trkpt>
      <trkpt lat="47.33368" lon="-2.47162">
        <ele>50.799999237061</ele>
        <time>2021-03-25T09:45:36.000Z</time>
      </trkpt>
      <trkpt lat="47.33373" lon="-2.47193">
        <ele>51.200000762939</ele>
        <time>2021-03-25T09:45:40.000Z</time>
      </trkpt>
      <trkpt lat="47.33374" lon="-2.47201">
        <ele>51.599998474121</ele>
        <time>2021-03-25T09:45:41.000Z</time>
      </trkpt>
      <trkpt lat="47.33375" lon="-2.47209">
        <ele>52</ele>
        <time>2021-03-25T09:45:42.000Z</time>
      </trkpt>
      <trkpt lat="47.33376" lon="-2.47218">
        <ele>52.400001525879</ele>
        <time>2021-03-25T09:45:43.000Z</time>
      </trkpt>
      <trkpt lat="47.33377" lon="-2.47226">
        <ele>52.799999237061</ele>
        <time>2021-03-25T09:45:44.000Z</time>
      </trkpt>
      <trkpt lat="47.33384" lon="-2.47273">
        <ele>52.799999237061</ele>
        <time>2021-03-25T09:45:49.000Z</time>
      </trkpt>
      <trkpt lat="47.33389" lon="-2.47324">
        <ele>52.799999237061</ele>
        <time>2021-03-25T09:45:55.000Z</time>
      </trkpt>
      <trkpt lat="47.3339" lon="-2.47337">
        <ele>52.799999237061</ele>
        <time>2021-03-25T09:45:57.000Z</time>
      </trkpt>
      <trkpt lat="47.33394" lon="-2.47349">
        <ele>52.799999237061</ele>
        <time>2021-03-25T09:45:59.000Z</time>
      </trkpt>
      <trkpt lat="47.33402" lon="-2.47379">
        <ele>52.799999237061</ele>
        <time>2021-03-25T09:46:05.000Z</time>
      </trkpt>
      <trkpt lat="47.33409" lon="-2.47408">
        <ele>52.799999237061</ele>
        <time>2021-03-25T09:46:11.000Z</time>
      </trkpt>
      <trkpt lat="47.33416" lon="-2.47438">
        <ele>52.799999237061</ele>
        <time>2021-03-25T09:46:18.000Z</time>
      </trkpt>
      <trkpt lat="47.33425" lon="-2.47469">
        <ele>52.799999237061</ele>
        <time>2021-03-25T09:46:25.000Z</time>
      </trkpt>
      <trkpt lat="47.33437" lon="-2.47506">
        <ele>52.799999237061</ele>
        <time>2021-03-25T09:46:33.000Z</time>
      </trkpt>
      <trkpt lat="47.33453" lon="-2.47543">
        <ele>52.799999237061</ele>
        <time>2021-03-25T09:46:41.000Z</time>
      </trkpt>
      <trkpt lat="47.33466" lon="-2.4757">
        <ele>52.799999237061</ele>
        <time>2021-03-25T09:46:46.000Z</time>
      </trkpt>
      <trkpt lat="47.33469" lon="-2.47576">
        <ele>52.799999237061</ele>
        <time>2021-03-25T09:46:47.000Z</time>
      </trkpt>
      <trkpt lat="47.33487" lon="-2.47601">
        <ele>52.799999237061</ele>
        <time>2021-03-25T09:46:52.000Z</time>
      </trkpt>
      <trkpt lat="47.33494" lon="-2.47608">
        <ele>52.799999237061</ele>
        <time>2021-03-25T09:46:54.000Z</time>
      </trkpt>
      <trkpt lat="47.33507" lon="-2.47628">
        <ele>52.799999237061</ele>
        <time>2021-03-25T09:46:59.000Z</time>
      </trkpt>
      <trkpt lat="47.33514" lon="-2.47644">
        <ele>52.799999237061</ele>
        <time>2021-03-25T09:47:04.000Z</time>
      </trkpt>
      <trkpt lat="47.33524" lon="-2.47665">
        <ele>52.799999237061</ele>
        <time>2021-03-25T09:47:11.000Z</time>
      </trkpt>
      <trkpt lat="47.33534" lon="-2.47675">
        <ele>52.799999237061</ele>
        <time>2021-03-25T09:47:17.000Z</time>
      </trkpt>
      <trkpt lat="47.33548" lon="-2.47683">
        <ele>52.799999237061</ele>
        <time>2021-03-25T09:47:24.000Z</time>
      </trkpt>
      <trkpt lat="47.33558" lon="-2.47692">
        <ele>52.799999237061</ele>
        <time>2021-03-25T09:47:29.000Z</time>
      </trkpt>
      <trkpt lat="47.33574" lon="-2.47701">
        <ele>52.799999237061</ele>
        <time>2021-03-25T09:47:36.000Z</time>
      </trkpt>
      <trkpt lat="47.33586" lon="-2.47698">
        <ele>52.799999237061</ele>
        <time>2021-03-25T09:47:41.000Z</time>
      </trkpt>
      <trkpt lat="47.33601" lon="-2.47688">
        <ele>52.799999237061</ele>
        <time>2021-03-25T09:47:48.000Z</time>
      </trkpt>
      <trkpt lat="47.33622" lon="-2.47669">
        <ele>52.799999237061</ele>
        <time>2021-03-25T09:47:57.000Z</time>
      </trkpt>
      <trkpt lat="47.33637" lon="-2.47658">
        <ele>52.799999237061</ele>
        <time>2021-03-25T09:48:04.000Z</time>
      </trkpt>
      <trkpt lat="47.33648" lon="-2.47649">
        <ele>52.799999237061</ele>
        <time>2021-03-25T09:48:09.000Z</time>
      </trkpt>
      <trkpt lat="47.3365" lon="-2.47647">
        <ele>53.200000762939</ele>
        <time>2021-03-25T09:48:10.000Z</time>
      </trkpt>
      <trkpt lat="47.33653" lon="-2.47645">
        <ele>53.599998474121</ele>
        <time>2021-03-25T09:48:11.000Z</time>
      </trkpt>
      <trkpt lat="47.33655" lon="-2.47643">
        <ele>54</ele>
        <time>2021-03-25T09:48:12.000Z</time>
      </trkpt>
      <trkpt lat="47.33658" lon="-2.47642">
        <ele>54.400001525879</ele>
        <time>2021-03-25T09:48:13.000Z</time>
      </trkpt>
      <trkpt lat="47.33661" lon="-2.4764">
        <ele>54.799999237061</ele>
        <time>2021-03-25T09:48:14.000Z</time>
      </trkpt>
      <trkpt lat="47.33666" lon="-2.47636">
        <ele>54.799999237061</ele>
        <time>2021-03-25T09:48:16.000Z</time>
      </trkpt>
      <trkpt lat="47.33687" lon="-2.47623">
        <ele>54.799999237061</ele>
        <time>2021-03-25T09:48:24.000Z</time>
      </trkpt>
      <trkpt lat="47.33704" lon="-2.47618">
        <ele>54.799999237061</ele>
        <time>2021-03-25T09:48:32.000Z</time>
      </trkpt>
      <trkpt lat="47.3372" lon="-2.47618">
        <ele>54.799999237061</ele>
        <time>2021-03-25T09:48:40.000Z</time>
      </trkpt>
      <trkpt lat="47.33732" lon="-2.47617">
        <ele>54.799999237061</ele>
        <time>2021-03-25T09:48:48.000Z</time>
      </trkpt>
      <trkpt lat="47.33732" lon="-2.47617">
        <ele>54.799999237061</ele>
        <time>2021-03-25T09:48:50.000Z</time>
      </trkpt>
      <trkpt lat="47.33735" lon="-2.47621">
        <ele>54.799999237061</ele>
        <time>2021-03-25T09:49:10.000Z</time>
      </trkpt>
      <trkpt lat="47.33736" lon="-2.47624">
        <ele>54.799999237061</ele>
        <time>2021-03-25T09:49:11.000Z</time>
      </trkpt>
      <trkpt lat="47.33744" lon="-2.4763">
        <ele>54.799999237061</ele>
        <time>2021-03-25T09:49:15.000Z</time>
      </trkpt>
      <trkpt lat="47.33747" lon="-2.47633">
        <ele>54.799999237061</ele>
        <time>2021-03-25T09:49:16.000Z</time>
      </trkpt>
      <trkpt lat="47.3376" lon="-2.4765">
        <ele>54.799999237061</ele>
        <time>2021-03-25T09:49:21.000Z</time>
      </trkpt>
      <trkpt lat="47.33768" lon="-2.47671">
        <ele>54.799999237061</ele>
        <time>2021-03-25T09:49:25.000Z</time>
      </trkpt>
      <trkpt lat="47.33771" lon="-2.47676">
        <ele>54.799999237061</ele>
        <time>2021-03-25T09:49:26.000Z</time>
      </trkpt>
      <trkpt lat="47.33787" lon="-2.47695">
        <ele>54.799999237061</ele>
        <time>2021-03-25T09:49:30.000Z</time>
      </trkpt>
      <trkpt lat="47.338" lon="-2.47712">
        <ele>54.400001525879</ele>
        <time>2021-03-25T09:49:33.000Z</time>
      </trkpt>
      <trkpt lat="47.33804" lon="-2.47718">
        <ele>54</ele>
        <time>2021-03-25T09:49:34.000Z</time>
      </trkpt>
      <trkpt lat="47.33808" lon="-2.47724">
        <ele>53.599998474121</ele>
        <time>2021-03-25T09:49:35.000Z</time>
      </trkpt>
      <trkpt lat="47.33812" lon="-2.47729">
        <ele>52.799999237061</ele>
        <time>2021-03-25T09:49:36.000Z</time>
      </trkpt>
      <trkpt lat="47.33821" lon="-2.4774">
        <ele>52.799999237061</ele>
        <time>2021-03-25T09:49:38.000Z</time>
      </trkpt>
      <trkpt lat="47.3385" lon="-2.47778">
        <ele>52.799999237061</ele>
        <time>2021-03-25T09:49:45.000Z</time>
      </trkpt>
      <trkpt lat="47.33846" lon="-2.478">
        <ele>52.799999237061</ele>
        <time>2021-03-25T09:49:48.000Z</time>
      </trkpt>
      <trkpt lat="47.33831" lon="-2.47828">
        <ele>52.799999237061</ele>
        <time>2021-03-25T09:49:52.000Z</time>
      </trkpt>
      <trkpt lat="47.33826" lon="-2.47835">
        <ele>52.799999237061</ele>
        <time>2021-03-25T09:49:53.000Z</time>
      </trkpt>
      <trkpt lat="47.33807" lon="-2.47868">
        <ele>52.799999237061</ele>
        <time>2021-03-25T09:49:57.000Z</time>
      </trkpt>
      <trkpt lat="47.33778" lon="-2.47923">
        <ele>52.400001525879</ele>
        <time>2021-03-25T09:50:03.000Z</time>
      </trkpt>
      <trkpt lat="47.33773" lon="-2.47931">
        <ele>51.799999237061</ele>
        <time>2021-03-25T09:50:04.000Z</time>
      </trkpt>
      <trkpt lat="47.33769" lon="-2.47941">
        <ele>51.400001525879</ele>
        <time>2021-03-25T09:50:05.000Z</time>
      </trkpt>
      <trkpt lat="47.33765" lon="-2.47952">
        <ele>51</ele>
        <time>2021-03-25T09:50:06.000Z</time>
      </trkpt>
      <trkpt lat="47.33762" lon="-2.47963">
        <ele>50.599998474121</ele>
        <time>2021-03-25T09:50:07.000Z</time>
      </trkpt>
      <trkpt lat="47.33759" lon="-2.47974">
        <ele>50.599998474121</ele>
        <time>2021-03-25T09:50:08.000Z</time>
      </trkpt>
      <trkpt lat="47.33756" lon="-2.47986">
        <ele>50.599998474121</ele>
        <time>2021-03-25T09:50:09.000Z</time>
      </trkpt>
      <trkpt lat="47.33749" lon="-2.48019">
        <ele>50.200000762939</ele>
        <time>2021-03-25T09:50:12.000Z</time>
      </trkpt>
      <trkpt lat="47.33747" lon="-2.4803">
        <ele>49.799999237061</ele>
        <time>2021-03-25T09:50:13.000Z</time>
      </trkpt>
      <trkpt lat="47.33745" lon="-2.4804">
        <ele>49.400001525879</ele>
        <time>2021-03-25T09:50:14.000Z</time>
      </trkpt>
      <trkpt lat="47.33742" lon="-2.4805">
        <ele>49</ele>
        <time>2021-03-25T09:50:15.000Z</time>
      </trkpt>
      <trkpt lat="47.33741" lon="-2.48062">
        <ele>48.599998474121</ele>
        <time>2021-03-25T09:50:16.000Z</time>
      </trkpt>
      <trkpt lat="47.33731" lon="-2.48116">
        <ele>48.599998474121</ele>
        <time>2021-03-25T09:50:21.000Z</time>
      </trkpt>
      <trkpt lat="47.3373" lon="-2.48128">
        <ele>48</ele>
        <time>2021-03-25T09:50:22.000Z</time>
      </trkpt>
      <trkpt lat="47.33729" lon="-2.48139">
        <ele>47.599998474121</ele>
        <time>2021-03-25T09:50:23.000Z</time>
      </trkpt>
      <trkpt lat="47.33728" lon="-2.48151">
        <ele>47</ele>
        <time>2021-03-25T09:50:24.000Z</time>
      </trkpt>
      <trkpt lat="47.33728" lon="-2.48162">
        <ele>46</ele>
        <time>2021-03-25T09:50:25.000Z</time>
      </trkpt>
      <trkpt lat="47.33728" lon="-2.48173">
        <ele>46</ele>
        <time>2021-03-25T09:50:26.000Z</time>
      </trkpt>
      <trkpt lat="47.33725" lon="-2.48244">
        <ele>46</ele>
        <time>2021-03-25T09:50:33.000Z</time>
      </trkpt>
      <trkpt lat="47.33724" lon="-2.48272">
        <ele>45.599998474121</ele>
        <time>2021-03-25T09:50:36.000Z</time>
      </trkpt>
      <trkpt lat="47.33723" lon="-2.48281">
        <ele>45.200000762939</ele>
        <time>2021-03-25T09:50:37.000Z</time>
      </trkpt>
      <trkpt lat="47.33723" lon="-2.4829">
        <ele>44.799999237061</ele>
        <time>2021-03-25T09:50:38.000Z</time>
      </trkpt>
      <trkpt lat="47.33724" lon="-2.48299">
        <ele>44.400001525879</ele>
        <time>2021-03-25T09:50:39.000Z</time>
      </trkpt>
      <trkpt lat="47.33724" lon="-2.48305">
        <ele>43.799999237061</ele>
        <time>2021-03-25T09:50:40.000Z</time>
      </trkpt>
      <trkpt lat="47.33724" lon="-2.48308">
        <ele>43.400001525879</ele>
        <time>2021-03-25T09:50:41.000Z</time>
      </trkpt>
      <trkpt lat="47.33724" lon="-2.48311">
        <ele>43</ele>
        <time>2021-03-25T09:50:42.000Z</time>
      </trkpt>
      <trkpt lat="47.33724" lon="-2.48314">
        <ele>42.599998474121</ele>
        <time>2021-03-25T09:50:43.000Z</time>
      </trkpt>
      <trkpt lat="47.33724" lon="-2.48316">
        <ele>42.200000762939</ele>
        <time>2021-03-25T09:50:44.000Z</time>
      </trkpt>
      <trkpt lat="47.33725" lon="-2.48319">
        <ele>41.799999237061</ele>
        <time>2021-03-25T09:50:45.000Z</time>
      </trkpt>
      <trkpt lat="47.33723" lon="-2.48327">
        <ele>41.799999237061</ele>
        <time>2021-03-25T09:50:48.000Z</time>
      </trkpt>
      <trkpt lat="47.3372" lon="-2.48329">
        <ele>41.799999237061</ele>
        <time>2021-03-25T09:50:49.000Z</time>
      </trkpt>
      <trkpt lat="47.33702" lon="-2.48334">
        <ele>41.799999237061</ele>
        <time>2021-03-25T09:50:53.000Z</time>
      </trkpt>
      <trkpt lat="47.33673" lon="-2.4834">
        <ele>41.400001525879</ele>
        <time>2021-03-25T09:50:58.000Z</time>
      </trkpt>
      <trkpt lat="47.33666" lon="-2.48343">
        <ele>40.799999237061</ele>
        <time>2021-03-25T09:50:59.000Z</time>
      </trkpt>
      <trkpt lat="47.33659" lon="-2.48346">
        <ele>40.400001525879</ele>
        <time>2021-03-25T09:51:00.000Z</time>
      </trkpt>
      <trkpt lat="47.33653" lon="-2.48351">
        <ele>40</ele>
        <time>2021-03-25T09:51:01.000Z</time>
      </trkpt>
      <trkpt lat="47.33646" lon="-2.48358">
        <ele>39.599998474121</ele>
        <time>2021-03-25T09:51:02.000Z</time>
      </trkpt>
      <trkpt lat="47.33641" lon="-2.48365">
        <ele>39.599998474121</ele>
        <time>2021-03-25T09:51:03.000Z</time>
      </trkpt>
      <trkpt lat="47.33635" lon="-2.48372">
        <ele>39.200000762939</ele>
        <time>2021-03-25T09:51:04.000Z</time>
      </trkpt>
      <trkpt lat="47.3363" lon="-2.4838">
        <ele>38.799999237061</ele>
        <time>2021-03-25T09:51:05.000Z</time>
      </trkpt>
      <trkpt lat="47.33626" lon="-2.48388">
        <ele>38.400001525879</ele>
        <time>2021-03-25T09:51:06.000Z</time>
      </trkpt>
      <trkpt lat="47.33623" lon="-2.48397">
        <ele>37.799999237061</ele>
        <time>2021-03-25T09:51:07.000Z</time>
      </trkpt>
      <trkpt lat="47.33621" lon="-2.48407">
        <ele>37.400001525879</ele>
        <time>2021-03-25T09:51:08.000Z</time>
      </trkpt>
      <trkpt lat="47.33617" lon="-2.48426">
        <ele>37.400001525879</ele>
        <time>2021-03-25T09:51:10.000Z</time>
      </trkpt>
      <trkpt lat="47.33613" lon="-2.48444">
        <ele>37.400001525879</ele>
        <time>2021-03-25T09:51:12.000Z</time>
      </trkpt>
      <trkpt lat="47.33595" lon="-2.48493">
        <ele>37.400001525879</ele>
        <time>2021-03-25T09:51:18.000Z</time>
      </trkpt>
      <trkpt lat="47.33568" lon="-2.48552">
        <ele>37.400001525879</ele>
        <time>2021-03-25T09:51:26.000Z</time>
      </trkpt>
      <trkpt lat="47.33534" lon="-2.48618">
        <ele>37.400001525879</ele>
        <time>2021-03-25T09:51:35.000Z</time>
      </trkpt>
      <trkpt lat="47.33498" lon="-2.48674">
        <ele>37.400001525879</ele>
        <time>2021-03-25T09:51:43.000Z</time>
      </trkpt>
      <trkpt lat="47.33459" lon="-2.48718">
        <ele>37.400001525879</ele>
        <time>2021-03-25T09:51:50.000Z</time>
      </trkpt>
      <trkpt lat="47.33415" lon="-2.48775">
        <ele>37.400001525879</ele>
        <time>2021-03-25T09:51:58.000Z</time>
      </trkpt>
      <trkpt lat="47.33392" lon="-2.48801">
        <ele>37.400001525879</ele>
        <time>2021-03-25T09:52:02.000Z</time>
      </trkpt>
      <trkpt lat="47.3338" lon="-2.48813">
        <ele>37.400001525879</ele>
        <time>2021-03-25T09:52:04.000Z</time>
      </trkpt>
      <trkpt lat="47.33361" lon="-2.48826">
        <ele>37.400001525879</ele>
        <time>2021-03-25T09:52:07.000Z</time>
      </trkpt>
      <trkpt lat="47.33347" lon="-2.4883">
        <ele>37.400001525879</ele>
        <time>2021-03-25T09:52:09.000Z</time>
      </trkpt>
      <trkpt lat="47.33333" lon="-2.48831">
        <ele>37.400001525879</ele>
        <time>2021-03-25T09:52:10.000Z</time>
      </trkpt>
      <trkpt lat="47.33319" lon="-2.48829">
        <ele>37.400001525879</ele>
        <time>2021-03-25T09:52:13.000Z</time>
      </trkpt>
      <trkpt lat="47.33298" lon="-2.48832">
        <ele>37.400001525879</ele>
        <time>2021-03-25T09:52:16.000Z</time>
      </trkpt>
      <trkpt lat="47.33284" lon="-2.4884">
        <ele>37.400001525879</ele>
        <time>2021-03-25T09:52:18.000Z</time>
      </trkpt>
      <trkpt lat="47.33266" lon="-2.48863">
        <ele>37.400001525879</ele>
        <time>2021-03-25T09:52:22.000Z</time>
      </trkpt>
      <trkpt lat="47.33262" lon="-2.48867">
        <ele>37.400001525879</ele>
        <time>2021-03-25T09:52:23.000Z</time>
      </trkpt>
      <trkpt lat="47.33249" lon="-2.4888">
        <ele>37.400001525879</ele>
        <time>2021-03-25T09:52:27.000Z</time>
      </trkpt>
      <trkpt lat="47.33245" lon="-2.48876">
        <ele>37.400001525879</ele>
        <time>2021-03-25T09:52:28.000Z</time>
      </trkpt>
      <trkpt lat="47.33242" lon="-2.4887">
        <ele>37.400001525879</ele>
        <time>2021-03-25T09:52:29.000Z</time>
      </trkpt>
      <trkpt lat="47.33236" lon="-2.48849">
        <ele>37</ele>
        <time>2021-03-25T09:52:32.000Z</time>
      </trkpt>
      <trkpt lat="47.33233" lon="-2.4884">
        <ele>36.599998474121</ele>
        <time>2021-03-25T09:52:33.000Z</time>
      </trkpt>
      <trkpt lat="47.33231" lon="-2.48833">
        <ele>36.200000762939</ele>
        <time>2021-03-25T09:52:34.000Z</time>
      </trkpt>
      <trkpt lat="47.33228" lon="-2.48825">
        <ele>35.799999237061</ele>
        <time>2021-03-25T09:52:35.000Z</time>
      </trkpt>
      <trkpt lat="47.33226" lon="-2.48817">
        <ele>35.400001525879</ele>
        <time>2021-03-25T09:52:36.000Z</time>
      </trkpt>
      <trkpt lat="47.33213" lon="-2.48778">
        <ele>35.400001525879</ele>
        <time>2021-03-25T09:52:41.000Z</time>
      </trkpt>
      <trkpt lat="47.3321" lon="-2.48762">
        <ele>35.400001525879</ele>
        <time>2021-03-25T09:52:43.000Z</time>
      </trkpt>
      <trkpt lat="47.33203" lon="-2.48727">
        <ele>35.400001525879</ele>
        <time>2021-03-25T09:52:47.000Z</time>
      </trkpt>
      <trkpt lat="47.33186" lon="-2.48668">
        <ele>35.400001525879</ele>
        <time>2021-03-25T09:52:54.000Z</time>
      </trkpt>
      <trkpt lat="47.33184" lon="-2.48612">
        <ele>35.400001525879</ele>
        <time>2021-03-25T09:53:00.000Z</time>
      </trkpt>
      <trkpt lat="47.33184" lon="-2.4856">
        <ele>35.400001525879</ele>
        <time>2021-03-25T09:53:07.000Z</time>
      </trkpt>
      <trkpt lat="47.33182" lon="-2.48548">
        <ele>35.400001525879</ele>
        <time>2021-03-25T09:53:09.000Z</time>
      </trkpt>
      <trkpt lat="47.33179" lon="-2.48543">
        <ele>35.400001525879</ele>
        <time>2021-03-25T09:53:10.000Z</time>
      </trkpt>
      <trkpt lat="47.33166" lon="-2.48536">
        <ele>35.400001525879</ele>
        <time>2021-03-25T09:53:13.000Z</time>
      </trkpt>
      <trkpt lat="47.33161" lon="-2.48535">
        <ele>35.400001525879</ele>
        <time>2021-03-25T09:53:14.000Z</time>
      </trkpt>
      <trkpt lat="47.33144" lon="-2.48529">
        <ele>35.400001525879</ele>
        <time>2021-03-25T09:53:17.000Z</time>
      </trkpt>
      <trkpt lat="47.33132" lon="-2.48525">
        <ele>35.400001525879</ele>
        <time>2021-03-25T09:53:19.000Z</time>
      </trkpt>
      <trkpt lat="47.33119" lon="-2.48524">
        <ele>35.400001525879</ele>
        <time>2021-03-25T09:53:21.000Z</time>
      </trkpt>
      <trkpt lat="47.331" lon="-2.48526">
        <ele>35.400001525879</ele>
        <time>2021-03-25T09:53:24.000Z</time>
      </trkpt>
      <trkpt lat="47.33066" lon="-2.48536">
        <ele>35.400001525879</ele>
        <time>2021-03-25T09:53:30.000Z</time>
      </trkpt>
      <trkpt lat="47.33038" lon="-2.48554">
        <ele>35.400001525879</ele>
        <time>2021-03-25T09:53:36.000Z</time>
      </trkpt>
      <trkpt lat="47.32993" lon="-2.48583">
        <ele>35.400001525879</ele>
        <time>2021-03-25T09:53:46.000Z</time>
      </trkpt>
      <trkpt lat="47.32966" lon="-2.48594">
        <ele>35.400001525879</ele>
        <time>2021-03-25T09:53:52.000Z</time>
      </trkpt>
      <trkpt lat="47.32952" lon="-2.48598">
        <ele>35.400001525879</ele>
        <time>2021-03-25T09:53:57.000Z</time>
      </trkpt>
      <trkpt lat="47.3294" lon="-2.486">
        <ele>35.400001525879</ele>
        <time>2021-03-25T09:54:03.000Z</time>
      </trkpt>
      <trkpt lat="47.32923" lon="-2.48594">
        <ele>35.400001525879</ele>
        <time>2021-03-25T09:54:09.000Z</time>
      </trkpt>
      <trkpt lat="47.32905" lon="-2.4859">
        <ele>35.400001525879</ele>
        <time>2021-03-25T09:54:14.000Z</time>
      </trkpt>
      <trkpt lat="47.32892" lon="-2.48598">
        <ele>35.400001525879</ele>
        <time>2021-03-25T09:54:18.000Z</time>
      </trkpt>
      <trkpt lat="47.32877" lon="-2.48598">
        <ele>35.400001525879</ele>
        <time>2021-03-25T09:54:22.000Z</time>
      </trkpt>
      <trkpt lat="47.32845" lon="-2.48594">
        <ele>35.400001525879</ele>
        <time>2021-03-25T09:54:28.000Z</time>
      </trkpt>
      <trkpt lat="47.32801" lon="-2.48593">
        <ele>35.400001525879</ele>
        <time>2021-03-25T09:54:35.000Z</time>
      </trkpt>
      <trkpt lat="47.32764" lon="-2.48599">
        <ele>35.400001525879</ele>
        <time>2021-03-25T09:54:41.000Z</time>
      </trkpt>
      <trkpt lat="47.32724" lon="-2.48621">
        <ele>35.400001525879</ele>
        <time>2021-03-25T09:54:48.000Z</time>
      </trkpt>
      <trkpt lat="47.32677" lon="-2.48647">
        <ele>35.400001525879</ele>
        <time>2021-03-25T09:54:56.000Z</time>
      </trkpt>
      <trkpt lat="47.3262" lon="-2.48673">
        <ele>35.400001525879</ele>
        <time>2021-03-25T09:55:05.000Z</time>
      </trkpt>
      <trkpt lat="47.32594" lon="-2.48678">
        <ele>35.400001525879</ele>
        <time>2021-03-25T09:55:09.000Z</time>
      </trkpt>
      <trkpt lat="47.32581" lon="-2.48677">
        <ele>35.400001525879</ele>
        <time>2021-03-25T09:55:11.000Z</time>
      </trkpt>
      <trkpt lat="47.32568" lon="-2.48674">
        <ele>35.400001525879</ele>
        <time>2021-03-25T09:55:13.000Z</time>
      </trkpt>
      <trkpt lat="47.32562" lon="-2.48671">
        <ele>35.799999237061</ele>
        <time>2021-03-25T09:55:14.000Z</time>
      </trkpt>
      <trkpt lat="47.32556" lon="-2.48668">
        <ele>36.200000762939</ele>
        <time>2021-03-25T09:55:15.000Z</time>
      </trkpt>
      <trkpt lat="47.32549" lon="-2.48664">
        <ele>36.599998474121</ele>
        <time>2021-03-25T09:55:16.000Z</time>
      </trkpt>
      <trkpt lat="47.32543" lon="-2.4866">
        <ele>37</ele>
        <time>2021-03-25T09:55:17.000Z</time>
      </trkpt>
      <trkpt lat="47.32538" lon="-2.48655">
        <ele>37.400001525879</ele>
        <time>2021-03-25T09:55:18.000Z</time>
      </trkpt>
      <trkpt lat="47.3252" lon="-2.48638">
        <ele>37.400001525879</ele>
        <time>2021-03-25T09:55:21.000Z</time>
      </trkpt>
      <trkpt lat="47.32472" lon="-2.48593">
        <ele>37.400001525879</ele>
        <time>2021-03-25T09:55:29.000Z</time>
      </trkpt>
      <trkpt lat="47.3244" lon="-2.48577">
        <ele>37.400001525879</ele>
        <time>2021-03-25T09:55:34.000Z</time>
      </trkpt>
      <trkpt lat="47.32398" lon="-2.4857">
        <ele>37.400001525879</ele>
        <time>2021-03-25T09:55:40.000Z</time>
      </trkpt>
      <trkpt lat="47.32366" lon="-2.48583">
        <ele>37.400001525879</ele>
        <time>2021-03-25T09:55:45.000Z</time>
      </trkpt>
      <trkpt lat="47.3236" lon="-2.48587">
        <ele>37.400001525879</ele>
        <time>2021-03-25T09:55:46.000Z</time>
      </trkpt>
      <trkpt lat="47.32325" lon="-2.48612">
        <ele>37.400001525879</ele>
        <time>2021-03-25T09:55:52.000Z</time>
      </trkpt>
      <trkpt lat="47.32275" lon="-2.48649">
        <ele>37.400001525879</ele>
        <time>2021-03-25T09:56:00.000Z</time>
      </trkpt>
      <trkpt lat="47.32269" lon="-2.48654">
        <ele>37.400001525879</ele>
        <time>2021-03-25T09:56:01.000Z</time>
      </trkpt>
      <trkpt lat="47.32263" lon="-2.4866">
        <ele>37.400001525879</ele>
        <time>2021-03-25T09:56:02.000Z</time>
      </trkpt>
      <trkpt lat="47.32249" lon="-2.48681">
        <ele>37.400001525879</ele>
        <time>2021-03-25T09:56:05.000Z</time>
      </trkpt>
      <trkpt lat="47.32237" lon="-2.48717">
        <ele>37.400001525879</ele>
        <time>2021-03-25T09:56:09.000Z</time>
      </trkpt>
      <trkpt lat="47.32222" lon="-2.48768">
        <ele>37.400001525879</ele>
        <time>2021-03-25T09:56:15.000Z</time>
      </trkpt>
      <trkpt lat="47.32215" lon="-2.48783">
        <ele>37.400001525879</ele>
        <time>2021-03-25T09:56:17.000Z</time>
      </trkpt>
      <trkpt lat="47.32199" lon="-2.48813">
        <ele>37.400001525879</ele>
        <time>2021-03-25T09:56:21.000Z</time>
      </trkpt>
      <trkpt lat="47.3217" lon="-2.48863">
        <ele>37.400001525879</ele>
        <time>2021-03-25T09:56:28.000Z</time>
      </trkpt>
      <trkpt lat="47.32144" lon="-2.48917">
        <ele>37.400001525879</ele>
        <time>2021-03-25T09:56:35.000Z</time>
      </trkpt>
      <trkpt lat="47.32141" lon="-2.48926">
        <ele>37.400001525879</ele>
        <time>2021-03-25T09:56:36.000Z</time>
      </trkpt>
      <trkpt lat="47.32136" lon="-2.48957">
        <ele>37.400001525879</ele>
        <time>2021-03-25T09:56:39.000Z</time>
      </trkpt>
      <trkpt lat="47.32137" lon="-2.48977">
        <ele>37.400001525879</ele>
        <time>2021-03-25T09:56:41.000Z</time>
      </trkpt>
      <trkpt lat="47.32139" lon="-2.48994">
        <ele>37.400001525879</ele>
        <time>2021-03-25T09:56:43.000Z</time>
      </trkpt>
      <trkpt lat="47.3214" lon="-2.49017">
        <ele>37.400001525879</ele>
        <time>2021-03-25T09:56:47.000Z</time>
      </trkpt>
      <trkpt lat="47.32141" lon="-2.4902">
        <ele>37</ele>
        <time>2021-03-25T09:56:48.000Z</time>
      </trkpt>
      <trkpt lat="47.32144" lon="-2.49022">
        <ele>36.599998474121</ele>
        <time>2021-03-25T09:56:49.000Z</time>
      </trkpt>
      <trkpt lat="47.32148" lon="-2.49023">
        <ele>36.200000762939</ele>
        <time>2021-03-25T09:56:50.000Z</time>
      </trkpt>
      <trkpt lat="47.32152" lon="-2.49024">
        <ele>35.799999237061</ele>
        <time>2021-03-25T09:56:51.000Z</time>
      </trkpt>
      <trkpt lat="47.32156" lon="-2.49026">
        <ele>35.400001525879</ele>
        <time>2021-03-25T09:56:52.000Z</time>
      </trkpt>
      <trkpt lat="47.3217" lon="-2.49032">
        <ele>35.400001525879</ele>
        <time>2021-03-25T09:56:55.000Z</time>
      </trkpt>
      <trkpt lat="47.32199" lon="-2.49039">
        <ele>35.400001525879</ele>
        <time>2021-03-25T09:57:00.000Z</time>
      </trkpt>
      <trkpt lat="47.32204" lon="-2.49038">
        <ele>35.400001525879</ele>
        <time>2021-03-25T09:57:01.000Z</time>
      </trkpt>
      <trkpt lat="47.32213" lon="-2.49035">
        <ele>35.400001525879</ele>
        <time>2021-03-25T09:57:03.000Z</time>
      </trkpt>
      <trkpt lat="47.32216" lon="-2.49037">
        <ele>35.400001525879</ele>
        <time>2021-03-25T09:57:04.000Z</time>
      </trkpt>
      <trkpt lat="47.32225" lon="-2.49044">
        <ele>35.400001525879</ele>
        <time>2021-03-25T09:57:06.000Z</time>
      </trkpt>
      <trkpt lat="47.32237" lon="-2.4905">
        <ele>35.400001525879</ele>
        <time>2021-03-25T09:57:08.000Z</time>
      </trkpt>
      <trkpt lat="47.32249" lon="-2.49052">
        <ele>35.400001525879</ele>
        <time>2021-03-25T09:57:10.000Z</time>
      </trkpt>
      <trkpt lat="47.32267" lon="-2.49053">
        <ele>35.400001525879</ele>
        <time>2021-03-25T09:57:13.000Z</time>
      </trkpt>
      <trkpt lat="47.32299" lon="-2.49057">
        <ele>35.400001525879</ele>
        <time>2021-03-25T09:57:18.000Z</time>
      </trkpt>
      <trkpt lat="47.32305" lon="-2.4906">
        <ele>35.400001525879</ele>
        <time>2021-03-25T09:57:19.000Z</time>
      </trkpt>
      <trkpt lat="47.32328" lon="-2.49071">
        <ele>35.400001525879</ele>
        <time>2021-03-25T09:57:23.000Z</time>
      </trkpt>
      <trkpt lat="47.32338" lon="-2.49073">
        <ele>35.400001525879</ele>
        <time>2021-03-25T09:57:25.000Z</time>
      </trkpt>
      <trkpt lat="47.32357" lon="-2.49083">
        <ele>35.400001525879</ele>
        <time>2021-03-25T09:57:29.000Z</time>
      </trkpt>
      <trkpt lat="47.3236" lon="-2.4909">
        <ele>35.400001525879</ele>
        <time>2021-03-25T09:57:30.000Z</time>
      </trkpt>
      <trkpt lat="47.32367" lon="-2.49113">
        <ele>35.400001525879</ele>
        <time>2021-03-25T09:57:33.000Z</time>
      </trkpt>
      <trkpt lat="47.32369" lon="-2.4912">
        <ele>35.400001525879</ele>
        <time>2021-03-25T09:57:34.000Z</time>
      </trkpt>
      <trkpt lat="47.32371" lon="-2.49127">
        <ele>35.400001525879</ele>
        <time>2021-03-25T09:57:35.000Z</time>
      </trkpt>
      <trkpt lat="47.32381" lon="-2.49144">
        <ele>35.400001525879</ele>
        <time>2021-03-25T09:57:38.000Z</time>
      </trkpt>
      <trkpt lat="47.32384" lon="-2.49148">
        <ele>35.400001525879</ele>
        <time>2021-03-25T09:57:39.000Z</time>
      </trkpt>
      <trkpt lat="47.32393" lon="-2.49151">
        <ele>35.400001525879</ele>
        <time>2021-03-25T09:57:41.000Z</time>
      </trkpt>
      <trkpt lat="47.32414" lon="-2.49149">
        <ele>35.400001525879</ele>
        <time>2021-03-25T09:57:45.000Z</time>
      </trkpt>
      <trkpt lat="47.32424" lon="-2.49144">
        <ele>35.400001525879</ele>
        <time>2021-03-25T09:57:47.000Z</time>
      </trkpt>
      <trkpt lat="47.32443" lon="-2.49134">
        <ele>35.400001525879</ele>
        <time>2021-03-25T09:57:51.000Z</time>
      </trkpt>
      <trkpt lat="47.32463" lon="-2.49139">
        <ele>35.400001525879</ele>
        <time>2021-03-25T09:57:55.000Z</time>
      </trkpt>
      <trkpt lat="47.32475" lon="-2.49157">
        <ele>35.400001525879</ele>
        <time>2021-03-25T09:57:58.000Z</time>
      </trkpt>
      <trkpt lat="47.32478" lon="-2.49164">
        <ele>35.400001525879</ele>
        <time>2021-03-25T09:57:59.000Z</time>
      </trkpt>
      <trkpt lat="47.32484" lon="-2.4918">
        <ele>35.400001525879</ele>
        <time>2021-03-25T09:58:01.000Z</time>
      </trkpt>
      <trkpt lat="47.32489" lon="-2.49204">
        <ele>35.400001525879</ele>
        <time>2021-03-25T09:58:04.000Z</time>
      </trkpt>
      <trkpt lat="47.32501" lon="-2.49218">
        <ele>35.400001525879</ele>
        <time>2021-03-25T09:58:07.000Z</time>
      </trkpt>
      <trkpt lat="47.32516" lon="-2.49216">
        <ele>35.400001525879</ele>
        <time>2021-03-25T09:58:10.000Z</time>
      </trkpt>
      <trkpt lat="47.32525" lon="-2.49205">
        <ele>35.400001525879</ele>
        <time>2021-03-25T09:58:13.000Z</time>
      </trkpt>
      <trkpt lat="47.32536" lon="-2.49204">
        <ele>35.400001525879</ele>
        <time>2021-03-25T09:58:16.000Z</time>
      </trkpt>
      <trkpt lat="47.32547" lon="-2.49217">
        <ele>35.400001525879</ele>
        <time>2021-03-25T09:58:19.000Z</time>
      </trkpt>
      <trkpt lat="47.32551" lon="-2.49222">
        <ele>35.400001525879</ele>
        <time>2021-03-25T09:58:20.000Z</time>
      </trkpt>
      <trkpt lat="47.32565" lon="-2.49236">
        <ele>35.400001525879</ele>
        <time>2021-03-25T09:58:23.000Z</time>
      </trkpt>
      <trkpt lat="47.3257" lon="-2.49241">
        <ele>35.400001525879</ele>
        <time>2021-03-25T09:58:24.000Z</time>
      </trkpt>
      <trkpt lat="47.32587" lon="-2.49244">
        <ele>35.400001525879</ele>
        <time>2021-03-25T09:58:27.000Z</time>
      </trkpt>
      <trkpt lat="47.32597" lon="-2.49239">
        <ele>35.400001525879</ele>
        <time>2021-03-25T09:58:29.000Z</time>
      </trkpt>
      <trkpt lat="47.32602" lon="-2.49235">
        <ele>35.400001525879</ele>
        <time>2021-03-25T09:58:30.000Z</time>
      </trkpt>
      <trkpt lat="47.32606" lon="-2.49231">
        <ele>35.400001525879</ele>
        <time>2021-03-25T09:58:31.000Z</time>
      </trkpt>
      <trkpt lat="47.32611" lon="-2.49228">
        <ele>35.400001525879</ele>
        <time>2021-03-25T09:58:32.000Z</time>
      </trkpt>
      <trkpt lat="47.32618" lon="-2.4923">
        <ele>35.400001525879</ele>
        <time>2021-03-25T09:58:34.000Z</time>
      </trkpt>
      <trkpt lat="47.32622" lon="-2.49241">
        <ele>35.400001525879</ele>
        <time>2021-03-25T09:58:36.000Z</time>
      </trkpt>
      <trkpt lat="47.32624" lon="-2.49247">
        <ele>35.400001525879</ele>
        <time>2021-03-25T09:58:37.000Z</time>
      </trkpt>
      <trkpt lat="47.32631" lon="-2.49261">
        <ele>35.400001525879</ele>
        <time>2021-03-25T09:58:39.000Z</time>
      </trkpt>
      <trkpt lat="47.32639" lon="-2.49282">
        <ele>35.400001525879</ele>
        <time>2021-03-25T09:58:42.000Z</time>
      </trkpt>
      <trkpt lat="47.32643" lon="-2.49289">
        <ele>35.400001525879</ele>
        <time>2021-03-25T09:58:43.000Z</time>
      </trkpt>
      <trkpt lat="47.32655" lon="-2.49307">
        <ele>35.400001525879</ele>
        <time>2021-03-25T09:58:46.000Z</time>
      </trkpt>
      <trkpt lat="47.3266" lon="-2.49333">
        <ele>35.400001525879</ele>
        <time>2021-03-25T09:58:49.000Z</time>
      </trkpt>
      <trkpt lat="47.32666" lon="-2.49359">
        <ele>35.400001525879</ele>
        <time>2021-03-25T09:58:52.000Z</time>
      </trkpt>
      <trkpt lat="47.32673" lon="-2.49374">
        <ele>35.400001525879</ele>
        <time>2021-03-25T09:58:54.000Z</time>
      </trkpt>
      <trkpt lat="47.32694" lon="-2.49396">
        <ele>35.400001525879</ele>
        <time>2021-03-25T09:58:58.000Z</time>
      </trkpt>
      <trkpt lat="47.32705" lon="-2.49402">
        <ele>35.400001525879</ele>
        <time>2021-03-25T09:59:00.000Z</time>
      </trkpt>
      <trkpt lat="47.32716" lon="-2.49408">
        <ele>35.400001525879</ele>
        <time>2021-03-25T09:59:02.000Z</time>
      </trkpt>
      <trkpt lat="47.32738" lon="-2.49423">
        <ele>35.400001525879</ele>
        <time>2021-03-25T09:59:06.000Z</time>
      </trkpt>
      <trkpt lat="47.32776" lon="-2.49444">
        <ele>35.400001525879</ele>
        <time>2021-03-25T09:59:12.000Z</time>
      </trkpt>
      <trkpt lat="47.32782" lon="-2.49446">
        <ele>35.400001525879</ele>
        <time>2021-03-25T09:59:13.000Z</time>
      </trkpt>
      <trkpt lat="47.32798" lon="-2.49458">
        <ele>35.400001525879</ele>
        <time>2021-03-25T09:59:16.000Z</time>
      </trkpt>
      <trkpt lat="47.32812" lon="-2.49491">
        <ele>35.400001525879</ele>
        <time>2021-03-25T09:59:20.000Z</time>
      </trkpt>
      <trkpt lat="47.32825" lon="-2.49523">
        <ele>35.400001525879</ele>
        <time>2021-03-25T09:59:24.000Z</time>
      </trkpt>
      <trkpt lat="47.32829" lon="-2.49529">
        <ele>35.400001525879</ele>
        <time>2021-03-25T09:59:25.000Z</time>
      </trkpt>
      <trkpt lat="47.32857" lon="-2.49569">
        <ele>35.400001525879</ele>
        <time>2021-03-25T09:59:32.000Z</time>
      </trkpt>
      <trkpt lat="47.32861" lon="-2.49575">
        <ele>35.400001525879</ele>
        <time>2021-03-25T09:59:33.000Z</time>
      </trkpt>
      <trkpt lat="47.32871" lon="-2.49586">
        <ele>35.400001525879</ele>
        <time>2021-03-25T09:59:35.000Z</time>
      </trkpt>
      <trkpt lat="47.32876" lon="-2.4959">
        <ele>35.400001525879</ele>
        <time>2021-03-25T09:59:36.000Z</time>
      </trkpt>
      <trkpt lat="47.32895" lon="-2.49595">
        <ele>35.400001525879</ele>
        <time>2021-03-25T09:59:39.000Z</time>
      </trkpt>
      <trkpt lat="47.32932" lon="-2.49602">
        <ele>35.400001525879</ele>
        <time>2021-03-25T09:59:45.000Z</time>
      </trkpt>
      <trkpt lat="47.32943" lon="-2.49605">
        <ele>35.400001525879</ele>
        <time>2021-03-25T09:59:47.000Z</time>
      </trkpt>
      <trkpt lat="47.32952" lon="-2.49613">
        <ele>35.400001525879</ele>
        <time>2021-03-25T09:59:49.000Z</time>
      </trkpt>
      <trkpt lat="47.32959" lon="-2.49624">
        <ele>35.400001525879</ele>
        <time>2021-03-25T09:59:51.000Z</time>
      </trkpt>
      <trkpt lat="47.32964" lon="-2.49633">
        <ele>35.400001525879</ele>
        <time>2021-03-25T09:59:53.000Z</time>
      </trkpt>
      <trkpt lat="47.32972" lon="-2.4964">
        <ele>35.400001525879</ele>
        <time>2021-03-25T09:59:57.000Z</time>
      </trkpt>
      <trkpt lat="47.32974" lon="-2.49642">
        <ele>35.400001525879</ele>
        <time>2021-03-25T09:59:58.000Z</time>
      </trkpt>
      <trkpt lat="47.32973" lon="-2.4965">
        <ele>35.400001525879</ele>
        <time>2021-03-25T10:00:01.000Z</time>
      </trkpt>
      <trkpt lat="47.32971" lon="-2.49654">
        <ele>35.400001525879</ele>
        <time>2021-03-25T10:00:02.000Z</time>
      </trkpt>
      <trkpt lat="47.32966" lon="-2.4967">
        <ele>35.400001525879</ele>
        <time>2021-03-25T10:00:05.000Z</time>
      </trkpt>
      <trkpt lat="47.32948" lon="-2.49713">
        <ele>35.400001525879</ele>
        <time>2021-03-25T10:00:13.000Z</time>
      </trkpt>
      <trkpt lat="47.32937" lon="-2.49735">
        <ele>35.400001525879</ele>
        <time>2021-03-25T10:00:18.000Z</time>
      </trkpt>
      <trkpt lat="47.32922" lon="-2.49741">
        <ele>35.400001525879</ele>
        <time>2021-03-25T10:00:22.000Z</time>
      </trkpt>
      <trkpt lat="47.32918" lon="-2.49741">
        <ele>35.400001525879</ele>
        <time>2021-03-25T10:00:23.000Z</time>
      </trkpt>
      <trkpt lat="47.32913" lon="-2.49742">
        <ele>35.400001525879</ele>
        <time>2021-03-25T10:00:24.000Z</time>
      </trkpt>
      <trkpt lat="47.32903" lon="-2.49747">
        <ele>35.400001525879</ele>
        <time>2021-03-25T10:00:27.000Z</time>
      </trkpt>
      <trkpt lat="47.32886" lon="-2.49758">
        <ele>35.400001525879</ele>
        <time>2021-03-25T10:00:32.000Z</time>
      </trkpt>
      <trkpt lat="47.32867" lon="-2.49765">
        <ele>35.400001525879</ele>
        <time>2021-03-25T10:00:38.000Z</time>
      </trkpt>
      <trkpt lat="47.32847" lon="-2.49765">
        <ele>35.400001525879</ele>
        <time>2021-03-25T10:00:44.000Z</time>
      </trkpt>
      <trkpt lat="47.32829" lon="-2.4976">
        <ele>35.400001525879</ele>
        <time>2021-03-25T10:00:49.000Z</time>
      </trkpt>
      <trkpt lat="47.32808" lon="-2.49758">
        <ele>35.400001525879</ele>
        <time>2021-03-25T10:00:55.000Z</time>
      </trkpt>
      <trkpt lat="47.32788" lon="-2.49757">
        <ele>35.400001525879</ele>
        <time>2021-03-25T10:01:01.000Z</time>
      </trkpt>
      <trkpt lat="47.32769" lon="-2.49752">
        <ele>35.400001525879</ele>
        <time>2021-03-25T10:01:06.000Z</time>
      </trkpt>
      <trkpt lat="47.32751" lon="-2.49747">
        <ele>35.400001525879</ele>
        <time>2021-03-25T10:01:10.000Z</time>
      </trkpt>
      <trkpt lat="47.32742" lon="-2.49747">
        <ele>35.400001525879</ele>
        <time>2021-03-25T10:01:12.000Z</time>
      </trkpt>
      <trkpt lat="47.32737" lon="-2.49746">
        <ele>35.799999237061</ele>
        <time>2021-03-25T10:01:13.000Z</time>
      </trkpt>
      <trkpt lat="47.32732" lon="-2.49745">
        <ele>36.200000762939</ele>
        <time>2021-03-25T10:01:14.000Z</time>
      </trkpt>
      <trkpt lat="47.32727" lon="-2.49744">
        <ele>36.599998474121</ele>
        <time>2021-03-25T10:01:15.000Z</time>
      </trkpt>
      <trkpt lat="47.32723" lon="-2.49742">
        <ele>37</ele>
        <time>2021-03-25T10:01:16.000Z</time>
      </trkpt>
      <trkpt lat="47.32718" lon="-2.4974">
        <ele>37.400001525879</ele>
        <time>2021-03-25T10:01:17.000Z</time>
      </trkpt>
      <trkpt lat="47.32691" lon="-2.49725">
        <ele>37.400001525879</ele>
        <time>2021-03-25T10:01:23.000Z</time>
      </trkpt>
      <trkpt lat="47.32686" lon="-2.49722">
        <ele>37.400001525879</ele>
        <time>2021-03-25T10:01:24.000Z</time>
      </trkpt>
      <trkpt lat="47.32677" lon="-2.49715">
        <ele>37.400001525879</ele>
        <time>2021-03-25T10:01:26.000Z</time>
      </trkpt>
      <trkpt lat="47.32669" lon="-2.49708">
        <ele>37.400001525879</ele>
        <time>2021-03-25T10:01:28.000Z</time>
      </trkpt>
      <trkpt lat="47.3266" lon="-2.49702">
        <ele>37.400001525879</ele>
        <time>2021-03-25T10:01:30.000Z</time>
      </trkpt>
      <trkpt lat="47.32647" lon="-2.49693">
        <ele>37.400001525879</ele>
        <time>2021-03-25T10:01:33.000Z</time>
      </trkpt>
      <trkpt lat="47.32642" lon="-2.4969">
        <ele>37.400001525879</ele>
        <time>2021-03-25T10:01:34.000Z</time>
      </trkpt>
      <trkpt lat="47.32612" lon="-2.49675">
        <ele>37.799999237061</ele>
        <time>2021-03-25T10:01:40.000Z</time>
      </trkpt>
      <trkpt lat="47.32607" lon="-2.49674">
        <ele>38.200000762939</ele>
        <time>2021-03-25T10:01:41.000Z</time>
      </trkpt>
      <trkpt lat="47.32601" lon="-2.49675">
        <ele>38.599998474121</ele>
        <time>2021-03-25T10:01:42.000Z</time>
      </trkpt>
      <trkpt lat="47.32596" lon="-2.49675">
        <ele>39</ele>
        <time>2021-03-25T10:01:43.000Z</time>
      </trkpt>
      <trkpt lat="47.3259" lon="-2.49677">
        <ele>39.400001525879</ele>
        <time>2021-03-25T10:01:44.000Z</time>
      </trkpt>
      <trkpt lat="47.3258" lon="-2.49681">
        <ele>39.400001525879</ele>
        <time>2021-03-25T10:01:46.000Z</time>
      </trkpt>
      <trkpt lat="47.32567" lon="-2.49698">
        <ele>39.400001525879</ele>
        <time>2021-03-25T10:01:50.000Z</time>
      </trkpt>
      <trkpt lat="47.32563" lon="-2.4971">
        <ele>39.400001525879</ele>
        <time>2021-03-25T10:01:52.000Z</time>
      </trkpt>
      <trkpt lat="47.32558" lon="-2.49726">
        <ele>39.400001525879</ele>
        <time>2021-03-25T10:01:54.000Z</time>
      </trkpt>
      <trkpt lat="47.32544" lon="-2.49774">
        <ele>39.400001525879</ele>
        <time>2021-03-25T10:01:59.000Z</time>
      </trkpt>
      <trkpt lat="47.32539" lon="-2.49823">
        <ele>39.400001525879</ele>
        <time>2021-03-25T10:02:04.000Z</time>
      </trkpt>
      <trkpt lat="47.3254" lon="-2.49835">
        <ele>39.400001525879</ele>
        <time>2021-03-25T10:02:05.000Z</time>
      </trkpt>
      <trkpt lat="47.32541" lon="-2.49856">
        <ele>39.400001525879</ele>
        <time>2021-03-25T10:02:07.000Z</time>
      </trkpt>
      <trkpt lat="47.32537" lon="-2.49872">
        <ele>39.400001525879</ele>
        <time>2021-03-25T10:02:09.000Z</time>
      </trkpt>
      <trkpt lat="47.3253" lon="-2.49886">
        <ele>39.400001525879</ele>
        <time>2021-03-25T10:02:11.000Z</time>
      </trkpt>
      <trkpt lat="47.32526" lon="-2.49892">
        <ele>39.400001525879</ele>
        <time>2021-03-25T10:02:12.000Z</time>
      </trkpt>
      <trkpt lat="47.3252" lon="-2.49896">
        <ele>39.400001525879</ele>
        <time>2021-03-25T10:02:13.000Z</time>
      </trkpt>
      <trkpt lat="47.32498" lon="-2.49901">
        <ele>39.400001525879</ele>
        <time>2021-03-25T10:02:17.000Z</time>
      </trkpt>
      <trkpt lat="47.32476" lon="-2.49906">
        <ele>39.400001525879</ele>
        <time>2021-03-25T10:02:21.000Z</time>
      </trkpt>
      <trkpt lat="47.32471" lon="-2.49909">
        <ele>39.400001525879</ele>
        <time>2021-03-25T10:02:22.000Z</time>
      </trkpt>
      <trkpt lat="47.32461" lon="-2.49919">
        <ele>39.400001525879</ele>
        <time>2021-03-25T10:02:24.000Z</time>
      </trkpt>
      <trkpt lat="47.32452" lon="-2.49932">
        <ele>39.400001525879</ele>
        <time>2021-03-25T10:02:26.000Z</time>
      </trkpt>
      <trkpt lat="47.32443" lon="-2.49942">
        <ele>39.400001525879</ele>
        <time>2021-03-25T10:02:28.000Z</time>
      </trkpt>
      <trkpt lat="47.32432" lon="-2.49949">
        <ele>39.400001525879</ele>
        <time>2021-03-25T10:02:30.000Z</time>
      </trkpt>
      <trkpt lat="47.32422" lon="-2.49954">
        <ele>39.400001525879</ele>
        <time>2021-03-25T10:02:32.000Z</time>
      </trkpt>
      <trkpt lat="47.32406" lon="-2.4996">
        <ele>39.400001525879</ele>
        <time>2021-03-25T10:02:35.000Z</time>
      </trkpt>
      <trkpt lat="47.324" lon="-2.49961">
        <ele>39.400001525879</ele>
        <time>2021-03-25T10:02:36.000Z</time>
      </trkpt>
      <trkpt lat="47.32379" lon="-2.49954">
        <ele>39.400001525879</ele>
        <time>2021-03-25T10:02:40.000Z</time>
      </trkpt>
      <trkpt lat="47.32358" lon="-2.49949">
        <ele>39.400001525879</ele>
        <time>2021-03-25T10:02:44.000Z</time>
      </trkpt>
      <trkpt lat="47.32352" lon="-2.49949">
        <ele>39.400001525879</ele>
        <time>2021-03-25T10:02:45.000Z</time>
      </trkpt>
      <trkpt lat="47.32328" lon="-2.49947">
        <ele>39.400001525879</ele>
        <time>2021-03-25T10:02:50.000Z</time>
      </trkpt>
      <trkpt lat="47.32317" lon="-2.49938">
        <ele>39.400001525879</ele>
        <time>2021-03-25T10:02:54.000Z</time>
      </trkpt>
      <trkpt lat="47.32308" lon="-2.49929">
        <ele>39.400001525879</ele>
        <time>2021-03-25T10:02:58.000Z</time>
      </trkpt>
      <trkpt lat="47.32303" lon="-2.49913">
        <ele>39.400001525879</ele>
        <time>2021-03-25T10:03:04.000Z</time>
      </trkpt>
      <trkpt lat="47.32299" lon="-2.49894">
        <ele>39.400001525879</ele>
        <time>2021-03-25T10:03:10.000Z</time>
      </trkpt>
      <trkpt lat="47.32297" lon="-2.49862">
        <ele>39.400001525879</ele>
        <time>2021-03-25T10:03:16.000Z</time>
      </trkpt>
      <trkpt lat="47.32293" lon="-2.49806">
        <ele>39.400001525879</ele>
        <time>2021-03-25T10:03:25.000Z</time>
      </trkpt>
      <trkpt lat="47.32291" lon="-2.49767">
        <ele>39.400001525879</ele>
        <time>2021-03-25T10:03:31.000Z</time>
      </trkpt>
      <trkpt lat="47.32285" lon="-2.49718">
        <ele>39.400001525879</ele>
        <time>2021-03-25T10:03:37.000Z</time>
      </trkpt>
      <trkpt lat="47.3228" lon="-2.49684">
        <ele>39.400001525879</ele>
        <time>2021-03-25T10:03:42.000Z</time>
      </trkpt>
      <trkpt lat="47.32277" lon="-2.49667">
        <ele>39.400001525879</ele>
        <time>2021-03-25T10:03:44.000Z</time>
      </trkpt>
      <trkpt lat="47.32275" lon="-2.49651">
        <ele>39.400001525879</ele>
        <time>2021-03-25T10:03:46.000Z</time>
      </trkpt>
      <trkpt lat="47.32269" lon="-2.49584">
        <ele>39.400001525879</ele>
        <time>2021-03-25T10:03:53.000Z</time>
      </trkpt>
      <trkpt lat="47.32265" lon="-2.49539">
        <ele>39.400001525879</ele>
        <time>2021-03-25T10:03:58.000Z</time>
      </trkpt>
      <trkpt lat="47.32264" lon="-2.49507">
        <ele>39.400001525879</ele>
        <time>2021-03-25T10:04:02.000Z</time>
      </trkpt>
      <trkpt lat="47.32264" lon="-2.495">
        <ele>39.400001525879</ele>
        <time>2021-03-25T10:04:03.000Z</time>
      </trkpt>
      <trkpt lat="47.3226" lon="-2.49471">
        <ele>39.400001525879</ele>
        <time>2021-03-25T10:04:07.000Z</time>
      </trkpt>
      <trkpt lat="47.32251" lon="-2.4946">
        <ele>39.400001525879</ele>
        <time>2021-03-25T10:04:10.000Z</time>
      </trkpt>
      <trkpt lat="47.32246" lon="-2.49456">
        <ele>39.400001525879</ele>
        <time>2021-03-25T10:04:11.000Z</time>
      </trkpt>
      <trkpt lat="47.32233" lon="-2.49443">
        <ele>39.400001525879</ele>
        <time>2021-03-25T10:04:14.000Z</time>
      </trkpt>
      <trkpt lat="47.32224" lon="-2.4943">
        <ele>39.400001525879</ele>
        <time>2021-03-25T10:04:16.000Z</time>
      </trkpt>
      <trkpt lat="47.32214" lon="-2.49417">
        <ele>39.400001525879</ele>
        <time>2021-03-25T10:04:18.000Z</time>
      </trkpt>
      <trkpt lat="47.32188" lon="-2.4938">
        <ele>39.400001525879</ele>
        <time>2021-03-25T10:04:24.000Z</time>
      </trkpt>
      <trkpt lat="47.32161" lon="-2.49349">
        <ele>39.400001525879</ele>
        <time>2021-03-25T10:04:30.000Z</time>
      </trkpt>
      <trkpt lat="47.32135" lon="-2.49335">
        <ele>39.400001525879</ele>
        <time>2021-03-25T10:04:35.000Z</time>
      </trkpt>
      <trkpt lat="47.32106" lon="-2.49319">
        <ele>39.400001525879</ele>
        <time>2021-03-25T10:04:41.000Z</time>
      </trkpt>
      <trkpt lat="47.32102" lon="-2.49317">
        <ele>39.400001525879</ele>
        <time>2021-03-25T10:04:42.000Z</time>
      </trkpt>
      <trkpt lat="47.32086" lon="-2.49307">
        <ele>39.400001525879</ele>
        <time>2021-03-25T10:04:46.000Z</time>
      </trkpt>
      <trkpt lat="47.32076" lon="-2.4929">
        <ele>39.400001525879</ele>
        <time>2021-03-25T10:04:51.000Z</time>
      </trkpt>
      <trkpt lat="47.32074" lon="-2.49284">
        <ele>39</ele>
        <time>2021-03-25T10:04:53.000Z</time>
      </trkpt>
      <trkpt lat="47.32072" lon="-2.4928">
        <ele>38.599998474121</ele>
        <time>2021-03-25T10:04:54.000Z</time>
      </trkpt>
      <trkpt lat="47.3207" lon="-2.49276">
        <ele>38.200000762939</ele>
        <time>2021-03-25T10:04:55.000Z</time>
      </trkpt>
      <trkpt lat="47.32069" lon="-2.49272">
        <ele>37.799999237061</ele>
        <time>2021-03-25T10:04:56.000Z</time>
      </trkpt>
      <trkpt lat="47.32069" lon="-2.49268">
        <ele>37.400001525879</ele>
        <time>2021-03-25T10:04:57.000Z</time>
      </trkpt>
      <trkpt lat="47.32065" lon="-2.49259">
        <ele>37.400001525879</ele>
        <time>2021-03-25T10:05:00.000Z</time>
      </trkpt>
      <trkpt lat="47.32063" lon="-2.49259">
        <ele>37.400001525879</ele>
        <time>2021-03-25T10:05:01.000Z</time>
      </trkpt>
      <trkpt lat="47.32056" lon="-2.49267">
        <ele>37.400001525879</ele>
        <time>2021-03-25T10:05:04.000Z</time>
      </trkpt>
      <trkpt lat="47.32046" lon="-2.49272">
        <ele>37.400001525879</ele>
        <time>2021-03-25T10:05:08.000Z</time>
      </trkpt>
      <trkpt lat="47.32038" lon="-2.49279">
        <ele>37.400001525879</ele>
        <time>2021-03-25T10:05:13.000Z</time>
      </trkpt>
      <trkpt lat="47.32029" lon="-2.49288">
        <ele>37.400001525879</ele>
        <time>2021-03-25T10:05:20.000Z</time>
      </trkpt>
      <trkpt lat="47.3202" lon="-2.49297">
        <ele>37.400001525879</ele>
        <time>2021-03-25T10:05:25.000Z</time>
      </trkpt>
      <trkpt lat="47.32016" lon="-2.49304">
        <ele>37.400001525879</ele>
        <time>2021-03-25T10:05:28.000Z</time>
      </trkpt>
      <trkpt lat="47.32014" lon="-2.49309">
        <ele>37.400001525879</ele>
        <time>2021-03-25T10:05:30.000Z</time>
      </trkpt>
      <trkpt lat="47.32008" lon="-2.49315">
        <ele>37.400001525879</ele>
        <time>2021-03-25T10:05:34.000Z</time>
      </trkpt>
      <trkpt lat="47.32001" lon="-2.4932">
        <ele>37.400001525879</ele>
        <time>2021-03-25T10:05:39.000Z</time>
      </trkpt>
      <trkpt lat="47.31995" lon="-2.49322">
        <ele>37.400001525879</ele>
        <time>2021-03-25T10:05:41.000Z</time>
      </trkpt>
      <trkpt lat="47.31984" lon="-2.49324">
        <ele>37.400001525879</ele>
        <time>2021-03-25T10:05:46.000Z</time>
      </trkpt>
      <trkpt lat="47.3197" lon="-2.49325">
        <ele>37.400001525879</ele>
        <time>2021-03-25T10:05:51.000Z</time>
      </trkpt>
      <trkpt lat="47.31956" lon="-2.49329">
        <ele>37.400001525879</ele>
        <time>2021-03-25T10:05:55.000Z</time>
      </trkpt>
      <trkpt lat="47.31952" lon="-2.49334">
        <ele>37.400001525879</ele>
        <time>2021-03-25T10:05:56.000Z</time>
      </trkpt>
      <trkpt lat="47.31935" lon="-2.49357">
        <ele>37.400001525879</ele>
        <time>2021-03-25T10:06:01.000Z</time>
      </trkpt>
      <trkpt lat="47.31933" lon="-2.49361">
        <ele>37.400001525879</ele>
        <time>2021-03-25T10:06:02.000Z</time>
      </trkpt>
      <trkpt lat="47.31921" lon="-2.49385">
        <ele>37.400001525879</ele>
        <time>2021-03-25T10:06:08.000Z</time>
      </trkpt>
      <trkpt lat="47.31903" lon="-2.49415">
        <ele>37.400001525879</ele>
        <time>2021-03-25T10:06:16.000Z</time>
      </trkpt>
      <trkpt lat="47.31887" lon="-2.49439">
        <ele>37.400001525879</ele>
        <time>2021-03-25T10:06:23.000Z</time>
      </trkpt>
      <trkpt lat="47.31867" lon="-2.49471">
        <ele>37.400001525879</ele>
        <time>2021-03-25T10:06:30.000Z</time>
      </trkpt>
      <trkpt lat="47.31847" lon="-2.49498">
        <ele>37.400001525879</ele>
        <time>2021-03-25T10:06:37.000Z</time>
      </trkpt>
      <trkpt lat="47.31825" lon="-2.49531">
        <ele>37.400001525879</ele>
        <time>2021-03-25T10:06:44.000Z</time>
      </trkpt>
      <trkpt lat="47.31799" lon="-2.49574">
        <ele>37.400001525879</ele>
        <time>2021-03-25T10:06:52.000Z</time>
      </trkpt>
      <trkpt lat="47.31788" lon="-2.4959">
        <ele>37.400001525879</ele>
        <time>2021-03-25T10:06:55.000Z</time>
      </trkpt>
      <trkpt lat="47.31771" lon="-2.49616">
        <ele>37.400001525879</ele>
        <time>2021-03-25T10:06:59.000Z</time>
      </trkpt>
      <trkpt lat="47.31763" lon="-2.49629">
        <ele>37.799999237061</ele>
        <time>2021-03-25T10:07:01.000Z</time>
      </trkpt>
      <trkpt lat="47.31759" lon="-2.49635">
        <ele>38.200000762939</ele>
        <time>2021-03-25T10:07:02.000Z</time>
      </trkpt>
      <trkpt lat="47.31755" lon="-2.49641">
        <ele>38.599998474121</ele>
        <time>2021-03-25T10:07:03.000Z</time>
      </trkpt>
      <trkpt lat="47.3175" lon="-2.49647">
        <ele>39</ele>
        <time>2021-03-25T10:07:04.000Z</time>
      </trkpt>
      <trkpt lat="47.31746" lon="-2.49653">
        <ele>39.400001525879</ele>
        <time>2021-03-25T10:07:05.000Z</time>
      </trkpt>
      <trkpt lat="47.31738" lon="-2.49665">
        <ele>39.400001525879</ele>
        <time>2021-03-25T10:07:07.000Z</time>
      </trkpt>
      <trkpt lat="47.31709" lon="-2.4971">
        <ele>39.400001525879</ele>
        <time>2021-03-25T10:07:14.000Z</time>
      </trkpt>
      <trkpt lat="47.31682" lon="-2.49751">
        <ele>39.400001525879</ele>
        <time>2021-03-25T10:07:20.000Z</time>
      </trkpt>
      <trkpt lat="47.31678" lon="-2.49757">
        <ele>39.400001525879</ele>
        <time>2021-03-25T10:07:21.000Z</time>
      </trkpt>
      <trkpt lat="47.31648" lon="-2.498">
        <ele>39.400001525879</ele>
        <time>2021-03-25T10:07:28.000Z</time>
      </trkpt>
      <trkpt lat="47.31616" lon="-2.4985">
        <ele>39.400001525879</ele>
        <time>2021-03-25T10:07:36.000Z</time>
      </trkpt>
      <trkpt lat="47.3159" lon="-2.49891">
        <ele>39.400001525879</ele>
        <time>2021-03-25T10:07:43.000Z</time>
      </trkpt>
      <trkpt lat="47.31565" lon="-2.49929">
        <ele>39.400001525879</ele>
        <time>2021-03-25T10:07:50.000Z</time>
      </trkpt>
      <trkpt lat="47.31539" lon="-2.49969">
        <ele>39.400001525879</ele>
        <time>2021-03-25T10:07:56.000Z</time>
      </trkpt>
      <trkpt lat="47.31502" lon="-2.50022">
        <ele>39.400001525879</ele>
        <time>2021-03-25T10:08:04.000Z</time>
      </trkpt>
      <trkpt lat="47.31469" lon="-2.5007">
        <ele>39.400001525879</ele>
        <time>2021-03-25T10:08:11.000Z</time>
      </trkpt>
      <trkpt lat="47.31442" lon="-2.5011">
        <ele>39.400001525879</ele>
        <time>2021-03-25T10:08:17.000Z</time>
      </trkpt>
      <trkpt lat="47.31406" lon="-2.50162">
        <ele>39.400001525879</ele>
        <time>2021-03-25T10:08:25.000Z</time>
      </trkpt>
      <trkpt lat="47.31376" lon="-2.50209">
        <ele>39.400001525879</ele>
        <time>2021-03-25T10:08:33.000Z</time>
      </trkpt>
      <trkpt lat="47.31372" lon="-2.50215">
        <ele>39</ele>
        <time>2021-03-25T10:08:35.000Z</time>
      </trkpt>
      <trkpt lat="47.3137" lon="-2.50218">
        <ele>38.599998474121</ele>
        <time>2021-03-25T10:08:36.000Z</time>
      </trkpt>
      <trkpt lat="47.31368" lon="-2.5022">
        <ele>38.200000762939</ele>
        <time>2021-03-25T10:08:37.000Z</time>
      </trkpt>
      <trkpt lat="47.31366" lon="-2.50222">
        <ele>37.599998474121</ele>
        <time>2021-03-25T10:08:38.000Z</time>
      </trkpt>
      <trkpt lat="47.31364" lon="-2.50224">
        <ele>37.200000762939</ele>
        <time>2021-03-25T10:08:39.000Z</time>
      </trkpt>
      <trkpt lat="47.31356" lon="-2.50226">
        <ele>37.200000762939</ele>
        <time>2021-03-25T10:08:42.000Z</time>
      </trkpt>
      <trkpt lat="47.31341" lon="-2.50232">
        <ele>37.200000762939</ele>
        <time>2021-03-25T10:08:46.000Z</time>
      </trkpt>
      <trkpt lat="47.31332" lon="-2.50235">
        <ele>37.200000762939</ele>
        <time>2021-03-25T10:08:48.000Z</time>
      </trkpt>
      <trkpt lat="47.31327" lon="-2.50238">
        <ele>37.200000762939</ele>
        <time>2021-03-25T10:08:49.000Z</time>
      </trkpt>
      <trkpt lat="47.31318" lon="-2.50249">
        <ele>37.200000762939</ele>
        <time>2021-03-25T10:08:52.000Z</time>
      </trkpt>
      <trkpt lat="47.31313" lon="-2.50255">
        <ele>37.200000762939</ele>
        <time>2021-03-25T10:08:54.000Z</time>
      </trkpt>
      <trkpt lat="47.31306" lon="-2.50263">
        <ele>37.200000762939</ele>
        <time>2021-03-25T10:08:57.000Z</time>
      </trkpt>
      <trkpt lat="47.31289" lon="-2.50278">
        <ele>37.200000762939</ele>
        <time>2021-03-25T10:09:02.000Z</time>
      </trkpt>
      <trkpt lat="47.31271" lon="-2.50299">
        <ele>37.200000762939</ele>
        <time>2021-03-25T10:09:08.000Z</time>
      </trkpt>
      <trkpt lat="47.31263" lon="-2.50327">
        <ele>37.200000762939</ele>
        <time>2021-03-25T10:09:13.000Z</time>
      </trkpt>
      <trkpt lat="47.31254" lon="-2.50347">
        <ele>37.200000762939</ele>
        <time>2021-03-25T10:09:18.000Z</time>
      </trkpt>
      <trkpt lat="47.31237" lon="-2.50365">
        <ele>37.200000762939</ele>
        <time>2021-03-25T10:09:24.000Z</time>
      </trkpt>
      <trkpt lat="47.31216" lon="-2.50382">
        <ele>37.200000762939</ele>
        <time>2021-03-25T10:09:30.000Z</time>
      </trkpt>
      <trkpt lat="47.31195" lon="-2.50413">
        <ele>37.200000762939</ele>
        <time>2021-03-25T10:09:36.000Z</time>
      </trkpt>
      <trkpt lat="47.31165" lon="-2.50439">
        <ele>37.200000762939</ele>
        <time>2021-03-25T10:09:43.000Z</time>
      </trkpt>
      <trkpt lat="47.31156" lon="-2.50445">
        <ele>37.200000762939</ele>
        <time>2021-03-25T10:09:45.000Z</time>
      </trkpt>
      <trkpt lat="47.31141" lon="-2.50449">
        <ele>37.200000762939</ele>
        <time>2021-03-25T10:09:48.000Z</time>
      </trkpt>
      <trkpt lat="47.31112" lon="-2.50453">
        <ele>37.200000762939</ele>
        <time>2021-03-25T10:09:53.000Z</time>
      </trkpt>
      <trkpt lat="47.31107" lon="-2.50452">
        <ele>37.200000762939</ele>
        <time>2021-03-25T10:09:54.000Z</time>
      </trkpt>
      <trkpt lat="47.3108" lon="-2.50438">
        <ele>37.200000762939</ele>
        <time>2021-03-25T10:09:59.000Z</time>
      </trkpt>
      <trkpt lat="47.31064" lon="-2.5043">
        <ele>37.200000762939</ele>
        <time>2021-03-25T10:10:02.000Z</time>
      </trkpt>
      <trkpt lat="47.31058" lon="-2.50429">
        <ele>37.200000762939</ele>
        <time>2021-03-25T10:10:03.000Z</time>
      </trkpt>
      <trkpt lat="47.31053" lon="-2.50427">
        <ele>37.200000762939</ele>
        <time>2021-03-25T10:10:04.000Z</time>
      </trkpt>
      <trkpt lat="47.31014" lon="-2.50413">
        <ele>37.200000762939</ele>
        <time>2021-03-25T10:10:11.000Z</time>
      </trkpt>
      <trkpt lat="47.30976" lon="-2.50398">
        <ele>37.200000762939</ele>
        <time>2021-03-25T10:10:18.000Z</time>
      </trkpt>
      <trkpt lat="47.30971" lon="-2.50399">
        <ele>37.200000762939</ele>
        <time>2021-03-25T10:10:19.000Z</time>
      </trkpt>
      <trkpt lat="47.30956" lon="-2.50389">
        <ele>37.200000762939</ele>
        <time>2021-03-25T10:10:22.000Z</time>
      </trkpt>
      <trkpt lat="47.30952" lon="-2.50385">
        <ele>37.200000762939</ele>
        <time>2021-03-25T10:10:23.000Z</time>
      </trkpt>
      <trkpt lat="47.30947" lon="-2.50383">
        <ele>37.200000762939</ele>
        <time>2021-03-25T10:10:24.000Z</time>
      </trkpt>
      <trkpt lat="47.30934" lon="-2.5037">
        <ele>37.200000762939</ele>
        <time>2021-03-25T10:10:27.000Z</time>
      </trkpt>
      <trkpt lat="47.3093" lon="-2.50368">
        <ele>37.200000762939</ele>
        <time>2021-03-25T10:10:28.000Z</time>
      </trkpt>
      <trkpt lat="47.3092" lon="-2.50359">
        <ele>37.200000762939</ele>
        <time>2021-03-25T10:10:31.000Z</time>
      </trkpt>
      <trkpt lat="47.30912" lon="-2.50354">
        <ele>37.200000762939</ele>
        <time>2021-03-25T10:10:33.000Z</time>
      </trkpt>
      <trkpt lat="47.30899" lon="-2.50354">
        <ele>37.200000762939</ele>
        <time>2021-03-25T10:10:36.000Z</time>
      </trkpt>
      <trkpt lat="47.30895" lon="-2.50356">
        <ele>37.200000762939</ele>
        <time>2021-03-25T10:10:37.000Z</time>
      </trkpt>
      <trkpt lat="47.3089" lon="-2.50365">
        <ele>37.200000762939</ele>
        <time>2021-03-25T10:10:39.000Z</time>
      </trkpt>
      <trkpt lat="47.30891" lon="-2.5037">
        <ele>37.200000762939</ele>
        <time>2021-03-25T10:10:40.000Z</time>
      </trkpt>
      <trkpt lat="47.30895" lon="-2.50377">
        <ele>37.200000762939</ele>
        <time>2021-03-25T10:10:42.000Z</time>
      </trkpt>
      <trkpt lat="47.30899" lon="-2.50383">
        <ele>37.200000762939</ele>
        <time>2021-03-25T10:10:44.000Z</time>
      </trkpt>
      <trkpt lat="47.30908" lon="-2.50389">
        <ele>37.200000762939</ele>
        <time>2021-03-25T10:10:47.000Z</time>
      </trkpt>
      <trkpt lat="47.30927" lon="-2.50394">
        <ele>37.200000762939</ele>
        <time>2021-03-25T10:10:52.000Z</time>
      </trkpt>
      <trkpt lat="47.3094" lon="-2.50412">
        <ele>37.200000762939</ele>
        <time>2021-03-25T10:10:55.000Z</time>
      </trkpt>
      <trkpt lat="47.30949" lon="-2.5042">
        <ele>37.200000762939</ele>
        <time>2021-03-25T10:10:57.000Z</time>
      </trkpt>
      <trkpt lat="47.30958" lon="-2.5043">
        <ele>37.200000762939</ele>
        <time>2021-03-25T10:10:59.000Z</time>
      </trkpt>
      <trkpt lat="47.30962" lon="-2.50436">
        <ele>37.200000762939</ele>
        <time>2021-03-25T10:11:00.000Z</time>
      </trkpt>
      <trkpt lat="47.30966" lon="-2.50456">
        <ele>37.200000762939</ele>
        <time>2021-03-25T10:11:03.000Z</time>
      </trkpt>
      <trkpt lat="47.30967" lon="-2.50463">
        <ele>37.200000762939</ele>
        <time>2021-03-25T10:11:04.000Z</time>
      </trkpt>
      <trkpt lat="47.30973" lon="-2.50484">
        <ele>37.200000762939</ele>
        <time>2021-03-25T10:11:07.000Z</time>
      </trkpt>
      <trkpt lat="47.30975" lon="-2.50498">
        <ele>37.200000762939</ele>
        <time>2021-03-25T10:11:09.000Z</time>
      </trkpt>
      <trkpt lat="47.30977" lon="-2.50503">
        <ele>37.200000762939</ele>
        <time>2021-03-25T10:11:10.000Z</time>
      </trkpt>
      <trkpt lat="47.30979" lon="-2.50525">
        <ele>37.200000762939</ele>
        <time>2021-03-25T10:11:14.000Z</time>
      </trkpt>
      <trkpt lat="47.30971" lon="-2.50552">
        <ele>37.200000762939</ele>
        <time>2021-03-25T10:11:18.000Z</time>
      </trkpt>
      <trkpt lat="47.30953" lon="-2.50606">
        <ele>37.200000762939</ele>
        <time>2021-03-25T10:11:26.000Z</time>
      </trkpt>
      <trkpt lat="47.30937" lon="-2.50643">
        <ele>37.200000762939</ele>
        <time>2021-03-25T10:11:32.000Z</time>
      </trkpt>
      <trkpt lat="47.30931" lon="-2.50652">
        <ele>37.200000762939</ele>
        <time>2021-03-25T10:11:34.000Z</time>
      </trkpt>
      <trkpt lat="47.30918" lon="-2.50668">
        <ele>37.200000762939</ele>
        <time>2021-03-25T10:11:40.000Z</time>
      </trkpt>
      <trkpt lat="47.30902" lon="-2.50682">
        <ele>37.200000762939</ele>
        <time>2021-03-25T10:11:46.000Z</time>
      </trkpt>
      <trkpt lat="47.30878" lon="-2.50706">
        <ele>37.200000762939</ele>
        <time>2021-03-25T10:11:53.000Z</time>
      </trkpt>
      <trkpt lat="47.30865" lon="-2.5072">
        <ele>37.200000762939</ele>
        <time>2021-03-25T10:11:59.000Z</time>
      </trkpt>
      <trkpt lat="47.30855" lon="-2.50727">
        <ele>37.200000762939</ele>
        <time>2021-03-25T10:12:04.000Z</time>
      </trkpt>
      <trkpt lat="47.30846" lon="-2.50736">
        <ele>37.200000762939</ele>
        <time>2021-03-25T10:12:09.000Z</time>
      </trkpt>
      <trkpt lat="47.30835" lon="-2.50746">
        <ele>37.200000762939</ele>
        <time>2021-03-25T10:12:14.000Z</time>
      </trkpt>
      <trkpt lat="47.30812" lon="-2.50766">
        <ele>37.200000762939</ele>
        <time>2021-03-25T10:12:21.000Z</time>
      </trkpt>
      <trkpt lat="47.30801" lon="-2.50775">
        <ele>37.200000762939</ele>
        <time>2021-03-25T10:12:24.000Z</time>
      </trkpt>
      <trkpt lat="47.30793" lon="-2.5078">
        <ele>37.200000762939</ele>
        <time>2021-03-25T10:12:26.000Z</time>
      </trkpt>
      <trkpt lat="47.30786" lon="-2.50781">
        <ele>37.200000762939</ele>
        <time>2021-03-25T10:12:28.000Z</time>
      </trkpt>
      <trkpt lat="47.30775" lon="-2.50785">
        <ele>37.200000762939</ele>
        <time>2021-03-25T10:12:31.000Z</time>
      </trkpt>
      <trkpt lat="47.30763" lon="-2.508">
        <ele>37.200000762939</ele>
        <time>2021-03-25T10:12:35.000Z</time>
      </trkpt>
      <trkpt lat="47.30752" lon="-2.5081">
        <ele>37.200000762939</ele>
        <time>2021-03-25T10:12:39.000Z</time>
      </trkpt>
      <trkpt lat="47.30743" lon="-2.50818">
        <ele>37.599998474121</ele>
        <time>2021-03-25T10:12:43.000Z</time>
      </trkpt>
      <trkpt lat="47.30742" lon="-2.50821">
        <ele>38</ele>
        <time>2021-03-25T10:12:44.000Z</time>
      </trkpt>
      <trkpt lat="47.30741" lon="-2.50823">
        <ele>38.400001525879</ele>
        <time>2021-03-25T10:12:45.000Z</time>
      </trkpt>
      <trkpt lat="47.30741" lon="-2.50825">
        <ele>38.799999237061</ele>
        <time>2021-03-25T10:12:46.000Z</time>
      </trkpt>
      <trkpt lat="47.3074" lon="-2.50826">
        <ele>39.400001525879</ele>
        <time>2021-03-25T10:12:47.000Z</time>
      </trkpt>
      <trkpt lat="47.30739" lon="-2.50828">
        <ele>39.400001525879</ele>
        <time>2021-03-25T10:12:48.000Z</time>
      </trkpt>
      <trkpt lat="47.30738" lon="-2.50829">
        <ele>39.400001525879</ele>
        <time>2021-03-25T10:12:49.000Z</time>
      </trkpt>
      <trkpt lat="47.3073" lon="-2.50834">
        <ele>39.400001525879</ele>
        <time>2021-03-25T10:12:52.000Z</time>
      </trkpt>
      <trkpt lat="47.30724" lon="-2.5084">
        <ele>39.400001525879</ele>
        <time>2021-03-25T10:12:54.000Z</time>
      </trkpt>
      <trkpt lat="47.30702" lon="-2.50858">
        <ele>39.400001525879</ele>
        <time>2021-03-25T10:13:01.000Z</time>
      </trkpt>
      <trkpt lat="47.30698" lon="-2.50862">
        <ele>39.400001525879</ele>
        <time>2021-03-25T10:13:02.000Z</time>
      </trkpt>
      <trkpt lat="47.30691" lon="-2.50868">
        <ele>39.400001525879</ele>
        <time>2021-03-25T10:13:04.000Z</time>
      </trkpt>
      <trkpt lat="47.30687" lon="-2.50877">
        <ele>39.400001525879</ele>
        <time>2021-03-25T10:13:06.000Z</time>
      </trkpt>
      <trkpt lat="47.30671" lon="-2.50898">
        <ele>39.400001525879</ele>
        <time>2021-03-25T10:13:11.000Z</time>
      </trkpt>
      <trkpt lat="47.30644" lon="-2.5092">
        <ele>39.400001525879</ele>
        <time>2021-03-25T10:13:17.000Z</time>
      </trkpt>
      <trkpt lat="47.3061" lon="-2.50949">
        <ele>39.400001525879</ele>
        <time>2021-03-25T10:13:24.000Z</time>
      </trkpt>
      <trkpt lat="47.30566" lon="-2.50978">
        <ele>39.400001525879</ele>
        <time>2021-03-25T10:13:32.000Z</time>
      </trkpt>
      <trkpt lat="47.30523" lon="-2.51003">
        <ele>39.400001525879</ele>
        <time>2021-03-25T10:13:40.000Z</time>
      </trkpt>
      <trkpt lat="47.30502" lon="-2.51014">
        <ele>39.400001525879</ele>
        <time>2021-03-25T10:13:44.000Z</time>
      </trkpt>
      <trkpt lat="47.30492" lon="-2.51019">
        <ele>39.400001525879</ele>
        <time>2021-03-25T10:13:46.000Z</time>
      </trkpt>
      <trkpt lat="47.30458" lon="-2.51037">
        <ele>39.400001525879</ele>
        <time>2021-03-25T10:13:53.000Z</time>
      </trkpt>
      <trkpt lat="47.3041" lon="-2.51059">
        <ele>39.400001525879</ele>
        <time>2021-03-25T10:14:02.000Z</time>
      </trkpt>
      <trkpt lat="47.30392" lon="-2.51065">
        <ele>39.400001525879</ele>
        <time>2021-03-25T10:14:06.000Z</time>
      </trkpt>
      <trkpt lat="47.30388" lon="-2.51065">
        <ele>39.400001525879</ele>
        <time>2021-03-25T10:14:07.000Z</time>
      </trkpt>
      <trkpt lat="47.30369" lon="-2.5106">
        <ele>39.400001525879</ele>
        <time>2021-03-25T10:14:12.000Z</time>
      </trkpt>
      <trkpt lat="47.30365" lon="-2.51059">
        <ele>39.400001525879</ele>
        <time>2021-03-25T10:14:13.000Z</time>
      </trkpt>
      <trkpt lat="47.30356" lon="-2.51059">
        <ele>39.400001525879</ele>
        <time>2021-03-25T10:14:15.000Z</time>
      </trkpt>
      <trkpt lat="47.30352" lon="-2.5106">
        <ele>39.400001525879</ele>
        <time>2021-03-25T10:14:16.000Z</time>
      </trkpt>
      <trkpt lat="47.30347" lon="-2.51059">
        <ele>39.400001525879</ele>
        <time>2021-03-25T10:14:17.000Z</time>
      </trkpt>
      <trkpt lat="47.30325" lon="-2.51057">
        <ele>39.400001525879</ele>
        <time>2021-03-25T10:14:22.000Z</time>
      </trkpt>
      <trkpt lat="47.30289" lon="-2.51058">
        <ele>39.400001525879</ele>
        <time>2021-03-25T10:14:30.000Z</time>
      </trkpt>
      <trkpt lat="47.30267" lon="-2.51061">
        <ele>39.400001525879</ele>
        <time>2021-03-25T10:14:35.000Z</time>
      </trkpt>
      <trkpt lat="47.30259" lon="-2.51064">
        <ele>39.400001525879</ele>
        <time>2021-03-25T10:14:37.000Z</time>
      </trkpt>
      <trkpt lat="47.30234" lon="-2.5107">
        <ele>39.400001525879</ele>
        <time>2021-03-25T10:14:44.000Z</time>
      </trkpt>
      <trkpt lat="47.30211" lon="-2.51079">
        <ele>39.400001525879</ele>
        <time>2021-03-25T10:14:51.000Z</time>
      </trkpt>
      <trkpt lat="47.30187" lon="-2.51088">
        <ele>39.400001525879</ele>
        <time>2021-03-25T10:15:00.000Z</time>
      </trkpt>
      <trkpt lat="47.30171" lon="-2.51093">
        <ele>39.400001525879</ele>
        <time>2021-03-25T10:15:07.000Z</time>
      </trkpt>
      <trkpt lat="47.30161" lon="-2.51099">
        <ele>39.400001525879</ele>
        <time>2021-03-25T10:15:13.000Z</time>
      </trkpt>
      <trkpt lat="47.30162" lon="-2.51108">
        <ele>39.400001525879</ele>
        <time>2021-03-25T10:15:18.000Z</time>
      </trkpt>
      <trkpt lat="47.30162" lon="-2.51108">
        <ele>39.400001525879</ele>
        <time>2021-03-25T10:15:19.000Z</time>
      </trkpt>
      <trkpt lat="47.30163" lon="-2.51099">
        <ele>39.200000762939</ele>
        <time>2021-03-25T10:29:33.000Z</time>
      </trkpt>
      <trkpt lat="47.30165" lon="-2.51097">
        <ele>39.200000762939</ele>
        <time>2021-03-25T10:29:34.000Z</time>
      </trkpt>
      <trkpt lat="47.30184" lon="-2.51091">
        <ele>39.200000762939</ele>
        <time>2021-03-25T10:29:41.000Z</time>
      </trkpt>
      <trkpt lat="47.30206" lon="-2.5108">
        <ele>39.200000762939</ele>
        <time>2021-03-25T10:29:48.000Z</time>
      </trkpt>
      <trkpt lat="47.30235" lon="-2.51066">
        <ele>39.200000762939</ele>
        <time>2021-03-25T10:29:56.000Z</time>
      </trkpt>
      <trkpt lat="47.30259" lon="-2.51061">
        <ele>39.200000762939</ele>
        <time>2021-03-25T10:30:03.000Z</time>
      </trkpt>
      <trkpt lat="47.30285" lon="-2.51056">
        <ele>39.200000762939</ele>
        <time>2021-03-25T10:30:10.000Z</time>
      </trkpt>
      <trkpt lat="47.30311" lon="-2.51055">
        <ele>39.200000762939</ele>
        <time>2021-03-25T10:30:17.000Z</time>
      </trkpt>
      <trkpt lat="47.30334" lon="-2.51057">
        <ele>39.200000762939</ele>
        <time>2021-03-25T10:30:23.000Z</time>
      </trkpt>
      <trkpt lat="47.30358" lon="-2.5106">
        <ele>39.200000762939</ele>
        <time>2021-03-25T10:30:30.000Z</time>
      </trkpt>
      <trkpt lat="47.30376" lon="-2.51056">
        <ele>39.200000762939</ele>
        <time>2021-03-25T10:30:35.000Z</time>
      </trkpt>
      <trkpt lat="47.30391" lon="-2.51056">
        <ele>39.200000762939</ele>
        <time>2021-03-25T10:30:39.000Z</time>
      </trkpt>
      <trkpt lat="47.30395" lon="-2.51055">
        <ele>39.200000762939</ele>
        <time>2021-03-25T10:30:40.000Z</time>
      </trkpt>
      <trkpt lat="47.30411" lon="-2.51055">
        <ele>39.200000762939</ele>
        <time>2021-03-25T10:30:44.000Z</time>
      </trkpt>
      <trkpt lat="47.30416" lon="-2.51053">
        <ele>39.200000762939</ele>
        <time>2021-03-25T10:30:45.000Z</time>
      </trkpt>
      <trkpt lat="47.30438" lon="-2.51042">
        <ele>39.200000762939</ele>
        <time>2021-03-25T10:30:50.000Z</time>
      </trkpt>
      <trkpt lat="47.30442" lon="-2.5104">
        <ele>39.200000762939</ele>
        <time>2021-03-25T10:30:51.000Z</time>
      </trkpt>
      <trkpt lat="47.30487" lon="-2.51014">
        <ele>39.200000762939</ele>
        <time>2021-03-25T10:31:01.000Z</time>
      </trkpt>
      <trkpt lat="47.30504" lon="-2.51004">
        <ele>39.200000762939</ele>
        <time>2021-03-25T10:31:05.000Z</time>
      </trkpt>
      <trkpt lat="47.30513" lon="-2.51">
        <ele>39.200000762939</ele>
        <time>2021-03-25T10:31:07.000Z</time>
      </trkpt>
      <trkpt lat="47.3054" lon="-2.50989">
        <ele>39.200000762939</ele>
        <time>2021-03-25T10:31:13.000Z</time>
      </trkpt>
      <trkpt lat="47.30572" lon="-2.5097">
        <ele>39.200000762939</ele>
        <time>2021-03-25T10:31:21.000Z</time>
      </trkpt>
      <trkpt lat="47.30576" lon="-2.50967">
        <ele>39.200000762939</ele>
        <time>2021-03-25T10:31:22.000Z</time>
      </trkpt>
      <trkpt lat="47.30596" lon="-2.50954">
        <ele>39.200000762939</ele>
        <time>2021-03-25T10:31:27.000Z</time>
      </trkpt>
      <trkpt lat="47.30628" lon="-2.50931">
        <ele>39.200000762939</ele>
        <time>2021-03-25T10:31:35.000Z</time>
      </trkpt>
      <trkpt lat="47.30635" lon="-2.50925">
        <ele>39.599998474121</ele>
        <time>2021-03-25T10:31:37.000Z</time>
      </trkpt>
      <trkpt lat="47.30639" lon="-2.50922">
        <ele>40.200000762939</ele>
        <time>2021-03-25T10:31:38.000Z</time>
      </trkpt>
      <trkpt lat="47.30643" lon="-2.50919">
        <ele>40.599998474121</ele>
        <time>2021-03-25T10:31:39.000Z</time>
      </trkpt>
      <trkpt lat="47.30647" lon="-2.50916">
        <ele>41</ele>
        <time>2021-03-25T10:31:40.000Z</time>
      </trkpt>
      <trkpt lat="47.30651" lon="-2.50914">
        <ele>41.400001525879</ele>
        <time>2021-03-25T10:31:41.000Z</time>
      </trkpt>
      <trkpt lat="47.30654" lon="-2.5091">
        <ele>41.400001525879</ele>
        <time>2021-03-25T10:31:42.000Z</time>
      </trkpt>
      <trkpt lat="47.30681" lon="-2.50886">
        <ele>41.400001525879</ele>
        <time>2021-03-25T10:31:49.000Z</time>
      </trkpt>
      <trkpt lat="47.30684" lon="-2.5088">
        <ele>41.400001525879</ele>
        <time>2021-03-25T10:31:50.000Z</time>
      </trkpt>
      <trkpt lat="47.30696" lon="-2.50862">
        <ele>41.400001525879</ele>
        <time>2021-03-25T10:31:54.000Z</time>
      </trkpt>
      <trkpt lat="47.30699" lon="-2.50859">
        <ele>41.400001525879</ele>
        <time>2021-03-25T10:31:55.000Z</time>
      </trkpt>
      <trkpt lat="47.30707" lon="-2.50853">
        <ele>41.400001525879</ele>
        <time>2021-03-25T10:31:57.000Z</time>
      </trkpt>
      <trkpt lat="47.30716" lon="-2.50852">
        <ele>41.400001525879</ele>
        <time>2021-03-25T10:31:59.000Z</time>
      </trkpt>
      <trkpt lat="47.30726" lon="-2.5085">
        <ele>41.400001525879</ele>
        <time>2021-03-25T10:32:01.000Z</time>
      </trkpt>
      <trkpt lat="47.30739" lon="-2.50841">
        <ele>41.400001525879</ele>
        <time>2021-03-25T10:32:04.000Z</time>
      </trkpt>
      <trkpt lat="47.30757" lon="-2.50824">
        <ele>41.400001525879</ele>
        <time>2021-03-25T10:32:08.000Z</time>
      </trkpt>
      <trkpt lat="47.30762" lon="-2.5082">
        <ele>41.400001525879</ele>
        <time>2021-03-25T10:32:09.000Z</time>
      </trkpt>
      <trkpt lat="47.30792" lon="-2.50798">
        <ele>41.400001525879</ele>
        <time>2021-03-25T10:32:15.000Z</time>
      </trkpt>
      <trkpt lat="47.30802" lon="-2.50792">
        <ele>41.400001525879</ele>
        <time>2021-03-25T10:32:17.000Z</time>
      </trkpt>
      <trkpt lat="47.30831" lon="-2.50767">
        <ele>41.400001525879</ele>
        <time>2021-03-25T10:32:23.000Z</time>
      </trkpt>
      <trkpt lat="47.3088" lon="-2.5073">
        <ele>41.400001525879</ele>
        <time>2021-03-25T10:32:33.000Z</time>
      </trkpt>
      <trkpt lat="47.30885" lon="-2.50726">
        <ele>41.400001525879</ele>
        <time>2021-03-25T10:32:34.000Z</time>
      </trkpt>
      <trkpt lat="47.30923" lon="-2.50695">
        <ele>41.400001525879</ele>
        <time>2021-03-25T10:32:42.000Z</time>
      </trkpt>
      <trkpt lat="47.30963" lon="-2.50666">
        <ele>41.400001525879</ele>
        <time>2021-03-25T10:32:50.000Z</time>
      </trkpt>
      <trkpt lat="47.3099" lon="-2.50648">
        <ele>41.400001525879</ele>
        <time>2021-03-25T10:32:55.000Z</time>
      </trkpt>
      <trkpt lat="47.30995" lon="-2.50644">
        <ele>41.400001525879</ele>
        <time>2021-03-25T10:32:56.000Z</time>
      </trkpt>
      <trkpt lat="47.31032" lon="-2.50616">
        <ele>41.400001525879</ele>
        <time>2021-03-25T10:33:03.000Z</time>
      </trkpt>
      <trkpt lat="47.31067" lon="-2.50591">
        <ele>41.799999237061</ele>
        <time>2021-03-25T10:33:09.000Z</time>
      </trkpt>
      <trkpt lat="47.31073" lon="-2.50586">
        <ele>42.200000762939</ele>
        <time>2021-03-25T10:33:10.000Z</time>
      </trkpt>
      <trkpt lat="47.31079" lon="-2.50581">
        <ele>42.599998474121</ele>
        <time>2021-03-25T10:33:11.000Z</time>
      </trkpt>
      <trkpt lat="47.31086" lon="-2.50575">
        <ele>43</ele>
        <time>2021-03-25T10:33:12.000Z</time>
      </trkpt>
      <trkpt lat="47.31092" lon="-2.5057">
        <ele>43.400001525879</ele>
        <time>2021-03-25T10:33:13.000Z</time>
      </trkpt>
      <trkpt lat="47.31125" lon="-2.50542">
        <ele>43.400001525879</ele>
        <time>2021-03-25T10:33:18.000Z</time>
      </trkpt>
      <trkpt lat="47.3117" lon="-2.505">
        <ele>43.400001525879</ele>
        <time>2021-03-25T10:33:25.000Z</time>
      </trkpt>
      <trkpt lat="47.31211" lon="-2.50452">
        <ele>43.400001525879</ele>
        <time>2021-03-25T10:33:32.000Z</time>
      </trkpt>
      <trkpt lat="47.31216" lon="-2.50445">
        <ele>43</ele>
        <time>2021-03-25T10:33:33.000Z</time>
      </trkpt>
      <trkpt lat="47.31221" lon="-2.50437">
        <ele>42.599998474121</ele>
        <time>2021-03-25T10:33:34.000Z</time>
      </trkpt>
      <trkpt lat="47.31226" lon="-2.50429">
        <ele>42.200000762939</ele>
        <time>2021-03-25T10:33:35.000Z</time>
      </trkpt>
      <trkpt lat="47.31232" lon="-2.50421">
        <ele>41.799999237061</ele>
        <time>2021-03-25T10:33:36.000Z</time>
      </trkpt>
      <trkpt lat="47.31238" lon="-2.50414">
        <ele>41.200000762939</ele>
        <time>2021-03-25T10:33:37.000Z</time>
      </trkpt>
      <trkpt lat="47.31244" lon="-2.50406">
        <ele>41.200000762939</ele>
        <time>2021-03-25T10:33:38.000Z</time>
      </trkpt>
      <trkpt lat="47.31284" lon="-2.50353">
        <ele>41.200000762939</ele>
        <time>2021-03-25T10:33:45.000Z</time>
      </trkpt>
      <trkpt lat="47.3129" lon="-2.50345">
        <ele>41.200000762939</ele>
        <time>2021-03-25T10:33:46.000Z</time>
      </trkpt>
      <trkpt lat="47.31331" lon="-2.50287">
        <ele>41.200000762939</ele>
        <time>2021-03-25T10:33:53.000Z</time>
      </trkpt>
      <trkpt lat="47.31336" lon="-2.50279">
        <ele>41.200000762939</ele>
        <time>2021-03-25T10:33:54.000Z</time>
      </trkpt>
      <trkpt lat="47.31342" lon="-2.5027">
        <ele>40.799999237061</ele>
        <time>2021-03-25T10:33:55.000Z</time>
      </trkpt>
      <trkpt lat="47.31348" lon="-2.50261">
        <ele>40.400001525879</ele>
        <time>2021-03-25T10:33:56.000Z</time>
      </trkpt>
      <trkpt lat="47.31354" lon="-2.50252">
        <ele>40</ele>
        <time>2021-03-25T10:33:57.000Z</time>
      </trkpt>
      <trkpt lat="47.3136" lon="-2.50243">
        <ele>39.599998474121</ele>
        <time>2021-03-25T10:33:58.000Z</time>
      </trkpt>
      <trkpt lat="47.31366" lon="-2.50234">
        <ele>39.200000762939</ele>
        <time>2021-03-25T10:33:59.000Z</time>
      </trkpt>
      <trkpt lat="47.31376" lon="-2.50215">
        <ele>39.200000762939</ele>
        <time>2021-03-25T10:34:01.000Z</time>
      </trkpt>
      <trkpt lat="47.3141" lon="-2.50163">
        <ele>39.200000762939</ele>
        <time>2021-03-25T10:34:07.000Z</time>
      </trkpt>
      <trkpt lat="47.31449" lon="-2.50104">
        <ele>39.200000762939</ele>
        <time>2021-03-25T10:34:14.000Z</time>
      </trkpt>
      <trkpt lat="47.31454" lon="-2.50096">
        <ele>39.200000762939</ele>
        <time>2021-03-25T10:34:15.000Z</time>
      </trkpt>
      <trkpt lat="47.31491" lon="-2.50038">
        <ele>39.200000762939</ele>
        <time>2021-03-25T10:34:22.000Z</time>
      </trkpt>
      <trkpt lat="47.31502" lon="-2.50022">
        <ele>39.200000762939</ele>
        <time>2021-03-25T10:34:24.000Z</time>
      </trkpt>
      <trkpt lat="47.31544" lon="-2.49958">
        <ele>39.200000762939</ele>
        <time>2021-03-25T10:34:32.000Z</time>
      </trkpt>
      <trkpt lat="47.31571" lon="-2.49917">
        <ele>39.200000762939</ele>
        <time>2021-03-25T10:34:37.000Z</time>
      </trkpt>
      <trkpt lat="47.31609" lon="-2.49858">
        <ele>39.200000762939</ele>
        <time>2021-03-25T10:34:44.000Z</time>
      </trkpt>
      <trkpt lat="47.3162" lon="-2.49842">
        <ele>39.200000762939</ele>
        <time>2021-03-25T10:34:46.000Z</time>
      </trkpt>
      <trkpt lat="47.31643" lon="-2.49809">
        <ele>39.599998474121</ele>
        <time>2021-03-25T10:34:50.000Z</time>
      </trkpt>
      <trkpt lat="47.31648" lon="-2.49801">
        <ele>40</ele>
        <time>2021-03-25T10:34:51.000Z</time>
      </trkpt>
      <trkpt lat="47.31654" lon="-2.49793">
        <ele>40.400001525879</ele>
        <time>2021-03-25T10:34:52.000Z</time>
      </trkpt>
      <trkpt lat="47.31659" lon="-2.49784">
        <ele>40.799999237061</ele>
        <time>2021-03-25T10:34:53.000Z</time>
      </trkpt>
      <trkpt lat="47.31665" lon="-2.49776">
        <ele>41.200000762939</ele>
        <time>2021-03-25T10:34:54.000Z</time>
      </trkpt>
      <trkpt lat="47.31697" lon="-2.49725">
        <ele>41.200000762939</ele>
        <time>2021-03-25T10:35:00.000Z</time>
      </trkpt>
      <trkpt lat="47.31734" lon="-2.49667">
        <ele>41.200000762939</ele>
        <time>2021-03-25T10:35:07.000Z</time>
      </trkpt>
      <trkpt lat="47.31739" lon="-2.4966">
        <ele>41.200000762939</ele>
        <time>2021-03-25T10:35:08.000Z</time>
      </trkpt>
      <trkpt lat="47.31778" lon="-2.49605">
        <ele>41.200000762939</ele>
        <time>2021-03-25T10:35:15.000Z</time>
      </trkpt>
      <trkpt lat="47.31816" lon="-2.49548">
        <ele>41.200000762939</ele>
        <time>2021-03-25T10:35:22.000Z</time>
      </trkpt>
      <trkpt lat="47.31831" lon="-2.49522">
        <ele>41.200000762939</ele>
        <time>2021-03-25T10:35:25.000Z</time>
      </trkpt>
      <trkpt lat="47.31869" lon="-2.49467">
        <ele>41.200000762939</ele>
        <time>2021-03-25T10:35:32.000Z</time>
      </trkpt>
      <trkpt lat="47.31911" lon="-2.49402">
        <ele>41.200000762939</ele>
        <time>2021-03-25T10:35:40.000Z</time>
      </trkpt>
      <trkpt lat="47.31927" lon="-2.49377">
        <ele>41.200000762939</ele>
        <time>2021-03-25T10:35:43.000Z</time>
      </trkpt>
      <trkpt lat="47.31958" lon="-2.49327">
        <ele>40.799999237061</ele>
        <time>2021-03-25T10:35:49.000Z</time>
      </trkpt>
      <trkpt lat="47.31963" lon="-2.49319">
        <ele>40.400001525879</ele>
        <time>2021-03-25T10:35:50.000Z</time>
      </trkpt>
      <trkpt lat="47.31969" lon="-2.49311">
        <ele>40</ele>
        <time>2021-03-25T10:35:51.000Z</time>
      </trkpt>
      <trkpt lat="47.31974" lon="-2.49302">
        <ele>39.599998474121</ele>
        <time>2021-03-25T10:35:52.000Z</time>
      </trkpt>
      <trkpt lat="47.31979" lon="-2.49293">
        <ele>39.200000762939</ele>
        <time>2021-03-25T10:35:53.000Z</time>
      </trkpt>
      <trkpt lat="47.32004" lon="-2.49251">
        <ele>39.200000762939</ele>
        <time>2021-03-25T10:35:58.000Z</time>
      </trkpt>
      <trkpt lat="47.32045" lon="-2.49186">
        <ele>39.200000762939</ele>
        <time>2021-03-25T10:36:06.000Z</time>
      </trkpt>
      <trkpt lat="47.3205" lon="-2.49178">
        <ele>39.200000762939</ele>
        <time>2021-03-25T10:36:07.000Z</time>
      </trkpt>
      <trkpt lat="47.32088" lon="-2.4913">
        <ele>39.200000762939</ele>
        <time>2021-03-25T10:36:14.000Z</time>
      </trkpt>
      <trkpt lat="47.32125" lon="-2.4908">
        <ele>39.200000762939</ele>
        <time>2021-03-25T10:36:21.000Z</time>
      </trkpt>
      <trkpt lat="47.32135" lon="-2.49043">
        <ele>39.200000762939</ele>
        <time>2021-03-25T10:36:25.000Z</time>
      </trkpt>
      <trkpt lat="47.32138" lon="-2.49024">
        <ele>39.200000762939</ele>
        <time>2021-03-25T10:36:27.000Z</time>
      </trkpt>
      <trkpt lat="47.32137" lon="-2.48996">
        <ele>39.200000762939</ele>
        <time>2021-03-25T10:36:30.000Z</time>
      </trkpt>
      <trkpt lat="47.32136" lon="-2.48985">
        <ele>39.200000762939</ele>
        <time>2021-03-25T10:36:31.000Z</time>
      </trkpt>
      <trkpt lat="47.32135" lon="-2.48938">
        <ele>39.200000762939</ele>
        <time>2021-03-25T10:36:36.000Z</time>
      </trkpt>
      <trkpt lat="47.32137" lon="-2.4893">
        <ele>39.200000762939</ele>
        <time>2021-03-25T10:36:37.000Z</time>
      </trkpt>
      <trkpt lat="47.3215" lon="-2.48896">
        <ele>39.200000762939</ele>
        <time>2021-03-25T10:36:41.000Z</time>
      </trkpt>
      <trkpt lat="47.32154" lon="-2.48888">
        <ele>39.200000762939</ele>
        <time>2021-03-25T10:36:42.000Z</time>
      </trkpt>
      <trkpt lat="47.32182" lon="-2.48835">
        <ele>39.200000762939</ele>
        <time>2021-03-25T10:36:49.000Z</time>
      </trkpt>
      <trkpt lat="47.32211" lon="-2.4879">
        <ele>39.200000762939</ele>
        <time>2021-03-25T10:36:56.000Z</time>
      </trkpt>
      <trkpt lat="47.32214" lon="-2.48783">
        <ele>39.200000762939</ele>
        <time>2021-03-25T10:36:57.000Z</time>
      </trkpt>
      <trkpt lat="47.32227" lon="-2.48754">
        <ele>39.200000762939</ele>
        <time>2021-03-25T10:37:01.000Z</time>
      </trkpt>
      <trkpt lat="47.32234" lon="-2.48729">
        <ele>39.200000762939</ele>
        <time>2021-03-25T10:37:04.000Z</time>
      </trkpt>
      <trkpt lat="47.32237" lon="-2.48711">
        <ele>39.200000762939</ele>
        <time>2021-03-25T10:37:06.000Z</time>
      </trkpt>
      <trkpt lat="47.32244" lon="-2.48685">
        <ele>39.200000762939</ele>
        <time>2021-03-25T10:37:09.000Z</time>
      </trkpt>
      <trkpt lat="47.32252" lon="-2.4867">
        <ele>39.200000762939</ele>
        <time>2021-03-25T10:37:11.000Z</time>
      </trkpt>
      <trkpt lat="47.32278" lon="-2.4864">
        <ele>39.200000762939</ele>
        <time>2021-03-25T10:37:16.000Z</time>
      </trkpt>
      <trkpt lat="47.32322" lon="-2.4861">
        <ele>39.200000762939</ele>
        <time>2021-03-25T10:37:23.000Z</time>
      </trkpt>
      <trkpt lat="47.32373" lon="-2.48574">
        <ele>39.200000762939</ele>
        <time>2021-03-25T10:37:31.000Z</time>
      </trkpt>
      <trkpt lat="47.32394" lon="-2.48567">
        <ele>39.200000762939</ele>
        <time>2021-03-25T10:37:34.000Z</time>
      </trkpt>
      <trkpt lat="47.32408" lon="-2.48566">
        <ele>39.200000762939</ele>
        <time>2021-03-25T10:37:36.000Z</time>
      </trkpt>
      <trkpt lat="47.32422" lon="-2.48567">
        <ele>39.200000762939</ele>
        <time>2021-03-25T10:37:38.000Z</time>
      </trkpt>
      <trkpt lat="47.32444" lon="-2.48573">
        <ele>39.200000762939</ele>
        <time>2021-03-25T10:37:41.000Z</time>
      </trkpt>
      <trkpt lat="47.32484" lon="-2.48594">
        <ele>39.200000762939</ele>
        <time>2021-03-25T10:37:47.000Z</time>
      </trkpt>
      <trkpt lat="47.32514" lon="-2.48624">
        <ele>39.200000762939</ele>
        <time>2021-03-25T10:37:52.000Z</time>
      </trkpt>
      <trkpt lat="47.32563" lon="-2.48666">
        <ele>39.200000762939</ele>
        <time>2021-03-25T10:38:00.000Z</time>
      </trkpt>
      <trkpt lat="47.3257" lon="-2.48668">
        <ele>39.200000762939</ele>
        <time>2021-03-25T10:38:01.000Z</time>
      </trkpt>
      <trkpt lat="47.32591" lon="-2.48672">
        <ele>39.200000762939</ele>
        <time>2021-03-25T10:38:04.000Z</time>
      </trkpt>
      <trkpt lat="47.32612" lon="-2.4867">
        <ele>39.200000762939</ele>
        <time>2021-03-25T10:38:07.000Z</time>
      </trkpt>
      <trkpt lat="47.32625" lon="-2.48665">
        <ele>39.200000762939</ele>
        <time>2021-03-25T10:38:09.000Z</time>
      </trkpt>
      <trkpt lat="47.3268" lon="-2.4864">
        <ele>39.200000762939</ele>
        <time>2021-03-25T10:38:17.000Z</time>
      </trkpt>
      <trkpt lat="47.32735" lon="-2.48609">
        <ele>39.200000762939</ele>
        <time>2021-03-25T10:38:25.000Z</time>
      </trkpt>
      <trkpt lat="47.32756" lon="-2.48597">
        <ele>39.200000762939</ele>
        <time>2021-03-25T10:38:28.000Z</time>
      </trkpt>
      <trkpt lat="47.32793" lon="-2.48588">
        <ele>39.200000762939</ele>
        <time>2021-03-25T10:38:33.000Z</time>
      </trkpt>
      <trkpt lat="47.32815" lon="-2.48588">
        <ele>39.200000762939</ele>
        <time>2021-03-25T10:38:36.000Z</time>
      </trkpt>
      <trkpt lat="47.32837" lon="-2.48589">
        <ele>39.200000762939</ele>
        <time>2021-03-25T10:38:39.000Z</time>
      </trkpt>
      <trkpt lat="47.32888" lon="-2.48587">
        <ele>39.200000762939</ele>
        <time>2021-03-25T10:38:46.000Z</time>
      </trkpt>
      <trkpt lat="47.32914" lon="-2.48566">
        <ele>39.200000762939</ele>
        <time>2021-03-25T10:38:50.000Z</time>
      </trkpt>
      <trkpt lat="47.32924" lon="-2.48553">
        <ele>39.200000762939</ele>
        <time>2021-03-25T10:38:52.000Z</time>
      </trkpt>
      <trkpt lat="47.32947" lon="-2.48524">
        <ele>39.200000762939</ele>
        <time>2021-03-25T10:38:56.000Z</time>
      </trkpt>
      <trkpt lat="47.32985" lon="-2.4849">
        <ele>39.200000762939</ele>
        <time>2021-03-25T10:39:02.000Z</time>
      </trkpt>
      <trkpt lat="47.33032" lon="-2.48458">
        <ele>39.200000762939</ele>
        <time>2021-03-25T10:39:09.000Z</time>
      </trkpt>
      <trkpt lat="47.33073" lon="-2.48433">
        <ele>39.200000762939</ele>
        <time>2021-03-25T10:39:15.000Z</time>
      </trkpt>
      <trkpt lat="47.33116" lon="-2.48403">
        <ele>39.200000762939</ele>
        <time>2021-03-25T10:39:22.000Z</time>
      </trkpt>
      <trkpt lat="47.33125" lon="-2.48393">
        <ele>39.200000762939</ele>
        <time>2021-03-25T10:39:24.000Z</time>
      </trkpt>
      <trkpt lat="47.33133" lon="-2.4838">
        <ele>39.200000762939</ele>
        <time>2021-03-25T10:39:26.000Z</time>
      </trkpt>
      <trkpt lat="47.33142" lon="-2.4835">
        <ele>39.200000762939</ele>
        <time>2021-03-25T10:39:30.000Z</time>
      </trkpt>
      <trkpt lat="47.33143" lon="-2.48342">
        <ele>39.200000762939</ele>
        <time>2021-03-25T10:39:31.000Z</time>
      </trkpt>
      <trkpt lat="47.33144" lon="-2.48309">
        <ele>39.200000762939</ele>
        <time>2021-03-25T10:39:35.000Z</time>
      </trkpt>
      <trkpt lat="47.33142" lon="-2.48244">
        <ele>39.200000762939</ele>
        <time>2021-03-25T10:39:42.000Z</time>
      </trkpt>
      <trkpt lat="47.33141" lon="-2.48167">
        <ele>39.200000762939</ele>
        <time>2021-03-25T10:39:50.000Z</time>
      </trkpt>
      <trkpt lat="47.33144" lon="-2.48081">
        <ele>39.200000762939</ele>
        <time>2021-03-25T10:39:59.000Z</time>
      </trkpt>
      <trkpt lat="47.33145" lon="-2.48052">
        <ele>38.799999237061</ele>
        <time>2021-03-25T10:40:02.000Z</time>
      </trkpt>
      <trkpt lat="47.33145" lon="-2.48042">
        <ele>38.400001525879</ele>
        <time>2021-03-25T10:40:03.000Z</time>
      </trkpt>
      <trkpt lat="47.33145" lon="-2.48032">
        <ele>38</ele>
        <time>2021-03-25T10:40:04.000Z</time>
      </trkpt>
      <trkpt lat="47.33146" lon="-2.48023">
        <ele>37.599998474121</ele>
        <time>2021-03-25T10:40:05.000Z</time>
      </trkpt>
      <trkpt lat="47.33146" lon="-2.48013">
        <ele>37.200000762939</ele>
        <time>2021-03-25T10:40:06.000Z</time>
      </trkpt>
      <trkpt lat="47.33147" lon="-2.48003">
        <ele>37.200000762939</ele>
        <time>2021-03-25T10:40:07.000Z</time>
      </trkpt>
      <trkpt lat="47.33146" lon="-2.47924">
        <ele>37.200000762939</ele>
        <time>2021-03-25T10:40:15.000Z</time>
      </trkpt>
      <trkpt lat="47.33143" lon="-2.47905">
        <ele>37.200000762939</ele>
        <time>2021-03-25T10:40:17.000Z</time>
      </trkpt>
      <trkpt lat="47.33134" lon="-2.47877">
        <ele>37.200000762939</ele>
        <time>2021-03-25T10:40:20.000Z</time>
      </trkpt>
      <trkpt lat="47.33119" lon="-2.47841">
        <ele>37.200000762939</ele>
        <time>2021-03-25T10:40:24.000Z</time>
      </trkpt>
      <trkpt lat="47.33114" lon="-2.47833">
        <ele>37.200000762939</ele>
        <time>2021-03-25T10:40:25.000Z</time>
      </trkpt>
      <trkpt lat="47.3309" lon="-2.47814">
        <ele>37.200000762939</ele>
        <time>2021-03-25T10:40:29.000Z</time>
      </trkpt>
      <trkpt lat="47.33051" lon="-2.47799">
        <ele>37.200000762939</ele>
        <time>2021-03-25T10:40:35.000Z</time>
      </trkpt>
      <trkpt lat="47.33011" lon="-2.47786">
        <ele>37.200000762939</ele>
        <time>2021-03-25T10:40:41.000Z</time>
      </trkpt>
      <trkpt lat="47.33005" lon="-2.47781">
        <ele>37.200000762939</ele>
        <time>2021-03-25T10:40:42.000Z</time>
      </trkpt>
      <trkpt lat="47.32966" lon="-2.47746">
        <ele>37.200000762939</ele>
        <time>2021-03-25T10:40:49.000Z</time>
      </trkpt>
      <trkpt lat="47.32943" lon="-2.47713">
        <ele>37.200000762939</ele>
        <time>2021-03-25T10:40:54.000Z</time>
      </trkpt>
      <trkpt lat="47.32939" lon="-2.47705">
        <ele>37.200000762939</ele>
        <time>2021-03-25T10:40:55.000Z</time>
      </trkpt>
      <trkpt lat="47.32931" lon="-2.47675">
        <ele>37.200000762939</ele>
        <time>2021-03-25T10:40:58.000Z</time>
      </trkpt>
      <trkpt lat="47.3292" lon="-2.47615">
        <ele>37.200000762939</ele>
        <time>2021-03-25T10:41:04.000Z</time>
      </trkpt>
      <trkpt lat="47.32916" lon="-2.47576">
        <ele>37.200000762939</ele>
        <time>2021-03-25T10:41:08.000Z</time>
      </trkpt>
      <trkpt lat="47.32917" lon="-2.47566">
        <ele>37.200000762939</ele>
        <time>2021-03-25T10:41:09.000Z</time>
      </trkpt>
      <trkpt lat="47.32919" lon="-2.47515">
        <ele>37.200000762939</ele>
        <time>2021-03-25T10:41:14.000Z</time>
      </trkpt>
      <trkpt lat="47.32911" lon="-2.47464">
        <ele>37.200000762939</ele>
        <time>2021-03-25T10:41:19.000Z</time>
      </trkpt>
      <trkpt lat="47.32898" lon="-2.47408">
        <ele>37.200000762939</ele>
        <time>2021-03-25T10:41:25.000Z</time>
      </trkpt>
      <trkpt lat="47.3289" lon="-2.4735">
        <ele>37.200000762939</ele>
        <time>2021-03-25T10:41:31.000Z</time>
      </trkpt>
      <trkpt lat="47.3288" lon="-2.47281">
        <ele>37.200000762939</ele>
        <time>2021-03-25T10:41:38.000Z</time>
      </trkpt>
      <trkpt lat="47.32875" lon="-2.47261">
        <ele>37.200000762939</ele>
        <time>2021-03-25T10:41:40.000Z</time>
      </trkpt>
      <trkpt lat="47.3287" lon="-2.47229">
        <ele>37.200000762939</ele>
        <time>2021-03-25T10:41:43.000Z</time>
      </trkpt>
      <trkpt lat="47.32857" lon="-2.47147">
        <ele>37.200000762939</ele>
        <time>2021-03-25T10:41:51.000Z</time>
      </trkpt>
      <trkpt lat="47.32855" lon="-2.47137">
        <ele>37.200000762939</ele>
        <time>2021-03-25T10:41:52.000Z</time>
      </trkpt>
      <trkpt lat="47.32844" lon="-2.47072">
        <ele>37.200000762939</ele>
        <time>2021-03-25T10:41:59.000Z</time>
      </trkpt>
      <trkpt lat="47.3283" lon="-2.47026">
        <ele>37.200000762939</ele>
        <time>2021-03-25T10:42:04.000Z</time>
      </trkpt>
      <trkpt lat="47.32806" lon="-2.46967">
        <ele>37.200000762939</ele>
        <time>2021-03-25T10:42:11.000Z</time>
      </trkpt>
      <trkpt lat="47.32781" lon="-2.46894">
        <ele>37.200000762939</ele>
        <time>2021-03-25T10:42:19.000Z</time>
      </trkpt>
      <trkpt lat="47.32769" lon="-2.46835">
        <ele>37.200000762939</ele>
        <time>2021-03-25T10:42:25.000Z</time>
      </trkpt>
      <trkpt lat="47.32752" lon="-2.46793">
        <ele>37.200000762939</ele>
        <time>2021-03-25T10:42:30.000Z</time>
      </trkpt>
      <trkpt lat="47.32716" lon="-2.46728">
        <ele>37.200000762939</ele>
        <time>2021-03-25T10:42:38.000Z</time>
      </trkpt>
      <trkpt lat="47.32686" lon="-2.46696">
        <ele>37.200000762939</ele>
        <time>2021-03-25T10:42:43.000Z</time>
      </trkpt>
      <trkpt lat="47.32644" lon="-2.46668">
        <ele>37.200000762939</ele>
        <time>2021-03-25T10:42:49.000Z</time>
      </trkpt>
      <trkpt lat="47.32625" lon="-2.46651">
        <ele>37.200000762939</ele>
        <time>2021-03-25T10:42:52.000Z</time>
      </trkpt>
      <trkpt lat="47.32615" lon="-2.46637">
        <ele>37.200000762939</ele>
        <time>2021-03-25T10:42:54.000Z</time>
      </trkpt>
      <trkpt lat="47.32604" lon="-2.46619">
        <ele>37.200000762939</ele>
        <time>2021-03-25T10:42:56.000Z</time>
      </trkpt>
      <trkpt lat="47.32584" lon="-2.46585">
        <ele>37.200000762939</ele>
        <time>2021-03-25T10:43:00.000Z</time>
      </trkpt>
      <trkpt lat="47.32552" lon="-2.46541">
        <ele>37.200000762939</ele>
        <time>2021-03-25T10:43:06.000Z</time>
      </trkpt>
      <trkpt lat="47.32536" lon="-2.46518">
        <ele>37.200000762939</ele>
        <time>2021-03-25T10:43:09.000Z</time>
      </trkpt>
      <trkpt lat="47.32528" lon="-2.465">
        <ele>37.200000762939</ele>
        <time>2021-03-25T10:43:11.000Z</time>
      </trkpt>
      <trkpt lat="47.32505" lon="-2.46444">
        <ele>37.200000762939</ele>
        <time>2021-03-25T10:43:17.000Z</time>
      </trkpt>
      <trkpt lat="47.32479" lon="-2.46404">
        <ele>37.200000762939</ele>
        <time>2021-03-25T10:43:22.000Z</time>
      </trkpt>
      <trkpt lat="47.32441" lon="-2.4634">
        <ele>37.200000762939</ele>
        <time>2021-03-25T10:43:30.000Z</time>
      </trkpt>
      <trkpt lat="47.3242" lon="-2.46281">
        <ele>37.200000762939</ele>
        <time>2021-03-25T10:43:36.000Z</time>
      </trkpt>
      <trkpt lat="47.32397" lon="-2.46237">
        <ele>37.200000762939</ele>
        <time>2021-03-25T10:43:41.000Z</time>
      </trkpt>
      <trkpt lat="47.32359" lon="-2.4617">
        <ele>37.200000762939</ele>
        <time>2021-03-25T10:43:49.000Z</time>
      </trkpt>
      <trkpt lat="47.32323" lon="-2.46115">
        <ele>37.200000762939</ele>
        <time>2021-03-25T10:43:56.000Z</time>
      </trkpt>
      <trkpt lat="47.32286" lon="-2.46049">
        <ele>37.200000762939</ele>
        <time>2021-03-25T10:44:04.000Z</time>
      </trkpt>
      <trkpt lat="47.32255" lon="-2.45981">
        <ele>37.200000762939</ele>
        <time>2021-03-25T10:44:12.000Z</time>
      </trkpt>
      <trkpt lat="47.32234" lon="-2.45961">
        <ele>37.200000762939</ele>
        <time>2021-03-25T10:44:16.000Z</time>
      </trkpt>
      <trkpt lat="47.32216" lon="-2.45929">
        <ele>37.200000762939</ele>
        <time>2021-03-25T10:44:21.000Z</time>
      </trkpt>
      <trkpt lat="47.32202" lon="-2.45889">
        <ele>37.200000762939</ele>
        <time>2021-03-25T10:44:27.000Z</time>
      </trkpt>
      <trkpt lat="47.32183" lon="-2.45845">
        <ele>37.200000762939</ele>
        <time>2021-03-25T10:44:34.000Z</time>
      </trkpt>
      <trkpt lat="47.32159" lon="-2.45799">
        <ele>37.200000762939</ele>
        <time>2021-03-25T10:44:42.000Z</time>
      </trkpt>
      <trkpt lat="47.3214" lon="-2.45767">
        <ele>37.200000762939</ele>
        <time>2021-03-25T10:44:49.000Z</time>
      </trkpt>
      <trkpt lat="47.3212" lon="-2.45751">
        <ele>37.200000762939</ele>
        <time>2021-03-25T10:44:55.000Z</time>
      </trkpt>
      <trkpt lat="47.32102" lon="-2.45745">
        <ele>37.200000762939</ele>
        <time>2021-03-25T10:45:00.000Z</time>
      </trkpt>
      <trkpt lat="47.32074" lon="-2.45733">
        <ele>37.200000762939</ele>
        <time>2021-03-25T10:45:08.000Z</time>
      </trkpt>
      <trkpt lat="47.32049" lon="-2.45716">
        <ele>37.200000762939</ele>
        <time>2021-03-25T10:45:15.000Z</time>
      </trkpt>
      <trkpt lat="47.32034" lon="-2.45707">
        <ele>37.200000762939</ele>
        <time>2021-03-25T10:45:20.000Z</time>
      </trkpt>
      <trkpt lat="47.32032" lon="-2.45704">
        <ele>37.200000762939</ele>
        <time>2021-03-25T10:45:22.000Z</time>
      </trkpt>
      <trkpt lat="47.32035" lon="-2.45701">
        <ele>37.200000762939</ele>
        <time>2021-03-25T10:45:24.000Z</time>
      </trkpt>
      <trkpt lat="47.32039" lon="-2.45704">
        <ele>37.200000762939</ele>
        <time>2021-03-25T10:45:26.000Z</time>
      </trkpt>
      <trkpt lat="47.32047" lon="-2.4571">
        <ele>37.200000762939</ele>
        <time>2021-03-25T10:45:29.000Z</time>
      </trkpt>
      <trkpt lat="47.32074" lon="-2.45729">
        <ele>37.200000762939</ele>
        <time>2021-03-25T10:45:37.000Z</time>
      </trkpt>
      <trkpt lat="47.32098" lon="-2.45739">
        <ele>37.200000762939</ele>
        <time>2021-03-25T10:45:44.000Z</time>
      </trkpt>
      <trkpt lat="47.32112" lon="-2.45738">
        <ele>37.200000762939</ele>
        <time>2021-03-25T10:45:50.000Z</time>
      </trkpt>
      <trkpt lat="47.32113" lon="-2.45738">
        <ele>37.200000762939</ele>
        <time>2021-03-25T10:45:52.000Z</time>
      </trkpt>
      <trkpt lat="47.32113" lon="-2.45738">
        <ele>37.200000762939</ele>
        <time>2021-03-25T10:48:55.000Z</time>
      </trkpt>
      <trkpt lat="47.32114" lon="-2.45737">
        <ele>37.200000762939</ele>
        <time>2021-03-25T10:48:56.000Z</time>
      </trkpt>
      <trkpt lat="47.32117" lon="-2.4573">
        <ele>37.200000762939</ele>
        <time>2021-03-25T10:48:59.000Z</time>
      </trkpt>
      <trkpt lat="47.32125" lon="-2.45711">
        <ele>37.200000762939</ele>
        <time>2021-03-25T10:49:04.000Z</time>
      </trkpt>
      <trkpt lat="47.32144" lon="-2.45681">
        <ele>37.200000762939</ele>
        <time>2021-03-25T10:49:10.000Z</time>
      </trkpt>
      <trkpt lat="47.32147" lon="-2.45676">
        <ele>37.200000762939</ele>
        <time>2021-03-25T10:49:11.000Z</time>
      </trkpt>
      <trkpt lat="47.3217" lon="-2.45644">
        <ele>37.200000762939</ele>
        <time>2021-03-25T10:49:18.000Z</time>
      </trkpt>
      <trkpt lat="47.32175" lon="-2.45634">
        <ele>37.200000762939</ele>
        <time>2021-03-25T10:49:20.000Z</time>
      </trkpt>
      <trkpt lat="47.3218" lon="-2.45623">
        <ele>37.200000762939</ele>
        <time>2021-03-25T10:49:22.000Z</time>
      </trkpt>
      <trkpt lat="47.32183" lon="-2.45611">
        <ele>37.200000762939</ele>
        <time>2021-03-25T10:49:24.000Z</time>
      </trkpt>
      <trkpt lat="47.32184" lon="-2.456">
        <ele>37.200000762939</ele>
        <time>2021-03-25T10:49:26.000Z</time>
      </trkpt>
      <trkpt lat="47.32185" lon="-2.45578">
        <ele>37.200000762939</ele>
        <time>2021-03-25T10:49:30.000Z</time>
      </trkpt>
      <trkpt lat="47.32188" lon="-2.45542">
        <ele>37.200000762939</ele>
        <time>2021-03-25T10:49:37.000Z</time>
      </trkpt>
      <trkpt lat="47.32196" lon="-2.45514">
        <ele>37.200000762939</ele>
        <time>2021-03-25T10:49:42.000Z</time>
      </trkpt>
      <trkpt lat="47.32199" lon="-2.45509">
        <ele>37.200000762939</ele>
        <time>2021-03-25T10:49:43.000Z</time>
      </trkpt>
      <trkpt lat="47.32216" lon="-2.45475">
        <ele>37.200000762939</ele>
        <time>2021-03-25T10:49:50.000Z</time>
      </trkpt>
      <trkpt lat="47.3222" lon="-2.45453">
        <ele>37.200000762939</ele>
        <time>2021-03-25T10:49:55.000Z</time>
      </trkpt>
      <trkpt lat="47.32219" lon="-2.45446">
        <ele>37.200000762939</ele>
        <time>2021-03-25T10:49:57.000Z</time>
      </trkpt>
      <trkpt lat="47.32214" lon="-2.45442">
        <ele>37.200000762939</ele>
        <time>2021-03-25T10:49:59.000Z</time>
      </trkpt>
      <trkpt lat="47.32201" lon="-2.45433">
        <ele>37.599998474121</ele>
        <time>2021-03-25T10:50:03.000Z</time>
      </trkpt>
      <trkpt lat="47.32197" lon="-2.4543">
        <ele>38</ele>
        <time>2021-03-25T10:50:04.000Z</time>
      </trkpt>
      <trkpt lat="47.32193" lon="-2.45427">
        <ele>38.400001525879</ele>
        <time>2021-03-25T10:50:05.000Z</time>
      </trkpt>
      <trkpt lat="47.32188" lon="-2.45424">
        <ele>38.799999237061</ele>
        <time>2021-03-25T10:50:06.000Z</time>
      </trkpt>
      <trkpt lat="47.32184" lon="-2.45421">
        <ele>39.200000762939</ele>
        <time>2021-03-25T10:50:07.000Z</time>
      </trkpt>
      <trkpt lat="47.32153" lon="-2.45399">
        <ele>39.200000762939</ele>
        <time>2021-03-25T10:50:14.000Z</time>
      </trkpt>
      <trkpt lat="47.32118" lon="-2.45371">
        <ele>39.200000762939</ele>
        <time>2021-03-25T10:50:22.000Z</time>
      </trkpt>
      <trkpt lat="47.3208" lon="-2.45344">
        <ele>39.200000762939</ele>
        <time>2021-03-25T10:50:30.000Z</time>
      </trkpt>
      <trkpt lat="47.32047" lon="-2.4532">
        <ele>39.200000762939</ele>
        <time>2021-03-25T10:50:37.000Z</time>
      </trkpt>
      <trkpt lat="47.32008" lon="-2.45292">
        <ele>39.200000762939</ele>
        <time>2021-03-25T10:50:44.000Z</time>
      </trkpt>
      <trkpt lat="47.32002" lon="-2.4529">
        <ele>39.200000762939</ele>
        <time>2021-03-25T10:50:45.000Z</time>
      </trkpt>
      <trkpt lat="47.31985" lon="-2.45292">
        <ele>39.200000762939</ele>
        <time>2021-03-25T10:50:48.000Z</time>
      </trkpt>
      <trkpt lat="47.31971" lon="-2.45303">
        <ele>39.200000762939</ele>
        <time>2021-03-25T10:50:51.000Z</time>
      </trkpt>
      <trkpt lat="47.31962" lon="-2.45311">
        <ele>39.200000762939</ele>
        <time>2021-03-25T10:50:53.000Z</time>
      </trkpt>
      <trkpt lat="47.31951" lon="-2.45313">
        <ele>39.200000762939</ele>
        <time>2021-03-25T10:50:55.000Z</time>
      </trkpt>
      <trkpt lat="47.31935" lon="-2.45305">
        <ele>39.200000762939</ele>
        <time>2021-03-25T10:50:58.000Z</time>
      </trkpt>
      <trkpt lat="47.31916" lon="-2.45282">
        <ele>39.200000762939</ele>
        <time>2021-03-25T10:51:02.000Z</time>
      </trkpt>
      <trkpt lat="47.31912" lon="-2.45276">
        <ele>39.200000762939</ele>
        <time>2021-03-25T10:51:03.000Z</time>
      </trkpt>
      <trkpt lat="47.31887" lon="-2.45231">
        <ele>39.200000762939</ele>
        <time>2021-03-25T10:51:10.000Z</time>
      </trkpt>
      <trkpt lat="47.31882" lon="-2.45219">
        <ele>39.200000762939</ele>
        <time>2021-03-25T10:51:12.000Z</time>
      </trkpt>
      <trkpt lat="47.31875" lon="-2.45204">
        <ele>39.200000762939</ele>
        <time>2021-03-25T10:51:15.000Z</time>
      </trkpt>
      <trkpt lat="47.31872" lon="-2.45202">
        <ele>39.200000762939</ele>
        <time>2021-03-25T10:51:16.000Z</time>
      </trkpt>
      <trkpt lat="47.31865" lon="-2.45196">
        <ele>38.799999237061</ele>
        <time>2021-03-25T10:51:19.000Z</time>
      </trkpt>
      <trkpt lat="47.31863" lon="-2.45192">
        <ele>38.400001525879</ele>
        <time>2021-03-25T10:51:20.000Z</time>
      </trkpt>
      <trkpt lat="47.31862" lon="-2.45187">
        <ele>38</ele>
        <time>2021-03-25T10:51:21.000Z</time>
      </trkpt>
      <trkpt lat="47.31861" lon="-2.45183">
        <ele>37.400001525879</ele>
        <time>2021-03-25T10:51:22.000Z</time>
      </trkpt>
      <trkpt lat="47.31861" lon="-2.45178">
        <ele>37</ele>
        <time>2021-03-25T10:51:23.000Z</time>
      </trkpt>
      <trkpt lat="47.31856" lon="-2.45144">
        <ele>37</ele>
        <time>2021-03-25T10:51:28.000Z</time>
      </trkpt>
      <trkpt lat="47.31842" lon="-2.45087">
        <ele>37</ele>
        <time>2021-03-25T10:51:35.000Z</time>
      </trkpt>
      <trkpt lat="47.31825" lon="-2.45031">
        <ele>37</ele>
        <time>2021-03-25T10:51:42.000Z</time>
      </trkpt>
      <trkpt lat="47.31806" lon="-2.44974">
        <ele>37</ele>
        <time>2021-03-25T10:51:49.000Z</time>
      </trkpt>
      <trkpt lat="47.3178" lon="-2.44921">
        <ele>37</ele>
        <time>2021-03-25T10:51:56.000Z</time>
      </trkpt>
      <trkpt lat="47.31766" lon="-2.44891">
        <ele>37.400001525879</ele>
        <time>2021-03-25T10:52:00.000Z</time>
      </trkpt>
      <trkpt lat="47.31763" lon="-2.44884">
        <ele>37.799999237061</ele>
        <time>2021-03-25T10:52:01.000Z</time>
      </trkpt>
      <trkpt lat="47.31759" lon="-2.44877">
        <ele>38.400001525879</ele>
        <time>2021-03-25T10:52:02.000Z</time>
      </trkpt>
      <trkpt lat="47.31756" lon="-2.44869">
        <ele>38.799999237061</ele>
        <time>2021-03-25T10:52:03.000Z</time>
      </trkpt>
      <trkpt lat="47.31753" lon="-2.44861">
        <ele>39.200000762939</ele>
        <time>2021-03-25T10:52:04.000Z</time>
      </trkpt>
      <trkpt lat="47.31732" lon="-2.44803">
        <ele>39.200000762939</ele>
        <time>2021-03-25T10:52:11.000Z</time>
      </trkpt>
      <trkpt lat="47.31704" lon="-2.44733">
        <ele>39.200000762939</ele>
        <time>2021-03-25T10:52:19.000Z</time>
      </trkpt>
      <trkpt lat="47.31671" lon="-2.44659">
        <ele>39.200000762939</ele>
        <time>2021-03-25T10:52:28.000Z</time>
      </trkpt>
      <trkpt lat="47.31641" lon="-2.4459">
        <ele>39.200000762939</ele>
        <time>2021-03-25T10:52:36.000Z</time>
      </trkpt>
      <trkpt lat="47.31637" lon="-2.44581">
        <ele>39.200000762939</ele>
        <time>2021-03-25T10:52:37.000Z</time>
      </trkpt>
      <trkpt lat="47.31602" lon="-2.44525">
        <ele>39.200000762939</ele>
        <time>2021-03-25T10:52:44.000Z</time>
      </trkpt>
      <trkpt lat="47.31583" lon="-2.44478">
        <ele>39.200000762939</ele>
        <time>2021-03-25T10:52:49.000Z</time>
      </trkpt>
      <trkpt lat="47.31573" lon="-2.44416">
        <ele>39.200000762939</ele>
        <time>2021-03-25T10:52:55.000Z</time>
      </trkpt>
      <trkpt lat="47.31562" lon="-2.44335">
        <ele>39.200000762939</ele>
        <time>2021-03-25T10:53:03.000Z</time>
      </trkpt>
      <trkpt lat="47.31561" lon="-2.44325">
        <ele>39.200000762939</ele>
        <time>2021-03-25T10:53:04.000Z</time>
      </trkpt>
      <trkpt lat="47.3155" lon="-2.44256">
        <ele>39.200000762939</ele>
        <time>2021-03-25T10:53:11.000Z</time>
      </trkpt>
      <trkpt lat="47.31536" lon="-2.4419">
        <ele>39.200000762939</ele>
        <time>2021-03-25T10:53:18.000Z</time>
      </trkpt>
      <trkpt lat="47.31513" lon="-2.44143">
        <ele>39.200000762939</ele>
        <time>2021-03-25T10:53:24.000Z</time>
      </trkpt>
      <trkpt lat="47.31488" lon="-2.44109">
        <ele>39.200000762939</ele>
        <time>2021-03-25T10:53:29.000Z</time>
      </trkpt>
      <trkpt lat="47.31448" lon="-2.44056">
        <ele>39.200000762939</ele>
        <time>2021-03-25T10:53:36.000Z</time>
      </trkpt>
      <trkpt lat="47.31442" lon="-2.44049">
        <ele>39.200000762939</ele>
        <time>2021-03-25T10:53:37.000Z</time>
      </trkpt>
      <trkpt lat="47.31397" lon="-2.43991">
        <ele>39.200000762939</ele>
        <time>2021-03-25T10:53:45.000Z</time>
      </trkpt>
      <trkpt lat="47.31391" lon="-2.43984">
        <ele>39.200000762939</ele>
        <time>2021-03-25T10:53:46.000Z</time>
      </trkpt>
      <trkpt lat="47.31361" lon="-2.43938">
        <ele>39.200000762939</ele>
        <time>2021-03-25T10:53:52.000Z</time>
      </trkpt>
      <trkpt lat="47.31332" lon="-2.43865">
        <ele>39.200000762939</ele>
        <time>2021-03-25T10:54:00.000Z</time>
      </trkpt>
      <trkpt lat="47.31316" lon="-2.43829">
        <ele>39.200000762939</ele>
        <time>2021-03-25T10:54:04.000Z</time>
      </trkpt>
      <trkpt lat="47.31311" lon="-2.43822">
        <ele>39.200000762939</ele>
        <time>2021-03-25T10:54:05.000Z</time>
      </trkpt>
      <trkpt lat="47.31289" lon="-2.43791">
        <ele>39.200000762939</ele>
        <time>2021-03-25T10:54:09.000Z</time>
      </trkpt>
      <trkpt lat="47.31285" lon="-2.43782">
        <ele>39.200000762939</ele>
        <time>2021-03-25T10:54:10.000Z</time>
      </trkpt>
      <trkpt lat="47.31258" lon="-2.43715">
        <ele>39.200000762939</ele>
        <time>2021-03-25T10:54:17.000Z</time>
      </trkpt>
      <trkpt lat="47.31239" lon="-2.43651">
        <ele>39.200000762939</ele>
        <time>2021-03-25T10:54:23.000Z</time>
      </trkpt>
      <trkpt lat="47.31228" lon="-2.43573">
        <ele>39.200000762939</ele>
        <time>2021-03-25T10:54:30.000Z</time>
      </trkpt>
      <trkpt lat="47.31216" lon="-2.43494">
        <ele>39.200000762939</ele>
        <time>2021-03-25T10:54:37.000Z</time>
      </trkpt>
      <trkpt lat="47.31213" lon="-2.43471">
        <ele>39.200000762939</ele>
        <time>2021-03-25T10:54:39.000Z</time>
      </trkpt>
      <trkpt lat="47.31202" lon="-2.43402">
        <ele>39.200000762939</ele>
        <time>2021-03-25T10:54:45.000Z</time>
      </trkpt>
      <trkpt lat="47.31188" lon="-2.43322">
        <ele>39.200000762939</ele>
        <time>2021-03-25T10:54:52.000Z</time>
      </trkpt>
      <trkpt lat="47.31181" lon="-2.43302">
        <ele>39.200000762939</ele>
        <time>2021-03-25T10:54:54.000Z</time>
      </trkpt>
      <trkpt lat="47.31172" lon="-2.43285">
        <ele>39.200000762939</ele>
        <time>2021-03-25T10:54:56.000Z</time>
      </trkpt>
      <trkpt lat="47.31144" lon="-2.43243">
        <ele>39.200000762939</ele>
        <time>2021-03-25T10:55:02.000Z</time>
      </trkpt>
      <trkpt lat="47.31117" lon="-2.43201">
        <ele>39.200000762939</ele>
        <time>2021-03-25T10:55:09.000Z</time>
      </trkpt>
      <trkpt lat="47.31113" lon="-2.43196">
        <ele>39.200000762939</ele>
        <time>2021-03-25T10:55:10.000Z</time>
      </trkpt>
      <trkpt lat="47.31103" lon="-2.43193">
        <ele>39.200000762939</ele>
        <time>2021-03-25T10:55:12.000Z</time>
      </trkpt>
      <trkpt lat="47.31089" lon="-2.43203">
        <ele>39.200000762939</ele>
        <time>2021-03-25T10:55:15.000Z</time>
      </trkpt>
      <trkpt lat="47.31055" lon="-2.43233">
        <ele>39.200000762939</ele>
        <time>2021-03-25T10:55:22.000Z</time>
      </trkpt>
      <trkpt lat="47.31028" lon="-2.43269">
        <ele>39.200000762939</ele>
        <time>2021-03-25T10:55:28.000Z</time>
      </trkpt>
      <trkpt lat="47.3101" lon="-2.43293">
        <ele>39.200000762939</ele>
        <time>2021-03-25T10:55:32.000Z</time>
      </trkpt>
      <trkpt lat="47.31" lon="-2.43303">
        <ele>39.200000762939</ele>
        <time>2021-03-25T10:55:34.000Z</time>
      </trkpt>
      <trkpt lat="47.30978" lon="-2.43317">
        <ele>39.200000762939</ele>
        <time>2021-03-25T10:55:38.000Z</time>
      </trkpt>
      <trkpt lat="47.30965" lon="-2.43323">
        <ele>39.200000762939</ele>
        <time>2021-03-25T10:55:40.000Z</time>
      </trkpt>
      <trkpt lat="47.30918" lon="-2.43344">
        <ele>39.200000762939</ele>
        <time>2021-03-25T10:55:47.000Z</time>
      </trkpt>
      <trkpt lat="47.30869" lon="-2.43363">
        <ele>39.200000762939</ele>
        <time>2021-03-25T10:55:54.000Z</time>
      </trkpt>
      <trkpt lat="47.30822" lon="-2.43383">
        <ele>39.200000762939</ele>
        <time>2021-03-25T10:56:01.000Z</time>
      </trkpt>
      <trkpt lat="47.30787" lon="-2.43389">
        <ele>39.200000762939</ele>
        <time>2021-03-25T10:56:06.000Z</time>
      </trkpt>
      <trkpt lat="47.30738" lon="-2.4339">
        <ele>39.200000762939</ele>
        <time>2021-03-25T10:56:13.000Z</time>
      </trkpt>
      <trkpt lat="47.30731" lon="-2.4339">
        <ele>38.799999237061</ele>
        <time>2021-03-25T10:56:14.000Z</time>
      </trkpt>
      <trkpt lat="47.30723" lon="-2.4339">
        <ele>38.200000762939</ele>
        <time>2021-03-25T10:56:15.000Z</time>
      </trkpt>
      <trkpt lat="47.30716" lon="-2.43391">
        <ele>37.799999237061</ele>
        <time>2021-03-25T10:56:16.000Z</time>
      </trkpt>
      <trkpt lat="47.30709" lon="-2.43391">
        <ele>37.400001525879</ele>
        <time>2021-03-25T10:56:17.000Z</time>
      </trkpt>
      <trkpt lat="47.30702" lon="-2.43392">
        <ele>37</ele>
        <time>2021-03-25T10:56:18.000Z</time>
      </trkpt>
      <trkpt lat="47.30681" lon="-2.43395">
        <ele>37</ele>
        <time>2021-03-25T10:56:21.000Z</time>
      </trkpt>
      <trkpt lat="47.30634" lon="-2.43405">
        <ele>37</ele>
        <time>2021-03-25T10:56:28.000Z</time>
      </trkpt>
      <trkpt lat="47.30588" lon="-2.43418">
        <ele>37</ele>
        <time>2021-03-25T10:56:35.000Z</time>
      </trkpt>
      <trkpt lat="47.30553" lon="-2.43422">
        <ele>37</ele>
        <time>2021-03-25T10:56:40.000Z</time>
      </trkpt>
      <trkpt lat="47.30546" lon="-2.43421">
        <ele>37</ele>
        <time>2021-03-25T10:56:41.000Z</time>
      </trkpt>
      <trkpt lat="47.30496" lon="-2.43414">
        <ele>37</ele>
        <time>2021-03-25T10:56:48.000Z</time>
      </trkpt>
      <trkpt lat="47.30475" lon="-2.43412">
        <ele>37</ele>
        <time>2021-03-25T10:56:51.000Z</time>
      </trkpt>
      <trkpt lat="47.30462" lon="-2.43414">
        <ele>37</ele>
        <time>2021-03-25T10:56:53.000Z</time>
      </trkpt>
      <trkpt lat="47.30444" lon="-2.43419">
        <ele>37</ele>
        <time>2021-03-25T10:56:56.000Z</time>
      </trkpt>
      <trkpt lat="47.30438" lon="-2.43417">
        <ele>37</ele>
        <time>2021-03-25T10:56:57.000Z</time>
      </trkpt>
      <trkpt lat="47.30425" lon="-2.43396">
        <ele>37</ele>
        <time>2021-03-25T10:57:00.000Z</time>
      </trkpt>
      <trkpt lat="47.30421" lon="-2.43376">
        <ele>37</ele>
        <time>2021-03-25T10:57:02.000Z</time>
      </trkpt>
      <trkpt lat="47.30418" lon="-2.43357">
        <ele>37</ele>
        <time>2021-03-25T10:57:04.000Z</time>
      </trkpt>
      <trkpt lat="47.30404" lon="-2.43293">
        <ele>37</ele>
        <time>2021-03-25T10:57:11.000Z</time>
      </trkpt>
      <trkpt lat="47.30391" lon="-2.43251">
        <ele>37</ele>
        <time>2021-03-25T10:57:16.000Z</time>
      </trkpt>
      <trkpt lat="47.30383" lon="-2.43238">
        <ele>37</ele>
        <time>2021-03-25T10:57:18.000Z</time>
      </trkpt>
      <trkpt lat="47.30366" lon="-2.43232">
        <ele>37</ele>
        <time>2021-03-25T10:57:21.000Z</time>
      </trkpt>
      <trkpt lat="47.30348" lon="-2.43239">
        <ele>37</ele>
        <time>2021-03-25T10:57:24.000Z</time>
      </trkpt>
      <trkpt lat="47.30342" lon="-2.43241">
        <ele>37</ele>
        <time>2021-03-25T10:57:25.000Z</time>
      </trkpt>
      <trkpt lat="47.30307" lon="-2.43251">
        <ele>37</ele>
        <time>2021-03-25T10:57:31.000Z</time>
      </trkpt>
      <trkpt lat="47.30295" lon="-2.43254">
        <ele>37</ele>
        <time>2021-03-25T10:57:33.000Z</time>
      </trkpt>
      <trkpt lat="47.30284" lon="-2.43258">
        <ele>37</ele>
        <time>2021-03-25T10:57:35.000Z</time>
      </trkpt>
      <trkpt lat="47.30272" lon="-2.43262">
        <ele>37</ele>
        <time>2021-03-25T10:57:37.000Z</time>
      </trkpt>
      <trkpt lat="47.30227" lon="-2.43279">
        <ele>37</ele>
        <time>2021-03-25T10:57:45.000Z</time>
      </trkpt>
      <trkpt lat="47.30181" lon="-2.43297">
        <ele>37</ele>
        <time>2021-03-25T10:57:53.000Z</time>
      </trkpt>
      <trkpt lat="47.30142" lon="-2.43312">
        <ele>37</ele>
        <time>2021-03-25T10:58:00.000Z</time>
      </trkpt>
      <trkpt lat="47.30098" lon="-2.43323">
        <ele>37</ele>
        <time>2021-03-25T10:58:08.000Z</time>
      </trkpt>
      <trkpt lat="47.30055" lon="-2.43334">
        <ele>37</ele>
        <time>2021-03-25T10:58:16.000Z</time>
      </trkpt>
      <trkpt lat="47.30029" lon="-2.43334">
        <ele>37</ele>
        <time>2021-03-25T10:58:21.000Z</time>
      </trkpt>
      <trkpt lat="47.3002" lon="-2.43331">
        <ele>37</ele>
        <time>2021-03-25T10:58:23.000Z</time>
      </trkpt>
      <trkpt lat="47.30006" lon="-2.43323">
        <ele>37</ele>
        <time>2021-03-25T10:58:26.000Z</time>
      </trkpt>
      <trkpt lat="47.29994" lon="-2.43312">
        <ele>37</ele>
        <time>2021-03-25T10:58:29.000Z</time>
      </trkpt>
      <trkpt lat="47.29966" lon="-2.43296">
        <ele>37</ele>
        <time>2021-03-25T10:58:35.000Z</time>
      </trkpt>
      <trkpt lat="47.29947" lon="-2.43299">
        <ele>37</ele>
        <time>2021-03-25T10:58:39.000Z</time>
      </trkpt>
      <trkpt lat="47.29933" lon="-2.43304">
        <ele>37</ele>
        <time>2021-03-25T10:58:42.000Z</time>
      </trkpt>
      <trkpt lat="47.2992" lon="-2.43309">
        <ele>37</ele>
        <time>2021-03-25T10:58:45.000Z</time>
      </trkpt>
      <trkpt lat="47.2988" lon="-2.43326">
        <ele>37</ele>
        <time>2021-03-25T10:58:54.000Z</time>
      </trkpt>
      <trkpt lat="47.29876" lon="-2.43328">
        <ele>37</ele>
        <time>2021-03-25T10:58:55.000Z</time>
      </trkpt>
      <trkpt lat="47.29861" lon="-2.43343">
        <ele>37</ele>
        <time>2021-03-25T10:58:59.000Z</time>
      </trkpt>
      <trkpt lat="47.2982" lon="-2.43388">
        <ele>37</ele>
        <time>2021-03-25T10:59:09.000Z</time>
      </trkpt>
      <trkpt lat="47.29816" lon="-2.43392">
        <ele>37.400001525879</ele>
        <time>2021-03-25T10:59:10.000Z</time>
      </trkpt>
      <trkpt lat="47.29812" lon="-2.43397">
        <ele>37.799999237061</ele>
        <time>2021-03-25T10:59:11.000Z</time>
      </trkpt>
      <trkpt lat="47.29808" lon="-2.43401">
        <ele>38.200000762939</ele>
        <time>2021-03-25T10:59:12.000Z</time>
      </trkpt>
      <trkpt lat="47.29804" lon="-2.43406">
        <ele>38.599998474121</ele>
        <time>2021-03-25T10:59:13.000Z</time>
      </trkpt>
      <trkpt lat="47.29799" lon="-2.43411">
        <ele>39</ele>
        <time>2021-03-25T10:59:14.000Z</time>
      </trkpt>
      <trkpt lat="47.29791" lon="-2.43421">
        <ele>39</ele>
        <time>2021-03-25T10:59:16.000Z</time>
      </trkpt>
      <trkpt lat="47.29753" lon="-2.43462">
        <ele>39</ele>
        <time>2021-03-25T10:59:24.000Z</time>
      </trkpt>
      <trkpt lat="47.29716" lon="-2.43494">
        <ele>39</ele>
        <time>2021-03-25T10:59:31.000Z</time>
      </trkpt>
      <trkpt lat="47.29675" lon="-2.43523">
        <ele>39</ele>
        <time>2021-03-25T10:59:38.000Z</time>
      </trkpt>
      <trkpt lat="47.29644" lon="-2.43544">
        <ele>39</ele>
        <time>2021-03-25T10:59:44.000Z</time>
      </trkpt>
      <trkpt lat="47.29626" lon="-2.43551">
        <ele>39</ele>
        <time>2021-03-25T10:59:48.000Z</time>
      </trkpt>
      <trkpt lat="47.29623" lon="-2.43539">
        <ele>39</ele>
        <time>2021-03-25T10:59:50.000Z</time>
      </trkpt>
      <trkpt lat="47.29625" lon="-2.43525">
        <ele>39</ele>
        <time>2021-03-25T10:59:52.000Z</time>
      </trkpt>
      <trkpt lat="47.29625" lon="-2.43517">
        <ele>38.599998474121</ele>
        <time>2021-03-25T10:59:53.000Z</time>
      </trkpt>
      <trkpt lat="47.29625" lon="-2.4351">
        <ele>38.200000762939</ele>
        <time>2021-03-25T10:59:54.000Z</time>
      </trkpt>
      <trkpt lat="47.29624" lon="-2.43503">
        <ele>37.799999237061</ele>
        <time>2021-03-25T10:59:55.000Z</time>
      </trkpt>
      <trkpt lat="47.29622" lon="-2.43496">
        <ele>37.400001525879</ele>
        <time>2021-03-25T10:59:56.000Z</time>
      </trkpt>
      <trkpt lat="47.29619" lon="-2.43491">
        <ele>37</ele>
        <time>2021-03-25T10:59:57.000Z</time>
      </trkpt>
      <trkpt lat="47.29604" lon="-2.4349">
        <ele>37.400001525879</ele>
        <time>2021-03-25T11:00:00.000Z</time>
      </trkpt>
      <trkpt lat="47.29598" lon="-2.43492">
        <ele>38</ele>
        <time>2021-03-25T11:00:01.000Z</time>
      </trkpt>
      <trkpt lat="47.29592" lon="-2.43494">
        <ele>38.599998474121</ele>
        <time>2021-03-25T11:00:02.000Z</time>
      </trkpt>
      <trkpt lat="47.29587" lon="-2.43494">
        <ele>39</ele>
        <time>2021-03-25T11:00:03.000Z</time>
      </trkpt>
      <trkpt lat="47.29581" lon="-2.43495">
        <ele>39.599998474121</ele>
        <time>2021-03-25T11:00:04.000Z</time>
      </trkpt>
      <trkpt lat="47.29574" lon="-2.43495">
        <ele>39.599998474121</ele>
        <time>2021-03-25T11:00:05.000Z</time>
      </trkpt>
      <trkpt lat="47.29531" lon="-2.43491">
        <ele>39.599998474121</ele>
        <time>2021-03-25T11:00:12.000Z</time>
      </trkpt>
      <trkpt lat="47.29519" lon="-2.43489">
        <ele>39.599998474121</ele>
        <time>2021-03-25T11:00:14.000Z</time>
      </trkpt>
      <trkpt lat="47.29502" lon="-2.43482">
        <ele>39.599998474121</ele>
        <time>2021-03-25T11:00:17.000Z</time>
      </trkpt>
      <trkpt lat="47.29474" lon="-2.43464">
        <ele>39.599998474121</ele>
        <time>2021-03-25T11:00:23.000Z</time>
      </trkpt>
      <trkpt lat="47.29469" lon="-2.43462">
        <ele>39.599998474121</ele>
        <time>2021-03-25T11:00:24.000Z</time>
      </trkpt>
      <trkpt lat="47.29459" lon="-2.43461">
        <ele>39.599998474121</ele>
        <time>2021-03-25T11:00:27.000Z</time>
      </trkpt>
      <trkpt lat="47.29449" lon="-2.4346">
        <ele>39.599998474121</ele>
        <time>2021-03-25T11:00:31.000Z</time>
      </trkpt>
      <trkpt lat="47.29445" lon="-2.43449">
        <ele>39.200000762939</ele>
        <time>2021-03-25T11:00:33.000Z</time>
      </trkpt>
      <trkpt lat="47.29443" lon="-2.43444">
        <ele>38.799999237061</ele>
        <time>2021-03-25T11:00:34.000Z</time>
      </trkpt>
      <trkpt lat="47.2944" lon="-2.43437">
        <ele>38.200000762939</ele>
        <time>2021-03-25T11:00:35.000Z</time>
      </trkpt>
      <trkpt lat="47.29438" lon="-2.43431">
        <ele>37.799999237061</ele>
        <time>2021-03-25T11:00:36.000Z</time>
      </trkpt>
      <trkpt lat="47.29437" lon="-2.43424">
        <ele>37.400001525879</ele>
        <time>2021-03-25T11:00:37.000Z</time>
      </trkpt>
      <trkpt lat="47.29435" lon="-2.43409">
        <ele>37.400001525879</ele>
        <time>2021-03-25T11:00:39.000Z</time>
      </trkpt>
      <trkpt lat="47.29433" lon="-2.43402">
        <ele>37.400001525879</ele>
        <time>2021-03-25T11:00:40.000Z</time>
      </trkpt>
      <trkpt lat="47.29423" lon="-2.4339">
        <ele>37.400001525879</ele>
        <time>2021-03-25T11:00:43.000Z</time>
      </trkpt>
      <trkpt lat="47.2941" lon="-2.43381">
        <ele>37.400001525879</ele>
        <time>2021-03-25T11:00:47.000Z</time>
      </trkpt>
      <trkpt lat="47.29403" lon="-2.43354">
        <ele>37.400001525879</ele>
        <time>2021-03-25T11:00:52.000Z</time>
      </trkpt>
      <trkpt lat="47.29393" lon="-2.43338">
        <ele>37.400001525879</ele>
        <time>2021-03-25T11:00:55.000Z</time>
      </trkpt>
      <trkpt lat="47.29389" lon="-2.43333">
        <ele>37.400001525879</ele>
        <time>2021-03-25T11:00:56.000Z</time>
      </trkpt>
      <trkpt lat="47.29363" lon="-2.43297">
        <ele>37.400001525879</ele>
        <time>2021-03-25T11:01:03.000Z</time>
      </trkpt>
      <trkpt lat="47.2936" lon="-2.43277">
        <ele>37.400001525879</ele>
        <time>2021-03-25T11:01:06.000Z</time>
      </trkpt>
      <trkpt lat="47.29359" lon="-2.4327">
        <ele>37.400001525879</ele>
        <time>2021-03-25T11:01:07.000Z</time>
      </trkpt>
      <trkpt lat="47.2936" lon="-2.43248">
        <ele>37.400001525879</ele>
        <time>2021-03-25T11:01:10.000Z</time>
      </trkpt>
      <trkpt lat="47.29364" lon="-2.43234">
        <ele>37.400001525879</ele>
        <time>2021-03-25T11:01:12.000Z</time>
      </trkpt>
      <trkpt lat="47.29374" lon="-2.43214">
        <ele>37.400001525879</ele>
        <time>2021-03-25T11:01:15.000Z</time>
      </trkpt>
      <trkpt lat="47.29374" lon="-2.43189">
        <ele>37.400001525879</ele>
        <time>2021-03-25T11:01:18.000Z</time>
      </trkpt>
      <trkpt lat="47.29373" lon="-2.43181">
        <ele>37.400001525879</ele>
        <time>2021-03-25T11:01:19.000Z</time>
      </trkpt>
      <trkpt lat="47.29368" lon="-2.43157">
        <ele>37.400001525879</ele>
        <time>2021-03-25T11:01:22.000Z</time>
      </trkpt>
      <trkpt lat="47.29365" lon="-2.4315">
        <ele>37.400001525879</ele>
        <time>2021-03-25T11:01:23.000Z</time>
      </trkpt>
      <trkpt lat="47.29358" lon="-2.43129">
        <ele>37.400001525879</ele>
        <time>2021-03-25T11:01:26.000Z</time>
      </trkpt>
      <trkpt lat="47.29349" lon="-2.4311">
        <ele>37.400001525879</ele>
        <time>2021-03-25T11:01:29.000Z</time>
      </trkpt>
      <trkpt lat="47.29339" lon="-2.43092">
        <ele>37.400001525879</ele>
        <time>2021-03-25T11:01:32.000Z</time>
      </trkpt>
      <trkpt lat="47.2933" lon="-2.43084">
        <ele>37.400001525879</ele>
        <time>2021-03-25T11:01:34.000Z</time>
      </trkpt>
      <trkpt lat="47.29312" lon="-2.43073">
        <ele>37.400001525879</ele>
        <time>2021-03-25T11:01:39.000Z</time>
      </trkpt>
      <trkpt lat="47.29305" lon="-2.43059">
        <ele>37.400001525879</ele>
        <time>2021-03-25T11:01:42.000Z</time>
      </trkpt>
      <trkpt lat="47.29306" lon="-2.43038">
        <ele>37.400001525879</ele>
        <time>2021-03-25T11:01:45.000Z</time>
      </trkpt>
      <trkpt lat="47.29308" lon="-2.43023">
        <ele>37.400001525879</ele>
        <time>2021-03-25T11:01:47.000Z</time>
      </trkpt>
      <trkpt lat="47.29313" lon="-2.42985">
        <ele>37.400001525879</ele>
        <time>2021-03-25T11:01:52.000Z</time>
      </trkpt>
      <trkpt lat="47.29314" lon="-2.42977">
        <ele>37.400001525879</ele>
        <time>2021-03-25T11:01:53.000Z</time>
      </trkpt>
      <trkpt lat="47.29314" lon="-2.4296">
        <ele>37.400001525879</ele>
        <time>2021-03-25T11:01:55.000Z</time>
      </trkpt>
      <trkpt lat="47.29312" lon="-2.42942">
        <ele>37.400001525879</ele>
        <time>2021-03-25T11:01:57.000Z</time>
      </trkpt>
      <trkpt lat="47.29312" lon="-2.42934">
        <ele>37.400001525879</ele>
        <time>2021-03-25T11:01:58.000Z</time>
      </trkpt>
      <trkpt lat="47.29315" lon="-2.42917">
        <ele>37.400001525879</ele>
        <time>2021-03-25T11:02:00.000Z</time>
      </trkpt>
      <trkpt lat="47.29331" lon="-2.42861">
        <ele>37.400001525879</ele>
        <time>2021-03-25T11:02:07.000Z</time>
      </trkpt>
      <trkpt lat="47.29338" lon="-2.42845">
        <ele>37.400001525879</ele>
        <time>2021-03-25T11:02:09.000Z</time>
      </trkpt>
      <trkpt lat="47.29351" lon="-2.42823">
        <ele>37.400001525879</ele>
        <time>2021-03-25T11:02:12.000Z</time>
      </trkpt>
      <trkpt lat="47.29356" lon="-2.42817">
        <ele>37.400001525879</ele>
        <time>2021-03-25T11:02:13.000Z</time>
      </trkpt>
      <trkpt lat="47.29371" lon="-2.42802">
        <ele>37.400001525879</ele>
        <time>2021-03-25T11:02:16.000Z</time>
      </trkpt>
      <trkpt lat="47.29375" lon="-2.42797">
        <ele>37.400001525879</ele>
        <time>2021-03-25T11:02:17.000Z</time>
      </trkpt>
      <trkpt lat="47.2938" lon="-2.42782">
        <ele>37.400001525879</ele>
        <time>2021-03-25T11:02:19.000Z</time>
      </trkpt>
      <trkpt lat="47.29384" lon="-2.42766">
        <ele>37.400001525879</ele>
        <time>2021-03-25T11:02:21.000Z</time>
      </trkpt>
      <trkpt lat="47.2939" lon="-2.42741">
        <ele>37.400001525879</ele>
        <time>2021-03-25T11:02:24.000Z</time>
      </trkpt>
      <trkpt lat="47.29409" lon="-2.42692">
        <ele>37.400001525879</ele>
        <time>2021-03-25T11:02:31.000Z</time>
      </trkpt>
      <trkpt lat="47.29416" lon="-2.42676">
        <ele>37.400001525879</ele>
        <time>2021-03-25T11:02:33.000Z</time>
      </trkpt>
      <trkpt lat="47.29419" lon="-2.42657">
        <ele>37.400001525879</ele>
        <time>2021-03-25T11:02:35.000Z</time>
      </trkpt>
      <trkpt lat="47.29422" lon="-2.42603">
        <ele>37.400001525879</ele>
        <time>2021-03-25T11:02:41.000Z</time>
      </trkpt>
      <trkpt lat="47.29424" lon="-2.42587">
        <ele>37.400001525879</ele>
        <time>2021-03-25T11:02:43.000Z</time>
      </trkpt>
      <trkpt lat="47.2943" lon="-2.42574">
        <ele>37.400001525879</ele>
        <time>2021-03-25T11:02:45.000Z</time>
      </trkpt>
      <trkpt lat="47.29439" lon="-2.42563">
        <ele>37.400001525879</ele>
        <time>2021-03-25T11:02:47.000Z</time>
      </trkpt>
      <trkpt lat="47.29452" lon="-2.42547">
        <ele>37.400001525879</ele>
        <time>2021-03-25T11:02:50.000Z</time>
      </trkpt>
      <trkpt lat="47.29472" lon="-2.42528">
        <ele>37.400001525879</ele>
        <time>2021-03-25T11:02:54.000Z</time>
      </trkpt>
      <trkpt lat="47.29477" lon="-2.42523">
        <ele>37.400001525879</ele>
        <time>2021-03-25T11:02:55.000Z</time>
      </trkpt>
      <trkpt lat="47.29502" lon="-2.42497">
        <ele>37.400001525879</ele>
        <time>2021-03-25T11:03:00.000Z</time>
      </trkpt>
      <trkpt lat="47.29506" lon="-2.42491">
        <ele>37.400001525879</ele>
        <time>2021-03-25T11:03:01.000Z</time>
      </trkpt>
      <trkpt lat="47.29523" lon="-2.42477">
        <ele>37.400001525879</ele>
        <time>2021-03-25T11:03:04.000Z</time>
      </trkpt>
      <trkpt lat="47.29529" lon="-2.42471">
        <ele>37.400001525879</ele>
        <time>2021-03-25T11:03:05.000Z</time>
      </trkpt>
      <trkpt lat="47.29547" lon="-2.42443">
        <ele>37.400001525879</ele>
        <time>2021-03-25T11:03:09.000Z</time>
      </trkpt>
      <trkpt lat="47.29567" lon="-2.42424">
        <ele>37.400001525879</ele>
        <time>2021-03-25T11:03:13.000Z</time>
      </trkpt>
      <trkpt lat="47.29586" lon="-2.42423">
        <ele>37.400001525879</ele>
        <time>2021-03-25T11:03:16.000Z</time>
      </trkpt>
      <trkpt lat="47.29603" lon="-2.42429">
        <ele>37.400001525879</ele>
        <time>2021-03-25T11:03:19.000Z</time>
      </trkpt>
      <trkpt lat="47.29613" lon="-2.42434">
        <ele>37.400001525879</ele>
        <time>2021-03-25T11:03:21.000Z</time>
      </trkpt>
      <trkpt lat="47.29624" lon="-2.42434">
        <ele>37.400001525879</ele>
        <time>2021-03-25T11:03:24.000Z</time>
      </trkpt>
      <trkpt lat="47.29627" lon="-2.42428">
        <ele>37.400001525879</ele>
        <time>2021-03-25T11:03:25.000Z</time>
      </trkpt>
      <trkpt lat="47.29631" lon="-2.42406">
        <ele>37.400001525879</ele>
        <time>2021-03-25T11:03:28.000Z</time>
      </trkpt>
      <trkpt lat="47.29632" lon="-2.42398">
        <ele>37.400001525879</ele>
        <time>2021-03-25T11:03:29.000Z</time>
      </trkpt>
      <trkpt lat="47.29644" lon="-2.42343">
        <ele>37.400001525879</ele>
        <time>2021-03-25T11:03:35.000Z</time>
      </trkpt>
      <trkpt lat="47.29662" lon="-2.42268">
        <ele>37.400001525879</ele>
        <time>2021-03-25T11:03:43.000Z</time>
      </trkpt>
      <trkpt lat="47.29672" lon="-2.4223">
        <ele>37.400001525879</ele>
        <time>2021-03-25T11:03:47.000Z</time>
      </trkpt>
      <trkpt lat="47.29679" lon="-2.42213">
        <ele>37.400001525879</ele>
        <time>2021-03-25T11:03:49.000Z</time>
      </trkpt>
      <trkpt lat="47.29706" lon="-2.42165">
        <ele>37.400001525879</ele>
        <time>2021-03-25T11:03:55.000Z</time>
      </trkpt>
      <trkpt lat="47.29743" lon="-2.42099">
        <ele>37.400001525879</ele>
        <time>2021-03-25T11:04:03.000Z</time>
      </trkpt>
      <trkpt lat="47.29747" lon="-2.42091">
        <ele>37.400001525879</ele>
        <time>2021-03-25T11:04:04.000Z</time>
      </trkpt>
      <trkpt lat="47.29779" lon="-2.42033">
        <ele>37.400001525879</ele>
        <time>2021-03-25T11:04:11.000Z</time>
      </trkpt>
      <trkpt lat="47.29786" lon="-2.42014">
        <ele>37.400001525879</ele>
        <time>2021-03-25T11:04:13.000Z</time>
      </trkpt>
      <trkpt lat="47.29788" lon="-2.41992">
        <ele>37.400001525879</ele>
        <time>2021-03-25T11:04:15.000Z</time>
      </trkpt>
      <trkpt lat="47.29781" lon="-2.41952">
        <ele>37.400001525879</ele>
        <time>2021-03-25T11:04:19.000Z</time>
      </trkpt>
      <trkpt lat="47.29768" lon="-2.41875">
        <ele>37.400001525879</ele>
        <time>2021-03-25T11:04:27.000Z</time>
      </trkpt>
      <trkpt lat="47.2977" lon="-2.41825">
        <ele>37.400001525879</ele>
        <time>2021-03-25T11:04:32.000Z</time>
      </trkpt>
      <trkpt lat="47.2977" lon="-2.41768">
        <ele>37.400001525879</ele>
        <time>2021-03-25T11:04:38.000Z</time>
      </trkpt>
      <trkpt lat="47.29768" lon="-2.4175">
        <ele>37.400001525879</ele>
        <time>2021-03-25T11:04:40.000Z</time>
      </trkpt>
      <trkpt lat="47.29761" lon="-2.4174">
        <ele>37.400001525879</ele>
        <time>2021-03-25T11:04:42.000Z</time>
      </trkpt>
      <trkpt lat="47.29748" lon="-2.41746">
        <ele>37.400001525879</ele>
        <time>2021-03-25T11:04:45.000Z</time>
      </trkpt>
      <trkpt lat="47.2974" lon="-2.41756">
        <ele>37.400001525879</ele>
        <time>2021-03-25T11:04:47.000Z</time>
      </trkpt>
      <trkpt lat="47.29736" lon="-2.41761">
        <ele>37.400001525879</ele>
        <time>2021-03-25T11:04:48.000Z</time>
      </trkpt>
      <trkpt lat="47.29725" lon="-2.41777">
        <ele>37.400001525879</ele>
        <time>2021-03-25T11:04:51.000Z</time>
      </trkpt>
      <trkpt lat="47.29708" lon="-2.41808">
        <ele>37.400001525879</ele>
        <time>2021-03-25T11:04:57.000Z</time>
      </trkpt>
      <trkpt lat="47.2969" lon="-2.4182">
        <ele>37.400001525879</ele>
        <time>2021-03-25T11:05:02.000Z</time>
      </trkpt>
      <trkpt lat="47.29668" lon="-2.41823">
        <ele>37.400001525879</ele>
        <time>2021-03-25T11:05:07.000Z</time>
      </trkpt>
      <trkpt lat="47.29655" lon="-2.41826">
        <ele>37.400001525879</ele>
        <time>2021-03-25T11:05:10.000Z</time>
      </trkpt>
      <trkpt lat="47.29651" lon="-2.41823">
        <ele>37.400001525879</ele>
        <time>2021-03-25T11:05:11.000Z</time>
      </trkpt>
      <trkpt lat="47.29641" lon="-2.41804">
        <ele>37.400001525879</ele>
        <time>2021-03-25T11:05:15.000Z</time>
      </trkpt>
      <trkpt lat="47.29633" lon="-2.4177">
        <ele>37.400001525879</ele>
        <time>2021-03-25T11:05:21.000Z</time>
      </trkpt>
      <trkpt lat="47.29619" lon="-2.41752">
        <ele>37.400001525879</ele>
        <time>2021-03-25T11:05:25.000Z</time>
      </trkpt>
      <trkpt lat="47.29612" lon="-2.41744">
        <ele>37.400001525879</ele>
        <time>2021-03-25T11:05:27.000Z</time>
      </trkpt>
      <trkpt lat="47.296" lon="-2.41731">
        <ele>37.400001525879</ele>
        <time>2021-03-25T11:05:30.000Z</time>
      </trkpt>
      <trkpt lat="47.29578" lon="-2.41713">
        <ele>37.400001525879</ele>
        <time>2021-03-25T11:05:35.000Z</time>
      </trkpt>
      <trkpt lat="47.29573" lon="-2.41711">
        <ele>37.400001525879</ele>
        <time>2021-03-25T11:05:36.000Z</time>
      </trkpt>
      <trkpt lat="47.29555" lon="-2.417">
        <ele>37.400001525879</ele>
        <time>2021-03-25T11:05:40.000Z</time>
      </trkpt>
      <trkpt lat="47.29551" lon="-2.41695">
        <ele>37.400001525879</ele>
        <time>2021-03-25T11:05:41.000Z</time>
      </trkpt>
      <trkpt lat="47.29538" lon="-2.41667">
        <ele>37.400001525879</ele>
        <time>2021-03-25T11:05:46.000Z</time>
      </trkpt>
      <trkpt lat="47.29534" lon="-2.41653">
        <ele>37.400001525879</ele>
        <time>2021-03-25T11:05:48.000Z</time>
      </trkpt>
      <trkpt lat="47.29528" lon="-2.41633">
        <ele>37.400001525879</ele>
        <time>2021-03-25T11:05:51.000Z</time>
      </trkpt>
      <trkpt lat="47.29527" lon="-2.41625">
        <ele>37.400001525879</ele>
        <time>2021-03-25T11:05:52.000Z</time>
      </trkpt>
      <trkpt lat="47.29526" lon="-2.41594">
        <ele>37.400001525879</ele>
        <time>2021-03-25T11:05:56.000Z</time>
      </trkpt>
      <trkpt lat="47.29532" lon="-2.41566">
        <ele>37.400001525879</ele>
        <time>2021-03-25T11:06:00.000Z</time>
      </trkpt>
      <trkpt lat="47.29535" lon="-2.41558">
        <ele>37.400001525879</ele>
        <time>2021-03-25T11:06:01.000Z</time>
      </trkpt>
      <trkpt lat="47.29541" lon="-2.41537">
        <ele>37.400001525879</ele>
        <time>2021-03-25T11:06:04.000Z</time>
      </trkpt>
      <trkpt lat="47.2954" lon="-2.41521">
        <ele>37.400001525879</ele>
        <time>2021-03-25T11:06:06.000Z</time>
      </trkpt>
      <trkpt lat="47.2953" lon="-2.41494">
        <ele>37.400001525879</ele>
        <time>2021-03-25T11:06:10.000Z</time>
      </trkpt>
      <trkpt lat="47.29517" lon="-2.41476">
        <ele>37.400001525879</ele>
        <time>2021-03-25T11:06:13.000Z</time>
      </trkpt>
      <trkpt lat="47.2951" lon="-2.41474">
        <ele>37.400001525879</ele>
        <time>2021-03-25T11:06:14.000Z</time>
      </trkpt>
      <trkpt lat="47.29493" lon="-2.41483">
        <ele>37.400001525879</ele>
        <time>2021-03-25T11:06:17.000Z</time>
      </trkpt>
      <trkpt lat="47.29487" lon="-2.41485">
        <ele>37.400001525879</ele>
        <time>2021-03-25T11:06:18.000Z</time>
      </trkpt>
      <trkpt lat="47.29476" lon="-2.41484">
        <ele>37.400001525879</ele>
        <time>2021-03-25T11:06:20.000Z</time>
      </trkpt>
      <trkpt lat="47.29453" lon="-2.41485">
        <ele>37.400001525879</ele>
        <time>2021-03-25T11:06:24.000Z</time>
      </trkpt>
      <trkpt lat="47.29442" lon="-2.41487">
        <ele>37.400001525879</ele>
        <time>2021-03-25T11:06:26.000Z</time>
      </trkpt>
      <trkpt lat="47.29426" lon="-2.41479">
        <ele>37.400001525879</ele>
        <time>2021-03-25T11:06:29.000Z</time>
      </trkpt>
      <trkpt lat="47.29417" lon="-2.41469">
        <ele>37.400001525879</ele>
        <time>2021-03-25T11:06:31.000Z</time>
      </trkpt>
      <trkpt lat="47.29408" lon="-2.41458">
        <ele>37.400001525879</ele>
        <time>2021-03-25T11:06:33.000Z</time>
      </trkpt>
      <trkpt lat="47.29388" lon="-2.41419">
        <ele>37.400001525879</ele>
        <time>2021-03-25T11:06:39.000Z</time>
      </trkpt>
      <trkpt lat="47.29365" lon="-2.41373">
        <ele>37.400001525879</ele>
        <time>2021-03-25T11:06:46.000Z</time>
      </trkpt>
      <trkpt lat="47.29348" lon="-2.41347">
        <ele>37.400001525879</ele>
        <time>2021-03-25T11:06:51.000Z</time>
      </trkpt>
      <trkpt lat="47.29349" lon="-2.41327">
        <ele>37.400001525879</ele>
        <time>2021-03-25T11:06:54.000Z</time>
      </trkpt>
      <trkpt lat="47.29358" lon="-2.41308">
        <ele>37.400001525879</ele>
        <time>2021-03-25T11:06:57.000Z</time>
      </trkpt>
      <trkpt lat="47.29361" lon="-2.41301">
        <ele>37.400001525879</ele>
        <time>2021-03-25T11:06:58.000Z</time>
      </trkpt>
      <trkpt lat="47.29359" lon="-2.41278">
        <ele>37.400001525879</ele>
        <time>2021-03-25T11:07:01.000Z</time>
      </trkpt>
      <trkpt lat="47.29358" lon="-2.4127">
        <ele>37.400001525879</ele>
        <time>2021-03-25T11:07:02.000Z</time>
      </trkpt>
      <trkpt lat="47.29353" lon="-2.41247">
        <ele>37.400001525879</ele>
        <time>2021-03-25T11:07:05.000Z</time>
      </trkpt>
      <trkpt lat="47.29346" lon="-2.41235">
        <ele>37.400001525879</ele>
        <time>2021-03-25T11:07:07.000Z</time>
      </trkpt>
      <trkpt lat="47.29337" lon="-2.41224">
        <ele>37.400001525879</ele>
        <time>2021-03-25T11:07:09.000Z</time>
      </trkpt>
      <trkpt lat="47.29318" lon="-2.41202">
        <ele>37.400001525879</ele>
        <time>2021-03-25T11:07:13.000Z</time>
      </trkpt>
      <trkpt lat="47.293" lon="-2.41178">
        <ele>37.400001525879</ele>
        <time>2021-03-25T11:07:17.000Z</time>
      </trkpt>
      <trkpt lat="47.29297" lon="-2.4117">
        <ele>37.400001525879</ele>
        <time>2021-03-25T11:07:18.000Z</time>
      </trkpt>
      <trkpt lat="47.29287" lon="-2.41146">
        <ele>37.400001525879</ele>
        <time>2021-03-25T11:07:21.000Z</time>
      </trkpt>
      <trkpt lat="47.29283" lon="-2.41138">
        <ele>37.400001525879</ele>
        <time>2021-03-25T11:07:22.000Z</time>
      </trkpt>
      <trkpt lat="47.29279" lon="-2.41131">
        <ele>37.400001525879</ele>
        <time>2021-03-25T11:07:23.000Z</time>
      </trkpt>
      <trkpt lat="47.29264" lon="-2.41113">
        <ele>37.400001525879</ele>
        <time>2021-03-25T11:07:26.000Z</time>
      </trkpt>
      <trkpt lat="47.29254" lon="-2.41101">
        <ele>37.400001525879</ele>
        <time>2021-03-25T11:07:28.000Z</time>
      </trkpt>
      <trkpt lat="47.2925" lon="-2.41095">
        <ele>37.400001525879</ele>
        <time>2021-03-25T11:07:29.000Z</time>
      </trkpt>
      <trkpt lat="47.29245" lon="-2.41073">
        <ele>37.400001525879</ele>
        <time>2021-03-25T11:07:32.000Z</time>
      </trkpt>
      <trkpt lat="47.29254" lon="-2.41053">
        <ele>37.400001525879</ele>
        <time>2021-03-25T11:07:35.000Z</time>
      </trkpt>
      <trkpt lat="47.29253" lon="-2.41035">
        <ele>37.400001525879</ele>
        <time>2021-03-25T11:07:37.000Z</time>
      </trkpt>
      <trkpt lat="47.29241" lon="-2.41017">
        <ele>37.400001525879</ele>
        <time>2021-03-25T11:07:40.000Z</time>
      </trkpt>
      <trkpt lat="47.29226" lon="-2.4099">
        <ele>37.400001525879</ele>
        <time>2021-03-25T11:07:44.000Z</time>
      </trkpt>
      <trkpt lat="47.29223" lon="-2.40982">
        <ele>37.400001525879</ele>
        <time>2021-03-25T11:07:45.000Z</time>
      </trkpt>
      <trkpt lat="47.2921" lon="-2.40954">
        <ele>37.400001525879</ele>
        <time>2021-03-25T11:07:49.000Z</time>
      </trkpt>
      <trkpt lat="47.292" lon="-2.40946">
        <ele>37.400001525879</ele>
        <time>2021-03-25T11:07:51.000Z</time>
      </trkpt>
      <trkpt lat="47.29182" lon="-2.40942">
        <ele>37.400001525879</ele>
        <time>2021-03-25T11:07:54.000Z</time>
      </trkpt>
      <trkpt lat="47.29176" lon="-2.4094">
        <ele>37.400001525879</ele>
        <time>2021-03-25T11:07:55.000Z</time>
      </trkpt>
      <trkpt lat="47.2917" lon="-2.40938">
        <ele>37.400001525879</ele>
        <time>2021-03-25T11:07:56.000Z</time>
      </trkpt>
      <trkpt lat="47.29162" lon="-2.40924">
        <ele>37.400001525879</ele>
        <time>2021-03-25T11:07:58.000Z</time>
      </trkpt>
      <trkpt lat="47.29163" lon="-2.40899">
        <ele>37.400001525879</ele>
        <time>2021-03-25T11:08:01.000Z</time>
      </trkpt>
      <trkpt lat="47.29167" lon="-2.40881">
        <ele>37.400001525879</ele>
        <time>2021-03-25T11:08:03.000Z</time>
      </trkpt>
      <trkpt lat="47.29174" lon="-2.40853">
        <ele>37.400001525879</ele>
        <time>2021-03-25T11:08:06.000Z</time>
      </trkpt>
      <trkpt lat="47.29172" lon="-2.40824">
        <ele>37.400001525879</ele>
        <time>2021-03-25T11:08:09.000Z</time>
      </trkpt>
      <trkpt lat="47.29177" lon="-2.40797">
        <ele>37.400001525879</ele>
        <time>2021-03-25T11:08:12.000Z</time>
      </trkpt>
      <trkpt lat="47.29184" lon="-2.40781">
        <ele>37.400001525879</ele>
        <time>2021-03-25T11:08:14.000Z</time>
      </trkpt>
      <trkpt lat="47.2919" lon="-2.40764">
        <ele>37.400001525879</ele>
        <time>2021-03-25T11:08:16.000Z</time>
      </trkpt>
      <trkpt lat="47.29196" lon="-2.40747">
        <ele>37.400001525879</ele>
        <time>2021-03-25T11:08:18.000Z</time>
      </trkpt>
      <trkpt lat="47.29206" lon="-2.40732">
        <ele>37.400001525879</ele>
        <time>2021-03-25T11:08:20.000Z</time>
      </trkpt>
      <trkpt lat="47.29227" lon="-2.40695">
        <ele>37.400001525879</ele>
        <time>2021-03-25T11:08:25.000Z</time>
      </trkpt>
      <trkpt lat="47.29231" lon="-2.40687">
        <ele>37.400001525879</ele>
        <time>2021-03-25T11:08:26.000Z</time>
      </trkpt>
      <trkpt lat="47.29233" lon="-2.40655">
        <ele>37.400001525879</ele>
        <time>2021-03-25T11:08:29.000Z</time>
      </trkpt>
      <trkpt lat="47.29223" lon="-2.40628">
        <ele>37.400001525879</ele>
        <time>2021-03-25T11:08:32.000Z</time>
      </trkpt>
      <trkpt lat="47.29208" lon="-2.40611">
        <ele>37.400001525879</ele>
        <time>2021-03-25T11:08:35.000Z</time>
      </trkpt>
      <trkpt lat="47.29195" lon="-2.40612">
        <ele>37.400001525879</ele>
        <time>2021-03-25T11:08:37.000Z</time>
      </trkpt>
      <trkpt lat="47.29185" lon="-2.40619">
        <ele>37.400001525879</ele>
        <time>2021-03-25T11:08:39.000Z</time>
      </trkpt>
      <trkpt lat="47.2918" lon="-2.40623">
        <ele>37.400001525879</ele>
        <time>2021-03-25T11:08:40.000Z</time>
      </trkpt>
      <trkpt lat="47.29155" lon="-2.40641">
        <ele>37.400001525879</ele>
        <time>2021-03-25T11:08:45.000Z</time>
      </trkpt>
      <trkpt lat="47.29149" lon="-2.4064">
        <ele>37.400001525879</ele>
        <time>2021-03-25T11:08:46.000Z</time>
      </trkpt>
      <trkpt lat="47.29143" lon="-2.4063">
        <ele>37.400001525879</ele>
        <time>2021-03-25T11:08:48.000Z</time>
      </trkpt>
      <trkpt lat="47.29142" lon="-2.40616">
        <ele>37.400001525879</ele>
        <time>2021-03-25T11:08:50.000Z</time>
      </trkpt>
      <trkpt lat="47.2914" lon="-2.406">
        <ele>37.400001525879</ele>
        <time>2021-03-25T11:08:52.000Z</time>
      </trkpt>
      <trkpt lat="47.29138" lon="-2.40593">
        <ele>37.400001525879</ele>
        <time>2021-03-25T11:08:53.000Z</time>
      </trkpt>
      <trkpt lat="47.2913" lon="-2.40574">
        <ele>37.400001525879</ele>
        <time>2021-03-25T11:08:56.000Z</time>
      </trkpt>
      <trkpt lat="47.29118" lon="-2.40558">
        <ele>37.400001525879</ele>
        <time>2021-03-25T11:08:59.000Z</time>
      </trkpt>
      <trkpt lat="47.29113" lon="-2.40554">
        <ele>37.400001525879</ele>
        <time>2021-03-25T11:09:00.000Z</time>
      </trkpt>
      <trkpt lat="47.29109" lon="-2.4055">
        <ele>37.400001525879</ele>
        <time>2021-03-25T11:09:01.000Z</time>
      </trkpt>
      <trkpt lat="47.29098" lon="-2.40535">
        <ele>37.400001525879</ele>
        <time>2021-03-25T11:09:04.000Z</time>
      </trkpt>
      <trkpt lat="47.29098" lon="-2.40527">
        <ele>37.400001525879</ele>
        <time>2021-03-25T11:09:05.000Z</time>
      </trkpt>
      <trkpt lat="47.29107" lon="-2.40507">
        <ele>37.400001525879</ele>
        <time>2021-03-25T11:09:08.000Z</time>
      </trkpt>
      <trkpt lat="47.29121" lon="-2.40496">
        <ele>37.400001525879</ele>
        <time>2021-03-25T11:09:11.000Z</time>
      </trkpt>
      <trkpt lat="47.29142" lon="-2.40485">
        <ele>37.400001525879</ele>
        <time>2021-03-25T11:09:15.000Z</time>
      </trkpt>
      <trkpt lat="47.29153" lon="-2.40486">
        <ele>37.400001525879</ele>
        <time>2021-03-25T11:09:17.000Z</time>
      </trkpt>
      <trkpt lat="47.29166" lon="-2.40501">
        <ele>37.400001525879</ele>
        <time>2021-03-25T11:09:20.000Z</time>
      </trkpt>
      <trkpt lat="47.29174" lon="-2.40519">
        <ele>37.400001525879</ele>
        <time>2021-03-25T11:09:23.000Z</time>
      </trkpt>
      <trkpt lat="47.29185" lon="-2.40518">
        <ele>37.400001525879</ele>
        <time>2021-03-25T11:09:25.000Z</time>
      </trkpt>
      <trkpt lat="47.292" lon="-2.4051">
        <ele>37.400001525879</ele>
        <time>2021-03-25T11:09:28.000Z</time>
      </trkpt>
      <trkpt lat="47.29211" lon="-2.40504">
        <ele>37.400001525879</ele>
        <time>2021-03-25T11:09:30.000Z</time>
      </trkpt>
      <trkpt lat="47.29247" lon="-2.40483">
        <ele>37.400001525879</ele>
        <time>2021-03-25T11:09:36.000Z</time>
      </trkpt>
      <trkpt lat="47.29265" lon="-2.40473">
        <ele>37.400001525879</ele>
        <time>2021-03-25T11:09:39.000Z</time>
      </trkpt>
      <trkpt lat="47.29277" lon="-2.40469">
        <ele>37.400001525879</ele>
        <time>2021-03-25T11:09:41.000Z</time>
      </trkpt>
      <trkpt lat="47.29289" lon="-2.40462">
        <ele>37.400001525879</ele>
        <time>2021-03-25T11:09:43.000Z</time>
      </trkpt>
      <trkpt lat="47.29296" lon="-2.40447">
        <ele>37.400001525879</ele>
        <time>2021-03-25T11:09:45.000Z</time>
      </trkpt>
      <trkpt lat="47.29302" lon="-2.4043">
        <ele>37.400001525879</ele>
        <time>2021-03-25T11:09:47.000Z</time>
      </trkpt>
      <trkpt lat="47.2931" lon="-2.40404">
        <ele>37.400001525879</ele>
        <time>2021-03-25T11:09:50.000Z</time>
      </trkpt>
      <trkpt lat="47.29305" lon="-2.40388">
        <ele>37.400001525879</ele>
        <time>2021-03-25T11:09:52.000Z</time>
      </trkpt>
      <trkpt lat="47.29297" lon="-2.40374">
        <ele>37.400001525879</ele>
        <time>2021-03-25T11:09:54.000Z</time>
      </trkpt>
      <trkpt lat="47.2929" lon="-2.40358">
        <ele>37.400001525879</ele>
        <time>2021-03-25T11:09:56.000Z</time>
      </trkpt>
      <trkpt lat="47.29288" lon="-2.40351">
        <ele>37.400001525879</ele>
        <time>2021-03-25T11:09:57.000Z</time>
      </trkpt>
      <trkpt lat="47.29292" lon="-2.40335">
        <ele>37.400001525879</ele>
        <time>2021-03-25T11:09:59.000Z</time>
      </trkpt>
      <trkpt lat="47.29305" lon="-2.4032">
        <ele>37.400001525879</ele>
        <time>2021-03-25T11:10:02.000Z</time>
      </trkpt>
      <trkpt lat="47.2933" lon="-2.40291">
        <ele>37.400001525879</ele>
        <time>2021-03-25T11:10:07.000Z</time>
      </trkpt>
      <trkpt lat="47.29341" lon="-2.4028">
        <ele>37.400001525879</ele>
        <time>2021-03-25T11:10:09.000Z</time>
      </trkpt>
      <trkpt lat="47.29357" lon="-2.40267">
        <ele>37.400001525879</ele>
        <time>2021-03-25T11:10:12.000Z</time>
      </trkpt>
      <trkpt lat="47.29362" lon="-2.40262">
        <ele>37.400001525879</ele>
        <time>2021-03-25T11:10:13.000Z</time>
      </trkpt>
      <trkpt lat="47.29377" lon="-2.40246">
        <ele>37.400001525879</ele>
        <time>2021-03-25T11:10:16.000Z</time>
      </trkpt>
      <trkpt lat="47.29382" lon="-2.40243">
        <ele>37.400001525879</ele>
        <time>2021-03-25T11:10:17.000Z</time>
      </trkpt>
      <trkpt lat="47.29423" lon="-2.40218">
        <ele>37.400001525879</ele>
        <time>2021-03-25T11:10:25.000Z</time>
      </trkpt>
      <trkpt lat="47.29429" lon="-2.40216">
        <ele>37.400001525879</ele>
        <time>2021-03-25T11:10:26.000Z</time>
      </trkpt>
      <trkpt lat="47.29441" lon="-2.40216">
        <ele>37.400001525879</ele>
        <time>2021-03-25T11:10:28.000Z</time>
      </trkpt>
      <trkpt lat="47.29449" lon="-2.40202">
        <ele>37.400001525879</ele>
        <time>2021-03-25T11:10:30.000Z</time>
      </trkpt>
      <trkpt lat="47.29452" lon="-2.40184">
        <ele>37.400001525879</ele>
        <time>2021-03-25T11:10:32.000Z</time>
      </trkpt>
      <trkpt lat="47.29455" lon="-2.40167">
        <ele>37.400001525879</ele>
        <time>2021-03-25T11:10:34.000Z</time>
      </trkpt>
      <trkpt lat="47.29458" lon="-2.40133">
        <ele>37.400001525879</ele>
        <time>2021-03-25T11:10:38.000Z</time>
      </trkpt>
      <trkpt lat="47.29458" lon="-2.40124">
        <ele>37.400001525879</ele>
        <time>2021-03-25T11:10:39.000Z</time>
      </trkpt>
      <trkpt lat="47.29459" lon="-2.40115">
        <ele>37.400001525879</ele>
        <time>2021-03-25T11:10:40.000Z</time>
      </trkpt>
      <trkpt lat="47.29463" lon="-2.40088">
        <ele>37.400001525879</ele>
        <time>2021-03-25T11:10:43.000Z</time>
      </trkpt>
      <trkpt lat="47.29464" lon="-2.40041">
        <ele>37.400001525879</ele>
        <time>2021-03-25T11:10:48.000Z</time>
      </trkpt>
      <trkpt lat="47.29463" lon="-2.40032">
        <ele>37.400001525879</ele>
        <time>2021-03-25T11:10:49.000Z</time>
      </trkpt>
      <trkpt lat="47.29462" lon="-2.39997">
        <ele>37.400001525879</ele>
        <time>2021-03-25T11:10:53.000Z</time>
      </trkpt>
      <trkpt lat="47.29466" lon="-2.39973">
        <ele>37.400001525879</ele>
        <time>2021-03-25T11:10:56.000Z</time>
      </trkpt>
      <trkpt lat="47.29471" lon="-2.39957">
        <ele>37.400001525879</ele>
        <time>2021-03-25T11:10:58.000Z</time>
      </trkpt>
      <trkpt lat="47.29485" lon="-2.39922">
        <ele>37.400001525879</ele>
        <time>2021-03-25T11:11:03.000Z</time>
      </trkpt>
      <trkpt lat="47.29492" lon="-2.39902">
        <ele>37.400001525879</ele>
        <time>2021-03-25T11:11:07.000Z</time>
      </trkpt>
      <trkpt lat="47.29499" lon="-2.39895">
        <ele>37.400001525879</ele>
        <time>2021-03-25T11:11:09.000Z</time>
      </trkpt>
      <trkpt lat="47.29503" lon="-2.3989">
        <ele>37.400001525879</ele>
        <time>2021-03-25T11:11:10.000Z</time>
      </trkpt>
      <trkpt lat="47.29507" lon="-2.39884">
        <ele>37.400001525879</ele>
        <time>2021-03-25T11:11:11.000Z</time>
      </trkpt>
      <trkpt lat="47.29517" lon="-2.39863">
        <ele>37.400001525879</ele>
        <time>2021-03-25T11:11:14.000Z</time>
      </trkpt>
      <trkpt lat="47.29538" lon="-2.39819">
        <ele>37.400001525879</ele>
        <time>2021-03-25T11:11:20.000Z</time>
      </trkpt>
      <trkpt lat="47.2956" lon="-2.39772">
        <ele>37.400001525879</ele>
        <time>2021-03-25T11:11:26.000Z</time>
      </trkpt>
      <trkpt lat="47.29586" lon="-2.3972">
        <ele>37.400001525879</ele>
        <time>2021-03-25T11:11:33.000Z</time>
      </trkpt>
      <trkpt lat="47.29594" lon="-2.39706">
        <ele>37.400001525879</ele>
        <time>2021-03-25T11:11:35.000Z</time>
      </trkpt>
      <trkpt lat="47.29609" lon="-2.39678">
        <ele>37.400001525879</ele>
        <time>2021-03-25T11:11:39.000Z</time>
      </trkpt>
      <trkpt lat="47.29621" lon="-2.39658">
        <ele>37.400001525879</ele>
        <time>2021-03-25T11:11:42.000Z</time>
      </trkpt>
      <trkpt lat="47.29627" lon="-2.39641">
        <ele>37.400001525879</ele>
        <time>2021-03-25T11:11:44.000Z</time>
      </trkpt>
      <trkpt lat="47.2963" lon="-2.39607">
        <ele>37.400001525879</ele>
        <time>2021-03-25T11:11:48.000Z</time>
      </trkpt>
      <trkpt lat="47.29631" lon="-2.39572">
        <ele>37.400001525879</ele>
        <time>2021-03-25T11:11:53.000Z</time>
      </trkpt>
      <trkpt lat="47.29626" lon="-2.3957">
        <ele>37.400001525879</ele>
        <time>2021-03-25T11:11:55.000Z</time>
      </trkpt>
      <trkpt lat="47.29619" lon="-2.39572">
        <ele>37.400001525879</ele>
        <time>2021-03-25T11:11:57.000Z</time>
      </trkpt>
      <trkpt lat="47.29616" lon="-2.3957">
        <ele>38</ele>
        <time>2021-03-25T11:11:58.000Z</time>
      </trkpt>
      <trkpt lat="47.29614" lon="-2.39567">
        <ele>38.400001525879</ele>
        <time>2021-03-25T11:11:59.000Z</time>
      </trkpt>
      <trkpt lat="47.29614" lon="-2.39567">
        <ele>38.799999237061</ele>
        <time>2021-03-25T11:12:00.000Z</time>
      </trkpt>
      <trkpt lat="47.29615" lon="-2.39566">
        <ele>39.200000762939</ele>
        <time>2021-03-25T11:12:01.000Z</time>
      </trkpt>
      <trkpt lat="47.29616" lon="-2.39566">
        <ele>39.799999237061</ele>
        <time>2021-03-25T11:12:02.000Z</time>
      </trkpt>
      <trkpt lat="47.29621" lon="-2.39566">
        <ele>39.799999237061</ele>
        <time>2021-03-25T11:12:05.000Z</time>
      </trkpt>
      <trkpt lat="47.29622" lon="-2.39564">
        <ele>39.799999237061</ele>
        <time>2021-03-25T11:12:06.000Z</time>
      </trkpt>
      <trkpt lat="47.29625" lon="-2.39554">
        <ele>40.200000762939</ele>
        <time>2021-03-25T11:12:10.000Z</time>
      </trkpt>
      <trkpt lat="47.29623" lon="-2.39553">
        <ele>40.599998474121</ele>
        <time>2021-03-25T11:12:11.000Z</time>
      </trkpt>
      <trkpt lat="47.29619" lon="-2.39554">
        <ele>41</ele>
        <time>2021-03-25T11:12:12.000Z</time>
      </trkpt>
      <trkpt lat="47.29616" lon="-2.39554">
        <ele>41.400001525879</ele>
        <time>2021-03-25T11:12:13.000Z</time>
      </trkpt>
      <trkpt lat="47.29613" lon="-2.39554">
        <ele>41.799999237061</ele>
        <time>2021-03-25T11:12:14.000Z</time>
      </trkpt>
      <trkpt lat="47.29609" lon="-2.39554">
        <ele>41.799999237061</ele>
        <time>2021-03-25T11:12:15.000Z</time>
      </trkpt>
      <trkpt lat="47.296" lon="-2.39551">
        <ele>42.200000762939</ele>
        <time>2021-03-25T11:12:18.000Z</time>
      </trkpt>
      <trkpt lat="47.29597" lon="-2.3955">
        <ele>42.599998474121</ele>
        <time>2021-03-25T11:12:19.000Z</time>
      </trkpt>
      <trkpt lat="47.29595" lon="-2.39549">
        <ele>43.200000762939</ele>
        <time>2021-03-25T11:12:20.000Z</time>
      </trkpt>
      <trkpt lat="47.29593" lon="-2.39549">
        <ele>43.599998474121</ele>
        <time>2021-03-25T11:12:21.000Z</time>
      </trkpt>
      <trkpt lat="47.29591" lon="-2.39548">
        <ele>44</ele>
        <time>2021-03-25T11:12:22.000Z</time>
      </trkpt>
      <trkpt lat="47.29573" lon="-2.39545">
        <ele>44</ele>
        <time>2021-03-25T11:12:27.000Z</time>
      </trkpt>
      <trkpt lat="47.29547" lon="-2.39538">
        <ele>44</ele>
        <time>2021-03-25T11:12:31.000Z</time>
      </trkpt>
      <trkpt lat="47.29524" lon="-2.39534">
        <ele>43.599998474121</ele>
        <time>2021-03-25T11:12:34.000Z</time>
      </trkpt>
      <trkpt lat="47.29515" lon="-2.39532">
        <ele>43</ele>
        <time>2021-03-25T11:12:35.000Z</time>
      </trkpt>
      <trkpt lat="47.29508" lon="-2.3953">
        <ele>42.599998474121</ele>
        <time>2021-03-25T11:12:36.000Z</time>
      </trkpt>
      <trkpt lat="47.295" lon="-2.39529">
        <ele>42.200000762939</ele>
        <time>2021-03-25T11:12:37.000Z</time>
      </trkpt>
      <trkpt lat="47.29493" lon="-2.39527">
        <ele>41.799999237061</ele>
        <time>2021-03-25T11:12:38.000Z</time>
      </trkpt>
      <trkpt lat="47.29452" lon="-2.39519">
        <ele>41.799999237061</ele>
        <time>2021-03-25T11:12:44.000Z</time>
      </trkpt>
      <trkpt lat="47.29408" lon="-2.3951">
        <ele>41.799999237061</ele>
        <time>2021-03-25T11:12:51.000Z</time>
      </trkpt>
      <trkpt lat="47.2937" lon="-2.39503">
        <ele>41.799999237061</ele>
        <time>2021-03-25T11:12:57.000Z</time>
      </trkpt>
      <trkpt lat="47.29345" lon="-2.39498">
        <ele>41.200000762939</ele>
        <time>2021-03-25T11:13:01.000Z</time>
      </trkpt>
      <trkpt lat="47.29339" lon="-2.39497">
        <ele>40.799999237061</ele>
        <time>2021-03-25T11:13:02.000Z</time>
      </trkpt>
      <trkpt lat="47.29334" lon="-2.39496">
        <ele>40.400001525879</ele>
        <time>2021-03-25T11:13:03.000Z</time>
      </trkpt>
      <trkpt lat="47.29328" lon="-2.39496">
        <ele>40</ele>
        <time>2021-03-25T11:13:04.000Z</time>
      </trkpt>
      <trkpt lat="47.29323" lon="-2.39495">
        <ele>39.400001525879</ele>
        <time>2021-03-25T11:13:05.000Z</time>
      </trkpt>
      <trkpt lat="47.29282" lon="-2.39488">
        <ele>39.400001525879</ele>
        <time>2021-03-25T11:13:13.000Z</time>
      </trkpt>
      <trkpt lat="47.29252" lon="-2.39483">
        <ele>39.400001525879</ele>
        <time>2021-03-25T11:13:19.000Z</time>
      </trkpt>
      <trkpt lat="47.29208" lon="-2.39475">
        <ele>39.400001525879</ele>
        <time>2021-03-25T11:13:27.000Z</time>
      </trkpt>
      <trkpt lat="47.29178" lon="-2.39471">
        <ele>39.400001525879</ele>
        <time>2021-03-25T11:13:33.000Z</time>
      </trkpt>
      <trkpt lat="47.29159" lon="-2.39468">
        <ele>39.400001525879</ele>
        <time>2021-03-25T11:13:38.000Z</time>
      </trkpt>
      <trkpt lat="47.29143" lon="-2.39466">
        <ele>39.400001525879</ele>
        <time>2021-03-25T11:13:44.000Z</time>
      </trkpt>
      <trkpt lat="47.29137" lon="-2.39462">
        <ele>39.400001525879</ele>
        <time>2021-03-25T11:13:46.000Z</time>
      </trkpt>
      <trkpt lat="47.29135" lon="-2.39459">
        <ele>39.400001525879</ele>
        <time>2021-03-25T11:13:47.000Z</time>
      </trkpt>
      <trkpt lat="47.2913" lon="-2.39441">
        <ele>39.400001525879</ele>
        <time>2021-03-25T11:13:50.000Z</time>
      </trkpt>
      <trkpt lat="47.2913" lon="-2.39415">
        <ele>39.400001525879</ele>
        <time>2021-03-25T11:13:53.000Z</time>
      </trkpt>
      <trkpt lat="47.2913" lon="-2.39406">
        <ele>39.400001525879</ele>
        <time>2021-03-25T11:13:54.000Z</time>
      </trkpt>
      <trkpt lat="47.2913" lon="-2.39378">
        <ele>39.400001525879</ele>
        <time>2021-03-25T11:13:57.000Z</time>
      </trkpt>
      <trkpt lat="47.29124" lon="-2.39366">
        <ele>39.400001525879</ele>
        <time>2021-03-25T11:13:59.000Z</time>
      </trkpt>
      <trkpt lat="47.29113" lon="-2.39368">
        <ele>39.400001525879</ele>
        <time>2021-03-25T11:14:01.000Z</time>
      </trkpt>
      <trkpt lat="47.29099" lon="-2.39376">
        <ele>39.400001525879</ele>
        <time>2021-03-25T11:14:04.000Z</time>
      </trkpt>
      <trkpt lat="47.29094" lon="-2.39378">
        <ele>39.400001525879</ele>
        <time>2021-03-25T11:14:05.000Z</time>
      </trkpt>
      <trkpt lat="47.29085" lon="-2.39371">
        <ele>40</ele>
        <time>2021-03-25T11:14:07.000Z</time>
      </trkpt>
      <trkpt lat="47.29081" lon="-2.39365">
        <ele>40.400001525879</ele>
        <time>2021-03-25T11:14:08.000Z</time>
      </trkpt>
      <trkpt lat="47.29077" lon="-2.3936">
        <ele>41.400001525879</ele>
        <time>2021-03-25T11:14:09.000Z</time>
      </trkpt>
      <trkpt lat="47.29072" lon="-2.39356">
        <ele>41.799999237061</ele>
        <time>2021-03-25T11:14:10.000Z</time>
      </trkpt>
      <trkpt lat="47.29054" lon="-2.39348">
        <ele>41.799999237061</ele>
        <time>2021-03-25T11:14:13.000Z</time>
      </trkpt>
      <trkpt lat="47.29031" lon="-2.39339">
        <ele>41.200000762939</ele>
        <time>2021-03-25T11:14:17.000Z</time>
      </trkpt>
      <trkpt lat="47.29026" lon="-2.39337">
        <ele>40.799999237061</ele>
        <time>2021-03-25T11:14:18.000Z</time>
      </trkpt>
      <trkpt lat="47.29022" lon="-2.39334">
        <ele>40.200000762939</ele>
        <time>2021-03-25T11:14:19.000Z</time>
      </trkpt>
      <trkpt lat="47.29017" lon="-2.39331">
        <ele>39.799999237061</ele>
        <time>2021-03-25T11:14:20.000Z</time>
      </trkpt>
      <trkpt lat="47.29012" lon="-2.39329">
        <ele>39.200000762939</ele>
        <time>2021-03-25T11:14:21.000Z</time>
      </trkpt>
      <trkpt lat="47.28985" lon="-2.39319">
        <ele>39.200000762939</ele>
        <time>2021-03-25T11:14:27.000Z</time>
      </trkpt>
      <trkpt lat="47.28968" lon="-2.3932">
        <ele>39.200000762939</ele>
        <time>2021-03-25T11:14:32.000Z</time>
      </trkpt>
      <trkpt lat="47.28948" lon="-2.39315">
        <ele>39.200000762939</ele>
        <time>2021-03-25T11:14:38.000Z</time>
      </trkpt>
      <trkpt lat="47.28946" lon="-2.39312">
        <ele>39.200000762939</ele>
        <time>2021-03-25T11:14:39.000Z</time>
      </trkpt>
      <trkpt lat="47.28944" lon="-2.39305">
        <ele>39.200000762939</ele>
        <time>2021-03-25T11:14:42.000Z</time>
      </trkpt>
      <trkpt lat="47.28943" lon="-2.39301">
        <ele>39.200000762939</ele>
        <time>2021-03-25T11:14:43.000Z</time>
      </trkpt>
      <trkpt lat="47.28938" lon="-2.3928">
        <ele>39.200000762939</ele>
        <time>2021-03-25T11:14:47.000Z</time>
      </trkpt>
      <trkpt lat="47.28936" lon="-2.39265">
        <ele>39.200000762939</ele>
        <time>2021-03-25T11:14:49.000Z</time>
      </trkpt>
      <trkpt lat="47.28935" lon="-2.39244">
        <ele>39.200000762939</ele>
        <time>2021-03-25T11:14:52.000Z</time>
      </trkpt>
      <trkpt lat="47.28933" lon="-2.39197">
        <ele>39.200000762939</ele>
        <time>2021-03-25T11:14:59.000Z</time>
      </trkpt>
      <trkpt lat="47.28932" lon="-2.39169">
        <ele>39.200000762939</ele>
        <time>2021-03-25T11:15:04.000Z</time>
      </trkpt>
      <trkpt lat="47.28935" lon="-2.39136">
        <ele>39.200000762939</ele>
        <time>2021-03-25T11:15:09.000Z</time>
      </trkpt>
      <trkpt lat="47.28941" lon="-2.39084">
        <ele>39.200000762939</ele>
        <time>2021-03-25T11:15:16.000Z</time>
      </trkpt>
      <trkpt lat="47.28948" lon="-2.39017">
        <ele>39.200000762939</ele>
        <time>2021-03-25T11:15:24.000Z</time>
      </trkpt>
      <trkpt lat="47.2895" lon="-2.38992">
        <ele>39.200000762939</ele>
        <time>2021-03-25T11:15:27.000Z</time>
      </trkpt>
      <trkpt lat="47.28952" lon="-2.38967">
        <ele>39.200000762939</ele>
        <time>2021-03-25T11:15:30.000Z</time>
      </trkpt>
      <trkpt lat="47.28956" lon="-2.38899">
        <ele>39.200000762939</ele>
        <time>2021-03-25T11:15:38.000Z</time>
      </trkpt>
      <trkpt lat="47.28959" lon="-2.38847">
        <ele>39.200000762939</ele>
        <time>2021-03-25T11:15:45.000Z</time>
      </trkpt>
      <trkpt lat="47.2896" lon="-2.38789">
        <ele>39.200000762939</ele>
        <time>2021-03-25T11:15:52.000Z</time>
      </trkpt>
      <trkpt lat="47.28959" lon="-2.38716">
        <ele>39.200000762939</ele>
        <time>2021-03-25T11:16:01.000Z</time>
      </trkpt>
      <trkpt lat="47.28959" lon="-2.38655">
        <ele>39.200000762939</ele>
        <time>2021-03-25T11:16:08.000Z</time>
      </trkpt>
      <trkpt lat="47.28956" lon="-2.38582">
        <ele>39.200000762939</ele>
        <time>2021-03-25T11:16:16.000Z</time>
      </trkpt>
      <trkpt lat="47.28948" lon="-2.38497">
        <ele>39.200000762939</ele>
        <time>2021-03-25T11:16:25.000Z</time>
      </trkpt>
      <trkpt lat="47.28942" lon="-2.38431">
        <ele>39.200000762939</ele>
        <time>2021-03-25T11:16:33.000Z</time>
      </trkpt>
      <trkpt lat="47.28938" lon="-2.3837">
        <ele>39.200000762939</ele>
        <time>2021-03-25T11:16:40.000Z</time>
      </trkpt>
      <trkpt lat="47.28935" lon="-2.38289">
        <ele>39.200000762939</ele>
        <time>2021-03-25T11:16:49.000Z</time>
      </trkpt>
      <trkpt lat="47.28936" lon="-2.38231">
        <ele>39.200000762939</ele>
        <time>2021-03-25T11:16:56.000Z</time>
      </trkpt>
      <trkpt lat="47.28924" lon="-2.38218">
        <ele>39.200000762939</ele>
        <time>2021-03-25T11:16:59.000Z</time>
      </trkpt>
      <trkpt lat="47.28915" lon="-2.38213">
        <ele>39.200000762939</ele>
        <time>2021-03-25T11:17:01.000Z</time>
      </trkpt>
      <trkpt lat="47.28911" lon="-2.38212">
        <ele>39.200000762939</ele>
        <time>2021-03-25T11:17:02.000Z</time>
      </trkpt>
      <trkpt lat="47.28904" lon="-2.38205">
        <ele>39.200000762939</ele>
        <time>2021-03-25T11:17:04.000Z</time>
      </trkpt>
      <trkpt lat="47.28901" lon="-2.382">
        <ele>39.200000762939</ele>
        <time>2021-03-25T11:17:05.000Z</time>
      </trkpt>
      <trkpt lat="47.28899" lon="-2.38187">
        <ele>39.200000762939</ele>
        <time>2021-03-25T11:17:07.000Z</time>
      </trkpt>
      <trkpt lat="47.28901" lon="-2.3817">
        <ele>39.200000762939</ele>
        <time>2021-03-25T11:17:09.000Z</time>
      </trkpt>
      <trkpt lat="47.28901" lon="-2.38161">
        <ele>39.200000762939</ele>
        <time>2021-03-25T11:17:10.000Z</time>
      </trkpt>
      <trkpt lat="47.28906" lon="-2.38104">
        <ele>39.200000762939</ele>
        <time>2021-03-25T11:17:17.000Z</time>
      </trkpt>
      <trkpt lat="47.28907" lon="-2.38076">
        <ele>39.200000762939</ele>
        <time>2021-03-25T11:17:21.000Z</time>
      </trkpt>
      <trkpt lat="47.28909" lon="-2.38064">
        <ele>39.200000762939</ele>
        <time>2021-03-25T11:17:23.000Z</time>
      </trkpt>
      <trkpt lat="47.2891" lon="-2.38052">
        <ele>39.200000762939</ele>
        <time>2021-03-25T11:17:25.000Z</time>
      </trkpt>
      <trkpt lat="47.28909" lon="-2.38026">
        <ele>39.200000762939</ele>
        <time>2021-03-25T11:17:29.000Z</time>
      </trkpt>
      <trkpt lat="47.28912" lon="-2.37974">
        <ele>39.200000762939</ele>
        <time>2021-03-25T11:17:36.000Z</time>
      </trkpt>
      <trkpt lat="47.28917" lon="-2.37909">
        <ele>39.200000762939</ele>
        <time>2021-03-25T11:17:44.000Z</time>
      </trkpt>
      <trkpt lat="47.28921" lon="-2.37857">
        <ele>39.200000762939</ele>
        <time>2021-03-25T11:17:51.000Z</time>
      </trkpt>
      <trkpt lat="47.28924" lon="-2.37834">
        <ele>39.200000762939</ele>
        <time>2021-03-25T11:17:54.000Z</time>
      </trkpt>
      <trkpt lat="47.28925" lon="-2.37811">
        <ele>39.200000762939</ele>
        <time>2021-03-25T11:17:57.000Z</time>
      </trkpt>
      <trkpt lat="47.28931" lon="-2.37742">
        <ele>39.200000762939</ele>
        <time>2021-03-25T11:18:06.000Z</time>
      </trkpt>
      <trkpt lat="47.28935" lon="-2.37695">
        <ele>39.200000762939</ele>
        <time>2021-03-25T11:18:12.000Z</time>
      </trkpt>
      <trkpt lat="47.28936" lon="-2.37654">
        <ele>39.200000762939</ele>
        <time>2021-03-25T11:18:18.000Z</time>
      </trkpt>
      <trkpt lat="47.28933" lon="-2.37648">
        <ele>39.200000762939</ele>
        <time>2021-03-25T11:18:19.000Z</time>
      </trkpt>
      <trkpt lat="47.28919" lon="-2.37645">
        <ele>39.200000762939</ele>
        <time>2021-03-25T11:18:22.000Z</time>
      </trkpt>
      <trkpt lat="47.28913" lon="-2.37646">
        <ele>39.599998474121</ele>
        <time>2021-03-25T11:18:23.000Z</time>
      </trkpt>
      <trkpt lat="47.28908" lon="-2.37648">
        <ele>40.200000762939</ele>
        <time>2021-03-25T11:18:24.000Z</time>
      </trkpt>
      <trkpt lat="47.28903" lon="-2.37649">
        <ele>40.599998474121</ele>
        <time>2021-03-25T11:18:25.000Z</time>
      </trkpt>
      <trkpt lat="47.28898" lon="-2.37652">
        <ele>41</ele>
        <time>2021-03-25T11:18:26.000Z</time>
      </trkpt>
      <trkpt lat="47.28892" lon="-2.37653">
        <ele>41.400001525879</ele>
        <time>2021-03-25T11:18:27.000Z</time>
      </trkpt>
      <trkpt lat="47.28887" lon="-2.37654">
        <ele>41.400001525879</ele>
        <time>2021-03-25T11:18:28.000Z</time>
      </trkpt>
      <trkpt lat="47.28865" lon="-2.37656">
        <ele>41.400001525879</ele>
        <time>2021-03-25T11:18:34.000Z</time>
      </trkpt>
      <trkpt lat="47.28863" lon="-2.37653">
        <ele>41.400001525879</ele>
        <time>2021-03-25T11:18:35.000Z</time>
      </trkpt>
      <trkpt lat="47.2886" lon="-2.37647">
        <ele>41.400001525879</ele>
        <time>2021-03-25T11:18:38.000Z</time>
      </trkpt>
      <trkpt lat="47.28856" lon="-2.37628">
        <ele>41.400001525879</ele>
        <time>2021-03-25T11:18:45.000Z</time>
      </trkpt>
      <trkpt lat="47.28859" lon="-2.37611">
        <ele>41.400001525879</ele>
        <time>2021-03-25T11:18:50.000Z</time>
      </trkpt>
      <trkpt lat="47.28861" lon="-2.37583">
        <ele>41.400001525879</ele>
        <time>2021-03-25T11:18:55.000Z</time>
      </trkpt>
      <trkpt lat="47.28863" lon="-2.37578">
        <ele>41.400001525879</ele>
        <time>2021-03-25T11:18:56.000Z</time>
      </trkpt>
      <trkpt lat="47.28867" lon="-2.37568">
        <ele>41.400001525879</ele>
        <time>2021-03-25T11:18:58.000Z</time>
      </trkpt>
      <trkpt lat="47.28873" lon="-2.37557">
        <ele>41.400001525879</ele>
        <time>2021-03-25T11:19:00.000Z</time>
      </trkpt>
      <trkpt lat="47.28883" lon="-2.37528">
        <ele>41.400001525879</ele>
        <time>2021-03-25T11:19:05.000Z</time>
      </trkpt>
      <trkpt lat="47.28883" lon="-2.37522">
        <ele>41.400001525879</ele>
        <time>2021-03-25T11:19:06.000Z</time>
      </trkpt>
      <trkpt lat="47.2888" lon="-2.37488">
        <ele>41.400001525879</ele>
        <time>2021-03-25T11:19:12.000Z</time>
      </trkpt>
      <trkpt lat="47.28874" lon="-2.37446">
        <ele>41.400001525879</ele>
        <time>2021-03-25T11:19:19.000Z</time>
      </trkpt>
      <trkpt lat="47.28865" lon="-2.37395">
        <ele>41.400001525879</ele>
        <time>2021-03-25T11:19:27.000Z</time>
      </trkpt>
      <trkpt lat="47.28859" lon="-2.37347">
        <ele>41.400001525879</ele>
        <time>2021-03-25T11:19:34.000Z</time>
      </trkpt>
      <trkpt lat="47.28859" lon="-2.3734">
        <ele>41.400001525879</ele>
        <time>2021-03-25T11:19:35.000Z</time>
      </trkpt>
      <trkpt lat="47.28857" lon="-2.37304">
        <ele>41.799999237061</ele>
        <time>2021-03-25T11:19:40.000Z</time>
      </trkpt>
      <trkpt lat="47.28857" lon="-2.37298">
        <ele>42.200000762939</ele>
        <time>2021-03-25T11:19:41.000Z</time>
      </trkpt>
      <trkpt lat="47.28857" lon="-2.37292">
        <ele>42.599998474121</ele>
        <time>2021-03-25T11:19:42.000Z</time>
      </trkpt>
      <trkpt lat="47.28857" lon="-2.37286">
        <ele>43</ele>
        <time>2021-03-25T11:19:43.000Z</time>
      </trkpt>
      <trkpt lat="47.28856" lon="-2.37281">
        <ele>43.400001525879</ele>
        <time>2021-03-25T11:19:44.000Z</time>
      </trkpt>
      <trkpt lat="47.28854" lon="-2.3727">
        <ele>43.400001525879</ele>
        <time>2021-03-25T11:19:46.000Z</time>
      </trkpt>
      <trkpt lat="47.28853" lon="-2.37255">
        <ele>43.400001525879</ele>
        <time>2021-03-25T11:19:51.000Z</time>
      </trkpt>
      <trkpt lat="47.28848" lon="-2.37242">
        <ele>43.400001525879</ele>
        <time>2021-03-25T11:19:58.000Z</time>
      </trkpt>
      <trkpt lat="47.28841" lon="-2.37236">
        <ele>43.400001525879</ele>
        <time>2021-03-25T11:20:02.000Z</time>
      </trkpt>
      <trkpt lat="47.28837" lon="-2.37218">
        <ele>43.400001525879</ele>
        <time>2021-03-25T11:20:06.000Z</time>
      </trkpt>
      <trkpt lat="47.2883" lon="-2.37179">
        <ele>43.400001525879</ele>
        <time>2021-03-25T11:20:13.000Z</time>
      </trkpt>
      <trkpt lat="47.28825" lon="-2.37147">
        <ele>43.400001525879</ele>
        <time>2021-03-25T11:20:20.000Z</time>
      </trkpt>
      <trkpt lat="47.28822" lon="-2.37133">
        <ele>43.400001525879</ele>
        <time>2021-03-25T11:20:25.000Z</time>
      </trkpt>
      <trkpt lat="47.28824" lon="-2.37118">
        <ele>43.400001525879</ele>
        <time>2021-03-25T11:20:32.000Z</time>
      </trkpt>
      <trkpt lat="47.28824" lon="-2.37116">
        <ele>43.400001525879</ele>
        <time>2021-03-25T11:20:34.000Z</time>
      </trkpt>
      <trkpt lat="47.28821" lon="-2.37122">
        <ele>45.599998474121</ele>
        <time>2021-03-25T11:20:41.000Z</time>
      </trkpt>
      <trkpt lat="47.28819" lon="-2.37123">
        <ele>46</ele>
        <time>2021-03-25T11:20:42.000Z</time>
      </trkpt>
      <trkpt lat="47.28818" lon="-2.37122">
        <ele>46.799999237061</ele>
        <time>2021-03-25T11:20:43.000Z</time>
      </trkpt>
      <trkpt lat="47.28815" lon="-2.37122">
        <ele>47.400001525879</ele>
        <time>2021-03-25T11:20:44.000Z</time>
      </trkpt>
      <trkpt lat="47.28813" lon="-2.37121">
        <ele>47.799999237061</ele>
        <time>2021-03-25T11:20:45.000Z</time>
      </trkpt>
      <trkpt lat="47.28809" lon="-2.37121">
        <ele>48.200000762939</ele>
        <time>2021-03-25T11:20:46.000Z</time>
      </trkpt>
      <trkpt lat="47.28805" lon="-2.37121">
        <ele>48.599998474121</ele>
        <time>2021-03-25T11:20:47.000Z</time>
      </trkpt>
      <trkpt lat="47.28802" lon="-2.3712">
        <ele>49</ele>
        <time>2021-03-25T11:20:48.000Z</time>
      </trkpt>
      <trkpt lat="47.288" lon="-2.3712">
        <ele>49.400001525879</ele>
        <time>2021-03-25T11:20:49.000Z</time>
      </trkpt>
      <trkpt lat="47.28799" lon="-2.37116">
        <ele>49.799999237061</ele>
        <time>2021-03-25T11:20:50.000Z</time>
      </trkpt>
      <trkpt lat="47.28796" lon="-2.37107">
        <ele>49.799999237061</ele>
        <time>2021-03-25T11:20:53.000Z</time>
      </trkpt>
      <trkpt lat="47.28795" lon="-2.37104">
        <ele>49.799999237061</ele>
        <time>2021-03-25T11:20:54.000Z</time>
      </trkpt>
      <trkpt lat="47.28795" lon="-2.37093">
        <ele>50.200000762939</ele>
        <time>2021-03-25T11:20:56.000Z</time>
      </trkpt>
      <trkpt lat="47.28795" lon="-2.3709">
        <ele>50.599998474121</ele>
        <time>2021-03-25T11:20:57.000Z</time>
      </trkpt>
      <trkpt lat="47.28794" lon="-2.37085">
        <ele>51.200000762939</ele>
        <time>2021-03-25T11:20:58.000Z</time>
      </trkpt>
      <trkpt lat="47.28794" lon="-2.37082">
        <ele>51.599998474121</ele>
        <time>2021-03-25T11:20:59.000Z</time>
      </trkpt>
      <trkpt lat="47.28793" lon="-2.37077">
        <ele>52</ele>
        <time>2021-03-25T11:21:00.000Z</time>
      </trkpt>
      <trkpt lat="47.28789" lon="-2.37067">
        <ele>52.400001525879</ele>
        <time>2021-03-25T11:21:03.000Z</time>
      </trkpt>
      <trkpt lat="47.28789" lon="-2.37065">
        <ele>52.799999237061</ele>
        <time>2021-03-25T11:21:04.000Z</time>
      </trkpt>
      <trkpt lat="47.28787" lon="-2.37062">
        <ele>53.400001525879</ele>
        <time>2021-03-25T11:21:05.000Z</time>
      </trkpt>
      <trkpt lat="47.28786" lon="-2.37059">
        <ele>53.799999237061</ele>
        <time>2021-03-25T11:21:06.000Z</time>
      </trkpt>
      <trkpt lat="47.28786" lon="-2.37055">
        <ele>54.200000762939</ele>
        <time>2021-03-25T11:21:07.000Z</time>
      </trkpt>
      <trkpt lat="47.28785" lon="-2.37051">
        <ele>54.200000762939</ele>
        <time>2021-03-25T11:21:08.000Z</time>
      </trkpt>
      <trkpt lat="47.28783" lon="-2.37024">
        <ele>54.599998474121</ele>
        <time>2021-03-25T11:21:14.000Z</time>
      </trkpt>
      <trkpt lat="47.28781" lon="-2.3702">
        <ele>55</ele>
        <time>2021-03-25T11:21:15.000Z</time>
      </trkpt>
      <trkpt lat="47.28778" lon="-2.37016">
        <ele>55.400001525879</ele>
        <time>2021-03-25T11:21:16.000Z</time>
      </trkpt>
      <trkpt lat="47.28773" lon="-2.37008">
        <ele>55.799999237061</ele>
        <time>2021-03-25T11:21:17.000Z</time>
      </trkpt>
      <trkpt lat="47.28772" lon="-2.37007">
        <ele>56.400001525879</ele>
        <time>2021-03-25T11:21:18.000Z</time>
      </trkpt>
      <trkpt lat="47.2877" lon="-2.37006">
        <ele>56.400001525879</ele>
        <time>2021-03-25T11:21:19.000Z</time>
      </trkpt>
      <trkpt lat="47.2876" lon="-2.36982">
        <ele>56.400001525879</ele>
        <time>2021-03-25T11:21:24.000Z</time>
      </trkpt>
      <trkpt lat="47.28753" lon="-2.36958">
        <ele>56.400001525879</ele>
        <time>2021-03-25T11:21:29.000Z</time>
      </trkpt>
      <trkpt lat="47.28751" lon="-2.3695">
        <ele>55.799999237061</ele>
        <time>2021-03-25T11:21:31.000Z</time>
      </trkpt>
      <trkpt lat="47.28749" lon="-2.36943">
        <ele>55</ele>
        <time>2021-03-25T11:21:32.000Z</time>
      </trkpt>
      <trkpt lat="47.28747" lon="-2.36936">
        <ele>54.599998474121</ele>
        <time>2021-03-25T11:21:33.000Z</time>
      </trkpt>
      <trkpt lat="47.28746" lon="-2.36933">
        <ele>54.200000762939</ele>
        <time>2021-03-25T11:21:34.000Z</time>
      </trkpt>
      <trkpt lat="47.28738" lon="-2.36924">
        <ele>54.200000762939</ele>
        <time>2021-03-25T11:21:38.000Z</time>
      </trkpt>
      <trkpt lat="47.28727" lon="-2.36905">
        <ele>54.200000762939</ele>
        <time>2021-03-25T11:21:43.000Z</time>
      </trkpt>
      <trkpt lat="47.28694" lon="-2.36869">
        <ele>54.200000762939</ele>
        <time>2021-03-25T11:21:50.000Z</time>
      </trkpt>
      <trkpt lat="47.28679" lon="-2.36833">
        <ele>54.200000762939</ele>
        <time>2021-03-25T11:21:56.000Z</time>
      </trkpt>
      <trkpt lat="47.28675" lon="-2.36824">
        <ele>54.599998474121</ele>
        <time>2021-03-25T11:21:58.000Z</time>
      </trkpt>
      <trkpt lat="47.28674" lon="-2.3682">
        <ele>55</ele>
        <time>2021-03-25T11:21:59.000Z</time>
      </trkpt>
      <trkpt lat="47.28673" lon="-2.36817">
        <ele>55.599998474121</ele>
        <time>2021-03-25T11:22:00.000Z</time>
      </trkpt>
      <trkpt lat="47.28671" lon="-2.36813">
        <ele>56</ele>
        <time>2021-03-25T11:22:01.000Z</time>
      </trkpt>
      <trkpt lat="47.28667" lon="-2.36806">
        <ele>56.400001525879</ele>
        <time>2021-03-25T11:22:02.000Z</time>
      </trkpt>
      <trkpt lat="47.28664" lon="-2.36801">
        <ele>56.400001525879</ele>
        <time>2021-03-25T11:22:03.000Z</time>
      </trkpt>
      <trkpt lat="47.28657" lon="-2.36796">
        <ele>56.400001525879</ele>
        <time>2021-03-25T11:22:05.000Z</time>
      </trkpt>
      <trkpt lat="47.28654" lon="-2.36797">
        <ele>56.400001525879</ele>
        <time>2021-03-25T11:22:06.000Z</time>
      </trkpt>
      <trkpt lat="47.28649" lon="-2.36803">
        <ele>56.400001525879</ele>
        <time>2021-03-25T11:22:08.000Z</time>
      </trkpt>
      <trkpt lat="47.28645" lon="-2.36807">
        <ele>56.400001525879</ele>
        <time>2021-03-25T11:22:09.000Z</time>
      </trkpt>
      <trkpt lat="47.28635" lon="-2.3682">
        <ele>56.400001525879</ele>
        <time>2021-03-25T11:22:12.000Z</time>
      </trkpt>
      <trkpt lat="47.28631" lon="-2.36825">
        <ele>56.400001525879</ele>
        <time>2021-03-25T11:22:13.000Z</time>
      </trkpt>
      <trkpt lat="47.28617" lon="-2.3684">
        <ele>56.400001525879</ele>
        <time>2021-03-25T11:22:16.000Z</time>
      </trkpt>
      <trkpt lat="47.28604" lon="-2.36843">
        <ele>56.400001525879</ele>
        <time>2021-03-25T11:22:18.000Z</time>
      </trkpt>
      <trkpt lat="47.2859" lon="-2.36831">
        <ele>56.400001525879</ele>
        <time>2021-03-25T11:22:21.000Z</time>
      </trkpt>
      <trkpt lat="47.28587" lon="-2.36826">
        <ele>56.400001525879</ele>
        <time>2021-03-25T11:22:22.000Z</time>
      </trkpt>
      <trkpt lat="47.28569" lon="-2.36792">
        <ele>56.400001525879</ele>
        <time>2021-03-25T11:22:28.000Z</time>
      </trkpt>
      <trkpt lat="47.28547" lon="-2.36754">
        <ele>56.400001525879</ele>
        <time>2021-03-25T11:22:36.000Z</time>
      </trkpt>
      <trkpt lat="47.28531" lon="-2.36724">
        <ele>56.400001525879</ele>
        <time>2021-03-25T11:22:43.000Z</time>
      </trkpt>
      <trkpt lat="47.2852" lon="-2.36699">
        <ele>56.799999237061</ele>
        <time>2021-03-25T11:22:49.000Z</time>
      </trkpt>
      <trkpt lat="47.28518" lon="-2.36696">
        <ele>57.200000762939</ele>
        <time>2021-03-25T11:22:50.000Z</time>
      </trkpt>
      <trkpt lat="47.28516" lon="-2.36692">
        <ele>57.799999237061</ele>
        <time>2021-03-25T11:22:51.000Z</time>
      </trkpt>
      <trkpt lat="47.28514" lon="-2.3669">
        <ele>58.200000762939</ele>
        <time>2021-03-25T11:22:52.000Z</time>
      </trkpt>
      <trkpt lat="47.28512" lon="-2.36688">
        <ele>58.599998474121</ele>
        <time>2021-03-25T11:22:53.000Z</time>
      </trkpt>
      <trkpt lat="47.2851" lon="-2.36686">
        <ele>58.599998474121</ele>
        <time>2021-03-25T11:22:55.000Z</time>
      </trkpt>
      <trkpt lat="47.28502" lon="-2.36677">
        <ele>58.599998474121</ele>
        <time>2021-03-25T11:23:01.000Z</time>
      </trkpt>
      <trkpt lat="47.28492" lon="-2.3666">
        <ele>58.599998474121</ele>
        <time>2021-03-25T11:23:05.000Z</time>
      </trkpt>
      <trkpt lat="47.28487" lon="-2.36648">
        <ele>58.599998474121</ele>
        <time>2021-03-25T11:23:07.000Z</time>
      </trkpt>
      <trkpt lat="47.28481" lon="-2.36625">
        <ele>58.599998474121</ele>
        <time>2021-03-25T11:23:11.000Z</time>
      </trkpt>
      <trkpt lat="47.28475" lon="-2.36605">
        <ele>59</ele>
        <time>2021-03-25T11:23:15.000Z</time>
      </trkpt>
      <trkpt lat="47.28474" lon="-2.366">
        <ele>59.400001525879</ele>
        <time>2021-03-25T11:23:16.000Z</time>
      </trkpt>
      <trkpt lat="47.28473" lon="-2.36595">
        <ele>59.799999237061</ele>
        <time>2021-03-25T11:23:17.000Z</time>
      </trkpt>
      <trkpt lat="47.28472" lon="-2.3659">
        <ele>60.200000762939</ele>
        <time>2021-03-25T11:23:18.000Z</time>
      </trkpt>
      <trkpt lat="47.28471" lon="-2.36584">
        <ele>60.599998474121</ele>
        <time>2021-03-25T11:23:19.000Z</time>
      </trkpt>
      <trkpt lat="47.28471" lon="-2.36564">
        <ele>60.599998474121</ele>
        <time>2021-03-25T11:23:23.000Z</time>
      </trkpt>
      <trkpt lat="47.28473" lon="-2.3656">
        <ele>60.599998474121</ele>
        <time>2021-03-25T11:23:24.000Z</time>
      </trkpt>
      <trkpt lat="47.2848" lon="-2.36549">
        <ele>60.599998474121</ele>
        <time>2021-03-25T11:23:27.000Z</time>
      </trkpt>
      <trkpt lat="47.28495" lon="-2.36531">
        <ele>60.599998474121</ele>
        <time>2021-03-25T11:23:33.000Z</time>
      </trkpt>
      <trkpt lat="47.28504" lon="-2.36518">
        <ele>60.599998474121</ele>
        <time>2021-03-25T11:23:38.000Z</time>
      </trkpt>
      <trkpt lat="47.28507" lon="-2.36513">
        <ele>61</ele>
        <time>2021-03-25T11:23:40.000Z</time>
      </trkpt>
      <trkpt lat="47.28508" lon="-2.36511">
        <ele>61.400001525879</ele>
        <time>2021-03-25T11:23:41.000Z</time>
      </trkpt>
      <trkpt lat="47.2851" lon="-2.36509">
        <ele>61.799999237061</ele>
        <time>2021-03-25T11:23:42.000Z</time>
      </trkpt>
      <trkpt lat="47.28511" lon="-2.36506">
        <ele>62.200000762939</ele>
        <time>2021-03-25T11:23:43.000Z</time>
      </trkpt>
      <trkpt lat="47.28513" lon="-2.36503">
        <ele>62.799999237061</ele>
        <time>2021-03-25T11:23:44.000Z</time>
      </trkpt>
      <trkpt lat="47.28514" lon="-2.365">
        <ele>62.799999237061</ele>
        <time>2021-03-25T11:23:45.000Z</time>
      </trkpt>
      <trkpt lat="47.28515" lon="-2.36489">
        <ele>62.799999237061</ele>
        <time>2021-03-25T11:23:48.000Z</time>
      </trkpt>
      <trkpt lat="47.28511" lon="-2.36479">
        <ele>62.799999237061</ele>
        <time>2021-03-25T11:23:50.000Z</time>
      </trkpt>
      <trkpt lat="47.28503" lon="-2.36455">
        <ele>62.799999237061</ele>
        <time>2021-03-25T11:23:55.000Z</time>
      </trkpt>
      <trkpt lat="47.28501" lon="-2.36451">
        <ele>62.799999237061</ele>
        <time>2021-03-25T11:23:56.000Z</time>
      </trkpt>
      <trkpt lat="47.28491" lon="-2.3644">
        <ele>62.799999237061</ele>
        <time>2021-03-25T11:23:59.000Z</time>
      </trkpt>
      <trkpt lat="47.28485" lon="-2.36432">
        <ele>62.799999237061</ele>
        <time>2021-03-25T11:24:01.000Z</time>
      </trkpt>
      <trkpt lat="47.28479" lon="-2.36425">
        <ele>63.200000762939</ele>
        <time>2021-03-25T11:24:03.000Z</time>
      </trkpt>
      <trkpt lat="47.28477" lon="-2.36423">
        <ele>63.599998474121</ele>
        <time>2021-03-25T11:24:04.000Z</time>
      </trkpt>
      <trkpt lat="47.28474" lon="-2.36421">
        <ele>64</ele>
        <time>2021-03-25T11:24:05.000Z</time>
      </trkpt>
      <trkpt lat="47.28473" lon="-2.36419">
        <ele>64.400001525879</ele>
        <time>2021-03-25T11:24:06.000Z</time>
      </trkpt>
      <trkpt lat="47.28471" lon="-2.36417">
        <ele>65</ele>
        <time>2021-03-25T11:24:07.000Z</time>
      </trkpt>
      <trkpt lat="47.2847" lon="-2.36413">
        <ele>65</ele>
        <time>2021-03-25T11:24:09.000Z</time>
      </trkpt>
      <trkpt lat="47.28467" lon="-2.36406">
        <ele>65</ele>
        <time>2021-03-25T11:24:12.000Z</time>
      </trkpt>
      <trkpt lat="47.28465" lon="-2.36404">
        <ele>65</ele>
        <time>2021-03-25T11:24:13.000Z</time>
      </trkpt>
      <trkpt lat="47.28443" lon="-2.36385">
        <ele>65</ele>
        <time>2021-03-25T11:24:19.000Z</time>
      </trkpt>
      <trkpt lat="47.28429" lon="-2.36373">
        <ele>65</ele>
        <time>2021-03-25T11:24:23.000Z</time>
      </trkpt>
      <trkpt lat="47.28421" lon="-2.36358">
        <ele>65</ele>
        <time>2021-03-25T11:24:26.000Z</time>
      </trkpt>
      <trkpt lat="47.28411" lon="-2.36349">
        <ele>65</ele>
        <time>2021-03-25T11:24:28.000Z</time>
      </trkpt>
      <trkpt lat="47.28403" lon="-2.36342">
        <ele>65</ele>
        <time>2021-03-25T11:24:30.000Z</time>
      </trkpt>
      <trkpt lat="47.28381" lon="-2.36323">
        <ele>65</ele>
        <time>2021-03-25T11:24:35.000Z</time>
      </trkpt>
      <trkpt lat="47.28378" lon="-2.36319">
        <ele>64.400001525879</ele>
        <time>2021-03-25T11:24:36.000Z</time>
      </trkpt>
      <trkpt lat="47.28374" lon="-2.36314">
        <ele>64</ele>
        <time>2021-03-25T11:24:37.000Z</time>
      </trkpt>
      <trkpt lat="47.2837" lon="-2.36309">
        <ele>63.599998474121</ele>
        <time>2021-03-25T11:24:38.000Z</time>
      </trkpt>
      <trkpt lat="47.28367" lon="-2.36304">
        <ele>63</ele>
        <time>2021-03-25T11:24:39.000Z</time>
      </trkpt>
      <trkpt lat="47.28365" lon="-2.36297">
        <ele>62.599998474121</ele>
        <time>2021-03-25T11:24:40.000Z</time>
      </trkpt>
      <trkpt lat="47.28363" lon="-2.36286">
        <ele>62.200000762939</ele>
        <time>2021-03-25T11:24:42.000Z</time>
      </trkpt>
      <trkpt lat="47.28362" lon="-2.3628">
        <ele>61.599998474121</ele>
        <time>2021-03-25T11:24:43.000Z</time>
      </trkpt>
      <trkpt lat="47.28361" lon="-2.36275">
        <ele>61.200000762939</ele>
        <time>2021-03-25T11:24:44.000Z</time>
      </trkpt>
      <trkpt lat="47.28357" lon="-2.36269">
        <ele>60.799999237061</ele>
        <time>2021-03-25T11:24:45.000Z</time>
      </trkpt>
      <trkpt lat="47.28352" lon="-2.36263">
        <ele>60.400001525879</ele>
        <time>2021-03-25T11:24:46.000Z</time>
      </trkpt>
      <trkpt lat="47.28344" lon="-2.3626">
        <ele>60.400001525879</ele>
        <time>2021-03-25T11:24:47.000Z</time>
      </trkpt>
      <trkpt lat="47.28306" lon="-2.36248">
        <ele>60.400001525879</ele>
        <time>2021-03-25T11:24:53.000Z</time>
      </trkpt>
      <trkpt lat="47.28287" lon="-2.36243">
        <ele>60.400001525879</ele>
        <time>2021-03-25T11:24:56.000Z</time>
      </trkpt>
      <trkpt lat="47.28272" lon="-2.36233">
        <ele>60</ele>
        <time>2021-03-25T11:24:59.000Z</time>
      </trkpt>
      <trkpt lat="47.28268" lon="-2.3623">
        <ele>59.599998474121</ele>
        <time>2021-03-25T11:25:00.000Z</time>
      </trkpt>
      <trkpt lat="47.28266" lon="-2.36225">
        <ele>59.200000762939</ele>
        <time>2021-03-25T11:25:01.000Z</time>
      </trkpt>
      <trkpt lat="47.28265" lon="-2.3622">
        <ele>58.799999237061</ele>
        <time>2021-03-25T11:25:02.000Z</time>
      </trkpt>
      <trkpt lat="47.28263" lon="-2.36214">
        <ele>58.400001525879</ele>
        <time>2021-03-25T11:25:03.000Z</time>
      </trkpt>
      <trkpt lat="47.2826" lon="-2.36202">
        <ele>58.400001525879</ele>
        <time>2021-03-25T11:25:05.000Z</time>
      </trkpt>
      <trkpt lat="47.28257" lon="-2.3617">
        <ele>58.400001525879</ele>
        <time>2021-03-25T11:25:09.000Z</time>
      </trkpt>
      <trkpt lat="47.28252" lon="-2.36148">
        <ele>58.799999237061</ele>
        <time>2021-03-25T11:25:12.000Z</time>
      </trkpt>
      <trkpt lat="47.28249" lon="-2.36141">
        <ele>59.200000762939</ele>
        <time>2021-03-25T11:25:13.000Z</time>
      </trkpt>
      <trkpt lat="47.28247" lon="-2.36134">
        <ele>59.599998474121</ele>
        <time>2021-03-25T11:25:14.000Z</time>
      </trkpt>
      <trkpt lat="47.28244" lon="-2.36128">
        <ele>60.400001525879</ele>
        <time>2021-03-25T11:25:15.000Z</time>
      </trkpt>
      <trkpt lat="47.28241" lon="-2.36123">
        <ele>60.400001525879</ele>
        <time>2021-03-25T11:25:16.000Z</time>
      </trkpt>
      <trkpt lat="47.28235" lon="-2.36106">
        <ele>60.400001525879</ele>
        <time>2021-03-25T11:25:19.000Z</time>
      </trkpt>
      <trkpt lat="47.28237" lon="-2.36084">
        <ele>60.400001525879</ele>
        <time>2021-03-25T11:25:23.000Z</time>
      </trkpt>
      <trkpt lat="47.28238" lon="-2.36077">
        <ele>60.400001525879</ele>
        <time>2021-03-25T11:25:24.000Z</time>
      </trkpt>
      <trkpt lat="47.28239" lon="-2.36056">
        <ele>60.400001525879</ele>
        <time>2021-03-25T11:25:27.000Z</time>
      </trkpt>
      <trkpt lat="47.28241" lon="-2.36048">
        <ele>60.400001525879</ele>
        <time>2021-03-25T11:25:28.000Z</time>
      </trkpt>
      <trkpt lat="47.28246" lon="-2.36028">
        <ele>60.400001525879</ele>
        <time>2021-03-25T11:25:31.000Z</time>
      </trkpt>
      <trkpt lat="47.2824" lon="-2.36025">
        <ele>60.400001525879</ele>
        <time>2021-03-25T11:25:34.000Z</time>
      </trkpt>
      <trkpt lat="47.28225" lon="-2.36035">
        <ele>60.400001525879</ele>
        <time>2021-03-25T11:25:38.000Z</time>
      </trkpt>
      <trkpt lat="47.28222" lon="-2.36036">
        <ele>59.400001525879</ele>
        <time>2021-03-25T11:25:39.000Z</time>
      </trkpt>
      <trkpt lat="47.28219" lon="-2.36036">
        <ele>59</ele>
        <time>2021-03-25T11:25:40.000Z</time>
      </trkpt>
      <trkpt lat="47.28216" lon="-2.36035">
        <ele>58.599998474121</ele>
        <time>2021-03-25T11:25:41.000Z</time>
      </trkpt>
      <trkpt lat="47.28213" lon="-2.36034">
        <ele>58.200000762939</ele>
        <time>2021-03-25T11:25:42.000Z</time>
      </trkpt>
      <trkpt lat="47.28205" lon="-2.36026">
        <ele>58.200000762939</ele>
        <time>2021-03-25T11:25:45.000Z</time>
      </trkpt>
      <trkpt lat="47.28203" lon="-2.36023">
        <ele>58.200000762939</ele>
        <time>2021-03-25T11:25:46.000Z</time>
      </trkpt>
      <trkpt lat="47.28191" lon="-2.35999">
        <ele>58.200000762939</ele>
        <time>2021-03-25T11:25:51.000Z</time>
      </trkpt>
      <trkpt lat="47.28185" lon="-2.35976">
        <ele>58.200000762939</ele>
        <time>2021-03-25T11:25:55.000Z</time>
      </trkpt>
      <trkpt lat="47.28179" lon="-2.3595">
        <ele>58.200000762939</ele>
        <time>2021-03-25T11:26:00.000Z</time>
      </trkpt>
      <trkpt lat="47.28178" lon="-2.35944">
        <ele>58.200000762939</ele>
        <time>2021-03-25T11:26:01.000Z</time>
      </trkpt>
      <trkpt lat="47.28177" lon="-2.35925">
        <ele>58.200000762939</ele>
        <time>2021-03-25T11:26:04.000Z</time>
      </trkpt>
      <trkpt lat="47.28177" lon="-2.35919">
        <ele>58.200000762939</ele>
        <time>2021-03-25T11:26:05.000Z</time>
      </trkpt>
      <trkpt lat="47.28176" lon="-2.35903">
        <ele>58.200000762939</ele>
        <time>2021-03-25T11:26:09.000Z</time>
      </trkpt>
      <trkpt lat="47.28175" lon="-2.35901">
        <ele>58.200000762939</ele>
        <time>2021-03-25T11:26:10.000Z</time>
      </trkpt>
      <trkpt lat="47.28174" lon="-2.35899">
        <ele>58.599998474121</ele>
        <time>2021-03-25T11:26:11.000Z</time>
      </trkpt>
      <trkpt lat="47.28172" lon="-2.35898">
        <ele>59</ele>
        <time>2021-03-25T11:26:12.000Z</time>
      </trkpt>
      <trkpt lat="47.28168" lon="-2.35898">
        <ele>59.400001525879</ele>
        <time>2021-03-25T11:26:13.000Z</time>
      </trkpt>
      <trkpt lat="47.28165" lon="-2.35897">
        <ele>59.799999237061</ele>
        <time>2021-03-25T11:26:14.000Z</time>
      </trkpt>
      <trkpt lat="47.28161" lon="-2.35895">
        <ele>60.200000762939</ele>
        <time>2021-03-25T11:26:15.000Z</time>
      </trkpt>
      <trkpt lat="47.28152" lon="-2.35888">
        <ele>60.200000762939</ele>
        <time>2021-03-25T11:26:18.000Z</time>
      </trkpt>
      <trkpt lat="47.28148" lon="-2.35887">
        <ele>60.200000762939</ele>
        <time>2021-03-25T11:26:19.000Z</time>
      </trkpt>
      <trkpt lat="47.28138" lon="-2.35879">
        <ele>60.200000762939</ele>
        <time>2021-03-25T11:26:22.000Z</time>
      </trkpt>
      <trkpt lat="47.28137" lon="-2.35874">
        <ele>60.200000762939</ele>
        <time>2021-03-25T11:26:23.000Z</time>
      </trkpt>
      <trkpt lat="47.28132" lon="-2.35856">
        <ele>60.200000762939</ele>
        <time>2021-03-25T11:26:28.000Z</time>
      </trkpt>
      <trkpt lat="47.28131" lon="-2.35855">
        <ele>60.200000762939</ele>
        <time>2021-03-25T11:26:29.000Z</time>
      </trkpt>
      <trkpt lat="47.28108" lon="-2.35833">
        <ele>62.400001525879</ele>
        <time>2021-03-25T11:26:49.000Z</time>
      </trkpt>
      <trkpt lat="47.28106" lon="-2.35825">
        <ele>62.400001525879</ele>
        <time>2021-03-25T11:26:51.000Z</time>
      </trkpt>
      <trkpt lat="47.28105" lon="-2.3582">
        <ele>62</ele>
        <time>2021-03-25T11:26:52.000Z</time>
      </trkpt>
      <trkpt lat="47.28103" lon="-2.35815">
        <ele>61</ele>
        <time>2021-03-25T11:26:53.000Z</time>
      </trkpt>
      <trkpt lat="47.28101" lon="-2.35811">
        <ele>60.599998474121</ele>
        <time>2021-03-25T11:26:54.000Z</time>
      </trkpt>
      <trkpt lat="47.28098" lon="-2.35807">
        <ele>60.200000762939</ele>
        <time>2021-03-25T11:26:55.000Z</time>
      </trkpt>
      <trkpt lat="47.28096" lon="-2.35805">
        <ele>60.200000762939</ele>
        <time>2021-03-25T11:26:56.000Z</time>
      </trkpt>
      <trkpt lat="47.28094" lon="-2.35803">
        <ele>60.200000762939</ele>
        <time>2021-03-25T11:26:57.000Z</time>
      </trkpt>
      <trkpt lat="47.28087" lon="-2.35806">
        <ele>60.200000762939</ele>
        <time>2021-03-25T11:27:00.000Z</time>
      </trkpt>
      <trkpt lat="47.28079" lon="-2.35805">
        <ele>60.200000762939</ele>
        <time>2021-03-25T11:27:04.000Z</time>
      </trkpt>
      <trkpt lat="47.28077" lon="-2.35801">
        <ele>60.200000762939</ele>
        <time>2021-03-25T11:27:05.000Z</time>
      </trkpt>
      <trkpt lat="47.28076" lon="-2.35785">
        <ele>60.200000762939</ele>
        <time>2021-03-25T11:27:09.000Z</time>
      </trkpt>
      <trkpt lat="47.28077" lon="-2.3578">
        <ele>60.200000762939</ele>
        <time>2021-03-25T11:27:10.000Z</time>
      </trkpt>
      <trkpt lat="47.2808" lon="-2.35771">
        <ele>60.599998474121</ele>
        <time>2021-03-25T11:27:12.000Z</time>
      </trkpt>
      <trkpt lat="47.28081" lon="-2.35765">
        <ele>61</ele>
        <time>2021-03-25T11:27:13.000Z</time>
      </trkpt>
      <trkpt lat="47.28082" lon="-2.35758">
        <ele>61.400001525879</ele>
        <time>2021-03-25T11:27:14.000Z</time>
      </trkpt>
      <trkpt lat="47.28083" lon="-2.35752">
        <ele>62</ele>
        <time>2021-03-25T11:27:15.000Z</time>
      </trkpt>
      <trkpt lat="47.28084" lon="-2.35747">
        <ele>62.400001525879</ele>
        <time>2021-03-25T11:27:16.000Z</time>
      </trkpt>
      <trkpt lat="47.28088" lon="-2.35729">
        <ele>62.799999237061</ele>
        <time>2021-03-25T11:27:19.000Z</time>
      </trkpt>
      <trkpt lat="47.28089" lon="-2.35724">
        <ele>63.200000762939</ele>
        <time>2021-03-25T11:27:20.000Z</time>
      </trkpt>
      <trkpt lat="47.28089" lon="-2.3572">
        <ele>63.599998474121</ele>
        <time>2021-03-25T11:27:21.000Z</time>
      </trkpt>
      <trkpt lat="47.2809" lon="-2.35715">
        <ele>64</ele>
        <time>2021-03-25T11:27:22.000Z</time>
      </trkpt>
      <trkpt lat="47.28091" lon="-2.35711">
        <ele>64.599998474121</ele>
        <time>2021-03-25T11:27:23.000Z</time>
      </trkpt>
      <trkpt lat="47.28091" lon="-2.35707">
        <ele>64.599998474121</ele>
        <time>2021-03-25T11:27:24.000Z</time>
      </trkpt>
      <trkpt lat="47.28087" lon="-2.35674">
        <ele>64.599998474121</ele>
        <time>2021-03-25T11:27:29.000Z</time>
      </trkpt>
      <trkpt lat="47.28075" lon="-2.35625">
        <ele>64</ele>
        <time>2021-03-25T11:27:34.000Z</time>
      </trkpt>
      <trkpt lat="47.28073" lon="-2.35615">
        <ele>63.599998474121</ele>
        <time>2021-03-25T11:27:35.000Z</time>
      </trkpt>
      <trkpt lat="47.28071" lon="-2.35605">
        <ele>63.200000762939</ele>
        <time>2021-03-25T11:27:36.000Z</time>
      </trkpt>
      <trkpt lat="47.28069" lon="-2.35596">
        <ele>62.599998474121</ele>
        <time>2021-03-25T11:27:37.000Z</time>
      </trkpt>
      <trkpt lat="47.28066" lon="-2.35589">
        <ele>62.200000762939</ele>
        <time>2021-03-25T11:27:38.000Z</time>
      </trkpt>
      <trkpt lat="47.28063" lon="-2.35584">
        <ele>61.599998474121</ele>
        <time>2021-03-25T11:27:39.000Z</time>
      </trkpt>
      <trkpt lat="47.28061" lon="-2.35581">
        <ele>61.200000762939</ele>
        <time>2021-03-25T11:27:40.000Z</time>
      </trkpt>
      <trkpt lat="47.28058" lon="-2.35579">
        <ele>60.599998474121</ele>
        <time>2021-03-25T11:27:41.000Z</time>
      </trkpt>
      <trkpt lat="47.28057" lon="-2.35577">
        <ele>60</ele>
        <time>2021-03-25T11:27:42.000Z</time>
      </trkpt>
      <trkpt lat="47.28057" lon="-2.35576">
        <ele>59.599998474121</ele>
        <time>2021-03-25T11:27:43.000Z</time>
      </trkpt>
      <trkpt lat="47.28055" lon="-2.35575">
        <ele>60</ele>
        <time>2021-03-25T11:33:44.000Z</time>
      </trkpt>
      <trkpt lat="47.28048" lon="-2.35574">
        <ele>60</ele>
        <time>2021-03-25T11:33:47.000Z</time>
      </trkpt>
      <trkpt lat="47.28036" lon="-2.35572">
        <ele>60</ele>
        <time>2021-03-25T11:33:51.000Z</time>
      </trkpt>
      <trkpt lat="47.28032" lon="-2.35569">
        <ele>60</ele>
        <time>2021-03-25T11:33:52.000Z</time>
      </trkpt>
      <trkpt lat="47.28021" lon="-2.35559">
        <ele>60</ele>
        <time>2021-03-25T11:33:55.000Z</time>
      </trkpt>
      <trkpt lat="47.28011" lon="-2.3556">
        <ele>60</ele>
        <time>2021-03-25T11:33:57.000Z</time>
      </trkpt>
      <trkpt lat="47.27984" lon="-2.35569">
        <ele>60</ele>
        <time>2021-03-25T11:34:03.000Z</time>
      </trkpt>
      <trkpt lat="47.27952" lon="-2.35583">
        <ele>60</ele>
        <time>2021-03-25T11:34:10.000Z</time>
      </trkpt>
      <trkpt lat="47.27947" lon="-2.35584">
        <ele>60</ele>
        <time>2021-03-25T11:34:11.000Z</time>
      </trkpt>
      <trkpt lat="47.27918" lon="-2.35592">
        <ele>60</ele>
        <time>2021-03-25T11:34:17.000Z</time>
      </trkpt>
      <trkpt lat="47.27879" lon="-2.35599">
        <ele>60</ele>
        <time>2021-03-25T11:34:24.000Z</time>
      </trkpt>
      <trkpt lat="47.27862" lon="-2.35604">
        <ele>60</ele>
        <time>2021-03-25T11:34:27.000Z</time>
      </trkpt>
      <trkpt lat="47.2785" lon="-2.35607">
        <ele>60</ele>
        <time>2021-03-25T11:34:29.000Z</time>
      </trkpt>
      <trkpt lat="47.27832" lon="-2.35612">
        <ele>59.599998474121</ele>
        <time>2021-03-25T11:34:32.000Z</time>
      </trkpt>
      <trkpt lat="47.27826" lon="-2.35614">
        <ele>59</ele>
        <time>2021-03-25T11:34:33.000Z</time>
      </trkpt>
      <trkpt lat="47.2782" lon="-2.35616">
        <ele>58.599998474121</ele>
        <time>2021-03-25T11:34:34.000Z</time>
      </trkpt>
      <trkpt lat="47.27814" lon="-2.35617">
        <ele>58.200000762939</ele>
        <time>2021-03-25T11:34:35.000Z</time>
      </trkpt>
      <trkpt lat="47.27807" lon="-2.35619">
        <ele>57.799999237061</ele>
        <time>2021-03-25T11:34:36.000Z</time>
      </trkpt>
      <trkpt lat="47.278" lon="-2.3562">
        <ele>57.799999237061</ele>
        <time>2021-03-25T11:34:37.000Z</time>
      </trkpt>
      <trkpt lat="47.27771" lon="-2.35637">
        <ele>57.799999237061</ele>
        <time>2021-03-25T11:34:42.000Z</time>
      </trkpt>
      <trkpt lat="47.27767" lon="-2.35642">
        <ele>57.200000762939</ele>
        <time>2021-03-25T11:34:43.000Z</time>
      </trkpt>
      <trkpt lat="47.27762" lon="-2.35648">
        <ele>56.799999237061</ele>
        <time>2021-03-25T11:34:44.000Z</time>
      </trkpt>
      <trkpt lat="47.27758" lon="-2.35655">
        <ele>56.200000762939</ele>
        <time>2021-03-25T11:34:45.000Z</time>
      </trkpt>
      <trkpt lat="47.27753" lon="-2.35661">
        <ele>55.799999237061</ele>
        <time>2021-03-25T11:34:46.000Z</time>
      </trkpt>
      <trkpt lat="47.27749" lon="-2.35667">
        <ele>55.200000762939</ele>
        <time>2021-03-25T11:34:47.000Z</time>
      </trkpt>
      <trkpt lat="47.2772" lon="-2.3571">
        <ele>55.200000762939</ele>
        <time>2021-03-25T11:34:54.000Z</time>
      </trkpt>
      <trkpt lat="47.277" lon="-2.35729">
        <ele>54.799999237061</ele>
        <time>2021-03-25T11:34:58.000Z</time>
      </trkpt>
      <trkpt lat="47.27694" lon="-2.35733">
        <ele>54.400001525879</ele>
        <time>2021-03-25T11:34:59.000Z</time>
      </trkpt>
      <trkpt lat="47.27689" lon="-2.35739">
        <ele>54</ele>
        <time>2021-03-25T11:35:00.000Z</time>
      </trkpt>
      <trkpt lat="47.27685" lon="-2.35744">
        <ele>53.599998474121</ele>
        <time>2021-03-25T11:35:01.000Z</time>
      </trkpt>
      <trkpt lat="47.2768" lon="-2.35747">
        <ele>53.200000762939</ele>
        <time>2021-03-25T11:35:02.000Z</time>
      </trkpt>
      <trkpt lat="47.27674" lon="-2.35746">
        <ele>52.599998474121</ele>
        <time>2021-03-25T11:35:03.000Z</time>
      </trkpt>
      <trkpt lat="47.2767" lon="-2.35742">
        <ele>52.200000762939</ele>
        <time>2021-03-25T11:35:04.000Z</time>
      </trkpt>
      <trkpt lat="47.27666" lon="-2.35736">
        <ele>51.799999237061</ele>
        <time>2021-03-25T11:35:05.000Z</time>
      </trkpt>
      <trkpt lat="47.27661" lon="-2.35731">
        <ele>51.400001525879</ele>
        <time>2021-03-25T11:35:06.000Z</time>
      </trkpt>
      <trkpt lat="47.27655" lon="-2.35727">
        <ele>51</ele>
        <time>2021-03-25T11:35:07.000Z</time>
      </trkpt>
      <trkpt lat="47.27636" lon="-2.35721">
        <ele>51</ele>
        <time>2021-03-25T11:35:10.000Z</time>
      </trkpt>
      <trkpt lat="47.27589" lon="-2.35709">
        <ele>51</ele>
        <time>2021-03-25T11:35:17.000Z</time>
      </trkpt>
      <trkpt lat="47.27569" lon="-2.35703">
        <ele>50.599998474121</ele>
        <time>2021-03-25T11:35:20.000Z</time>
      </trkpt>
      <trkpt lat="47.27562" lon="-2.35701">
        <ele>50.200000762939</ele>
        <time>2021-03-25T11:35:21.000Z</time>
      </trkpt>
      <trkpt lat="47.27554" lon="-2.35699">
        <ele>49.799999237061</ele>
        <time>2021-03-25T11:35:22.000Z</time>
      </trkpt>
      <trkpt lat="47.27548" lon="-2.35697">
        <ele>49.400001525879</ele>
        <time>2021-03-25T11:35:23.000Z</time>
      </trkpt>
      <trkpt lat="47.27541" lon="-2.35695">
        <ele>48.799999237061</ele>
        <time>2021-03-25T11:35:24.000Z</time>
      </trkpt>
      <trkpt lat="47.27534" lon="-2.35693">
        <ele>48.799999237061</ele>
        <time>2021-03-25T11:35:25.000Z</time>
      </trkpt>
      <trkpt lat="47.27478" lon="-2.3568">
        <ele>48.799999237061</ele>
        <time>2021-03-25T11:35:33.000Z</time>
      </trkpt>
      <trkpt lat="47.27441" lon="-2.35671">
        <ele>48.799999237061</ele>
        <time>2021-03-25T11:35:39.000Z</time>
      </trkpt>
      <trkpt lat="47.27435" lon="-2.35669">
        <ele>48.400001525879</ele>
        <time>2021-03-25T11:35:40.000Z</time>
      </trkpt>
      <trkpt lat="47.27429" lon="-2.35668">
        <ele>48</ele>
        <time>2021-03-25T11:35:41.000Z</time>
      </trkpt>
      <trkpt lat="47.27423" lon="-2.35666">
        <ele>47.400001525879</ele>
        <time>2021-03-25T11:35:42.000Z</time>
      </trkpt>
      <trkpt lat="47.27417" lon="-2.35665">
        <ele>47</ele>
        <time>2021-03-25T11:35:43.000Z</time>
      </trkpt>
      <trkpt lat="47.27411" lon="-2.35666">
        <ele>46.400001525879</ele>
        <time>2021-03-25T11:35:44.000Z</time>
      </trkpt>
      <trkpt lat="47.27405" lon="-2.35667">
        <ele>46.400001525879</ele>
        <time>2021-03-25T11:35:45.000Z</time>
      </trkpt>
      <trkpt lat="47.27382" lon="-2.3568">
        <ele>46.400001525879</ele>
        <time>2021-03-25T11:35:49.000Z</time>
      </trkpt>
      <trkpt lat="47.27351" lon="-2.35703">
        <ele>46.400001525879</ele>
        <time>2021-03-25T11:35:55.000Z</time>
      </trkpt>
      <trkpt lat="47.27333" lon="-2.3572">
        <ele>46</ele>
        <time>2021-03-25T11:36:00.000Z</time>
      </trkpt>
      <trkpt lat="47.27332" lon="-2.35721">
        <ele>45.599998474121</ele>
        <time>2021-03-25T11:36:01.000Z</time>
      </trkpt>
      <trkpt lat="47.27331" lon="-2.35723">
        <ele>45</ele>
        <time>2021-03-25T11:36:02.000Z</time>
      </trkpt>
      <trkpt lat="47.2733" lon="-2.35724">
        <ele>44.599998474121</ele>
        <time>2021-03-25T11:36:03.000Z</time>
      </trkpt>
      <trkpt lat="47.27329" lon="-2.35725">
        <ele>44.200000762939</ele>
        <time>2021-03-25T11:36:04.000Z</time>
      </trkpt>
      <trkpt lat="47.27329" lon="-2.35725">
        <ele>44.200000762939</ele>
        <time>2021-03-25T11:36:05.000Z</time>
      </trkpt>
      <trkpt lat="47.27327" lon="-2.35727">
        <ele>44.200000762939</ele>
        <time>2021-03-25T11:36:07.000Z</time>
      </trkpt>
      <trkpt lat="47.27324" lon="-2.35733">
        <ele>44.200000762939</ele>
        <time>2021-03-25T11:36:09.000Z</time>
      </trkpt>
      <trkpt lat="47.27318" lon="-2.35742">
        <ele>44.200000762939</ele>
        <time>2021-03-25T11:36:12.000Z</time>
      </trkpt>
      <trkpt lat="47.27315" lon="-2.35742">
        <ele>44.200000762939</ele>
        <time>2021-03-25T11:36:13.000Z</time>
      </trkpt>
      <trkpt lat="47.27307" lon="-2.35732">
        <ele>44.200000762939</ele>
        <time>2021-03-25T11:36:16.000Z</time>
      </trkpt>
      <trkpt lat="47.27299" lon="-2.3571">
        <ele>44.200000762939</ele>
        <time>2021-03-25T11:36:20.000Z</time>
      </trkpt>
      <trkpt lat="47.27297" lon="-2.35705">
        <ele>44.200000762939</ele>
        <time>2021-03-25T11:36:21.000Z</time>
      </trkpt>
      <trkpt lat="47.27294" lon="-2.357">
        <ele>44.200000762939</ele>
        <time>2021-03-25T11:36:22.000Z</time>
      </trkpt>
      <trkpt lat="47.27275" lon="-2.3566">
        <ele>44.200000762939</ele>
        <time>2021-03-25T11:36:29.000Z</time>
      </trkpt>
      <trkpt lat="47.27244" lon="-2.35594">
        <ele>44.200000762939</ele>
        <time>2021-03-25T11:36:40.000Z</time>
      </trkpt>
      <trkpt lat="47.27222" lon="-2.35543">
        <ele>44.200000762939</ele>
        <time>2021-03-25T11:36:48.000Z</time>
      </trkpt>
      <trkpt lat="47.272" lon="-2.35498">
        <ele>44.599998474121</ele>
        <time>2021-03-25T11:36:55.000Z</time>
      </trkpt>
      <trkpt lat="47.27197" lon="-2.35492">
        <ele>45</ele>
        <time>2021-03-25T11:36:56.000Z</time>
      </trkpt>
      <trkpt lat="47.27194" lon="-2.35485">
        <ele>45.400001525879</ele>
        <time>2021-03-25T11:36:57.000Z</time>
      </trkpt>
      <trkpt lat="47.2719" lon="-2.35478">
        <ele>45.799999237061</ele>
        <time>2021-03-25T11:36:58.000Z</time>
      </trkpt>
      <trkpt lat="47.27187" lon="-2.35472">
        <ele>46.200000762939</ele>
        <time>2021-03-25T11:36:59.000Z</time>
      </trkpt>
      <trkpt lat="47.27166" lon="-2.35431">
        <ele>46.200000762939</ele>
        <time>2021-03-25T11:37:05.000Z</time>
      </trkpt>
      <trkpt lat="47.27132" lon="-2.35369">
        <ele>46.200000762939</ele>
        <time>2021-03-25T11:37:14.000Z</time>
      </trkpt>
      <trkpt lat="47.27125" lon="-2.35356">
        <ele>46.200000762939</ele>
        <time>2021-03-25T11:37:16.000Z</time>
      </trkpt>
      <trkpt lat="47.27093" lon="-2.35306">
        <ele>46.200000762939</ele>
        <time>2021-03-25T11:37:24.000Z</time>
      </trkpt>
      <trkpt lat="47.27062" lon="-2.35257">
        <ele>46.200000762939</ele>
        <time>2021-03-25T11:37:32.000Z</time>
      </trkpt>
      <trkpt lat="47.27031" lon="-2.35209">
        <ele>46.200000762939</ele>
        <time>2021-03-25T11:37:40.000Z</time>
      </trkpt>
      <trkpt lat="47.27004" lon="-2.35168">
        <ele>46.200000762939</ele>
        <time>2021-03-25T11:37:47.000Z</time>
      </trkpt>
      <trkpt lat="47.26972" lon="-2.35118">
        <ele>46.200000762939</ele>
        <time>2021-03-25T11:37:55.000Z</time>
      </trkpt>
      <trkpt lat="47.26944" lon="-2.35077">
        <ele>46.200000762939</ele>
        <time>2021-03-25T11:38:02.000Z</time>
      </trkpt>
      <trkpt lat="47.26914" lon="-2.35029">
        <ele>46.200000762939</ele>
        <time>2021-03-25T11:38:10.000Z</time>
      </trkpt>
      <trkpt lat="47.2691" lon="-2.35024">
        <ele>46.200000762939</ele>
        <time>2021-03-25T11:38:11.000Z</time>
      </trkpt>
      <trkpt lat="47.26886" lon="-2.3499">
        <ele>46.200000762939</ele>
        <time>2021-03-25T11:38:17.000Z</time>
      </trkpt>
      <trkpt lat="47.26855" lon="-2.34942">
        <ele>46.200000762939</ele>
        <time>2021-03-25T11:38:25.000Z</time>
      </trkpt>
      <trkpt lat="47.26819" lon="-2.34889">
        <ele>46.200000762939</ele>
        <time>2021-03-25T11:38:34.000Z</time>
      </trkpt>
      <trkpt lat="47.26789" lon="-2.34844">
        <ele>46.200000762939</ele>
        <time>2021-03-25T11:38:42.000Z</time>
      </trkpt>
      <trkpt lat="47.26759" lon="-2.34803">
        <ele>46.200000762939</ele>
        <time>2021-03-25T11:38:50.000Z</time>
      </trkpt>
      <trkpt lat="47.2675" lon="-2.34792">
        <ele>46.200000762939</ele>
        <time>2021-03-25T11:38:52.000Z</time>
      </trkpt>
      <trkpt lat="47.26733" lon="-2.34771">
        <ele>46.200000762939</ele>
        <time>2021-03-25T11:38:56.000Z</time>
      </trkpt>
      <trkpt lat="47.26699" lon="-2.34728">
        <ele>46.200000762939</ele>
        <time>2021-03-25T11:39:05.000Z</time>
      </trkpt>
      <trkpt lat="47.26659" lon="-2.3468">
        <ele>46.200000762939</ele>
        <time>2021-03-25T11:39:14.000Z</time>
      </trkpt>
      <trkpt lat="47.26625" lon="-2.34637">
        <ele>46.200000762939</ele>
        <time>2021-03-25T11:39:22.000Z</time>
      </trkpt>
      <trkpt lat="47.26584" lon="-2.34588">
        <ele>46.200000762939</ele>
        <time>2021-03-25T11:39:31.000Z</time>
      </trkpt>
      <trkpt lat="47.26542" lon="-2.34544">
        <ele>46.200000762939</ele>
        <time>2021-03-25T11:39:40.000Z</time>
      </trkpt>
      <trkpt lat="47.26507" lon="-2.34514">
        <ele>46.200000762939</ele>
        <time>2021-03-25T11:39:47.000Z</time>
      </trkpt>
      <trkpt lat="47.26462" lon="-2.34481">
        <ele>46.200000762939</ele>
        <time>2021-03-25T11:39:56.000Z</time>
      </trkpt>
      <trkpt lat="47.26416" lon="-2.34448">
        <ele>46.200000762939</ele>
        <time>2021-03-25T11:40:05.000Z</time>
      </trkpt>
      <trkpt lat="47.26375" lon="-2.34414">
        <ele>46.200000762939</ele>
        <time>2021-03-25T11:40:13.000Z</time>
      </trkpt>
      <trkpt lat="47.26341" lon="-2.34383">
        <ele>46.200000762939</ele>
        <time>2021-03-25T11:40:20.000Z</time>
      </trkpt>
      <trkpt lat="47.26323" lon="-2.34373">
        <ele>46.200000762939</ele>
        <time>2021-03-25T11:40:23.000Z</time>
      </trkpt>
      <trkpt lat="47.26318" lon="-2.34368">
        <ele>46.200000762939</ele>
        <time>2021-03-25T11:40:24.000Z</time>
      </trkpt>
      <trkpt lat="47.26301" lon="-2.34344">
        <ele>46.200000762939</ele>
        <time>2021-03-25T11:40:28.000Z</time>
      </trkpt>
      <trkpt lat="47.26296" lon="-2.34339">
        <ele>46.200000762939</ele>
        <time>2021-03-25T11:40:29.000Z</time>
      </trkpt>
      <trkpt lat="47.26258" lon="-2.343">
        <ele>46.200000762939</ele>
        <time>2021-03-25T11:40:37.000Z</time>
      </trkpt>
      <trkpt lat="47.2622" lon="-2.3426">
        <ele>46.200000762939</ele>
        <time>2021-03-25T11:40:45.000Z</time>
      </trkpt>
      <trkpt lat="47.26191" lon="-2.34229">
        <ele>46.200000762939</ele>
        <time>2021-03-25T11:40:51.000Z</time>
      </trkpt>
      <trkpt lat="47.26153" lon="-2.34192">
        <ele>46.200000762939</ele>
        <time>2021-03-25T11:40:59.000Z</time>
      </trkpt>
      <trkpt lat="47.26142" lon="-2.34185">
        <ele>46.200000762939</ele>
        <time>2021-03-25T11:41:01.000Z</time>
      </trkpt>
      <trkpt lat="47.26131" lon="-2.34179">
        <ele>46.200000762939</ele>
        <time>2021-03-25T11:41:03.000Z</time>
      </trkpt>
      <trkpt lat="47.26111" lon="-2.3416">
        <ele>46.200000762939</ele>
        <time>2021-03-25T11:41:07.000Z</time>
      </trkpt>
      <trkpt lat="47.26093" lon="-2.34151">
        <ele>46.200000762939</ele>
        <time>2021-03-25T11:41:10.000Z</time>
      </trkpt>
      <trkpt lat="47.26075" lon="-2.34143">
        <ele>46.200000762939</ele>
        <time>2021-03-25T11:41:13.000Z</time>
      </trkpt>
      <trkpt lat="47.26058" lon="-2.34135">
        <ele>45.799999237061</ele>
        <time>2021-03-25T11:41:16.000Z</time>
      </trkpt>
      <trkpt lat="47.26052" lon="-2.34131">
        <ele>45.200000762939</ele>
        <time>2021-03-25T11:41:17.000Z</time>
      </trkpt>
      <trkpt lat="47.26046" lon="-2.34128">
        <ele>44.799999237061</ele>
        <time>2021-03-25T11:41:18.000Z</time>
      </trkpt>
      <trkpt lat="47.2604" lon="-2.34125">
        <ele>44</ele>
        <time>2021-03-25T11:41:19.000Z</time>
      </trkpt>
      <trkpt lat="47.26022" lon="-2.34117">
        <ele>44</ele>
        <time>2021-03-25T11:41:22.000Z</time>
      </trkpt>
      <trkpt lat="47.25983" lon="-2.34098">
        <ele>44</ele>
        <time>2021-03-25T11:41:29.000Z</time>
      </trkpt>
      <trkpt lat="47.25952" lon="-2.34084">
        <ele>44</ele>
        <time>2021-03-25T11:41:35.000Z</time>
      </trkpt>
      <trkpt lat="47.25908" lon="-2.3407">
        <ele>44</ele>
        <time>2021-03-25T11:41:43.000Z</time>
      </trkpt>
      <trkpt lat="47.25897" lon="-2.34048">
        <ele>44</ele>
        <time>2021-03-25T11:41:46.000Z</time>
      </trkpt>
      <trkpt lat="47.25901" lon="-2.34023">
        <ele>44</ele>
        <time>2021-03-25T11:41:49.000Z</time>
      </trkpt>
      <trkpt lat="47.25904" lon="-2.34015">
        <ele>44</ele>
        <time>2021-03-25T11:41:50.000Z</time>
      </trkpt>
      <trkpt lat="47.25913" lon="-2.33989">
        <ele>44</ele>
        <time>2021-03-25T11:41:53.000Z</time>
      </trkpt>
      <trkpt lat="47.2592" lon="-2.33973">
        <ele>44</ele>
        <time>2021-03-25T11:41:55.000Z</time>
      </trkpt>
      <trkpt lat="47.25922" lon="-2.33965">
        <ele>44</ele>
        <time>2021-03-25T11:41:56.000Z</time>
      </trkpt>
      <trkpt lat="47.25934" lon="-2.33933">
        <ele>44</ele>
        <time>2021-03-25T11:42:00.000Z</time>
      </trkpt>
      <trkpt lat="47.25942" lon="-2.3392">
        <ele>43.599998474121</ele>
        <time>2021-03-25T11:42:02.000Z</time>
      </trkpt>
      <trkpt lat="47.25944" lon="-2.33913">
        <ele>43.200000762939</ele>
        <time>2021-03-25T11:42:03.000Z</time>
      </trkpt>
      <trkpt lat="47.25947" lon="-2.33905">
        <ele>42.799999237061</ele>
        <time>2021-03-25T11:42:04.000Z</time>
      </trkpt>
      <trkpt lat="47.2595" lon="-2.33898">
        <ele>42.400001525879</ele>
        <time>2021-03-25T11:42:05.000Z</time>
      </trkpt>
      <trkpt lat="47.25953" lon="-2.3389">
        <ele>41.799999237061</ele>
        <time>2021-03-25T11:42:06.000Z</time>
      </trkpt>
      <trkpt lat="47.25959" lon="-2.33875">
        <ele>41.799999237061</ele>
        <time>2021-03-25T11:42:08.000Z</time>
      </trkpt>
      <trkpt lat="47.25965" lon="-2.33859">
        <ele>41.799999237061</ele>
        <time>2021-03-25T11:42:10.000Z</time>
      </trkpt>
      <trkpt lat="47.25971" lon="-2.33842">
        <ele>41.799999237061</ele>
        <time>2021-03-25T11:42:12.000Z</time>
      </trkpt>
      <trkpt lat="47.25978" lon="-2.33815">
        <ele>41.799999237061</ele>
        <time>2021-03-25T11:42:15.000Z</time>
      </trkpt>
      <trkpt lat="47.25983" lon="-2.33798">
        <ele>41.799999237061</ele>
        <time>2021-03-25T11:42:17.000Z</time>
      </trkpt>
      <trkpt lat="47.25994" lon="-2.33766">
        <ele>41.799999237061</ele>
        <time>2021-03-25T11:42:21.000Z</time>
      </trkpt>
      <trkpt lat="47.26018" lon="-2.33692">
        <ele>41.799999237061</ele>
        <time>2021-03-25T11:42:30.000Z</time>
      </trkpt>
      <trkpt lat="47.26027" lon="-2.33665">
        <ele>41.799999237061</ele>
        <time>2021-03-25T11:42:34.000Z</time>
      </trkpt>
      <trkpt lat="47.2604" lon="-2.33666">
        <ele>41.799999237061</ele>
        <time>2021-03-25T11:42:37.000Z</time>
      </trkpt>
      <trkpt lat="47.26054" lon="-2.33663">
        <ele>41.799999237061</ele>
        <time>2021-03-25T11:42:41.000Z</time>
      </trkpt>
      <trkpt lat="47.26057" lon="-2.33657">
        <ele>41.799999237061</ele>
        <time>2021-03-25T11:42:42.000Z</time>
      </trkpt>
      <trkpt lat="47.26063" lon="-2.33635">
        <ele>41.799999237061</ele>
        <time>2021-03-25T11:42:45.000Z</time>
      </trkpt>
      <trkpt lat="47.26066" lon="-2.33628">
        <ele>41.799999237061</ele>
        <time>2021-03-25T11:42:46.000Z</time>
      </trkpt>
      <trkpt lat="47.26074" lon="-2.33604">
        <ele>41.799999237061</ele>
        <time>2021-03-25T11:42:49.000Z</time>
      </trkpt>
      <trkpt lat="47.26079" lon="-2.33588">
        <ele>41.799999237061</ele>
        <time>2021-03-25T11:42:51.000Z</time>
      </trkpt>
      <trkpt lat="47.26102" lon="-2.33526">
        <ele>41.799999237061</ele>
        <time>2021-03-25T11:42:59.000Z</time>
      </trkpt>
      <trkpt lat="47.26122" lon="-2.33472">
        <ele>41.799999237061</ele>
        <time>2021-03-25T11:43:06.000Z</time>
      </trkpt>
      <trkpt lat="47.26135" lon="-2.33437">
        <ele>41.799999237061</ele>
        <time>2021-03-25T11:43:12.000Z</time>
      </trkpt>
      <trkpt lat="47.26138" lon="-2.33416">
        <ele>41.799999237061</ele>
        <time>2021-03-25T11:43:16.000Z</time>
      </trkpt>
      <trkpt lat="47.26134" lon="-2.33413">
        <ele>41.799999237061</ele>
        <time>2021-03-25T11:43:17.000Z</time>
      </trkpt>
      <trkpt lat="47.2612" lon="-2.33409">
        <ele>41.799999237061</ele>
        <time>2021-03-25T11:43:20.000Z</time>
      </trkpt>
      <trkpt lat="47.2611" lon="-2.33398">
        <ele>41.799999237061</ele>
        <time>2021-03-25T11:43:22.000Z</time>
      </trkpt>
      <trkpt lat="47.26106" lon="-2.33391">
        <ele>41.799999237061</ele>
        <time>2021-03-25T11:43:23.000Z</time>
      </trkpt>
      <trkpt lat="47.26093" lon="-2.33375">
        <ele>41.799999237061</ele>
        <time>2021-03-25T11:43:26.000Z</time>
      </trkpt>
      <trkpt lat="47.26084" lon="-2.33365">
        <ele>41.799999237061</ele>
        <time>2021-03-25T11:43:28.000Z</time>
      </trkpt>
      <trkpt lat="47.26073" lon="-2.33344">
        <ele>41.799999237061</ele>
        <time>2021-03-25T11:43:31.000Z</time>
      </trkpt>
      <trkpt lat="47.26068" lon="-2.33328">
        <ele>41.799999237061</ele>
        <time>2021-03-25T11:43:33.000Z</time>
      </trkpt>
      <trkpt lat="47.26043" lon="-2.33256">
        <ele>41.799999237061</ele>
        <time>2021-03-25T11:43:42.000Z</time>
      </trkpt>
      <trkpt lat="47.26018" lon="-2.33185">
        <ele>41.799999237061</ele>
        <time>2021-03-25T11:43:51.000Z</time>
      </trkpt>
      <trkpt lat="47.25994" lon="-2.33116">
        <ele>41.799999237061</ele>
        <time>2021-03-25T11:44:00.000Z</time>
      </trkpt>
      <trkpt lat="47.25991" lon="-2.33101">
        <ele>41.799999237061</ele>
        <time>2021-03-25T11:44:02.000Z</time>
      </trkpt>
      <trkpt lat="47.25988" lon="-2.33085">
        <ele>41.799999237061</ele>
        <time>2021-03-25T11:44:04.000Z</time>
      </trkpt>
      <trkpt lat="47.25985" lon="-2.33078">
        <ele>41.799999237061</ele>
        <time>2021-03-25T11:44:05.000Z</time>
      </trkpt>
      <trkpt lat="47.25966" lon="-2.3303">
        <ele>41.799999237061</ele>
        <time>2021-03-25T11:44:12.000Z</time>
      </trkpt>
      <trkpt lat="47.25948" lon="-2.32978">
        <ele>41.799999237061</ele>
        <time>2021-03-25T11:44:19.000Z</time>
      </trkpt>
      <trkpt lat="47.25928" lon="-2.32922">
        <ele>41.799999237061</ele>
        <time>2021-03-25T11:44:26.000Z</time>
      </trkpt>
      <trkpt lat="47.25906" lon="-2.32868">
        <ele>41.799999237061</ele>
        <time>2021-03-25T11:44:33.000Z</time>
      </trkpt>
      <trkpt lat="47.25881" lon="-2.32796">
        <ele>41.799999237061</ele>
        <time>2021-03-25T11:44:42.000Z</time>
      </trkpt>
      <trkpt lat="47.25862" lon="-2.32734">
        <ele>41.799999237061</ele>
        <time>2021-03-25T11:44:50.000Z</time>
      </trkpt>
      <trkpt lat="47.25861" lon="-2.32713">
        <ele>41.799999237061</ele>
        <time>2021-03-25T11:44:53.000Z</time>
      </trkpt>
      <trkpt lat="47.25852" lon="-2.32696">
        <ele>41.799999237061</ele>
        <time>2021-03-25T11:44:56.000Z</time>
      </trkpt>
      <trkpt lat="47.25845" lon="-2.32673">
        <ele>41.799999237061</ele>
        <time>2021-03-25T11:44:59.000Z</time>
      </trkpt>
      <trkpt lat="47.25843" lon="-2.32664">
        <ele>41.799999237061</ele>
        <time>2021-03-25T11:45:00.000Z</time>
      </trkpt>
      <trkpt lat="47.25827" lon="-2.32598">
        <ele>41.799999237061</ele>
        <time>2021-03-25T11:45:08.000Z</time>
      </trkpt>
      <trkpt lat="47.25813" lon="-2.32541">
        <ele>41.799999237061</ele>
        <time>2021-03-25T11:45:15.000Z</time>
      </trkpt>
      <trkpt lat="47.25802" lon="-2.32493">
        <ele>41.799999237061</ele>
        <time>2021-03-25T11:45:21.000Z</time>
      </trkpt>
      <trkpt lat="47.25799" lon="-2.32471">
        <ele>41.799999237061</ele>
        <time>2021-03-25T11:45:25.000Z</time>
      </trkpt>
      <trkpt lat="47.25801" lon="-2.32466">
        <ele>41.799999237061</ele>
        <time>2021-03-25T11:45:26.000Z</time>
      </trkpt>
      <trkpt lat="47.25806" lon="-2.32459">
        <ele>41.799999237061</ele>
        <time>2021-03-25T11:45:28.000Z</time>
      </trkpt>
      <trkpt lat="47.2581" lon="-2.32456">
        <ele>41.799999237061</ele>
        <time>2021-03-25T11:45:29.000Z</time>
      </trkpt>
      <trkpt lat="47.25819" lon="-2.32458">
        <ele>41.799999237061</ele>
        <time>2021-03-25T11:45:31.000Z</time>
      </trkpt>
      <trkpt lat="47.25828" lon="-2.32464">
        <ele>41.799999237061</ele>
        <time>2021-03-25T11:45:33.000Z</time>
      </trkpt>
      <trkpt lat="47.25833" lon="-2.32467">
        <ele>41.799999237061</ele>
        <time>2021-03-25T11:45:34.000Z</time>
      </trkpt>
      <trkpt lat="47.25838" lon="-2.32469">
        <ele>41.799999237061</ele>
        <time>2021-03-25T11:45:35.000Z</time>
      </trkpt>
      <trkpt lat="47.25865" lon="-2.32471">
        <ele>41.799999237061</ele>
        <time>2021-03-25T11:45:40.000Z</time>
      </trkpt>
      <trkpt lat="47.25871" lon="-2.3247">
        <ele>41.799999237061</ele>
        <time>2021-03-25T11:45:41.000Z</time>
      </trkpt>
      <trkpt lat="47.25886" lon="-2.32468">
        <ele>41.799999237061</ele>
        <time>2021-03-25T11:45:44.000Z</time>
      </trkpt>
      <trkpt lat="47.25897" lon="-2.32462">
        <ele>41.799999237061</ele>
        <time>2021-03-25T11:45:46.000Z</time>
      </trkpt>
      <trkpt lat="47.25914" lon="-2.3244">
        <ele>41.799999237061</ele>
        <time>2021-03-25T11:45:50.000Z</time>
      </trkpt>
      <trkpt lat="47.25948" lon="-2.32395">
        <ele>41.799999237061</ele>
        <time>2021-03-25T11:45:58.000Z</time>
      </trkpt>
      <trkpt lat="47.25974" lon="-2.3236">
        <ele>41.799999237061</ele>
        <time>2021-03-25T11:46:05.000Z</time>
      </trkpt>
      <trkpt lat="47.25978" lon="-2.32353">
        <ele>41.799999237061</ele>
        <time>2021-03-25T11:46:08.000Z</time>
      </trkpt>
      <trkpt lat="47.25988" lon="-2.32344">
        <ele>41.799999237061</ele>
        <time>2021-03-25T11:46:13.000Z</time>
      </trkpt>
      <trkpt lat="47.26005" lon="-2.32322">
        <ele>41.799999237061</ele>
        <time>2021-03-25T11:46:18.000Z</time>
      </trkpt>
      <trkpt lat="47.26016" lon="-2.32308">
        <ele>41.799999237061</ele>
        <time>2021-03-25T11:46:21.000Z</time>
      </trkpt>
      <trkpt lat="47.26029" lon="-2.32293">
        <ele>41.799999237061</ele>
        <time>2021-03-25T11:46:24.000Z</time>
      </trkpt>
      <trkpt lat="47.26064" lon="-2.32254">
        <ele>41.799999237061</ele>
        <time>2021-03-25T11:46:32.000Z</time>
      </trkpt>
      <trkpt lat="47.26088" lon="-2.32224">
        <ele>41.799999237061</ele>
        <time>2021-03-25T11:46:38.000Z</time>
      </trkpt>
      <trkpt lat="47.2611" lon="-2.3218">
        <ele>41.799999237061</ele>
        <time>2021-03-25T11:46:45.000Z</time>
      </trkpt>
      <trkpt lat="47.26128" lon="-2.32131">
        <ele>41.799999237061</ele>
        <time>2021-03-25T11:46:52.000Z</time>
      </trkpt>
      <trkpt lat="47.26142" lon="-2.32084">
        <ele>41.799999237061</ele>
        <time>2021-03-25T11:46:59.000Z</time>
      </trkpt>
      <trkpt lat="47.26146" lon="-2.32071">
        <ele>41.799999237061</ele>
        <time>2021-03-25T11:47:01.000Z</time>
      </trkpt>
      <trkpt lat="47.26153" lon="-2.32052">
        <ele>41.799999237061</ele>
        <time>2021-03-25T11:47:04.000Z</time>
      </trkpt>
      <trkpt lat="47.26156" lon="-2.32045">
        <ele>41.799999237061</ele>
        <time>2021-03-25T11:47:05.000Z</time>
      </trkpt>
      <trkpt lat="47.2616" lon="-2.32033">
        <ele>41.799999237061</ele>
        <time>2021-03-25T11:47:07.000Z</time>
      </trkpt>
      <trkpt lat="47.26167" lon="-2.32019">
        <ele>41.799999237061</ele>
        <time>2021-03-25T11:47:10.000Z</time>
      </trkpt>
      <trkpt lat="47.2617" lon="-2.32018">
        <ele>41.799999237061</ele>
        <time>2021-03-25T11:47:11.000Z</time>
      </trkpt>
      <trkpt lat="47.26176" lon="-2.32019">
        <ele>41.799999237061</ele>
        <time>2021-03-25T11:47:13.000Z</time>
      </trkpt>
      <trkpt lat="47.26192" lon="-2.32023">
        <ele>41.799999237061</ele>
        <time>2021-03-25T11:47:18.000Z</time>
      </trkpt>
      <trkpt lat="47.26194" lon="-2.32021">
        <ele>41.799999237061</ele>
        <time>2021-03-25T11:47:19.000Z</time>
      </trkpt>
      <trkpt lat="47.26195" lon="-2.32012">
        <ele>41.799999237061</ele>
        <time>2021-03-25T11:47:21.000Z</time>
      </trkpt>
      <trkpt lat="47.26199" lon="-2.32001">
        <ele>41.799999237061</ele>
        <time>2021-03-25T11:47:24.000Z</time>
      </trkpt>
      <trkpt lat="47.26202" lon="-2.32">
        <ele>41.799999237061</ele>
        <time>2021-03-25T11:47:25.000Z</time>
      </trkpt>
      <trkpt lat="47.26214" lon="-2.31984">
        <ele>41.799999237061</ele>
        <time>2021-03-25T11:47:30.000Z</time>
      </trkpt>
      <trkpt lat="47.26226" lon="-2.31978">
        <ele>41.799999237061</ele>
        <time>2021-03-25T11:47:35.000Z</time>
      </trkpt>
      <trkpt lat="47.26237" lon="-2.31965">
        <ele>41.799999237061</ele>
        <time>2021-03-25T11:47:39.000Z</time>
      </trkpt>
      <trkpt lat="47.26239" lon="-2.3196">
        <ele>41.799999237061</ele>
        <time>2021-03-25T11:47:40.000Z</time>
      </trkpt>
      <trkpt lat="47.26249" lon="-2.31942">
        <ele>41.799999237061</ele>
        <time>2021-03-25T11:47:44.000Z</time>
      </trkpt>
      <trkpt lat="47.2626" lon="-2.31919">
        <ele>41.799999237061</ele>
        <time>2021-03-25T11:47:50.000Z</time>
      </trkpt>
      <trkpt lat="47.26277" lon="-2.31898">
        <ele>41.799999237061</ele>
        <time>2021-03-25T11:47:55.000Z</time>
      </trkpt>
      <trkpt lat="47.26295" lon="-2.3188">
        <ele>41.799999237061</ele>
        <time>2021-03-25T11:47:59.000Z</time>
      </trkpt>
      <trkpt lat="47.26298" lon="-2.31867">
        <ele>41.799999237061</ele>
        <time>2021-03-25T11:48:01.000Z</time>
      </trkpt>
      <trkpt lat="47.26298" lon="-2.31855">
        <ele>41.799999237061</ele>
        <time>2021-03-25T11:48:03.000Z</time>
      </trkpt>
      <trkpt lat="47.26299" lon="-2.31843">
        <ele>41.799999237061</ele>
        <time>2021-03-25T11:48:05.000Z</time>
      </trkpt>
      <trkpt lat="47.26302" lon="-2.31826">
        <ele>41.799999237061</ele>
        <time>2021-03-25T11:48:08.000Z</time>
      </trkpt>
      <trkpt lat="47.26305" lon="-2.31795">
        <ele>41.799999237061</ele>
        <time>2021-03-25T11:48:13.000Z</time>
      </trkpt>
      <trkpt lat="47.26305" lon="-2.31789">
        <ele>41.799999237061</ele>
        <time>2021-03-25T11:48:14.000Z</time>
      </trkpt>
      <trkpt lat="47.26302" lon="-2.31759">
        <ele>41.799999237061</ele>
        <time>2021-03-25T11:48:19.000Z</time>
      </trkpt>
      <trkpt lat="47.26301" lon="-2.31717">
        <ele>41.799999237061</ele>
        <time>2021-03-25T11:48:26.000Z</time>
      </trkpt>
      <trkpt lat="47.26311" lon="-2.31706">
        <ele>41.799999237061</ele>
        <time>2021-03-25T11:48:30.000Z</time>
      </trkpt>
      <trkpt lat="47.26329" lon="-2.31695">
        <ele>41.799999237061</ele>
        <time>2021-03-25T11:48:35.000Z</time>
      </trkpt>
      <trkpt lat="47.26335" lon="-2.31688">
        <ele>41.799999237061</ele>
        <time>2021-03-25T11:48:37.000Z</time>
      </trkpt>
      <trkpt lat="47.26337" lon="-2.31687">
        <ele>42.400001525879</ele>
        <time>2021-03-25T11:48:38.000Z</time>
      </trkpt>
      <trkpt lat="47.26341" lon="-2.31685">
        <ele>42.799999237061</ele>
        <time>2021-03-25T11:48:39.000Z</time>
      </trkpt>
      <trkpt lat="47.26344" lon="-2.31683">
        <ele>43.200000762939</ele>
        <time>2021-03-25T11:48:40.000Z</time>
      </trkpt>
      <trkpt lat="47.26347" lon="-2.31681">
        <ele>43.599998474121</ele>
        <time>2021-03-25T11:48:41.000Z</time>
      </trkpt>
      <trkpt lat="47.2635" lon="-2.31679">
        <ele>44</ele>
        <time>2021-03-25T11:48:42.000Z</time>
      </trkpt>
      <trkpt lat="47.26363" lon="-2.31673">
        <ele>44</ele>
        <time>2021-03-25T11:48:46.000Z</time>
      </trkpt>
      <trkpt lat="47.2638" lon="-2.31666">
        <ele>44.599998474121</ele>
        <time>2021-03-25T11:48:51.000Z</time>
      </trkpt>
      <trkpt lat="47.26383" lon="-2.31663">
        <ele>45</ele>
        <time>2021-03-25T11:48:52.000Z</time>
      </trkpt>
      <trkpt lat="47.26386" lon="-2.31661">
        <ele>45.400001525879</ele>
        <time>2021-03-25T11:48:53.000Z</time>
      </trkpt>
      <trkpt lat="47.26389" lon="-2.31659">
        <ele>45.799999237061</ele>
        <time>2021-03-25T11:48:54.000Z</time>
      </trkpt>
      <trkpt lat="47.26392" lon="-2.31658">
        <ele>46.200000762939</ele>
        <time>2021-03-25T11:48:55.000Z</time>
      </trkpt>
      <trkpt lat="47.26401" lon="-2.31654">
        <ele>46.200000762939</ele>
        <time>2021-03-25T11:48:59.000Z</time>
      </trkpt>
      <trkpt lat="47.26411" lon="-2.31641">
        <ele>46.200000762939</ele>
        <time>2021-03-25T11:49:03.000Z</time>
      </trkpt>
      <trkpt lat="47.26411" lon="-2.31613">
        <ele>46.200000762939</ele>
        <time>2021-03-25T11:49:09.000Z</time>
      </trkpt>
      <trkpt lat="47.26411" lon="-2.31578">
        <ele>46.200000762939</ele>
        <time>2021-03-25T11:49:16.000Z</time>
      </trkpt>
      <trkpt lat="47.2641" lon="-2.31551">
        <ele>46.200000762939</ele>
        <time>2021-03-25T11:49:22.000Z</time>
      </trkpt>
      <trkpt lat="47.26413" lon="-2.31549">
        <ele>46.200000762939</ele>
        <time>2021-03-25T11:49:23.000Z</time>
      </trkpt>
      <trkpt lat="47.26417" lon="-2.31551">
        <ele>46.200000762939</ele>
        <time>2021-03-25T11:49:25.000Z</time>
      </trkpt>
      <trkpt lat="47.26418" lon="-2.31552">
        <ele>46.200000762939</ele>
        <time>2021-03-25T11:49:28.000Z</time>
      </trkpt>
    </trkseg>
  </trk>
</gpx>